<?xml version='1.0' encoding='UTF-8'?><gpx version="1.1" creator="JPX - https://github.com/jenetics/jpx" xmlns="http://www.topografix.com/GPX/1/1"><trk><trkseg><trkpt lat="44.1850105" lon="12.1150031"><ele>29.0</ele><time>2026-04-09T12:01:53.891Z</time></trkpt><trkpt lat="44.1850485" lon="12.1149146"><ele>29.0</ele><time>2026-04-09T12:02:28.228Z</time></trkpt><trkpt lat="44.1851033" lon="12.1146633"><ele>29.0</ele><time>2026-04-09T12:02:32.212Z</time></trkpt><trkpt lat="44.1851333" lon="12.1145817"><ele>29.0</ele><time>2026-04-09T12:02:37.212Z</time></trkpt><trkpt lat="44.18513" lon="12.1144933"><ele>29.0</ele><time>2026-04-09T12:02:44.212Z</time></trkpt><trkpt lat="44.1850867" lon="12.1143117"><ele>28.833333333333332</ele><time>2026-04-09T12:02:47.212Z</time></trkpt><trkpt lat="44.1850683" lon="12.114205"><ele>28.666666666666664</ele><time>2026-04-09T12:02:49.212Z</time></trkpt><trkpt lat="44.185055" lon="12.1141"><ele>28.5</ele><time>2026-04-09T12:02:51.212Z</time></trkpt><trkpt lat="44.1850233" lon="12.113985"><ele>28.333333333333336</ele><time>2026-04-09T12:02:53.212Z</time></trkpt><trkpt lat="44.1849833" lon="12.1138967"><ele>28.166666666666668</ele><time>2026-04-09T12:02:55.212Z</time></trkpt><trkpt lat="44.1849383" lon="12.1137967"><ele>28.0</ele><time>2026-04-09T12:02:57.212Z</time></trkpt><trkpt lat="44.184885" lon="12.1137117"><ele>28.2</ele><time>2026-04-09T12:02:59.212Z</time></trkpt><trkpt lat="44.18482" lon="12.1136283"><ele>28.4</ele><time>2026-04-09T12:03:01.212Z</time></trkpt><trkpt lat="44.18475" lon="12.11355"><ele>28.599999999999998</ele><time>2026-04-09T12:03:03.212Z</time></trkpt><trkpt lat="44.184675" lon="12.1134783"><ele>28.799999999999997</ele><time>2026-04-09T12:03:05.212Z</time></trkpt><trkpt lat="44.184595" lon="12.1134083"><ele>29.0</ele><time>2026-04-09T12:03:07.212Z</time></trkpt><trkpt lat="44.1845167" lon="12.11334"><ele>28.999999999999996</ele><time>2026-04-09T12:03:09.212Z</time></trkpt><trkpt lat="44.1844383" lon="12.1132733"><ele>29.0</ele><time>2026-04-09T12:03:11.212Z</time></trkpt><trkpt lat="44.1843667" lon="12.1132133"><ele>29.0</ele><time>2026-04-09T12:03:13.212Z</time></trkpt><trkpt lat="44.1842933" lon="12.1131717"><ele>29.0</ele><time>2026-04-09T12:03:15.212Z</time></trkpt><trkpt lat="44.1842133" lon="12.1131283"><ele>28.999999999999996</ele><time>2026-04-09T12:03:17.212Z</time></trkpt><trkpt lat="44.1841367" lon="12.113115"><ele>29.0</ele><time>2026-04-09T12:03:19.212Z</time></trkpt><trkpt lat="44.1840517" lon="12.11313"><ele>28.6</ele><time>2026-04-09T12:03:21.212Z</time></trkpt><trkpt lat="44.183935" lon="12.1130633"><ele>28.2</ele><time>2026-04-09T12:03:28.211Z</time></trkpt><trkpt lat="44.1838233" lon="12.113045"><ele>27.800000000000004</ele><time>2026-04-09T12:03:30.211Z</time></trkpt><trkpt lat="44.183705" lon="12.11306"><ele>27.400000000000002</ele><time>2026-04-09T12:03:32.211Z</time></trkpt><trkpt lat="44.1836383" lon="12.113085"><ele>27.0</ele><time>2026-04-09T12:03:33.211Z</time></trkpt><trkpt lat="44.1835067" lon="12.1131067"><ele>27.0</ele><time>2026-04-09T12:03:35.211Z</time></trkpt><trkpt lat="44.1834283" lon="12.1131733"><ele>27.000000000000004</ele><time>2026-04-09T12:03:36.211Z</time></trkpt><trkpt lat="44.1833267" lon="12.1132033"><ele>27.000000000000004</ele><time>2026-04-09T12:03:38.211Z</time></trkpt><trkpt lat="44.1832183" lon="12.1132283"><ele>27.0</ele><time>2026-04-09T12:03:40.211Z</time></trkpt><trkpt lat="44.1831467" lon="12.1132433"><ele>27.0</ele><time>2026-04-09T12:03:41.211Z</time></trkpt><trkpt lat="44.1830367" lon="12.11326"><ele>27.200000000000003</ele><time>2026-04-09T12:03:43.211Z</time></trkpt><trkpt lat="44.1829383" lon="12.1132883"><ele>27.400000000000002</ele><time>2026-04-09T12:03:45.211Z</time></trkpt><trkpt lat="44.18285" lon="12.1133467"><ele>27.599999999999998</ele><time>2026-04-09T12:03:47.211Z</time></trkpt><trkpt lat="44.1827783" lon="12.1134233"><ele>27.799999999999997</ele><time>2026-04-09T12:03:49.211Z</time></trkpt><trkpt lat="44.1827167" lon="12.1135417"><ele>28.0</ele><time>2026-04-09T12:03:51.211Z</time></trkpt><trkpt lat="44.1826767" lon="12.1136833"><ele>28.0</ele><time>2026-04-09T12:03:53.211Z</time></trkpt><trkpt lat="44.1826467" lon="12.1138183"><ele>27.999999999999996</ele><time>2026-04-09T12:03:55.211Z</time></trkpt><trkpt lat="44.18261" lon="12.1139367"><ele>27.999999999999996</ele><time>2026-04-09T12:03:57.211Z</time></trkpt><trkpt lat="44.1825733" lon="12.11405"><ele>28.0</ele><time>2026-04-09T12:03:59.211Z</time></trkpt><trkpt lat="44.1825267" lon="12.11417"><ele>28.0</ele><time>2026-04-09T12:04:01.211Z</time></trkpt><trkpt lat="44.18248" lon="12.114285"><ele>28.0</ele><time>2026-04-09T12:04:03.211Z</time></trkpt><trkpt lat="44.1824433" lon="12.1144017"><ele>27.999999999999996</ele><time>2026-04-09T12:04:05.211Z</time></trkpt><trkpt lat="44.1823983" lon="12.1145133"><ele>27.999999999999996</ele><time>2026-04-09T12:04:07.211Z</time></trkpt><trkpt lat="44.1823583" lon="12.1146267"><ele>28.0</ele><time>2026-04-09T12:04:09.211Z</time></trkpt><trkpt lat="44.1823083" lon="12.1147567"><ele>28.0</ele><time>2026-04-09T12:04:11.211Z</time></trkpt><trkpt lat="44.1822533" lon="12.1148783"><ele>27.799999999999997</ele><time>2026-04-09T12:04:13.211Z</time></trkpt><trkpt lat="44.1822067" lon="12.115"><ele>27.599999999999998</ele><time>2026-04-09T12:04:15.211Z</time></trkpt><trkpt lat="44.182155" lon="12.115145"><ele>27.400000000000002</ele><time>2026-04-09T12:04:17.211Z</time></trkpt><trkpt lat="44.1820867" lon="12.1152483"><ele>27.200000000000003</ele><time>2026-04-09T12:04:19.211Z</time></trkpt><trkpt lat="44.18203" lon="12.1153717"><ele>27.0</ele><time>2026-04-09T12:04:21.211Z</time></trkpt><trkpt lat="44.1819717" lon="12.1154833"><ele>27.0</ele><time>2026-04-09T12:04:23.211Z</time></trkpt><trkpt lat="44.18191" lon="12.11561"><ele>27.000000000000004</ele><time>2026-04-09T12:04:25.211Z</time></trkpt><trkpt lat="44.181855" lon="12.1157417"><ele>27.000000000000004</ele><time>2026-04-09T12:04:27.211Z</time></trkpt><trkpt lat="44.1818083" lon="12.1158667"><ele>27.0</ele><time>2026-04-09T12:04:29.211Z</time></trkpt><trkpt lat="44.1817633" lon="12.1159817"><ele>27.0</ele><time>2026-04-09T12:04:31.211Z</time></trkpt><trkpt lat="44.1817233" lon="12.116105"><ele>27.333333333333332</ele><time>2026-04-09T12:04:33.211Z</time></trkpt><trkpt lat="44.1817267" lon="12.1162133"><ele>27.666666666666664</ele><time>2026-04-09T12:04:35.211Z</time></trkpt><trkpt lat="44.1817" lon="12.1163017"><ele>28.0</ele><time>2026-04-09T12:04:37.211Z</time></trkpt><trkpt lat="44.1816667" lon="12.116415"><ele>28.333333333333332</ele><time>2026-04-09T12:04:40.211Z</time></trkpt><trkpt lat="44.18164" lon="12.116555"><ele>28.666666666666664</ele><time>2026-04-09T12:04:43.211Z</time></trkpt><trkpt lat="44.1816167" lon="12.116665"><ele>29.0</ele><time>2026-04-09T12:04:45.211Z</time></trkpt><trkpt lat="44.1816017" lon="12.116765"><ele>29.166666666666664</ele><time>2026-04-09T12:04:47.211Z</time></trkpt><trkpt lat="44.181665" lon="12.116855"><ele>29.333333333333332</ele><time>2026-04-09T12:04:50.211Z</time></trkpt><trkpt lat="44.181725" lon="12.116925"><ele>29.5</ele><time>2026-04-09T12:04:52.211Z</time></trkpt><trkpt lat="44.181795" lon="12.1169967"><ele>29.666666666666664</ele><time>2026-04-09T12:04:54.211Z</time></trkpt><trkpt lat="44.1818617" lon="12.1170567"><ele>29.833333333333332</ele><time>2026-04-09T12:04:56.211Z</time></trkpt><trkpt lat="44.1819217" lon="12.117145"><ele>30.0</ele><time>2026-04-09T12:04:58.211Z</time></trkpt><trkpt lat="44.1819583" lon="12.1172683"><ele>30.0</ele><time>2026-04-09T12:05:00.211Z</time></trkpt><trkpt lat="44.1819533" lon="12.1174"><ele>30.0</ele><time>2026-04-09T12:05:02.211Z</time></trkpt><trkpt lat="44.18191" lon="12.1175233"><ele>30.0</ele><time>2026-04-09T12:05:04.211Z</time></trkpt><trkpt lat="44.1818567" lon="12.1176333"><ele>30.0</ele><time>2026-04-09T12:05:06.211Z</time></trkpt><trkpt lat="44.18181" lon="12.1177583"><ele>30.0</ele><time>2026-04-09T12:05:08.211Z</time></trkpt><trkpt lat="44.1817633" lon="12.1178767"><ele>30.2</ele><time>2026-04-09T12:05:10.211Z</time></trkpt><trkpt lat="44.1817133" lon="12.118005"><ele>30.4</ele><time>2026-04-09T12:05:12.211Z</time></trkpt><trkpt lat="44.181675" lon="12.1181467"><ele>30.6</ele><time>2026-04-09T12:05:14.211Z</time></trkpt><trkpt lat="44.1816433" lon="12.11828"><ele>30.8</ele><time>2026-04-09T12:05:16.211Z</time></trkpt><trkpt lat="44.1816033" lon="12.1184033"><ele>31.0</ele><time>2026-04-09T12:05:18.211Z</time></trkpt><trkpt lat="44.1815517" lon="12.1185367"><ele>31.0</ele><time>2026-04-09T12:05:20.211Z</time></trkpt><trkpt lat="44.181505" lon="12.1186717"><ele>31.0</ele><time>2026-04-09T12:05:22.212Z</time></trkpt><trkpt lat="44.181445" lon="12.118805"><ele>31.0</ele><time>2026-04-09T12:05:24.211Z</time></trkpt><trkpt lat="44.18141" lon="12.11893"><ele>31.0</ele><time>2026-04-09T12:05:26.211Z</time></trkpt><trkpt lat="44.1813617" lon="12.1190133"><ele>31.0</ele><time>2026-04-09T12:05:27.211Z</time></trkpt><trkpt lat="44.181315" lon="12.11914"><ele>31.0</ele><time>2026-04-09T12:05:29.211Z</time></trkpt><trkpt lat="44.181275" lon="12.1192817"><ele>31.0</ele><time>2026-04-09T12:05:31.211Z</time></trkpt><trkpt lat="44.181225" lon="12.1194183"><ele>31.0</ele><time>2026-04-09T12:05:33.211Z</time></trkpt><trkpt lat="44.18117" lon="12.11955"><ele>31.0</ele><time>2026-04-09T12:05:35.211Z</time></trkpt><trkpt lat="44.1811383" lon="12.1196283"><ele>31.0</ele><time>2026-04-09T12:05:36.211Z</time></trkpt><trkpt lat="44.18108" lon="12.1197733"><ele>31.200000000000003</ele><time>2026-04-09T12:05:38.211Z</time></trkpt><trkpt lat="44.1810233" lon="12.119915"><ele>31.400000000000002</ele><time>2026-04-09T12:05:40.211Z</time></trkpt><trkpt lat="44.180965" lon="12.1200433"><ele>31.6</ele><time>2026-04-09T12:05:42.211Z</time></trkpt><trkpt lat="44.1809083" lon="12.1201683"><ele>31.8</ele><time>2026-04-09T12:05:44.211Z</time></trkpt><trkpt lat="44.1808517" lon="12.1202933"><ele>32.0</ele><time>2026-04-09T12:05:46.211Z</time></trkpt><trkpt lat="44.1808" lon="12.1204117"><ele>31.999999999999996</ele><time>2026-04-09T12:05:48.211Z</time></trkpt><trkpt lat="44.1807583" lon="12.1205183"><ele>32.0</ele><time>2026-04-09T12:05:50.211Z</time></trkpt><trkpt lat="44.180715" lon="12.12063"><ele>32.0</ele><time>2026-04-09T12:05:52.211Z</time></trkpt><trkpt lat="44.1806533" lon="12.1206767"><ele>32.0</ele><time>2026-04-09T12:05:55.211Z</time></trkpt><trkpt lat="44.1805767" lon="12.1206517"><ele>31.999999999999996</ele><time>2026-04-09T12:05:59.211Z</time></trkpt><trkpt lat="44.1805167" lon="12.12061"><ele>32.0</ele><time>2026-04-09T12:06:01.211Z</time></trkpt><trkpt lat="44.1804483" lon="12.1205433"><ele>32.0</ele><time>2026-04-09T12:06:03.211Z</time></trkpt><trkpt lat="44.1803717" lon="12.1204683"><ele>32.0</ele><time>2026-04-09T12:06:05.211Z</time></trkpt><trkpt lat="44.1802917" lon="12.1203983"><ele>32.0</ele><time>2026-04-09T12:06:07.212Z</time></trkpt><trkpt lat="44.18021" lon="12.1203183"><ele>32.0</ele><time>2026-04-09T12:06:09.211Z</time></trkpt><trkpt lat="44.180125" lon="12.12025"><ele>32.0</ele><time>2026-04-09T12:06:11.212Z</time></trkpt><trkpt lat="44.1800367" lon="12.1201783"><ele>32.0</ele><time>2026-04-09T12:06:13.211Z</time></trkpt><trkpt lat="44.1799383" lon="12.12011"><ele>32.0</ele><time>2026-04-09T12:06:15.211Z</time></trkpt><trkpt lat="44.17984" lon="12.120045"><ele>32.0</ele><time>2026-04-09T12:06:17.211Z</time></trkpt><trkpt lat="44.1797417" lon="12.1199783"><ele>32.0</ele><time>2026-04-09T12:06:19.211Z</time></trkpt><trkpt lat="44.179645" lon="12.1199017"><ele>32.0</ele><time>2026-04-09T12:06:21.211Z</time></trkpt><trkpt lat="44.17955" lon="12.1198217"><ele>32.0</ele><time>2026-04-09T12:06:23.211Z</time></trkpt><trkpt lat="44.17944" lon="12.1197433"><ele>32.0</ele><time>2026-04-09T12:06:25.211Z</time></trkpt><trkpt lat="44.1793383" lon="12.1196683"><ele>32.0</ele><time>2026-04-09T12:06:27.211Z</time></trkpt><trkpt lat="44.17924" lon="12.1196"><ele>32.0</ele><time>2026-04-09T12:06:29.211Z</time></trkpt><trkpt lat="44.17914" lon="12.1195517"><ele>32.0</ele><time>2026-04-09T12:06:31.211Z</time></trkpt><trkpt lat="44.1790367" lon="12.1195383"><ele>32.0</ele><time>2026-04-09T12:06:33.211Z</time></trkpt><trkpt lat="44.178945" lon="12.1195683"><ele>32.0</ele><time>2026-04-09T12:06:35.211Z</time></trkpt><trkpt lat="44.1788583" lon="12.1196617"><ele>32.0</ele><time>2026-04-09T12:06:37.211Z</time></trkpt><trkpt lat="44.1787783" lon="12.11977"><ele>32.0</ele><time>2026-04-09T12:06:39.211Z</time></trkpt><trkpt lat="44.1786967" lon="12.11988"><ele>32.2</ele><time>2026-04-09T12:06:41.211Z</time></trkpt><trkpt lat="44.1786183" lon="12.1199867"><ele>32.400000000000006</ele><time>2026-04-09T12:06:43.211Z</time></trkpt><trkpt lat="44.178535" lon="12.1200733"><ele>32.599999999999994</ele><time>2026-04-09T12:06:45.211Z</time></trkpt><trkpt lat="44.17844" lon="12.120135"><ele>32.8</ele><time>2026-04-09T12:06:47.211Z</time></trkpt><trkpt lat="44.1783333" lon="12.1201667"><ele>33.0</ele><time>2026-04-09T12:06:49.211Z</time></trkpt><trkpt lat="44.1782233" lon="12.1201817"><ele>33.0</ele><time>2026-04-09T12:06:51.211Z</time></trkpt><trkpt lat="44.1781017" lon="12.1201817"><ele>33.0</ele><time>2026-04-09T12:06:53.211Z</time></trkpt><trkpt lat="44.1780317" lon="12.120175"><ele>33.0</ele><time>2026-04-09T12:06:54.211Z</time></trkpt><trkpt lat="44.1779683" lon="12.1201617"><ele>33.0</ele><time>2026-04-09T12:06:55.211Z</time></trkpt><trkpt lat="44.177855" lon="12.12012"><ele>33.0</ele><time>2026-04-09T12:06:57.211Z</time></trkpt><trkpt lat="44.1777467" lon="12.120065"><ele>33.0</ele><time>2026-04-09T12:06:59.211Z</time></trkpt><trkpt lat="44.1776417" lon="12.119995"><ele>33.0</ele><time>2026-04-09T12:07:01.211Z</time></trkpt><trkpt lat="44.1775333" lon="12.1199217"><ele>33.0</ele><time>2026-04-09T12:07:03.211Z</time></trkpt><trkpt lat="44.1774283" lon="12.1198517"><ele>33.0</ele><time>2026-04-09T12:07:05.212Z</time></trkpt><trkpt lat="44.1773233" lon="12.119775"><ele>32.5</ele><time>2026-04-09T12:07:07.212Z</time></trkpt><trkpt lat="44.1772133" lon="12.1196967"><ele>32.0</ele><time>2026-04-09T12:07:09.212Z</time></trkpt><trkpt lat="44.1771033" lon="12.119615"><ele>31.5</ele><time>2026-04-09T12:07:11.212Z</time></trkpt><trkpt lat="44.1770467" lon="12.1195733"><ele>31.0</ele><time>2026-04-09T12:07:12.212Z</time></trkpt><trkpt lat="44.17699" lon="12.1195333"><ele>30.5</ele><time>2026-04-09T12:07:13.212Z</time></trkpt><trkpt lat="44.176935" lon="12.119485"><ele>30.0</ele><time>2026-04-09T12:07:14.212Z</time></trkpt><trkpt lat="44.176825" lon="12.1194117"><ele>30.0</ele><time>2026-04-09T12:07:16.212Z</time></trkpt><trkpt lat="44.1767667" lon="12.119375"><ele>30.0</ele><time>2026-04-09T12:07:17.212Z</time></trkpt><trkpt lat="44.176655" lon="12.119295"><ele>30.0</ele><time>2026-04-09T12:07:19.212Z</time></trkpt><trkpt lat="44.1765967" lon="12.119255"><ele>30.0</ele><time>2026-04-09T12:07:20.212Z</time></trkpt><trkpt lat="44.17654" lon="12.1192167"><ele>30.0</ele><time>2026-04-09T12:07:21.212Z</time></trkpt><trkpt lat="44.1764333" lon="12.119145"><ele>30.0</ele><time>2026-04-09T12:07:23.212Z</time></trkpt><trkpt lat="44.1763383" lon="12.1190767"><ele>30.4</ele><time>2026-04-09T12:07:25.212Z</time></trkpt><trkpt lat="44.1762483" lon="12.1190133"><ele>30.8</ele><time>2026-04-09T12:07:27.212Z</time></trkpt><trkpt lat="44.1761517" lon="12.11894"><ele>31.200000000000003</ele><time>2026-04-09T12:07:29.212Z</time></trkpt><trkpt lat="44.1760567" lon="12.1188633"><ele>31.6</ele><time>2026-04-09T12:07:31.212Z</time></trkpt><trkpt lat="44.1759683" lon="12.1187933"><ele>32.0</ele><time>2026-04-09T12:07:33.212Z</time></trkpt><trkpt lat="44.1758833" lon="12.1187283"><ele>32.0</ele><time>2026-04-09T12:07:35.212Z</time></trkpt><trkpt lat="44.1757983" lon="12.118655"><ele>32.0</ele><time>2026-04-09T12:07:37.212Z</time></trkpt><trkpt lat="44.1757067" lon="12.11859"><ele>32.0</ele><time>2026-04-09T12:07:39.212Z</time></trkpt><trkpt lat="44.1756017" lon="12.1185283"><ele>32.0</ele><time>2026-04-09T12:07:41.212Z</time></trkpt><trkpt lat="44.1755067" lon="12.11845"><ele>32.0</ele><time>2026-04-09T12:07:43.212Z</time></trkpt><trkpt lat="44.1754067" lon="12.1183867"><ele>32.75</ele><time>2026-04-09T12:07:45.212Z</time></trkpt><trkpt lat="44.1752983" lon="12.11834"><ele>33.5</ele><time>2026-04-09T12:07:47.212Z</time></trkpt><trkpt lat="44.1751867" lon="12.1183183"><ele>34.25</ele><time>2026-04-09T12:07:49.212Z</time></trkpt><trkpt lat="44.1750683" lon="12.1183133"><ele>35.0</ele><time>2026-04-09T12:07:51.212Z</time></trkpt><trkpt lat="44.174955" lon="12.1183167"><ele>34.8</ele><time>2026-04-09T12:07:53.212Z</time></trkpt><trkpt lat="44.1748483" lon="12.1183167"><ele>34.6</ele><time>2026-04-09T12:07:55.212Z</time></trkpt><trkpt lat="44.1747367" lon="12.1183583"><ele>34.4</ele><time>2026-04-09T12:07:57.212Z</time></trkpt><trkpt lat="44.1746283" lon="12.1184217"><ele>34.2</ele><time>2026-04-09T12:07:59.212Z</time></trkpt><trkpt lat="44.1745617" lon="12.1184667"><ele>34.0</ele><time>2026-04-09T12:08:00.212Z</time></trkpt><trkpt lat="44.1744633" lon="12.1185517"><ele>34.0</ele><time>2026-04-09T12:08:02.212Z</time></trkpt><trkpt lat="44.1743633" lon="12.1186283"><ele>34.0</ele><time>2026-04-09T12:08:04.212Z</time></trkpt><trkpt lat="44.174255" lon="12.1186967"><ele>34.0</ele><time>2026-04-09T12:08:06.212Z</time></trkpt><trkpt lat="44.1741367" lon="12.11874"><ele>34.0</ele><time>2026-04-09T12:08:08.212Z</time></trkpt><trkpt lat="44.174075" lon="12.1187583"><ele>34.0</ele><time>2026-04-09T12:08:09.212Z</time></trkpt><trkpt lat="44.1740117" lon="12.118765"><ele>33.8</ele><time>2026-04-09T12:08:10.213Z</time></trkpt><trkpt lat="44.17395" lon="12.118785"><ele>33.599999999999994</ele><time>2026-04-09T12:08:11.212Z</time></trkpt><trkpt lat="44.1738317" lon="12.1188233"><ele>33.4</ele><time>2026-04-09T12:08:13.212Z</time></trkpt><trkpt lat="44.1737067" lon="12.1188533"><ele>33.199999999999996</ele><time>2026-04-09T12:08:15.212Z</time></trkpt><trkpt lat="44.1736367" lon="12.11888"><ele>33.0</ele><time>2026-04-09T12:08:16.212Z</time></trkpt><trkpt lat="44.17357" lon="12.1188967"><ele>33.0</ele><time>2026-04-09T12:08:17.212Z</time></trkpt><trkpt lat="44.173505" lon="12.1189183"><ele>33.0</ele><time>2026-04-09T12:08:18.212Z</time></trkpt><trkpt lat="44.1734417" lon="12.1189317"><ele>33.0</ele><time>2026-04-09T12:08:19.212Z</time></trkpt><trkpt lat="44.173375" lon="12.1189383"><ele>33.0</ele><time>2026-04-09T12:08:20.212Z</time></trkpt><trkpt lat="44.1733067" lon="12.11894"><ele>33.0</ele><time>2026-04-09T12:08:21.212Z</time></trkpt><trkpt lat="44.1732433" lon="12.118935"><ele>33.0</ele><time>2026-04-09T12:08:22.212Z</time></trkpt><trkpt lat="44.1731767" lon="12.1189267"><ele>33.0</ele><time>2026-04-09T12:08:23.212Z</time></trkpt><trkpt lat="44.17311" lon="12.118915"><ele>33.285714285714285</ele><time>2026-04-09T12:08:24.212Z</time></trkpt><trkpt lat="44.1730417" lon="12.1189033"><ele>33.57142857142857</ele><time>2026-04-09T12:08:25.212Z</time></trkpt><trkpt lat="44.1729783" lon="12.1188917"><ele>33.85714285714286</ele><time>2026-04-09T12:08:26.212Z</time></trkpt><trkpt lat="44.172915" lon="12.118875"><ele>34.14285714285714</ele><time>2026-04-09T12:08:27.212Z</time></trkpt><trkpt lat="44.17285" lon="12.11887"><ele>34.42857142857143</ele><time>2026-04-09T12:08:28.212Z</time></trkpt><trkpt lat="44.1727867" lon="12.1188683"><ele>34.714285714285715</ele><time>2026-04-09T12:08:29.212Z</time></trkpt><trkpt lat="44.1726667" lon="12.11886"><ele>35.0</ele><time>2026-04-09T12:08:31.212Z</time></trkpt><trkpt lat="44.1725867" lon="12.118845"><ele>35.0</ele><time>2026-04-09T12:08:32.212Z</time></trkpt><trkpt lat="44.1725167" lon="12.1188383"><ele>35.0</ele><time>2026-04-09T12:08:33.212Z</time></trkpt><trkpt lat="44.1724517" lon="12.1188283"><ele>35.0</ele><time>2026-04-09T12:08:34.212Z</time></trkpt><trkpt lat="44.1723183" lon="12.11882"><ele>35.0</ele><time>2026-04-09T12:08:36.212Z</time></trkpt><trkpt lat="44.1722533" lon="12.1188217"><ele>35.0</ele><time>2026-04-09T12:08:37.212Z</time></trkpt><trkpt lat="44.1721883" lon="12.1188167"><ele>35.0</ele><time>2026-04-09T12:08:38.212Z</time></trkpt><trkpt lat="44.1721183" lon="12.1188133"><ele>35.25</ele><time>2026-04-09T12:08:39.212Z</time></trkpt><trkpt lat="44.1719883" lon="12.1188083"><ele>35.5</ele><time>2026-04-09T12:08:41.212Z</time></trkpt><trkpt lat="44.1718667" lon="12.1188067"><ele>35.75</ele><time>2026-04-09T12:08:43.212Z</time></trkpt><trkpt lat="44.17174" lon="12.1188017"><ele>36.0</ele><time>2026-04-09T12:08:45.212Z</time></trkpt><trkpt lat="44.17161" lon="12.1188"><ele>36.00000000000001</ele><time>2026-04-09T12:08:47.212Z</time></trkpt><trkpt lat="44.171545" lon="12.1187983"><ele>36.0</ele><time>2026-04-09T12:08:48.212Z</time></trkpt><trkpt lat="44.1714783" lon="12.11879"><ele>36.0</ele><time>2026-04-09T12:08:49.212Z</time></trkpt><trkpt lat="44.1714117" lon="12.1187817"><ele>36.0</ele><time>2026-04-09T12:08:50.212Z</time></trkpt><trkpt lat="44.1713433" lon="12.1187717"><ele>36.0</ele><time>2026-04-09T12:08:51.212Z</time></trkpt><trkpt lat="44.1712733" lon="12.118765"><ele>36.00000000000001</ele><time>2026-04-09T12:08:52.212Z</time></trkpt><trkpt lat="44.17121" lon="12.1187583"><ele>36.0</ele><time>2026-04-09T12:08:53.212Z</time></trkpt><trkpt lat="44.171145" lon="12.118755"><ele>36.00000000000001</ele><time>2026-04-09T12:08:54.212Z</time></trkpt><trkpt lat="44.1710767" lon="12.11875"><ele>36.0</ele><time>2026-04-09T12:08:55.212Z</time></trkpt><trkpt lat="44.1710117" lon="12.118745"><ele>36.0</ele><time>2026-04-09T12:08:56.212Z</time></trkpt><trkpt lat="44.170945" lon="12.1187367"><ele>36.0</ele><time>2026-04-09T12:08:57.212Z</time></trkpt><trkpt lat="44.17088" lon="12.118735"><ele>36.0</ele><time>2026-04-09T12:08:58.212Z</time></trkpt><trkpt lat="44.1708117" lon="12.1187383"><ele>36.00000000000001</ele><time>2026-04-09T12:08:59.212Z</time></trkpt><trkpt lat="44.1707417" lon="12.118735"><ele>36.0</ele><time>2026-04-09T12:09:00.212Z</time></trkpt><trkpt lat="44.1706733" lon="12.1187283"><ele>36.42857142857143</ele><time>2026-04-09T12:09:01.212Z</time></trkpt><trkpt lat="44.170605" lon="12.1187233"><ele>36.85714285714286</ele><time>2026-04-09T12:09:02.212Z</time></trkpt><trkpt lat="44.1705417" lon="12.1187133"><ele>37.28571428571429</ele><time>2026-04-09T12:09:03.212Z</time></trkpt><trkpt lat="44.170475" lon="12.1187083"><ele>37.714285714285715</ele><time>2026-04-09T12:09:04.212Z</time></trkpt><trkpt lat="44.1704067" lon="12.1187067"><ele>38.14285714285714</ele><time>2026-04-09T12:09:05.212Z</time></trkpt><trkpt lat="44.17034" lon="12.118705"><ele>38.57142857142858</ele><time>2026-04-09T12:09:06.212Z</time></trkpt><trkpt lat="44.17027" lon="12.1187"><ele>39.0</ele><time>2026-04-09T12:09:07.212Z</time></trkpt><trkpt lat="44.170205" lon="12.1186933"><ele>39.0</ele><time>2026-04-09T12:09:08.212Z</time></trkpt><trkpt lat="44.1701383" lon="12.1186867"><ele>39.0</ele><time>2026-04-09T12:09:09.212Z</time></trkpt><trkpt lat="44.1700717" lon="12.11868"><ele>39.0</ele><time>2026-04-09T12:09:10.212Z</time></trkpt><trkpt lat="44.170005" lon="12.1186717"><ele>39.0</ele><time>2026-04-09T12:09:11.212Z</time></trkpt><trkpt lat="44.1699383" lon="12.118665"><ele>39.0</ele><time>2026-04-09T12:09:12.212Z</time></trkpt><trkpt lat="44.1698683" lon="12.11866"><ele>39.0</ele><time>2026-04-09T12:09:13.212Z</time></trkpt><trkpt lat="44.1698033" lon="12.1186533"><ele>39.0</ele><time>2026-04-09T12:09:14.212Z</time></trkpt><trkpt lat="44.1697367" lon="12.11865"><ele>38.85714285714286</ele><time>2026-04-09T12:09:15.212Z</time></trkpt><trkpt lat="44.1696633" lon="12.11865"><ele>38.71428571428571</ele><time>2026-04-09T12:09:16.212Z</time></trkpt><trkpt lat="44.1695983" lon="12.1186467"><ele>38.57142857142857</ele><time>2026-04-09T12:09:17.212Z</time></trkpt><trkpt lat="44.1695317" lon="12.11864"><ele>38.42857142857143</ele><time>2026-04-09T12:09:18.212Z</time></trkpt><trkpt lat="44.169465" lon="12.1186317"><ele>38.28571428571429</ele><time>2026-04-09T12:09:19.212Z</time></trkpt><trkpt lat="44.1693917" lon="12.1186267"><ele>38.14285714285714</ele><time>2026-04-09T12:09:20.212Z</time></trkpt><trkpt lat="44.1693217" lon="12.1186267"><ele>38.0</ele><time>2026-04-09T12:09:21.212Z</time></trkpt><trkpt lat="44.1692517" lon="12.11863"><ele>38.0</ele><time>2026-04-09T12:09:22.212Z</time></trkpt><trkpt lat="44.1691833" lon="12.1186317"><ele>38.0</ele><time>2026-04-09T12:09:23.212Z</time></trkpt><trkpt lat="44.1691133" lon="12.1186367"><ele>38.0</ele><time>2026-04-09T12:09:24.212Z</time></trkpt><trkpt lat="44.16905" lon="12.1186317"><ele>38.0</ele><time>2026-04-09T12:09:25.212Z</time></trkpt><trkpt lat="44.1689867" lon="12.1186317"><ele>38.0</ele><time>2026-04-09T12:09:26.212Z</time></trkpt><trkpt lat="44.1689233" lon="12.1186183"><ele>38.0</ele><time>2026-04-09T12:09:27.212Z</time></trkpt><trkpt lat="44.1688567" lon="12.1186117"><ele>38.0</ele><time>2026-04-09T12:09:28.212Z</time></trkpt><trkpt lat="44.1687883" lon="12.1186167"><ele>38.0</ele><time>2026-04-09T12:09:29.212Z</time></trkpt><trkpt lat="44.1687183" lon="12.11862"><ele>38.0</ele><time>2026-04-09T12:09:30.212Z</time></trkpt><trkpt lat="44.1686483" lon="12.1186267"><ele>38.0</ele><time>2026-04-09T12:09:31.212Z</time></trkpt><trkpt lat="44.168575" lon="12.1186317"><ele>38.0</ele><time>2026-04-09T12:09:32.212Z</time></trkpt><trkpt lat="44.1685067" lon="12.1186217"><ele>38.0</ele><time>2026-04-09T12:09:33.212Z</time></trkpt><trkpt lat="44.168435" lon="12.118625"><ele>38.0</ele><time>2026-04-09T12:09:34.212Z</time></trkpt><trkpt lat="44.1683567" lon="12.1186283"><ele>38.0</ele><time>2026-04-09T12:09:35.212Z</time></trkpt><trkpt lat="44.1682833" lon="12.1186367"><ele>38.0</ele><time>2026-04-09T12:09:36.212Z</time></trkpt><trkpt lat="44.1682067" lon="12.1186383"><ele>38.0</ele><time>2026-04-09T12:09:37.212Z</time></trkpt><trkpt lat="44.1681417" lon="12.1186467"><ele>38.0</ele><time>2026-04-09T12:09:38.212Z</time></trkpt><trkpt lat="44.1680733" lon="12.1186517"><ele>38.0</ele><time>2026-04-09T12:09:39.212Z</time></trkpt><trkpt lat="44.1679967" lon="12.1186533"><ele>38.0</ele><time>2026-04-09T12:09:40.213Z</time></trkpt><trkpt lat="44.1679267" lon="12.1186517"><ele>38.0</ele><time>2026-04-09T12:09:41.212Z</time></trkpt><trkpt lat="44.1678467" lon="12.1186467"><ele>38.0</ele><time>2026-04-09T12:09:42.212Z</time></trkpt><trkpt lat="44.1677783" lon="12.1186433"><ele>38.0</ele><time>2026-04-09T12:09:43.212Z</time></trkpt><trkpt lat="44.1677067" lon="12.11864"><ele>38.0</ele><time>2026-04-09T12:09:44.212Z</time></trkpt><trkpt lat="44.1676267" lon="12.11864"><ele>38.0</ele><time>2026-04-09T12:09:45.212Z</time></trkpt><trkpt lat="44.1675567" lon="12.118635"><ele>38.0</ele><time>2026-04-09T12:09:46.212Z</time></trkpt><trkpt lat="44.1674867" lon="12.118635"><ele>38.0</ele><time>2026-04-09T12:09:47.212Z</time></trkpt><trkpt lat="44.16742" lon="12.118635"><ele>38.0</ele><time>2026-04-09T12:09:48.212Z</time></trkpt><trkpt lat="44.1673483" lon="12.1186367"><ele>38.0</ele><time>2026-04-09T12:09:49.212Z</time></trkpt><trkpt lat="44.1672817" lon="12.1186367"><ele>38.166666666666664</ele><time>2026-04-09T12:09:50.212Z</time></trkpt><trkpt lat="44.1672117" lon="12.118635"><ele>38.33333333333333</ele><time>2026-04-09T12:09:51.212Z</time></trkpt><trkpt lat="44.1671467" lon="12.11864"><ele>38.5</ele><time>2026-04-09T12:09:52.212Z</time></trkpt><trkpt lat="44.1670833" lon="12.11864"><ele>38.666666666666664</ele><time>2026-04-09T12:09:53.212Z</time></trkpt><trkpt lat="44.1670183" lon="12.1186333"><ele>38.833333333333336</ele><time>2026-04-09T12:09:54.212Z</time></trkpt><trkpt lat="44.1668983" lon="12.118635"><ele>39.0</ele><time>2026-04-09T12:09:56.212Z</time></trkpt><trkpt lat="44.1667717" lon="12.1186383"><ele>39.0</ele><time>2026-04-09T12:09:58.212Z</time></trkpt><trkpt lat="44.1666467" lon="12.11864"><ele>39.0</ele><time>2026-04-09T12:10:00.212Z</time></trkpt><trkpt lat="44.166525" lon="12.1186417"><ele>39.0</ele><time>2026-04-09T12:10:02.212Z</time></trkpt><trkpt lat="44.1664617" lon="12.1186433"><ele>39.0</ele><time>2026-04-09T12:10:03.212Z</time></trkpt><trkpt lat="44.166395" lon="12.118645"><ele>39.0</ele><time>2026-04-09T12:10:04.212Z</time></trkpt><trkpt lat="44.1663133" lon="12.1186417"><ele>38.85714285714286</ele><time>2026-04-09T12:10:05.212Z</time></trkpt><trkpt lat="44.1662433" lon="12.1186517"><ele>38.71428571428571</ele><time>2026-04-09T12:10:06.212Z</time></trkpt><trkpt lat="44.1661783" lon="12.1186583"><ele>38.57142857142857</ele><time>2026-04-09T12:10:07.212Z</time></trkpt><trkpt lat="44.1661117" lon="12.1186617"><ele>38.42857142857143</ele><time>2026-04-09T12:10:08.212Z</time></trkpt><trkpt lat="44.1660467" lon="12.11866"><ele>38.28571428571429</ele><time>2026-04-09T12:10:09.212Z</time></trkpt><trkpt lat="44.1659767" lon="12.11866"><ele>38.14285714285714</ele><time>2026-04-09T12:10:10.212Z</time></trkpt><trkpt lat="44.1659017" lon="12.1186517"><ele>38.0</ele><time>2026-04-09T12:10:11.212Z</time></trkpt><trkpt lat="44.1658333" lon="12.1186467"><ele>38.0</ele><time>2026-04-09T12:10:12.212Z</time></trkpt><trkpt lat="44.165755" lon="12.1186483"><ele>38.0</ele><time>2026-04-09T12:10:13.212Z</time></trkpt><trkpt lat="44.16569" lon="12.1186417"><ele>38.0</ele><time>2026-04-09T12:10:14.212Z</time></trkpt><trkpt lat="44.1656233" lon="12.1186367"><ele>38.0</ele><time>2026-04-09T12:10:15.212Z</time></trkpt><trkpt lat="44.1655517" lon="12.1186417"><ele>38.0</ele><time>2026-04-09T12:10:16.212Z</time></trkpt><trkpt lat="44.1654817" lon="12.1186483"><ele>38.0</ele><time>2026-04-09T12:10:17.212Z</time></trkpt><trkpt lat="44.1654083" lon="12.118655"><ele>38.0</ele><time>2026-04-09T12:10:18.212Z</time></trkpt><trkpt lat="44.1653367" lon="12.118655"><ele>38.285714285714285</ele><time>2026-04-09T12:10:19.212Z</time></trkpt><trkpt lat="44.1652667" lon="12.118665"><ele>38.57142857142858</ele><time>2026-04-09T12:10:20.212Z</time></trkpt><trkpt lat="44.165195" lon="12.1186783"><ele>38.85714285714286</ele><time>2026-04-09T12:10:21.212Z</time></trkpt><trkpt lat="44.1651233" lon="12.1186967"><ele>39.14285714285714</ele><time>2026-04-09T12:10:22.212Z</time></trkpt><trkpt lat="44.1650583" lon="12.118725"><ele>39.42857142857143</ele><time>2026-04-09T12:10:23.212Z</time></trkpt><trkpt lat="44.164995" lon="12.1187567"><ele>39.714285714285715</ele><time>2026-04-09T12:10:24.212Z</time></trkpt><trkpt lat="44.164925" lon="12.1187867"><ele>40.0</ele><time>2026-04-09T12:10:25.212Z</time></trkpt><trkpt lat="44.1648617" lon="12.11883"><ele>40.0</ele><time>2026-04-09T12:10:26.212Z</time></trkpt><trkpt lat="44.1648033" lon="12.11888"><ele>40.0</ele><time>2026-04-09T12:10:27.212Z</time></trkpt><trkpt lat="44.1647533" lon="12.118935"><ele>40.0</ele><time>2026-04-09T12:10:28.212Z</time></trkpt><trkpt lat="44.1646983" lon="12.1189883"><ele>40.0</ele><time>2026-04-09T12:10:29.212Z</time></trkpt><trkpt lat="44.1646383" lon="12.11904"><ele>40.0</ele><time>2026-04-09T12:10:30.212Z</time></trkpt><trkpt lat="44.164575" lon="12.1190867"><ele>40.0</ele><time>2026-04-09T12:10:31.212Z</time></trkpt><trkpt lat="44.1645083" lon="12.1191383"><ele>40.0</ele><time>2026-04-09T12:10:32.212Z</time></trkpt><trkpt lat="44.164445" lon="12.11919"><ele>40.0</ele><time>2026-04-09T12:10:33.212Z</time></trkpt><trkpt lat="44.1643817" lon="12.1192317"><ele>40.0</ele><time>2026-04-09T12:10:34.212Z</time></trkpt><trkpt lat="44.1642833" lon="12.1193183"><ele>40.0</ele><time>2026-04-09T12:10:36.212Z</time></trkpt><trkpt lat="44.1641917" lon="12.1193983"><ele>40.0</ele><time>2026-04-09T12:10:38.212Z</time></trkpt><trkpt lat="44.1640817" lon="12.1194783"><ele>40.0</ele><time>2026-04-09T12:10:40.212Z</time></trkpt><trkpt lat="44.1640233" lon="12.11954"><ele>40.0</ele><time>2026-04-09T12:10:41.212Z</time></trkpt><trkpt lat="44.1639033" lon="12.119625"><ele>40.0</ele><time>2026-04-09T12:10:43.212Z</time></trkpt><trkpt lat="44.1638483" lon="12.1196717"><ele>40.0</ele><time>2026-04-09T12:10:44.212Z</time></trkpt><trkpt lat="44.163795" lon="12.1197217"><ele>40.0</ele><time>2026-04-09T12:10:45.212Z</time></trkpt><trkpt lat="44.1636767" lon="12.1198067"><ele>40.0</ele><time>2026-04-09T12:10:47.212Z</time></trkpt><trkpt lat="44.1636083" lon="12.11985"><ele>40.0</ele><time>2026-04-09T12:10:48.212Z</time></trkpt><trkpt lat="44.1635433" lon="12.119885"><ele>40.0</ele><time>2026-04-09T12:10:49.212Z</time></trkpt><trkpt lat="44.1634783" lon="12.1199083"><ele>40.0</ele><time>2026-04-09T12:10:50.212Z</time></trkpt><trkpt lat="44.163355" lon="12.1199267"><ele>40.0</ele><time>2026-04-09T12:10:52.212Z</time></trkpt><trkpt lat="44.1632817" lon="12.119925"><ele>40.0</ele><time>2026-04-09T12:10:53.212Z</time></trkpt><trkpt lat="44.1632167" lon="12.1199267"><ele>40.0</ele><time>2026-04-09T12:10:54.212Z</time></trkpt><trkpt lat="44.163145" lon="12.1199283"><ele>40.0</ele><time>2026-04-09T12:10:55.212Z</time></trkpt><trkpt lat="44.1630733" lon="12.11993"><ele>40.0</ele><time>2026-04-09T12:10:56.212Z</time></trkpt><trkpt lat="44.1630033" lon="12.1199367"><ele>40.0</ele><time>2026-04-09T12:10:57.212Z</time></trkpt><trkpt lat="44.1629333" lon="12.11994"><ele>40.0</ele><time>2026-04-09T12:10:58.212Z</time></trkpt><trkpt lat="44.1628633" lon="12.1199483"><ele>40.0</ele><time>2026-04-09T12:10:59.212Z</time></trkpt><trkpt lat="44.1627967" lon="12.1199533"><ele>40.0</ele><time>2026-04-09T12:11:00.212Z</time></trkpt><trkpt lat="44.1627283" lon="12.1199533"><ele>40.0</ele><time>2026-04-09T12:11:01.212Z</time></trkpt><trkpt lat="44.1626617" lon="12.1199567"><ele>40.0</ele><time>2026-04-09T12:11:02.212Z</time></trkpt><trkpt lat="44.162595" lon="12.119955"><ele>40.0</ele><time>2026-04-09T12:11:03.212Z</time></trkpt><trkpt lat="44.162525" lon="12.1199533"><ele>40.0</ele><time>2026-04-09T12:11:04.212Z</time></trkpt><trkpt lat="44.1624567" lon="12.1199533"><ele>40.0</ele><time>2026-04-09T12:11:05.212Z</time></trkpt><trkpt lat="44.16239" lon="12.1199567"><ele>40.0</ele><time>2026-04-09T12:11:06.212Z</time></trkpt><trkpt lat="44.1623217" lon="12.1199533"><ele>40.0</ele><time>2026-04-09T12:11:07.212Z</time></trkpt><trkpt lat="44.1622567" lon="12.1199533"><ele>40.0</ele><time>2026-04-09T12:11:08.212Z</time></trkpt><trkpt lat="44.1621383" lon="12.1199617"><ele>40.5</ele><time>2026-04-09T12:11:10.212Z</time></trkpt><trkpt lat="44.1620217" lon="12.119955"><ele>41.0</ele><time>2026-04-09T12:11:12.212Z</time></trkpt><trkpt lat="44.1619017" lon="12.1199583"><ele>41.5</ele><time>2026-04-09T12:11:14.212Z</time></trkpt><trkpt lat="44.1617817" lon="12.1199683"><ele>42.0</ele><time>2026-04-09T12:11:16.212Z</time></trkpt><trkpt lat="44.161665" lon="12.119965"><ele>42.0</ele><time>2026-04-09T12:11:18.212Z</time></trkpt><trkpt lat="44.1615983" lon="12.11996"><ele>42.0</ele><time>2026-04-09T12:11:19.212Z</time></trkpt><trkpt lat="44.1615067" lon="12.1198967"><ele>42.0</ele><time>2026-04-09T12:11:21.212Z</time></trkpt><trkpt lat="44.1614667" lon="12.1197667"><ele>42.0</ele><time>2026-04-09T12:11:23.212Z</time></trkpt><trkpt lat="44.161465" lon="12.1196217"><ele>42.0</ele><time>2026-04-09T12:11:25.212Z</time></trkpt><trkpt lat="44.1614467" lon="12.119475"><ele>42.5</ele><time>2026-04-09T12:11:27.212Z</time></trkpt><trkpt lat="44.161425" lon="12.119315"><ele>43.0</ele><time>2026-04-09T12:11:29.212Z</time></trkpt><trkpt lat="44.1613983" lon="12.119155"><ele>43.5</ele><time>2026-04-09T12:11:31.212Z</time></trkpt><trkpt lat="44.16137" lon="12.1190067"><ele>44.0</ele><time>2026-04-09T12:11:33.212Z</time></trkpt><trkpt lat="44.161345" lon="12.1188633"><ele>44.2</ele><time>2026-04-09T12:11:35.212Z</time></trkpt><trkpt lat="44.16132" lon="12.11873"><ele>44.400000000000006</ele><time>2026-04-09T12:11:37.212Z</time></trkpt><trkpt lat="44.161295" lon="12.1186117"><ele>44.6</ele><time>2026-04-09T12:11:39.212Z</time></trkpt><trkpt lat="44.1612717" lon="12.1184717"><ele>44.8</ele><time>2026-04-09T12:11:41.212Z</time></trkpt><trkpt lat="44.1612517" lon="12.118325"><ele>45.0</ele><time>2026-04-09T12:11:43.212Z</time></trkpt><trkpt lat="44.161235" lon="12.1181783"><ele>46.5</ele><time>2026-04-09T12:11:45.212Z</time></trkpt><trkpt lat="44.1612233" lon="12.1180183"><ele>48.0</ele><time>2026-04-09T12:11:47.212Z</time></trkpt><trkpt lat="44.161215" lon="12.1178617"><ele>49.5</ele><time>2026-04-09T12:11:49.212Z</time></trkpt><trkpt lat="44.1612517" lon="12.1177083"><ele>51.0</ele><time>2026-04-09T12:11:51.212Z</time></trkpt><trkpt lat="44.161325" lon="12.1175833"><ele>51.0</ele><time>2026-04-09T12:11:53.212Z</time></trkpt><trkpt lat="44.1614033" lon="12.1175"><ele>51.0</ele><time>2026-04-09T12:11:55.212Z</time></trkpt><trkpt lat="44.1614833" lon="12.1174183"><ele>51.0</ele><time>2026-04-09T12:11:57.212Z</time></trkpt><trkpt lat="44.1615667" lon="12.117335"><ele>51.0</ele><time>2026-04-09T12:11:59.212Z</time></trkpt><trkpt lat="44.1616517" lon="12.1172533"><ele>51.0</ele><time>2026-04-09T12:12:01.212Z</time></trkpt><trkpt lat="44.16173" lon="12.1171683"><ele>51.0</ele><time>2026-04-09T12:12:03.212Z</time></trkpt><trkpt lat="44.1617967" lon="12.1170767"><ele>51.0</ele><time>2026-04-09T12:12:05.212Z</time></trkpt><trkpt lat="44.1618617" lon="12.116975"><ele>51.0</ele><time>2026-04-09T12:12:07.212Z</time></trkpt><trkpt lat="44.1619317" lon="12.1168617"><ele>51.0</ele><time>2026-04-09T12:12:09.212Z</time></trkpt><trkpt lat="44.1619933" lon="12.1167617"><ele>51.0</ele><time>2026-04-09T12:12:11.212Z</time></trkpt><trkpt lat="44.162045" lon="12.1166667"><ele>52.0</ele><time>2026-04-09T12:12:13.212Z</time></trkpt><trkpt lat="44.1620967" lon="12.1165617"><ele>53.0</ele><time>2026-04-09T12:12:15.212Z</time></trkpt><trkpt lat="44.1621467" lon="12.116455"><ele>53.99999999999999</ele><time>2026-04-09T12:12:17.212Z</time></trkpt><trkpt lat="44.1621917" lon="12.1163467"><ele>55.0</ele><time>2026-04-09T12:12:19.212Z</time></trkpt><trkpt lat="44.162235" lon="12.116235"><ele>56.0</ele><time>2026-04-09T12:12:21.212Z</time></trkpt><trkpt lat="44.162275" lon="12.1161217"><ele>56.0</ele><time>2026-04-09T12:12:23.212Z</time></trkpt><trkpt lat="44.162295" lon="12.1159983"><ele>55.99999999999999</ele><time>2026-04-09T12:12:25.212Z</time></trkpt><trkpt lat="44.16232" lon="12.1158533"><ele>55.99999999999999</ele><time>2026-04-09T12:12:27.212Z</time></trkpt><trkpt lat="44.1623317" lon="12.1157333"><ele>56.0</ele><time>2026-04-09T12:12:29.212Z</time></trkpt><trkpt lat="44.16234" lon="12.1156117"><ele>56.0</ele><time>2026-04-09T12:12:31.212Z</time></trkpt><trkpt lat="44.1623517" lon="12.1155017"><ele>55.66666666666667</ele><time>2026-04-09T12:12:33.212Z</time></trkpt><trkpt lat="44.1623633" lon="12.1154"><ele>55.333333333333336</ele><time>2026-04-09T12:12:35.212Z</time></trkpt><trkpt lat="44.1623783" lon="12.1152833"><ele>55.0</ele><time>2026-04-09T12:12:37.212Z</time></trkpt><trkpt lat="44.162385" lon="12.115165"><ele>54.66666666666667</ele><time>2026-04-09T12:12:39.212Z</time></trkpt><trkpt lat="44.162395" lon="12.115065"><ele>54.333333333333336</ele><time>2026-04-09T12:12:41.212Z</time></trkpt><trkpt lat="44.1624067" lon="12.1149633"><ele>54.0</ele><time>2026-04-09T12:12:43.212Z</time></trkpt><trkpt lat="44.162415" lon="12.1148433"><ele>54.714285714285715</ele><time>2026-04-09T12:12:45.212Z</time></trkpt><trkpt lat="44.1624233" lon="12.1147383"><ele>55.42857142857143</ele><time>2026-04-09T12:12:47.212Z</time></trkpt><trkpt lat="44.1624333" lon="12.114645"><ele>56.14285714285714</ele><time>2026-04-09T12:12:49.212Z</time></trkpt><trkpt lat="44.16244" lon="12.1145433"><ele>56.85714285714286</ele><time>2026-04-09T12:12:51.212Z</time></trkpt><trkpt lat="44.1624467" lon="12.11444"><ele>57.57142857142858</ele><time>2026-04-09T12:12:53.212Z</time></trkpt><trkpt lat="44.1624633" lon="12.1143367"><ele>58.285714285714285</ele><time>2026-04-09T12:12:55.212Z</time></trkpt><trkpt lat="44.1624717" lon="12.1142467"><ele>59.0</ele><time>2026-04-09T12:12:57.212Z</time></trkpt><trkpt lat="44.1624733" lon="12.1141483"><ele>58.16666666666667</ele><time>2026-04-09T12:12:59.212Z</time></trkpt><trkpt lat="44.1624783" lon="12.1140517"><ele>57.333333333333336</ele><time>2026-04-09T12:13:01.212Z</time></trkpt><trkpt lat="44.1624767" lon="12.1139067"><ele>56.5</ele><time>2026-04-09T12:13:04.212Z</time></trkpt><trkpt lat="44.16246" lon="12.1137617"><ele>55.66666666666667</ele><time>2026-04-09T12:13:06.212Z</time></trkpt><trkpt lat="44.1624483" lon="12.1136733"><ele>54.833333333333336</ele><time>2026-04-09T12:13:07.212Z</time></trkpt><trkpt lat="44.1624383" lon="12.1135783"><ele>54.0</ele><time>2026-04-09T12:13:08.212Z</time></trkpt><trkpt lat="44.1624283" lon="12.1134683"><ele>54.0</ele><time>2026-04-09T12:13:09.212Z</time></trkpt><trkpt lat="44.1624133" lon="12.113355"><ele>54.00000000000001</ele><time>2026-04-09T12:13:10.212Z</time></trkpt><trkpt lat="44.1623917" lon="12.113235"><ele>54.00000000000001</ele><time>2026-04-09T12:13:11.212Z</time></trkpt><trkpt lat="44.162365" lon="12.113095"><ele>54.0</ele><time>2026-04-09T12:13:12.212Z</time></trkpt><trkpt lat="44.1623367" lon="12.1129517"><ele>54.0</ele><time>2026-04-09T12:13:13.212Z</time></trkpt><trkpt lat="44.1623067" lon="12.1128083"><ele>54.75</ele><time>2026-04-09T12:13:14.212Z</time></trkpt><trkpt lat="44.1622733" lon="12.1126517"><ele>55.5</ele><time>2026-04-09T12:13:15.212Z</time></trkpt><trkpt lat="44.1622333" lon="12.1124817"><ele>56.25</ele><time>2026-04-09T12:13:16.212Z</time></trkpt><trkpt lat="44.1622017" lon="12.1123133"><ele>57.0</ele><time>2026-04-09T12:13:17.212Z</time></trkpt><trkpt lat="44.1621617" lon="12.1121333"><ele>55.0</ele><time>2026-04-09T12:13:18.212Z</time></trkpt><trkpt lat="44.1621133" lon="12.1119733"><ele>53.0</ele><time>2026-04-09T12:13:19.212Z</time></trkpt><trkpt lat="44.162075" lon="12.1118183"><ele>51.0</ele><time>2026-04-09T12:13:20.212Z</time></trkpt><trkpt lat="44.1620267" lon="12.1116517"><ele>49.0</ele><time>2026-04-09T12:13:21.212Z</time></trkpt><trkpt lat="44.1620067" lon="12.1114967"><ele>47.6</ele><time>2026-04-09T12:13:22.212Z</time></trkpt><trkpt lat="44.1620133" lon="12.1113333"><ele>46.2</ele><time>2026-04-09T12:13:23.212Z</time></trkpt><trkpt lat="44.1620517" lon="12.1111883"><ele>44.800000000000004</ele><time>2026-04-09T12:13:24.212Z</time></trkpt><trkpt lat="44.1621083" lon="12.1110583"><ele>43.400000000000006</ele><time>2026-04-09T12:13:25.212Z</time></trkpt><trkpt lat="44.1621667" lon="12.110945"><ele>42.0</ele><time>2026-04-09T12:13:26.212Z</time></trkpt><trkpt lat="44.1622283" lon="12.11082"><ele>41.4</ele><time>2026-04-09T12:13:27.212Z</time></trkpt><trkpt lat="44.1622883" lon="12.1106983"><ele>40.800000000000004</ele><time>2026-04-09T12:13:28.212Z</time></trkpt><trkpt lat="44.162345" lon="12.1105717"><ele>40.2</ele><time>2026-04-09T12:13:29.212Z</time></trkpt><trkpt lat="44.1623883" lon="12.1104567"><ele>39.6</ele><time>2026-04-09T12:13:30.212Z</time></trkpt><trkpt lat="44.1624183" lon="12.1103333"><ele>39.0</ele><time>2026-04-09T12:13:31.212Z</time></trkpt><trkpt lat="44.1624367" lon="12.1102067"><ele>39.0</ele><time>2026-04-09T12:13:32.212Z</time></trkpt><trkpt lat="44.1624433" lon="12.110075"><ele>39.0</ele><time>2026-04-09T12:13:33.212Z</time></trkpt><trkpt lat="44.16244" lon="12.10995"><ele>39.0</ele><time>2026-04-09T12:13:34.212Z</time></trkpt><trkpt lat="44.1624333" lon="12.1098217"><ele>39.0</ele><time>2026-04-09T12:13:35.212Z</time></trkpt><trkpt lat="44.16242" lon="12.109705"><ele>39.0</ele><time>2026-04-09T12:13:36.212Z</time></trkpt><trkpt lat="44.162405" lon="12.1095917"><ele>39.0</ele><time>2026-04-09T12:13:37.212Z</time></trkpt><trkpt lat="44.162385" lon="12.1094767"><ele>39.0</ele><time>2026-04-09T12:13:38.212Z</time></trkpt><trkpt lat="44.1623667" lon="12.1093683"><ele>39.0</ele><time>2026-04-09T12:13:39.212Z</time></trkpt><trkpt lat="44.1623583" lon="12.109265"><ele>39.0</ele><time>2026-04-09T12:13:40.212Z</time></trkpt><trkpt lat="44.1623467" lon="12.1091733"><ele>39.0</ele><time>2026-04-09T12:13:41.212Z</time></trkpt><trkpt lat="44.1623283" lon="12.1090867"><ele>39.0</ele><time>2026-04-09T12:13:42.212Z</time></trkpt><trkpt lat="44.1622933" lon="12.109005"><ele>39.0</ele><time>2026-04-09T12:13:43.212Z</time></trkpt><trkpt lat="44.16224" lon="12.1089417"><ele>39.0</ele><time>2026-04-09T12:13:44.212Z</time></trkpt><trkpt lat="44.162185" lon="12.1088917"><ele>38.85714285714286</ele><time>2026-04-09T12:13:45.212Z</time></trkpt><trkpt lat="44.1621317" lon="12.10884"><ele>38.71428571428571</ele><time>2026-04-09T12:13:46.212Z</time></trkpt><trkpt lat="44.1620817" lon="12.10878"><ele>38.57142857142857</ele><time>2026-04-09T12:13:47.212Z</time></trkpt><trkpt lat="44.1620317" lon="12.1087217"><ele>38.42857142857143</ele><time>2026-04-09T12:13:48.212Z</time></trkpt><trkpt lat="44.1619367" lon="12.108615"><ele>38.28571428571429</ele><time>2026-04-09T12:13:50.212Z</time></trkpt><trkpt lat="44.1618883" lon="12.1085567"><ele>38.14285714285714</ele><time>2026-04-09T12:13:51.212Z</time></trkpt><trkpt lat="44.1618383" lon="12.1085033"><ele>38.0</ele><time>2026-04-09T12:13:52.212Z</time></trkpt><trkpt lat="44.1617883" lon="12.1084467"><ele>38.0</ele><time>2026-04-09T12:13:53.212Z</time></trkpt><trkpt lat="44.1617383" lon="12.1083883"><ele>38.0</ele><time>2026-04-09T12:13:54.212Z</time></trkpt><trkpt lat="44.1616367" lon="12.10829"><ele>38.0</ele><time>2026-04-09T12:13:56.212Z</time></trkpt><trkpt lat="44.16155" lon="12.1081833"><ele>38.0</ele><time>2026-04-09T12:13:58.212Z</time></trkpt><trkpt lat="44.16147" lon="12.1080767"><ele>38.0</ele><time>2026-04-09T12:14:00.212Z</time></trkpt><trkpt lat="44.16137" lon="12.1079567"><ele>38.0</ele><time>2026-04-09T12:14:02.212Z</time></trkpt><trkpt lat="44.1613233" lon="12.1078967"><ele>38.0</ele><time>2026-04-09T12:14:03.212Z</time></trkpt><trkpt lat="44.161235" lon="12.1078067"><ele>38.0</ele><time>2026-04-09T12:14:05.212Z</time></trkpt><trkpt lat="44.1611417" lon="12.1077033"><ele>38.0</ele><time>2026-04-09T12:14:07.212Z</time></trkpt><trkpt lat="44.1610367" lon="12.10761"><ele>38.0</ele><time>2026-04-09T12:14:09.212Z</time></trkpt><trkpt lat="44.1609867" lon="12.107555"><ele>38.0</ele><time>2026-04-09T12:14:10.212Z</time></trkpt><trkpt lat="44.1609317" lon="12.107505"><ele>38.0</ele><time>2026-04-09T12:14:11.212Z</time></trkpt><trkpt lat="44.1608733" lon="12.1074583"><ele>38.0</ele><time>2026-04-09T12:14:12.212Z</time></trkpt><trkpt lat="44.16081" lon="12.1074083"><ele>38.0</ele><time>2026-04-09T12:14:13.212Z</time></trkpt><trkpt lat="44.16075" lon="12.10736"><ele>38.0</ele><time>2026-04-09T12:14:14.212Z</time></trkpt><trkpt lat="44.1606933" lon="12.10731"><ele>38.0</ele><time>2026-04-09T12:14:15.212Z</time></trkpt><trkpt lat="44.16063" lon="12.1072467"><ele>38.0</ele><time>2026-04-09T12:14:16.212Z</time></trkpt><trkpt lat="44.16057" lon="12.1072"><ele>38.14285714285714</ele><time>2026-04-09T12:14:17.212Z</time></trkpt><trkpt lat="44.1605033" lon="12.10716"><ele>38.28571428571429</ele><time>2026-04-09T12:14:18.212Z</time></trkpt><trkpt lat="44.1604383" lon="12.10711"><ele>38.42857142857143</ele><time>2026-04-09T12:14:19.212Z</time></trkpt><trkpt lat="44.160375" lon="12.107075"><ele>38.57142857142857</ele><time>2026-04-09T12:14:20.212Z</time></trkpt><trkpt lat="44.1603117" lon="12.1070367"><ele>38.71428571428571</ele><time>2026-04-09T12:14:21.212Z</time></trkpt><trkpt lat="44.160245" lon="12.1069983"><ele>38.85714285714286</ele><time>2026-04-09T12:14:22.212Z</time></trkpt><trkpt lat="44.16018" lon="12.1069617"><ele>39.0</ele><time>2026-04-09T12:14:23.212Z</time></trkpt><trkpt lat="44.1601083" lon="12.1069217"><ele>39.0</ele><time>2026-04-09T12:14:24.212Z</time></trkpt><trkpt lat="44.160035" lon="12.10688"><ele>39.0</ele><time>2026-04-09T12:14:25.212Z</time></trkpt><trkpt lat="44.1599683" lon="12.1068417"><ele>39.0</ele><time>2026-04-09T12:14:26.212Z</time></trkpt><trkpt lat="44.1599" lon="12.1068067"><ele>39.0</ele><time>2026-04-09T12:14:27.212Z</time></trkpt><trkpt lat="44.1598333" lon="12.1067767"><ele>39.0</ele><time>2026-04-09T12:14:28.212Z</time></trkpt><trkpt lat="44.15976" lon="12.1067433"><ele>39.0</ele><time>2026-04-09T12:14:29.212Z</time></trkpt><trkpt lat="44.15969" lon="12.1067117"><ele>39.0</ele><time>2026-04-09T12:14:30.212Z</time></trkpt><trkpt lat="44.1596183" lon="12.106675"><ele>39.142857142857146</ele><time>2026-04-09T12:14:31.212Z</time></trkpt><trkpt lat="44.159545" lon="12.1066367"><ele>39.285714285714285</ele><time>2026-04-09T12:14:32.212Z</time></trkpt><trkpt lat="44.1594717" lon="12.1066117"><ele>39.42857142857143</ele><time>2026-04-09T12:14:33.212Z</time></trkpt><trkpt lat="44.1594" lon="12.1065867"><ele>39.57142857142857</ele><time>2026-04-09T12:14:34.212Z</time></trkpt><trkpt lat="44.1593317" lon="12.106565"><ele>39.714285714285715</ele><time>2026-04-09T12:14:35.212Z</time></trkpt><trkpt lat="44.15926" lon="12.1065383"><ele>39.857142857142854</ele><time>2026-04-09T12:14:36.212Z</time></trkpt><trkpt lat="44.1591867" lon="12.1065133"><ele>40.0</ele><time>2026-04-09T12:14:37.212Z</time></trkpt><trkpt lat="44.15911" lon="12.1064883"><ele>39.857142857142854</ele><time>2026-04-09T12:14:38.212Z</time></trkpt><trkpt lat="44.1590383" lon="12.1064567"><ele>39.714285714285715</ele><time>2026-04-09T12:14:39.213Z</time></trkpt><trkpt lat="44.1589717" lon="12.1064267"><ele>39.57142857142857</ele><time>2026-04-09T12:14:40.212Z</time></trkpt><trkpt lat="44.1589033" lon="12.1063917"><ele>39.42857142857143</ele><time>2026-04-09T12:14:41.212Z</time></trkpt><trkpt lat="44.1588283" lon="12.1063617"><ele>39.285714285714285</ele><time>2026-04-09T12:14:42.212Z</time></trkpt><trkpt lat="44.158755" lon="12.106335"><ele>39.142857142857146</ele><time>2026-04-09T12:14:43.212Z</time></trkpt><trkpt lat="44.1586817" lon="12.106305"><ele>39.0</ele><time>2026-04-09T12:14:44.212Z</time></trkpt><trkpt lat="44.1586083" lon="12.10627"><ele>39.0</ele><time>2026-04-09T12:14:45.212Z</time></trkpt><trkpt lat="44.1585383" lon="12.1062467"><ele>39.0</ele><time>2026-04-09T12:14:46.212Z</time></trkpt><trkpt lat="44.1584683" lon="12.1062217"><ele>39.0</ele><time>2026-04-09T12:14:47.212Z</time></trkpt><trkpt lat="44.158405" lon="12.1061983"><ele>39.0</ele><time>2026-04-09T12:14:48.212Z</time></trkpt><trkpt lat="44.158335" lon="12.1061833"><ele>39.0</ele><time>2026-04-09T12:14:49.212Z</time></trkpt><trkpt lat="44.158265" lon="12.1061633"><ele>39.0</ele><time>2026-04-09T12:14:50.212Z</time></trkpt><trkpt lat="44.1581933" lon="12.106145"><ele>39.0</ele><time>2026-04-09T12:14:51.213Z</time></trkpt><trkpt lat="44.1581217" lon="12.106115"><ele>39.0</ele><time>2026-04-09T12:14:52.213Z</time></trkpt><trkpt lat="44.1580533" lon="12.106095"><ele>39.0</ele><time>2026-04-09T12:14:53.213Z</time></trkpt><trkpt lat="44.1579867" lon="12.106065"><ele>39.0</ele><time>2026-04-09T12:14:54.213Z</time></trkpt><trkpt lat="44.157915" lon="12.1060333"><ele>39.0</ele><time>2026-04-09T12:14:55.213Z</time></trkpt><trkpt lat="44.1578433" lon="12.1060067"><ele>39.0</ele><time>2026-04-09T12:14:56.213Z</time></trkpt><trkpt lat="44.1577733" lon="12.1059817"><ele>39.0</ele><time>2026-04-09T12:14:57.213Z</time></trkpt><trkpt lat="44.15771" lon="12.1059583"><ele>39.0</ele><time>2026-04-09T12:14:58.213Z</time></trkpt><trkpt lat="44.1575867" lon="12.1059033"><ele>39.0</ele><time>2026-04-09T12:15:00.213Z</time></trkpt><trkpt lat="44.1575167" lon="12.1058667"><ele>39.0</ele><time>2026-04-09T12:15:01.213Z</time></trkpt><trkpt lat="44.157455" lon="12.10584"><ele>39.0</ele><time>2026-04-09T12:15:02.213Z</time></trkpt><trkpt lat="44.1573917" lon="12.1058133"><ele>39.0</ele><time>2026-04-09T12:15:03.213Z</time></trkpt><trkpt lat="44.157325" lon="12.1057733"><ele>39.0</ele><time>2026-04-09T12:15:04.213Z</time></trkpt><trkpt lat="44.15725" lon="12.1057433"><ele>39.0</ele><time>2026-04-09T12:15:05.213Z</time></trkpt><trkpt lat="44.15718" lon="12.1057167"><ele>39.0</ele><time>2026-04-09T12:15:06.213Z</time></trkpt><trkpt lat="44.1571067" lon="12.10568"><ele>38.85714285714286</ele><time>2026-04-09T12:15:07.213Z</time></trkpt><trkpt lat="44.1570367" lon="12.1056467"><ele>38.71428571428571</ele><time>2026-04-09T12:15:08.213Z</time></trkpt><trkpt lat="44.15697" lon="12.1056133"><ele>38.57142857142857</ele><time>2026-04-09T12:15:09.213Z</time></trkpt><trkpt lat="44.1569033" lon="12.10558"><ele>38.42857142857143</ele><time>2026-04-09T12:15:10.214Z</time></trkpt><trkpt lat="44.15684" lon="12.10555"><ele>38.28571428571429</ele><time>2026-04-09T12:15:11.213Z</time></trkpt><trkpt lat="44.15677" lon="12.10552"><ele>38.14285714285714</ele><time>2026-04-09T12:15:12.213Z</time></trkpt><trkpt lat="44.1567017" lon="12.1054967"><ele>38.0</ele><time>2026-04-09T12:15:13.213Z</time></trkpt><trkpt lat="44.1566333" lon="12.105475"><ele>38.0</ele><time>2026-04-09T12:15:14.213Z</time></trkpt><trkpt lat="44.156565" lon="12.1054467"><ele>38.0</ele><time>2026-04-09T12:15:15.213Z</time></trkpt><trkpt lat="44.1565" lon="12.1054283"><ele>38.0</ele><time>2026-04-09T12:15:16.213Z</time></trkpt><trkpt lat="44.1564333" lon="12.1054017"><ele>38.0</ele><time>2026-04-09T12:15:17.213Z</time></trkpt><trkpt lat="44.1563667" lon="12.10538"><ele>38.0</ele><time>2026-04-09T12:15:18.213Z</time></trkpt><trkpt lat="44.156295" lon="12.1053667"><ele>38.0</ele><time>2026-04-09T12:15:19.213Z</time></trkpt><trkpt lat="44.1562233" lon="12.1053533"><ele>38.0</ele><time>2026-04-09T12:15:20.213Z</time></trkpt><trkpt lat="44.1561533" lon="12.1053333"><ele>38.14285714285714</ele><time>2026-04-09T12:15:21.213Z</time></trkpt><trkpt lat="44.1560817" lon="12.1053133"><ele>38.28571428571429</ele><time>2026-04-09T12:15:22.213Z</time></trkpt><trkpt lat="44.1560117" lon="12.1052917"><ele>38.42857142857143</ele><time>2026-04-09T12:15:23.213Z</time></trkpt><trkpt lat="44.155935" lon="12.10527"><ele>38.57142857142857</ele><time>2026-04-09T12:15:24.213Z</time></trkpt><trkpt lat="44.1558617" lon="12.1052517"><ele>38.71428571428571</ele><time>2026-04-09T12:15:25.213Z</time></trkpt><trkpt lat="44.1557883" lon="12.105235"><ele>38.85714285714286</ele><time>2026-04-09T12:15:26.213Z</time></trkpt><trkpt lat="44.1557183" lon="12.1052183"><ele>39.0</ele><time>2026-04-09T12:15:27.213Z</time></trkpt><trkpt lat="44.1556467" lon="12.1052033"><ele>39.285714285714285</ele><time>2026-04-09T12:15:28.213Z</time></trkpt><trkpt lat="44.1555767" lon="12.1051833"><ele>39.57142857142857</ele><time>2026-04-09T12:15:29.213Z</time></trkpt><trkpt lat="44.1555083" lon="12.1051667"><ele>39.857142857142854</ele><time>2026-04-09T12:15:30.213Z</time></trkpt><trkpt lat="44.1554383" lon="12.105145"><ele>40.14285714285714</ele><time>2026-04-09T12:15:31.213Z</time></trkpt><trkpt lat="44.1553667" lon="12.105125"><ele>40.42857142857143</ele><time>2026-04-09T12:15:32.213Z</time></trkpt><trkpt lat="44.1552983" lon="12.10511"><ele>40.71428571428571</ele><time>2026-04-09T12:15:33.213Z</time></trkpt><trkpt lat="44.155225" lon="12.1050917"><ele>41.0</ele><time>2026-04-09T12:15:34.213Z</time></trkpt><trkpt lat="44.15515" lon="12.1050783"><ele>40.99999999999999</ele><time>2026-04-09T12:15:35.213Z</time></trkpt><trkpt lat="44.1550783" lon="12.105075"><ele>41.0</ele><time>2026-04-09T12:15:36.213Z</time></trkpt><trkpt lat="44.155" lon="12.105065"><ele>41.0</ele><time>2026-04-09T12:15:37.213Z</time></trkpt><trkpt lat="44.1549283" lon="12.1050533"><ele>41.0</ele><time>2026-04-09T12:15:38.213Z</time></trkpt><trkpt lat="44.1548533" lon="12.1050333"><ele>41.0</ele><time>2026-04-09T12:15:39.213Z</time></trkpt><trkpt lat="44.15479" lon="12.10502"><ele>40.99999999999999</ele><time>2026-04-09T12:15:40.213Z</time></trkpt><trkpt lat="44.1547217" lon="12.1050167"><ele>41.0</ele><time>2026-04-09T12:15:41.213Z</time></trkpt><trkpt lat="44.154655" lon="12.10501"><ele>41.199999999999996</ele><time>2026-04-09T12:15:42.213Z</time></trkpt><trkpt lat="44.1545317" lon="12.1050167"><ele>41.4</ele><time>2026-04-09T12:15:44.213Z</time></trkpt><trkpt lat="44.154405" lon="12.1050217"><ele>41.6</ele><time>2026-04-09T12:15:46.213Z</time></trkpt><trkpt lat="44.1543367" lon="12.105025"><ele>41.8</ele><time>2026-04-09T12:15:47.213Z</time></trkpt><trkpt lat="44.1542683" lon="12.1050333"><ele>42.0</ele><time>2026-04-09T12:15:48.213Z</time></trkpt><trkpt lat="44.1542017" lon="12.10504"><ele>42.0</ele><time>2026-04-09T12:15:49.213Z</time></trkpt><trkpt lat="44.1541367" lon="12.10504"><ele>42.0</ele><time>2026-04-09T12:15:50.213Z</time></trkpt><trkpt lat="44.1540667" lon="12.1050367"><ele>42.0</ele><time>2026-04-09T12:15:51.213Z</time></trkpt><trkpt lat="44.153995" lon="12.1050233"><ele>42.0</ele><time>2026-04-09T12:15:52.213Z</time></trkpt><trkpt lat="44.1539283" lon="12.1050067"><ele>42.0</ele><time>2026-04-09T12:15:53.213Z</time></trkpt><trkpt lat="44.1538533" lon="12.104975"><ele>42.0</ele><time>2026-04-09T12:15:54.213Z</time></trkpt><trkpt lat="44.153785" lon="12.1049417"><ele>42.0</ele><time>2026-04-09T12:15:55.213Z</time></trkpt><trkpt lat="44.15372" lon="12.1049033"><ele>42.0</ele><time>2026-04-09T12:15:56.213Z</time></trkpt><trkpt lat="44.1536167" lon="12.1048133"><ele>42.0</ele><time>2026-04-09T12:15:58.213Z</time></trkpt><trkpt lat="44.15356" lon="12.1047517"><ele>42.0</ele><time>2026-04-09T12:15:59.213Z</time></trkpt><trkpt lat="44.153505" lon="12.1046817"><ele>42.0</ele><time>2026-04-09T12:16:00.213Z</time></trkpt><trkpt lat="44.1534567" lon="12.10461"><ele>42.0</ele><time>2026-04-09T12:16:01.213Z</time></trkpt><trkpt lat="44.1534133" lon="12.1045383"><ele>42.0</ele><time>2026-04-09T12:16:02.213Z</time></trkpt><trkpt lat="44.1533733" lon="12.10446"><ele>42.0</ele><time>2026-04-09T12:16:03.213Z</time></trkpt><trkpt lat="44.1533317" lon="12.104375"><ele>42.0</ele><time>2026-04-09T12:16:04.213Z</time></trkpt><trkpt lat="44.15329" lon="12.1042883"><ele>42.0</ele><time>2026-04-09T12:16:05.213Z</time></trkpt><trkpt lat="44.153245" lon="12.1042"><ele>42.0</ele><time>2026-04-09T12:16:06.213Z</time></trkpt><trkpt lat="44.153195" lon="12.1041067"><ele>42.0</ele><time>2026-04-09T12:16:07.213Z</time></trkpt><trkpt lat="44.153155" lon="12.1040183"><ele>42.0</ele><time>2026-04-09T12:16:08.213Z</time></trkpt><trkpt lat="44.153115" lon="12.1039383"><ele>42.142857142857146</ele><time>2026-04-09T12:16:09.213Z</time></trkpt><trkpt lat="44.1530767" lon="12.10386"><ele>42.285714285714285</ele><time>2026-04-09T12:16:10.213Z</time></trkpt><trkpt lat="44.1530367" lon="12.10378"><ele>42.42857142857143</ele><time>2026-04-09T12:16:11.213Z</time></trkpt><trkpt lat="44.1529967" lon="12.1037017"><ele>42.57142857142857</ele><time>2026-04-09T12:16:12.213Z</time></trkpt><trkpt lat="44.152955" lon="12.1036267"><ele>42.714285714285715</ele><time>2026-04-09T12:16:13.213Z</time></trkpt><trkpt lat="44.1529117" lon="12.103545"><ele>42.85714285714286</ele><time>2026-04-09T12:16:14.213Z</time></trkpt><trkpt lat="44.15287" lon="12.10346"><ele>43.0</ele><time>2026-04-09T12:16:15.213Z</time></trkpt><trkpt lat="44.1528317" lon="12.1033783"><ele>43.00000000000001</ele><time>2026-04-09T12:16:16.213Z</time></trkpt><trkpt lat="44.15278" lon="12.103295"><ele>43.0</ele><time>2026-04-09T12:16:17.213Z</time></trkpt><trkpt lat="44.1527367" lon="12.1032117"><ele>43.0</ele><time>2026-04-09T12:16:18.213Z</time></trkpt><trkpt lat="44.152695" lon="12.1031317"><ele>43.0</ele><time>2026-04-09T12:16:19.213Z</time></trkpt><trkpt lat="44.15266" lon="12.1030567"><ele>43.0</ele><time>2026-04-09T12:16:20.213Z</time></trkpt><trkpt lat="44.1526217" lon="12.1029833"><ele>43.00000000000001</ele><time>2026-04-09T12:16:21.213Z</time></trkpt><trkpt lat="44.1525817" lon="12.10291"><ele>43.0</ele><time>2026-04-09T12:16:22.213Z</time></trkpt><trkpt lat="44.1525317" lon="12.1028283"><ele>43.00000000000001</ele><time>2026-04-09T12:16:23.213Z</time></trkpt><trkpt lat="44.15248" lon="12.1027533"><ele>43.0</ele><time>2026-04-09T12:16:24.213Z</time></trkpt><trkpt lat="44.152425" lon="12.1026933"><ele>43.0</ele><time>2026-04-09T12:16:25.213Z</time></trkpt><trkpt lat="44.152365" lon="12.1026317"><ele>43.0</ele><time>2026-04-09T12:16:26.213Z</time></trkpt><trkpt lat="44.152305" lon="12.1025667"><ele>43.0</ele><time>2026-04-09T12:16:27.213Z</time></trkpt><trkpt lat="44.152245" lon="12.1025067"><ele>43.00000000000001</ele><time>2026-04-09T12:16:28.213Z</time></trkpt><trkpt lat="44.15218" lon="12.10245"><ele>43.0</ele><time>2026-04-09T12:16:29.213Z</time></trkpt><trkpt lat="44.152115" lon="12.102395"><ele>43.0</ele><time>2026-04-09T12:16:30.213Z</time></trkpt><trkpt lat="44.152" lon="12.10232"><ele>43.0</ele><time>2026-04-09T12:16:32.213Z</time></trkpt><trkpt lat="44.151945" lon="12.1022633"><ele>43.0</ele><time>2026-04-09T12:16:33.213Z</time></trkpt><trkpt lat="44.1518883" lon="12.102215"><ele>43.0</ele><time>2026-04-09T12:16:34.213Z</time></trkpt><trkpt lat="44.1517883" lon="12.1021333"><ele>43.0</ele><time>2026-04-09T12:16:36.213Z</time></trkpt><trkpt lat="44.1516767" lon="12.1020533"><ele>43.00000000000001</ele><time>2026-04-09T12:16:38.213Z</time></trkpt><trkpt lat="44.1516217" lon="12.1020033"><ele>43.0</ele><time>2026-04-09T12:16:39.213Z</time></trkpt><trkpt lat="44.1515667" lon="12.101955"><ele>43.0</ele><time>2026-04-09T12:16:40.213Z</time></trkpt><trkpt lat="44.1515067" lon="12.1019083"><ele>43.0</ele><time>2026-04-09T12:16:41.213Z</time></trkpt><trkpt lat="44.1514483" lon="12.1018633"><ele>43.0</ele><time>2026-04-09T12:16:42.213Z</time></trkpt><trkpt lat="44.15139" lon="12.10182"><ele>43.00000000000001</ele><time>2026-04-09T12:16:43.213Z</time></trkpt><trkpt lat="44.1513317" lon="12.1017767"><ele>43.0</ele><time>2026-04-09T12:16:44.213Z</time></trkpt><trkpt lat="44.15127" lon="12.1017283"><ele>43.0</ele><time>2026-04-09T12:16:45.213Z</time></trkpt><trkpt lat="44.151205" lon="12.1016767"><ele>43.0</ele><time>2026-04-09T12:16:46.213Z</time></trkpt><trkpt lat="44.1511417" lon="12.101635"><ele>43.0</ele><time>2026-04-09T12:16:47.213Z</time></trkpt><trkpt lat="44.1510817" lon="12.1015933"><ele>43.0</ele><time>2026-04-09T12:16:48.213Z</time></trkpt><trkpt lat="44.1510217" lon="12.1015517"><ele>43.0</ele><time>2026-04-09T12:16:49.213Z</time></trkpt><trkpt lat="44.1509633" lon="12.1015133"><ele>43.0</ele><time>2026-04-09T12:16:50.213Z</time></trkpt><trkpt lat="44.1508617" lon="12.1014083"><ele>43.00000000000001</ele><time>2026-04-09T12:16:52.213Z</time></trkpt><trkpt lat="44.1508033" lon="12.1013617"><ele>43.0</ele><time>2026-04-09T12:16:53.213Z</time></trkpt><trkpt lat="44.1507433" lon="12.1013217"><ele>43.0</ele><time>2026-04-09T12:16:54.213Z</time></trkpt><trkpt lat="44.1506833" lon="12.1012733"><ele>43.0</ele><time>2026-04-09T12:16:55.213Z</time></trkpt><trkpt lat="44.150615" lon="12.1012283"><ele>43.0</ele><time>2026-04-09T12:16:56.213Z</time></trkpt><trkpt lat="44.150555" lon="12.1011817"><ele>43.00000000000001</ele><time>2026-04-09T12:16:57.213Z</time></trkpt><trkpt lat="44.1504967" lon="12.101135"><ele>43.0</ele><time>2026-04-09T12:16:58.213Z</time></trkpt><trkpt lat="44.1504417" lon="12.1010883"><ele>43.2</ele><time>2026-04-09T12:16:59.213Z</time></trkpt><trkpt lat="44.15034" lon="12.1010017"><ele>43.4</ele><time>2026-04-09T12:17:01.213Z</time></trkpt><trkpt lat="44.150235" lon="12.1009317"><ele>43.6</ele><time>2026-04-09T12:17:03.213Z</time></trkpt><trkpt lat="44.1501733" lon="12.1008917"><ele>43.800000000000004</ele><time>2026-04-09T12:17:04.213Z</time></trkpt><trkpt lat="44.15006" lon="12.1008117"><ele>44.0</ele><time>2026-04-09T12:17:06.213Z</time></trkpt><trkpt lat="44.1499433" lon="12.1007333"><ele>44.166666666666664</ele><time>2026-04-09T12:17:08.213Z</time></trkpt><trkpt lat="44.1498833" lon="12.1006917"><ele>44.33333333333333</ele><time>2026-04-09T12:17:09.213Z</time></trkpt><trkpt lat="44.1498267" lon="12.1006267"><ele>44.5</ele><time>2026-04-09T12:17:10.213Z</time></trkpt><trkpt lat="44.1497667" lon="12.10059"><ele>44.666666666666664</ele><time>2026-04-09T12:17:11.213Z</time></trkpt><trkpt lat="44.1496983" lon="12.1005417"><ele>44.833333333333336</ele><time>2026-04-09T12:17:12.213Z</time></trkpt><trkpt lat="44.149585" lon="12.100475"><ele>45.0</ele><time>2026-04-09T12:17:14.213Z</time></trkpt><trkpt lat="44.1494717" lon="12.1004"><ele>45.0</ele><time>2026-04-09T12:17:16.213Z</time></trkpt><trkpt lat="44.1494117" lon="12.1003617"><ele>45.0</ele><time>2026-04-09T12:17:17.213Z</time></trkpt><trkpt lat="44.1493533" lon="12.1003217"><ele>45.0</ele><time>2026-04-09T12:17:18.213Z</time></trkpt><trkpt lat="44.1492917" lon="12.10028"><ele>45.0</ele><time>2026-04-09T12:17:19.213Z</time></trkpt><trkpt lat="44.1491783" lon="12.1001983"><ele>45.0</ele><time>2026-04-09T12:17:21.213Z</time></trkpt><trkpt lat="44.1491183" lon="12.1001617"><ele>45.0</ele><time>2026-04-09T12:17:22.213Z</time></trkpt><trkpt lat="44.1490017" lon="12.1001033"><ele>44.857142857142854</ele><time>2026-04-09T12:17:24.213Z</time></trkpt><trkpt lat="44.1489383" lon="12.100075"><ele>44.714285714285715</ele><time>2026-04-09T12:17:25.213Z</time></trkpt><trkpt lat="44.1488683" lon="12.1000583"><ele>44.57142857142857</ele><time>2026-04-09T12:17:26.213Z</time></trkpt><trkpt lat="44.1488" lon="12.1000433"><ele>44.42857142857143</ele><time>2026-04-09T12:17:27.213Z</time></trkpt><trkpt lat="44.1487367" lon="12.10003"><ele>44.285714285714285</ele><time>2026-04-09T12:17:28.213Z</time></trkpt><trkpt lat="44.14867" lon="12.1000183"><ele>44.142857142857146</ele><time>2026-04-09T12:17:29.213Z</time></trkpt><trkpt lat="44.148605" lon="12.1000133"><ele>44.0</ele><time>2026-04-09T12:17:30.213Z</time></trkpt><trkpt lat="44.1484817" lon="12.10002"><ele>44.0</ele><time>2026-04-09T12:17:32.214Z</time></trkpt><trkpt lat="44.1483617" lon="12.1000383"><ele>44.0</ele><time>2026-04-09T12:17:34.213Z</time></trkpt><trkpt lat="44.1482383" lon="12.10006"><ele>44.0</ele><time>2026-04-09T12:17:36.213Z</time></trkpt><trkpt lat="44.14817" lon="12.1000817"><ele>44.0</ele><time>2026-04-09T12:17:37.213Z</time></trkpt><trkpt lat="44.14804" lon="12.100125"><ele>44.0</ele><time>2026-04-09T12:17:39.213Z</time></trkpt><trkpt lat="44.1479717" lon="12.1001433"><ele>44.0</ele><time>2026-04-09T12:17:40.213Z</time></trkpt><trkpt lat="44.147905" lon="12.1001517"><ele>44.0</ele><time>2026-04-09T12:17:41.213Z</time></trkpt><trkpt lat="44.1478333" lon="12.1001667"><ele>44.0</ele><time>2026-04-09T12:17:42.213Z</time></trkpt><trkpt lat="44.147765" lon="12.1001833"><ele>44.0</ele><time>2026-04-09T12:17:43.213Z</time></trkpt><trkpt lat="44.1476983" lon="12.1001967"><ele>44.0</ele><time>2026-04-09T12:17:44.213Z</time></trkpt><trkpt lat="44.147635" lon="12.1002117"><ele>44.0</ele><time>2026-04-09T12:17:45.213Z</time></trkpt><trkpt lat="44.1475733" lon="12.1002333"><ele>44.0</ele><time>2026-04-09T12:17:46.213Z</time></trkpt><trkpt lat="44.1474567" lon="12.1002717"><ele>44.0</ele><time>2026-04-09T12:17:48.213Z</time></trkpt><trkpt lat="44.1473917" lon="12.10029"><ele>44.0</ele><time>2026-04-09T12:17:49.213Z</time></trkpt><trkpt lat="44.147325" lon="12.100315"><ele>44.0</ele><time>2026-04-09T12:17:50.213Z</time></trkpt><trkpt lat="44.147215" lon="12.1003567"><ele>44.0</ele><time>2026-04-09T12:17:52.213Z</time></trkpt><trkpt lat="44.1471033" lon="12.10039"><ele>44.0</ele><time>2026-04-09T12:17:54.213Z</time></trkpt><trkpt lat="44.1469867" lon="12.10043"><ele>44.25</ele><time>2026-04-09T12:17:56.213Z</time></trkpt><trkpt lat="44.14687" lon="12.1004767"><ele>44.5</ele><time>2026-04-09T12:17:58.213Z</time></trkpt><trkpt lat="44.1467617" lon="12.1005183"><ele>44.75</ele><time>2026-04-09T12:18:00.213Z</time></trkpt><trkpt lat="44.1466517" lon="12.100565"><ele>45.0</ele><time>2026-04-09T12:18:02.213Z</time></trkpt><trkpt lat="44.1465367" lon="12.1006133"><ele>45.166666666666664</ele><time>2026-04-09T12:18:04.213Z</time></trkpt><trkpt lat="44.146475" lon="12.10064"><ele>45.333333333333336</ele><time>2026-04-09T12:18:05.213Z</time></trkpt><trkpt lat="44.1463533" lon="12.1006983"><ele>45.5</ele><time>2026-04-09T12:18:07.213Z</time></trkpt><trkpt lat="44.1462883" lon="12.1007233"><ele>45.66666666666667</ele><time>2026-04-09T12:18:08.213Z</time></trkpt><trkpt lat="44.1462217" lon="12.1007533"><ele>45.833333333333336</ele><time>2026-04-09T12:18:09.213Z</time></trkpt><trkpt lat="44.1461617" lon="12.10078"><ele>46.0</ele><time>2026-04-09T12:18:10.213Z</time></trkpt><trkpt lat="44.1461" lon="12.1008033"><ele>46.0</ele><time>2026-04-09T12:18:11.213Z</time></trkpt><trkpt lat="44.1459733" lon="12.10085"><ele>46.0</ele><time>2026-04-09T12:18:13.213Z</time></trkpt><trkpt lat="44.1458633" lon="12.1009067"><ele>46.0</ele><time>2026-04-09T12:18:15.213Z</time></trkpt><trkpt lat="44.1458" lon="12.100935"><ele>46.0</ele><time>2026-04-09T12:18:16.213Z</time></trkpt><trkpt lat="44.14569" lon="12.1009983"><ele>46.0</ele><time>2026-04-09T12:18:18.213Z</time></trkpt><trkpt lat="44.1455783" lon="12.10106"><ele>46.0</ele><time>2026-04-09T12:18:20.213Z</time></trkpt><trkpt lat="44.1454683" lon="12.101115"><ele>46.0</ele><time>2026-04-09T12:18:22.214Z</time></trkpt><trkpt lat="44.1453667" lon="12.1011617"><ele>46.0</ele><time>2026-04-09T12:18:24.213Z</time></trkpt><trkpt lat="44.1452583" lon="12.1012017"><ele>46.0</ele><time>2026-04-09T12:18:26.213Z</time></trkpt><trkpt lat="44.1451717" lon="12.101235"><ele>46.0</ele><time>2026-04-09T12:18:28.213Z</time></trkpt><trkpt lat="44.1450783" lon="12.101275"><ele>46.0</ele><time>2026-04-09T12:18:30.213Z</time></trkpt><trkpt lat="44.1449767" lon="12.1013233"><ele>46.0</ele><time>2026-04-09T12:18:32.213Z</time></trkpt><trkpt lat="44.1448967" lon="12.1013667"><ele>46.0</ele><time>2026-04-09T12:18:34.213Z</time></trkpt><trkpt lat="44.144805" lon="12.101405"><ele>46.0</ele><time>2026-04-09T12:18:36.213Z</time></trkpt><trkpt lat="44.14471" lon="12.1014483"><ele>46.0</ele><time>2026-04-09T12:18:38.213Z</time></trkpt><trkpt lat="44.1446133" lon="12.1014933"><ele>46.4</ele><time>2026-04-09T12:18:40.213Z</time></trkpt><trkpt lat="44.1445217" lon="12.1015367"><ele>46.8</ele><time>2026-04-09T12:18:42.213Z</time></trkpt><trkpt lat="44.1444133" lon="12.1015783"><ele>47.199999999999996</ele><time>2026-04-09T12:18:44.213Z</time></trkpt><trkpt lat="44.1443167" lon="12.1016217"><ele>47.599999999999994</ele><time>2026-04-09T12:18:46.213Z</time></trkpt><trkpt lat="44.144205" lon="12.10166"><ele>48.0</ele><time>2026-04-09T12:18:48.213Z</time></trkpt><trkpt lat="44.144115" lon="12.1016983"><ele>48.0</ele><time>2026-04-09T12:18:50.213Z</time></trkpt><trkpt lat="44.1440267" lon="12.101705"><ele>48.0</ele><time>2026-04-09T12:18:52.213Z</time></trkpt><trkpt lat="44.1439467" lon="12.10166"><ele>48.0</ele><time>2026-04-09T12:18:54.213Z</time></trkpt><trkpt lat="44.1439083" lon="12.1015517"><ele>48.0</ele><time>2026-04-09T12:18:56.213Z</time></trkpt><trkpt lat="44.1439167" lon="12.1013967"><ele>48.0</ele><time>2026-04-09T12:18:58.213Z</time></trkpt><trkpt lat="44.143935" lon="12.1012267"><ele>47.99999999999999</ele><time>2026-04-09T12:19:00.213Z</time></trkpt><trkpt lat="44.143945" lon="12.1011367"><ele>48.0</ele><time>2026-04-09T12:19:01.213Z</time></trkpt><trkpt lat="44.14394" lon="12.1010383"><ele>48.0</ele><time>2026-04-09T12:19:02.213Z</time></trkpt><trkpt lat="44.143955" lon="12.1009417"><ele>48.0</ele><time>2026-04-09T12:19:03.213Z</time></trkpt><trkpt lat="44.143955" lon="12.1008333"><ele>48.0</ele><time>2026-04-09T12:19:04.213Z</time></trkpt><trkpt lat="44.14396" lon="12.1007317"><ele>47.99999999999999</ele><time>2026-04-09T12:19:05.213Z</time></trkpt><trkpt lat="44.1439683" lon="12.1006133"><ele>48.0</ele><time>2026-04-09T12:19:06.213Z</time></trkpt><trkpt lat="44.1439767" lon="12.1005067"><ele>47.857142857142854</ele><time>2026-04-09T12:19:07.213Z</time></trkpt><trkpt lat="44.14398" lon="12.1004017"><ele>47.714285714285715</ele><time>2026-04-09T12:19:08.213Z</time></trkpt><trkpt lat="44.1439933" lon="12.100295"><ele>47.57142857142857</ele><time>2026-04-09T12:19:09.213Z</time></trkpt><trkpt lat="44.1439933" lon="12.100195"><ele>47.42857142857143</ele><time>2026-04-09T12:19:10.213Z</time></trkpt><trkpt lat="44.143995" lon="12.100095"><ele>47.285714285714285</ele><time>2026-04-09T12:19:11.213Z</time></trkpt><trkpt lat="44.1439967" lon="12.0999967"><ele>47.14285714285714</ele><time>2026-04-09T12:19:12.213Z</time></trkpt><trkpt lat="44.1439933" lon="12.0999033"><ele>47.0</ele><time>2026-04-09T12:19:13.213Z</time></trkpt><trkpt lat="44.1439867" lon="12.0998117"><ele>47.5</ele><time>2026-04-09T12:19:14.213Z</time></trkpt><trkpt lat="44.143935" lon="12.0996433"><ele>48.0</ele><time>2026-04-09T12:19:16.213Z</time></trkpt><trkpt lat="44.143905" lon="12.099555"><ele>48.5</ele><time>2026-04-09T12:19:17.213Z</time></trkpt><trkpt lat="44.1438717" lon="12.0994783"><ele>49.0</ele><time>2026-04-09T12:19:18.213Z</time></trkpt><trkpt lat="44.143835" lon="12.0994033"><ele>49.50000000000001</ele><time>2026-04-09T12:19:19.213Z</time></trkpt><trkpt lat="44.1437967" lon="12.0993333"><ele>50.0</ele><time>2026-04-09T12:19:20.213Z</time></trkpt><trkpt lat="44.1437217" lon="12.099215"><ele>50.0</ele><time>2026-04-09T12:19:22.213Z</time></trkpt><trkpt lat="44.1436667" lon="12.099085"><ele>50.0</ele><time>2026-04-09T12:19:24.213Z</time></trkpt><trkpt lat="44.14361" lon="12.0989717"><ele>50.0</ele><time>2026-04-09T12:19:26.213Z</time></trkpt><trkpt lat="44.14356" lon="12.0988633"><ele>50.0</ele><time>2026-04-09T12:19:28.213Z</time></trkpt><trkpt lat="44.1435083" lon="12.0987683"><ele>50.0</ele><time>2026-04-09T12:19:30.213Z</time></trkpt><trkpt lat="44.1434483" lon="12.0986617"><ele>50.4</ele><time>2026-04-09T12:19:32.213Z</time></trkpt><trkpt lat="44.143385" lon="12.0985583"><ele>50.8</ele><time>2026-04-09T12:19:34.213Z</time></trkpt><trkpt lat="44.1433217" lon="12.09845"><ele>51.2</ele><time>2026-04-09T12:19:36.213Z</time></trkpt><trkpt lat="44.1432633" lon="12.0983333"><ele>51.6</ele><time>2026-04-09T12:19:38.213Z</time></trkpt><trkpt lat="44.1432017" lon="12.0982233"><ele>52.0</ele><time>2026-04-09T12:19:40.213Z</time></trkpt><trkpt lat="44.1431467" lon="12.0981133"><ele>53.2</ele><time>2026-04-09T12:19:42.213Z</time></trkpt><trkpt lat="44.1430917" lon="12.0980017"><ele>54.400000000000006</ele><time>2026-04-09T12:19:44.213Z</time></trkpt><trkpt lat="44.143035" lon="12.0978867"><ele>55.599999999999994</ele><time>2026-04-09T12:19:46.213Z</time></trkpt><trkpt lat="44.1429783" lon="12.0977683"><ele>56.8</ele><time>2026-04-09T12:19:48.213Z</time></trkpt><trkpt lat="44.1429317" lon="12.0976633"><ele>58.0</ele><time>2026-04-09T12:19:50.213Z</time></trkpt><trkpt lat="44.1428683" lon="12.0975467"><ele>57.25</ele><time>2026-04-09T12:19:52.213Z</time></trkpt><trkpt lat="44.142805" lon="12.0974183"><ele>56.5</ele><time>2026-04-09T12:19:54.213Z</time></trkpt><trkpt lat="44.14276" lon="12.0972833"><ele>55.75</ele><time>2026-04-09T12:19:56.213Z</time></trkpt><trkpt lat="44.1427117" lon="12.0971433"><ele>55.0</ele><time>2026-04-09T12:19:58.213Z</time></trkpt><trkpt lat="44.14265" lon="12.0969967"><ele>55.0</ele><time>2026-04-09T12:20:00.213Z</time></trkpt><trkpt lat="44.1426183" lon="12.09692"><ele>55.0</ele><time>2026-04-09T12:20:01.213Z</time></trkpt><trkpt lat="44.142565" lon="12.0967633"><ele>55.0</ele><time>2026-04-09T12:20:03.213Z</time></trkpt><trkpt lat="44.1425033" lon="12.0966167"><ele>55.0</ele><time>2026-04-09T12:20:05.213Z</time></trkpt><trkpt lat="44.1424433" lon="12.096475"><ele>55.0</ele><time>2026-04-09T12:20:07.213Z</time></trkpt><trkpt lat="44.142385" lon="12.0963433"><ele>56.0</ele><time>2026-04-09T12:20:09.213Z</time></trkpt><trkpt lat="44.142325" lon="12.0962167"><ele>57.0</ele><time>2026-04-09T12:20:11.213Z</time></trkpt><trkpt lat="44.14226" lon="12.096085"><ele>58.0</ele><time>2026-04-09T12:20:13.213Z</time></trkpt><trkpt lat="44.1422" lon="12.0959483"><ele>59.0</ele><time>2026-04-09T12:20:15.213Z</time></trkpt><trkpt lat="44.14214" lon="12.09582"><ele>60.0</ele><time>2026-04-09T12:20:17.213Z</time></trkpt><trkpt lat="44.14207" lon="12.0957117"><ele>60.0</ele><time>2026-04-09T12:20:19.213Z</time></trkpt><trkpt lat="44.1420083" lon="12.0955817"><ele>60.0</ele><time>2026-04-09T12:20:21.213Z</time></trkpt><trkpt lat="44.1419517" lon="12.0954483"><ele>60.0</ele><time>2026-04-09T12:20:23.213Z</time></trkpt><trkpt lat="44.1418917" lon="12.09532"><ele>60.0</ele><time>2026-04-09T12:20:25.213Z</time></trkpt><trkpt lat="44.141845" lon="12.0951867"><ele>60.0</ele><time>2026-04-09T12:20:27.213Z</time></trkpt><trkpt lat="44.1418" lon="12.095055"><ele>60.0</ele><time>2026-04-09T12:20:29.213Z</time></trkpt><trkpt lat="44.1417567" lon="12.0949283"><ele>60.0</ele><time>2026-04-09T12:20:31.213Z</time></trkpt><trkpt lat="44.141705" lon="12.094805"><ele>60.0</ele><time>2026-04-09T12:20:33.213Z</time></trkpt><trkpt lat="44.1416567" lon="12.0946967"><ele>60.0</ele><time>2026-04-09T12:20:35.213Z</time></trkpt><trkpt lat="44.141615" lon="12.0946033"><ele>60.0</ele><time>2026-04-09T12:20:37.213Z</time></trkpt><trkpt lat="44.1415633" lon="12.09448"><ele>61.2</ele><time>2026-04-09T12:20:39.213Z</time></trkpt><trkpt lat="44.1415183" lon="12.0943533"><ele>62.4</ele><time>2026-04-09T12:20:41.213Z</time></trkpt><trkpt lat="44.1414733" lon="12.0942317"><ele>63.599999999999994</ele><time>2026-04-09T12:20:43.213Z</time></trkpt><trkpt lat="44.1414333" lon="12.094105"><ele>64.8</ele><time>2026-04-09T12:20:45.213Z</time></trkpt><trkpt lat="44.1413917" lon="12.093965"><ele>66.0</ele><time>2026-04-09T12:20:47.213Z</time></trkpt><trkpt lat="44.1413417" lon="12.09383"><ele>66.0</ele><time>2026-04-09T12:20:49.213Z</time></trkpt><trkpt lat="44.1412967" lon="12.093705"><ele>66.0</ele><time>2026-04-09T12:20:51.213Z</time></trkpt><trkpt lat="44.1412467" lon="12.0935867"><ele>66.0</ele><time>2026-04-09T12:20:53.213Z</time></trkpt><trkpt lat="44.141195" lon="12.0934567"><ele>66.0</ele><time>2026-04-09T12:20:55.213Z</time></trkpt><trkpt lat="44.141145" lon="12.093335"><ele>66.0</ele><time>2026-04-09T12:20:57.213Z</time></trkpt><trkpt lat="44.141095" lon="12.0932183"><ele>65.6</ele><time>2026-04-09T12:20:59.213Z</time></trkpt><trkpt lat="44.1410433" lon="12.0931017"><ele>65.19999999999999</ele><time>2026-04-09T12:21:01.213Z</time></trkpt><trkpt lat="44.1409983" lon="12.0929733"><ele>64.80000000000001</ele><time>2026-04-09T12:21:03.213Z</time></trkpt><trkpt lat="44.1409567" lon="12.0928483"><ele>64.4</ele><time>2026-04-09T12:21:05.213Z</time></trkpt><trkpt lat="44.1409117" lon="12.09272"><ele>64.0</ele><time>2026-04-09T12:21:07.213Z</time></trkpt><trkpt lat="44.140865" lon="12.0925867"><ele>64.0</ele><time>2026-04-09T12:21:09.213Z</time></trkpt><trkpt lat="44.1408133" lon="12.09248"><ele>64.0</ele><time>2026-04-09T12:21:11.213Z</time></trkpt><trkpt lat="44.1407483" lon="12.09235"><ele>64.0</ele><time>2026-04-09T12:21:13.213Z</time></trkpt><trkpt lat="44.1407033" lon="12.0922333"><ele>64.0</ele><time>2026-04-09T12:21:15.213Z</time></trkpt><trkpt lat="44.1406467" lon="12.0921167"><ele>64.0</ele><time>2026-04-09T12:21:17.213Z</time></trkpt><trkpt lat="44.1405867" lon="12.091995"><ele>64.60000000000001</ele><time>2026-04-09T12:21:19.213Z</time></trkpt><trkpt lat="44.14054" lon="12.09187"><ele>65.2</ele><time>2026-04-09T12:21:21.213Z</time></trkpt><trkpt lat="44.140495" lon="12.0917467"><ele>65.80000000000001</ele><time>2026-04-09T12:21:23.213Z</time></trkpt><trkpt lat="44.1404467" lon="12.09162"><ele>66.4</ele><time>2026-04-09T12:21:25.213Z</time></trkpt><trkpt lat="44.1403917" lon="12.091495"><ele>67.0</ele><time>2026-04-09T12:21:27.213Z</time></trkpt><trkpt lat="44.1403383" lon="12.0913783"><ele>67.0</ele><time>2026-04-09T12:21:29.213Z</time></trkpt><trkpt lat="44.1402983" lon="12.091255"><ele>67.0</ele><time>2026-04-09T12:21:31.213Z</time></trkpt><trkpt lat="44.1402617" lon="12.0911233"><ele>67.0</ele><time>2026-04-09T12:21:33.213Z</time></trkpt><trkpt lat="44.1402083" lon="12.09099"><ele>67.0</ele><time>2026-04-09T12:21:35.213Z</time></trkpt><trkpt lat="44.1401483" lon="12.0908533"><ele>67.0</ele><time>2026-04-09T12:21:37.213Z</time></trkpt><trkpt lat="44.1400917" lon="12.090705"><ele>66.75</ele><time>2026-04-09T12:21:39.213Z</time></trkpt><trkpt lat="44.140025" lon="12.0905583"><ele>66.5</ele><time>2026-04-09T12:21:41.213Z</time></trkpt><trkpt lat="44.1399717" lon="12.0904167"><ele>66.25</ele><time>2026-04-09T12:21:43.213Z</time></trkpt><trkpt lat="44.13991" lon="12.0902683"><ele>66.0</ele><time>2026-04-09T12:21:45.213Z</time></trkpt><trkpt lat="44.139855" lon="12.0901183"><ele>66.0</ele><time>2026-04-09T12:21:47.213Z</time></trkpt><trkpt lat="44.1397833" lon="12.089985"><ele>66.0</ele><time>2026-04-09T12:21:49.213Z</time></trkpt><trkpt lat="44.1397317" lon="12.08992"><ele>66.0</ele><time>2026-04-09T12:21:50.213Z</time></trkpt><trkpt lat="44.1396783" lon="12.0898533"><ele>66.0</ele><time>2026-04-09T12:21:51.213Z</time></trkpt><trkpt lat="44.1396317" lon="12.08979"><ele>66.0</ele><time>2026-04-09T12:21:52.213Z</time></trkpt><trkpt lat="44.139585" lon="12.0897267"><ele>66.0</ele><time>2026-04-09T12:21:53.213Z</time></trkpt><trkpt lat="44.1395283" lon="12.0896617"><ele>65.14285714285714</ele><time>2026-04-09T12:21:54.213Z</time></trkpt><trkpt lat="44.1394733" lon="12.0896067"><ele>64.28571428571429</ele><time>2026-04-09T12:21:55.213Z</time></trkpt><trkpt lat="44.1394167" lon="12.0895483"><ele>63.42857142857143</ele><time>2026-04-09T12:21:56.213Z</time></trkpt><trkpt lat="44.139355" lon="12.0894867"><ele>62.57142857142857</ele><time>2026-04-09T12:21:57.213Z</time></trkpt><trkpt lat="44.1392933" lon="12.089425"><ele>61.71428571428571</ele><time>2026-04-09T12:21:58.213Z</time></trkpt><trkpt lat="44.1392333" lon="12.0893633"><ele>60.85714285714286</ele><time>2026-04-09T12:21:59.213Z</time></trkpt><trkpt lat="44.139175" lon="12.0893"><ele>60.0</ele><time>2026-04-09T12:22:00.213Z</time></trkpt><trkpt lat="44.1391133" lon="12.089225"><ele>60.0</ele><time>2026-04-09T12:22:01.213Z</time></trkpt><trkpt lat="44.1390533" lon="12.0891483"><ele>60.0</ele><time>2026-04-09T12:22:02.213Z</time></trkpt><trkpt lat="44.1389917" lon="12.0890867"><ele>60.0</ele><time>2026-04-09T12:22:03.213Z</time></trkpt><trkpt lat="44.1389317" lon="12.0890233"><ele>60.0</ele><time>2026-04-09T12:22:04.213Z</time></trkpt><trkpt lat="44.13887" lon="12.08895"><ele>60.0</ele><time>2026-04-09T12:22:05.213Z</time></trkpt><trkpt lat="44.13881" lon="12.0888867"><ele>60.0</ele><time>2026-04-09T12:22:06.213Z</time></trkpt><trkpt lat="44.1387467" lon="12.0888233"><ele>60.0</ele><time>2026-04-09T12:22:07.213Z</time></trkpt><trkpt lat="44.138685" lon="12.0887633"><ele>60.0</ele><time>2026-04-09T12:22:08.213Z</time></trkpt><trkpt lat="44.1386267" lon="12.0886883"><ele>60.0</ele><time>2026-04-09T12:22:09.213Z</time></trkpt><trkpt lat="44.138565" lon="12.0886083"><ele>60.0</ele><time>2026-04-09T12:22:10.213Z</time></trkpt><trkpt lat="44.1385083" lon="12.0885533"><ele>60.0</ele><time>2026-04-09T12:22:11.213Z</time></trkpt><trkpt lat="44.1384517" lon="12.0884883"><ele>60.0</ele><time>2026-04-09T12:22:12.213Z</time></trkpt><trkpt lat="44.1383967" lon="12.08842"><ele>60.0</ele><time>2026-04-09T12:22:13.213Z</time></trkpt><trkpt lat="44.1383367" lon="12.08837"><ele>60.0</ele><time>2026-04-09T12:22:14.213Z</time></trkpt><trkpt lat="44.13828" lon="12.0883133"><ele>60.0</ele><time>2026-04-09T12:22:15.213Z</time></trkpt><trkpt lat="44.1382183" lon="12.088255"><ele>60.0</ele><time>2026-04-09T12:22:16.213Z</time></trkpt><trkpt lat="44.1381617" lon="12.0881983"><ele>60.0</ele><time>2026-04-09T12:22:17.213Z</time></trkpt><trkpt lat="44.1381017" lon="12.0881417"><ele>60.0</ele><time>2026-04-09T12:22:18.213Z</time></trkpt><trkpt lat="44.138045" lon="12.08809"><ele>60.0</ele><time>2026-04-09T12:22:19.213Z</time></trkpt><trkpt lat="44.137995" lon="12.08803"><ele>60.5</ele><time>2026-04-09T12:22:20.213Z</time></trkpt><trkpt lat="44.137895" lon="12.0879233"><ele>61.0</ele><time>2026-04-09T12:22:22.213Z</time></trkpt><trkpt lat="44.137795" lon="12.0878167"><ele>61.5</ele><time>2026-04-09T12:22:24.213Z</time></trkpt><trkpt lat="44.137685" lon="12.08772"><ele>62.0</ele><time>2026-04-09T12:22:26.213Z</time></trkpt><trkpt lat="44.1376283" lon="12.0876633"><ele>62.0</ele><time>2026-04-09T12:22:27.213Z</time></trkpt><trkpt lat="44.137575" lon="12.0876083"><ele>62.00000000000001</ele><time>2026-04-09T12:22:28.213Z</time></trkpt><trkpt lat="44.1375183" lon="12.0875467"><ele>62.0</ele><time>2026-04-09T12:22:29.213Z</time></trkpt><trkpt lat="44.137465" lon="12.0874867"><ele>62.0</ele><time>2026-04-09T12:22:30.213Z</time></trkpt><trkpt lat="44.13741" lon="12.08743"><ele>62.00000000000001</ele><time>2026-04-09T12:22:31.213Z</time></trkpt><trkpt lat="44.137355" lon="12.0873667"><ele>62.0</ele><time>2026-04-09T12:22:32.213Z</time></trkpt><trkpt lat="44.1373" lon="12.0873067"><ele>62.0</ele><time>2026-04-09T12:22:33.213Z</time></trkpt><trkpt lat="44.137245" lon="12.0872483"><ele>62.0</ele><time>2026-04-09T12:22:34.213Z</time></trkpt><trkpt lat="44.1371833" lon="12.0871833"><ele>62.00000000000001</ele><time>2026-04-09T12:22:35.213Z</time></trkpt><trkpt lat="44.1371283" lon="12.0871217"><ele>62.0</ele><time>2026-04-09T12:22:36.213Z</time></trkpt><trkpt lat="44.137075" lon="12.087055"><ele>62.0</ele><time>2026-04-09T12:22:37.213Z</time></trkpt><trkpt lat="44.1370117" lon="12.08699"><ele>62.00000000000001</ele><time>2026-04-09T12:22:38.213Z</time></trkpt><trkpt lat="44.1369617" lon="12.0869317"><ele>62.0</ele><time>2026-04-09T12:22:39.213Z</time></trkpt><trkpt lat="44.1369133" lon="12.086875"><ele>62.0</ele><time>2026-04-09T12:22:40.213Z</time></trkpt><trkpt lat="44.136855" lon="12.0868183"><ele>62.0</ele><time>2026-04-09T12:22:41.213Z</time></trkpt><trkpt lat="44.1367933" lon="12.086765"><ele>62.00000000000001</ele><time>2026-04-09T12:22:42.213Z</time></trkpt><trkpt lat="44.1367367" lon="12.0867033"><ele>62.0</ele><time>2026-04-09T12:22:43.213Z</time></trkpt><trkpt lat="44.1366833" lon="12.0866383"><ele>62.0</ele><time>2026-04-09T12:22:44.213Z</time></trkpt><trkpt lat="44.1366217" lon="12.0865867"><ele>62.00000000000001</ele><time>2026-04-09T12:22:45.213Z</time></trkpt><trkpt lat="44.1365683" lon="12.0865317"><ele>62.0</ele><time>2026-04-09T12:22:46.213Z</time></trkpt><trkpt lat="44.13651" lon="12.0864667"><ele>62.0</ele><time>2026-04-09T12:22:47.213Z</time></trkpt><trkpt lat="44.13645" lon="12.0864117"><ele>62.0</ele><time>2026-04-09T12:22:48.213Z</time></trkpt><trkpt lat="44.1363917" lon="12.086345"><ele>62.00000000000001</ele><time>2026-04-09T12:22:49.213Z</time></trkpt><trkpt lat="44.1363317" lon="12.086285"><ele>62.0</ele><time>2026-04-09T12:22:50.213Z</time></trkpt><trkpt lat="44.13627" lon="12.0862217"><ele>62.0</ele><time>2026-04-09T12:22:51.213Z</time></trkpt><trkpt lat="44.1362067" lon="12.0861617"><ele>62.00000000000001</ele><time>2026-04-09T12:22:52.213Z</time></trkpt><trkpt lat="44.1361483" lon="12.086105"><ele>62.0</ele><time>2026-04-09T12:22:53.213Z</time></trkpt><trkpt lat="44.1360917" lon="12.08605"><ele>62.0</ele><time>2026-04-09T12:22:54.213Z</time></trkpt><trkpt lat="44.1360367" lon="12.0859917"><ele>62.0</ele><time>2026-04-09T12:22:55.213Z</time></trkpt><trkpt lat="44.1359817" lon="12.085935"><ele>62.00000000000001</ele><time>2026-04-09T12:22:56.213Z</time></trkpt><trkpt lat="44.135925" lon="12.08588"><ele>62.0</ele><time>2026-04-09T12:22:57.213Z</time></trkpt><trkpt lat="44.135865" lon="12.08581"><ele>62.0</ele><time>2026-04-09T12:22:58.213Z</time></trkpt><trkpt lat="44.1358117" lon="12.0857383"><ele>62.00000000000001</ele><time>2026-04-09T12:22:59.213Z</time></trkpt><trkpt lat="44.1357517" lon="12.085675"><ele>62.0</ele><time>2026-04-09T12:23:00.213Z</time></trkpt><trkpt lat="44.1356933" lon="12.0856067"><ele>62.0</ele><time>2026-04-09T12:23:01.213Z</time></trkpt><trkpt lat="44.1356317" lon="12.0855433"><ele>62.142857142857146</ele><time>2026-04-09T12:23:02.213Z</time></trkpt><trkpt lat="44.1355683" lon="12.0854867"><ele>62.28571428571429</ele><time>2026-04-09T12:23:03.213Z</time></trkpt><trkpt lat="44.1355083" lon="12.08543"><ele>62.42857142857143</ele><time>2026-04-09T12:23:04.213Z</time></trkpt><trkpt lat="44.1354483" lon="12.085375"><ele>62.57142857142857</ele><time>2026-04-09T12:23:05.213Z</time></trkpt><trkpt lat="44.13539" lon="12.0853167"><ele>62.714285714285715</ele><time>2026-04-09T12:23:06.213Z</time></trkpt><trkpt lat="44.135335" lon="12.0852617"><ele>62.85714285714286</ele><time>2026-04-09T12:23:07.213Z</time></trkpt><trkpt lat="44.1352833" lon="12.085205"><ele>63.0</ele><time>2026-04-09T12:23:08.213Z</time></trkpt><trkpt lat="44.1352317" lon="12.0851417"><ele>63.0</ele><time>2026-04-09T12:23:09.213Z</time></trkpt><trkpt lat="44.135175" lon="12.0850717"><ele>63.0</ele><time>2026-04-09T12:23:10.213Z</time></trkpt><trkpt lat="44.13512" lon="12.085"><ele>63.0</ele><time>2026-04-09T12:23:11.213Z</time></trkpt><trkpt lat="44.1350583" lon="12.0849417"><ele>63.0</ele><time>2026-04-09T12:23:12.213Z</time></trkpt><trkpt lat="44.1350033" lon="12.0848817"><ele>63.0</ele><time>2026-04-09T12:23:13.214Z</time></trkpt><trkpt lat="44.13495" lon="12.08482"><ele>63.0</ele><time>2026-04-09T12:23:14.213Z</time></trkpt><trkpt lat="44.1349" lon="12.0847467"><ele>63.0</ele><time>2026-04-09T12:23:15.213Z</time></trkpt><trkpt lat="44.1348433" lon="12.0846833"><ele>63.5</ele><time>2026-04-09T12:23:16.213Z</time></trkpt><trkpt lat="44.1347917" lon="12.0846233"><ele>64.0</ele><time>2026-04-09T12:23:17.213Z</time></trkpt><trkpt lat="44.13475" lon="12.084555"><ele>64.5</ele><time>2026-04-09T12:23:18.213Z</time></trkpt><trkpt lat="44.1347083" lon="12.0844833"><ele>65.0</ele><time>2026-04-09T12:23:19.213Z</time></trkpt><trkpt lat="44.134665" lon="12.0844133"><ele>65.5</ele><time>2026-04-09T12:23:20.213Z</time></trkpt><trkpt lat="44.134585" lon="12.0842767"><ele>66.0</ele><time>2026-04-09T12:23:22.213Z</time></trkpt><trkpt lat="44.1345117" lon="12.0841367"><ele>65.2</ele><time>2026-04-09T12:23:24.213Z</time></trkpt><trkpt lat="44.134445" lon="12.0839983"><ele>64.39999999999999</ele><time>2026-04-09T12:23:26.213Z</time></trkpt><trkpt lat="44.1344167" lon="12.083915"><ele>63.6</ele><time>2026-04-09T12:23:27.213Z</time></trkpt><trkpt lat="44.1343667" lon="12.083755"><ele>62.8</ele><time>2026-04-09T12:23:29.213Z</time></trkpt><trkpt lat="44.1343417" lon="12.0836633"><ele>62.0</ele><time>2026-04-09T12:23:30.213Z</time></trkpt><trkpt lat="44.13431" lon="12.0835783"><ele>62.0</ele><time>2026-04-09T12:23:31.213Z</time></trkpt><trkpt lat="44.13428" lon="12.0834967"><ele>62.00000000000001</ele><time>2026-04-09T12:23:32.213Z</time></trkpt><trkpt lat="44.1342467" lon="12.0834083"><ele>62.0</ele><time>2026-04-09T12:23:33.213Z</time></trkpt><trkpt lat="44.134215" lon="12.08332"><ele>62.0</ele><time>2026-04-09T12:23:34.213Z</time></trkpt><trkpt lat="44.1341783" lon="12.0832333"><ele>62.00000000000001</ele><time>2026-04-09T12:23:35.213Z</time></trkpt><trkpt lat="44.1341483" lon="12.0831417"><ele>62.0</ele><time>2026-04-09T12:23:36.213Z</time></trkpt><trkpt lat="44.13412" lon="12.08305"><ele>62.0</ele><time>2026-04-09T12:23:37.213Z</time></trkpt><trkpt lat="44.13409" lon="12.0829533"><ele>62.16666666666667</ele><time>2026-04-09T12:23:38.213Z</time></trkpt><trkpt lat="44.134055" lon="12.0828567"><ele>62.333333333333336</ele><time>2026-04-09T12:23:39.213Z</time></trkpt><trkpt lat="44.1340217" lon="12.082755"><ele>62.5</ele><time>2026-04-09T12:23:40.213Z</time></trkpt><trkpt lat="44.1339933" lon="12.0826517"><ele>62.66666666666667</ele><time>2026-04-09T12:23:41.213Z</time></trkpt><trkpt lat="44.1339633" lon="12.0825517"><ele>62.833333333333336</ele><time>2026-04-09T12:23:42.213Z</time></trkpt><trkpt lat="44.133935" lon="12.082445"><ele>63.0</ele><time>2026-04-09T12:23:43.213Z</time></trkpt><trkpt lat="44.1339083" lon="12.08234"><ele>62.666666666666664</ele><time>2026-04-09T12:23:44.213Z</time></trkpt><trkpt lat="44.13388" lon="12.0822367"><ele>62.33333333333333</ele><time>2026-04-09T12:23:45.213Z</time></trkpt><trkpt lat="44.13385" lon="12.0821333"><ele>62.0</ele><time>2026-04-09T12:23:46.213Z</time></trkpt><trkpt lat="44.13382" lon="12.08203"><ele>61.666666666666664</ele><time>2026-04-09T12:23:47.213Z</time></trkpt><trkpt lat="44.1337917" lon="12.0819267"><ele>61.33333333333333</ele><time>2026-04-09T12:23:48.213Z</time></trkpt><trkpt lat="44.1337633" lon="12.0818267"><ele>61.0</ele><time>2026-04-09T12:23:49.213Z</time></trkpt><trkpt lat="44.1337333" lon="12.08173"><ele>60.99999999999999</ele><time>2026-04-09T12:23:50.214Z</time></trkpt><trkpt lat="44.1336933" lon="12.081645"><ele>61.0</ele><time>2026-04-09T12:23:51.213Z</time></trkpt><trkpt lat="44.1336433" lon="12.081565"><ele>60.99999999999999</ele><time>2026-04-09T12:23:52.213Z</time></trkpt><trkpt lat="44.1335917" lon="12.0815"><ele>60.99999999999999</ele><time>2026-04-09T12:23:53.213Z</time></trkpt><trkpt lat="44.1335333" lon="12.0814533"><ele>61.0</ele><time>2026-04-09T12:23:54.213Z</time></trkpt><trkpt lat="44.133465" lon="12.08142"><ele>60.99999999999999</ele><time>2026-04-09T12:23:55.213Z</time></trkpt><trkpt lat="44.1333933" lon="12.081385"><ele>60.99999999999999</ele><time>2026-04-09T12:23:56.213Z</time></trkpt><trkpt lat="44.1333217" lon="12.081345"><ele>60.666666666666664</ele><time>2026-04-09T12:23:57.213Z</time></trkpt><trkpt lat="44.133255" lon="12.0813117"><ele>60.33333333333333</ele><time>2026-04-09T12:23:58.213Z</time></trkpt><trkpt lat="44.1331867" lon="12.0812833"><ele>60.0</ele><time>2026-04-09T12:23:59.213Z</time></trkpt><trkpt lat="44.1331183" lon="12.0812567"><ele>59.66666666666667</ele><time>2026-04-09T12:24:00.213Z</time></trkpt><trkpt lat="44.1330533" lon="12.081225"><ele>59.333333333333336</ele><time>2026-04-09T12:24:01.213Z</time></trkpt><trkpt lat="44.1329467" lon="12.0811667"><ele>59.0</ele><time>2026-04-09T12:24:03.213Z</time></trkpt><trkpt lat="44.1328383" lon="12.081125"><ele>58.800000000000004</ele><time>2026-04-09T12:24:05.213Z</time></trkpt><trkpt lat="44.1327233" lon="12.0810867"><ele>58.60000000000001</ele><time>2026-04-09T12:24:07.213Z</time></trkpt><trkpt lat="44.1326033" lon="12.0810267"><ele>58.4</ele><time>2026-04-09T12:24:09.213Z</time></trkpt><trkpt lat="44.1325367" lon="12.081"><ele>58.2</ele><time>2026-04-09T12:24:10.213Z</time></trkpt><trkpt lat="44.1324233" lon="12.0809483"><ele>58.0</ele><time>2026-04-09T12:24:12.213Z</time></trkpt><trkpt lat="44.1323133" lon="12.080905"><ele>58.2</ele><time>2026-04-09T12:24:14.213Z</time></trkpt><trkpt lat="44.1322033" lon="12.0808767"><ele>58.4</ele><time>2026-04-09T12:24:16.213Z</time></trkpt><trkpt lat="44.1321433" lon="12.08085"><ele>58.60000000000001</ele><time>2026-04-09T12:24:17.213Z</time></trkpt><trkpt lat="44.1320817" lon="12.0808183"><ele>58.800000000000004</ele><time>2026-04-09T12:24:18.213Z</time></trkpt><trkpt lat="44.131965" lon="12.0807683"><ele>59.0</ele><time>2026-04-09T12:24:20.213Z</time></trkpt><trkpt lat="44.131845" lon="12.080735"><ele>59.0</ele><time>2026-04-09T12:24:22.213Z</time></trkpt><trkpt lat="44.1317267" lon="12.0806983"><ele>59.0</ele><time>2026-04-09T12:24:24.213Z</time></trkpt><trkpt lat="44.131615" lon="12.0806433"><ele>59.0</ele><time>2026-04-09T12:24:26.213Z</time></trkpt><trkpt lat="44.1315033" lon="12.0806067"><ele>59.0</ele><time>2026-04-09T12:24:28.213Z</time></trkpt><trkpt lat="44.1314083" lon="12.080585"><ele>59.6</ele><time>2026-04-09T12:24:30.213Z</time></trkpt><trkpt lat="44.1313133" lon="12.08055"><ele>60.2</ele><time>2026-04-09T12:24:32.213Z</time></trkpt><trkpt lat="44.131215" lon="12.0805117"><ele>60.800000000000004</ele><time>2026-04-09T12:24:34.213Z</time></trkpt><trkpt lat="44.1311183" lon="12.0804767"><ele>61.400000000000006</ele><time>2026-04-09T12:24:36.213Z</time></trkpt><trkpt lat="44.13101" lon="12.0804333"><ele>62.0</ele><time>2026-04-09T12:24:38.213Z</time></trkpt><trkpt lat="44.13091" lon="12.0803867"><ele>62.0</ele><time>2026-04-09T12:24:40.213Z</time></trkpt><trkpt lat="44.1308117" lon="12.0803283"><ele>62.0</ele><time>2026-04-09T12:24:42.213Z</time></trkpt><trkpt lat="44.1307067" lon="12.0802917"><ele>62.0</ele><time>2026-04-09T12:24:44.213Z</time></trkpt><trkpt lat="44.1306067" lon="12.080255"><ele>62.0</ele><time>2026-04-09T12:24:46.213Z</time></trkpt><trkpt lat="44.1305083" lon="12.08021"><ele>62.0</ele><time>2026-04-09T12:24:48.213Z</time></trkpt><trkpt lat="44.1304017" lon="12.08017"><ele>63.2</ele><time>2026-04-09T12:24:50.213Z</time></trkpt><trkpt lat="44.1303" lon="12.0801317"><ele>64.4</ele><time>2026-04-09T12:24:52.213Z</time></trkpt><trkpt lat="44.1302017" lon="12.0800967"><ele>65.6</ele><time>2026-04-09T12:24:54.213Z</time></trkpt><trkpt lat="44.1301067" lon="12.0800617"><ele>66.8</ele><time>2026-04-09T12:24:56.213Z</time></trkpt><trkpt lat="44.1300217" lon="12.0800317"><ele>68.0</ele><time>2026-04-09T12:24:58.213Z</time></trkpt><trkpt lat="44.129935" lon="12.0800117"><ele>67.6</ele><time>2026-04-09T12:25:00.213Z</time></trkpt><trkpt lat="44.1298517" lon="12.080025"><ele>67.19999999999999</ele><time>2026-04-09T12:25:02.213Z</time></trkpt><trkpt lat="44.1297567" lon="12.0800467"><ele>66.8</ele><time>2026-04-09T12:25:04.214Z</time></trkpt><trkpt lat="44.129665" lon="12.080075"><ele>66.39999999999999</ele><time>2026-04-09T12:25:06.214Z</time></trkpt><trkpt lat="44.1295817" lon="12.0801167"><ele>66.0</ele><time>2026-04-09T12:25:08.214Z</time></trkpt><trkpt lat="44.129495" lon="12.0801783"><ele>66.0</ele><time>2026-04-09T12:25:10.214Z</time></trkpt><trkpt lat="44.1294133" lon="12.0802367"><ele>66.0</ele><time>2026-04-09T12:25:12.214Z</time></trkpt><trkpt lat="44.1293333" lon="12.0802817"><ele>66.0</ele><time>2026-04-09T12:25:14.214Z</time></trkpt><trkpt lat="44.1292433" lon="12.0803317"><ele>66.0</ele><time>2026-04-09T12:25:16.214Z</time></trkpt><trkpt lat="44.1291567" lon="12.080365"><ele>66.0</ele><time>2026-04-09T12:25:18.214Z</time></trkpt><trkpt lat="44.1290567" lon="12.0803717"><ele>67.5</ele><time>2026-04-09T12:25:20.214Z</time></trkpt><trkpt lat="44.1289633" lon="12.0803617"><ele>69.0</ele><time>2026-04-09T12:25:22.214Z</time></trkpt><trkpt lat="44.1288917" lon="12.080325"><ele>70.5</ele><time>2026-04-09T12:25:24.214Z</time></trkpt><trkpt lat="44.1288317" lon="12.0802683"><ele>72.0</ele><time>2026-04-09T12:25:26.214Z</time></trkpt><trkpt lat="44.128775" lon="12.0802133"><ele>73.5</ele><time>2026-04-09T12:25:28.215Z</time></trkpt><trkpt lat="44.1287167" lon="12.08015"><ele>75.0</ele><time>2026-04-09T12:25:30.214Z</time></trkpt><trkpt lat="44.1286567" lon="12.0800717"><ele>75.0</ele><time>2026-04-09T12:25:32.214Z</time></trkpt><trkpt lat="44.1286083" lon="12.0799917"><ele>75.0</ele><time>2026-04-09T12:25:34.214Z</time></trkpt><trkpt lat="44.1285583" lon="12.0799067"><ele>75.0</ele><time>2026-04-09T12:25:36.214Z</time></trkpt><trkpt lat="44.1285067" lon="12.0798233"><ele>75.0</ele><time>2026-04-09T12:25:38.214Z</time></trkpt><trkpt lat="44.1284567" lon="12.0797533"><ele>75.0</ele><time>2026-04-09T12:25:40.214Z</time></trkpt><trkpt lat="44.12841" lon="12.0796783"><ele>75.0</ele><time>2026-04-09T12:25:42.214Z</time></trkpt><trkpt lat="44.1283483" lon="12.079575"><ele>74.57142857142857</ele><time>2026-04-09T12:25:45.214Z</time></trkpt><trkpt lat="44.1283017" lon="12.0795"><ele>74.14285714285714</ele><time>2026-04-09T12:25:47.214Z</time></trkpt><trkpt lat="44.1282517" lon="12.0794333"><ele>73.71428571428572</ele><time>2026-04-09T12:25:49.214Z</time></trkpt><trkpt lat="44.1281967" lon="12.0793717"><ele>73.28571428571428</ele><time>2026-04-09T12:25:51.214Z</time></trkpt><trkpt lat="44.128135" lon="12.0793183"><ele>72.85714285714286</ele><time>2026-04-09T12:25:53.214Z</time></trkpt><trkpt lat="44.1280833" lon="12.0792583"><ele>72.42857142857143</ele><time>2026-04-09T12:25:55.214Z</time></trkpt><trkpt lat="44.12803" lon="12.0791933"><ele>72.0</ele><time>2026-04-09T12:25:57.214Z</time></trkpt><trkpt lat="44.1279717" lon="12.0791167"><ele>72.83333333333333</ele><time>2026-04-09T12:25:59.214Z</time></trkpt><trkpt lat="44.127925" lon="12.0790483"><ele>73.66666666666667</ele><time>2026-04-09T12:26:01.214Z</time></trkpt><trkpt lat="44.1278833" lon="12.07898"><ele>74.5</ele><time>2026-04-09T12:26:03.214Z</time></trkpt><trkpt lat="44.127845" lon="12.078885"><ele>75.33333333333334</ele><time>2026-04-09T12:26:05.214Z</time></trkpt><trkpt lat="44.12779" lon="12.078795"><ele>76.16666666666667</ele><time>2026-04-09T12:26:07.214Z</time></trkpt><trkpt lat="44.12774" lon="12.078715"><ele>77.0</ele><time>2026-04-09T12:26:09.214Z</time></trkpt><trkpt lat="44.127695" lon="12.0786233"><ele>77.0</ele><time>2026-04-09T12:26:11.214Z</time></trkpt><trkpt lat="44.1276267" lon="12.07852"><ele>77.0</ele><time>2026-04-09T12:26:13.215Z</time></trkpt><trkpt lat="44.127555" lon="12.07844"><ele>77.0</ele><time>2026-04-09T12:26:15.214Z</time></trkpt><trkpt lat="44.1274917" lon="12.0783617"><ele>77.0</ele><time>2026-04-09T12:26:17.214Z</time></trkpt><trkpt lat="44.1274217" lon="12.0782817"><ele>77.0</ele><time>2026-04-09T12:26:19.214Z</time></trkpt><trkpt lat="44.127355" lon="12.078215"><ele>77.66666666666667</ele><time>2026-04-09T12:26:21.214Z</time></trkpt><trkpt lat="44.12728" lon="12.0781483"><ele>78.33333333333334</ele><time>2026-04-09T12:26:23.214Z</time></trkpt><trkpt lat="44.1272083" lon="12.0781133"><ele>79.0</ele><time>2026-04-09T12:26:25.214Z</time></trkpt><trkpt lat="44.1271333" lon="12.0780767"><ele>79.66666666666667</ele><time>2026-04-09T12:26:27.214Z</time></trkpt><trkpt lat="44.12707" lon="12.07805"><ele>80.33333333333333</ele><time>2026-04-09T12:26:29.214Z</time></trkpt><trkpt lat="44.1269983" lon="12.0780167"><ele>81.0</ele><time>2026-04-09T12:26:31.214Z</time></trkpt><trkpt lat="44.1269217" lon="12.0779867"><ele>81.0</ele><time>2026-04-09T12:26:33.214Z</time></trkpt><trkpt lat="44.1268567" lon="12.0779617"><ele>81.0</ele><time>2026-04-09T12:26:35.214Z</time></trkpt><trkpt lat="44.1267883" lon="12.077935"><ele>81.0</ele><time>2026-04-09T12:26:37.214Z</time></trkpt><trkpt lat="44.1267133" lon="12.077895"><ele>81.0</ele><time>2026-04-09T12:26:39.214Z</time></trkpt><trkpt lat="44.1266267" lon="12.0778583"><ele>81.0</ele><time>2026-04-09T12:26:41.214Z</time></trkpt><trkpt lat="44.1265583" lon="12.0778217"><ele>81.0</ele><time>2026-04-09T12:26:43.214Z</time></trkpt><trkpt lat="44.1264917" lon="12.0777983"><ele>81.83333333333333</ele><time>2026-04-09T12:26:45.214Z</time></trkpt><trkpt lat="44.1264283" lon="12.0777717"><ele>82.66666666666667</ele><time>2026-04-09T12:26:47.214Z</time></trkpt><trkpt lat="44.1263617" lon="12.0777433"><ele>83.5</ele><time>2026-04-09T12:26:49.214Z</time></trkpt><trkpt lat="44.12629" lon="12.0777133"><ele>84.33333333333334</ele><time>2026-04-09T12:26:51.214Z</time></trkpt><trkpt lat="44.1262183" lon="12.077675"><ele>85.16666666666667</ele><time>2026-04-09T12:26:53.214Z</time></trkpt><trkpt lat="44.1261467" lon="12.0776417"><ele>86.0</ele><time>2026-04-09T12:26:55.214Z</time></trkpt><trkpt lat="44.1260633" lon="12.0775983"><ele>86.0</ele><time>2026-04-09T12:26:57.214Z</time></trkpt><trkpt lat="44.1259867" lon="12.0775617"><ele>86.0</ele><time>2026-04-09T12:26:59.214Z</time></trkpt><trkpt lat="44.125915" lon="12.077545"><ele>86.0</ele><time>2026-04-09T12:27:01.214Z</time></trkpt><trkpt lat="44.1258367" lon="12.0775167"><ele>86.0</ele><time>2026-04-09T12:27:03.214Z</time></trkpt><trkpt lat="44.12576" lon="12.0774883"><ele>86.0</ele><time>2026-04-09T12:27:05.214Z</time></trkpt><trkpt lat="44.1256917" lon="12.077465"><ele>86.0</ele><time>2026-04-09T12:27:07.214Z</time></trkpt><trkpt lat="44.12562" lon="12.0774383"><ele>85.0</ele><time>2026-04-09T12:27:09.214Z</time></trkpt><trkpt lat="44.12555" lon="12.077405"><ele>84.0</ele><time>2026-04-09T12:27:11.214Z</time></trkpt><trkpt lat="44.1254717" lon="12.0773633"><ele>83.0</ele><time>2026-04-09T12:27:13.214Z</time></trkpt><trkpt lat="44.1253767" lon="12.0773083"><ele>82.0</ele><time>2026-04-09T12:27:15.214Z</time></trkpt><trkpt lat="44.125275" lon="12.0772683"><ele>81.0</ele><time>2026-04-09T12:27:17.214Z</time></trkpt><trkpt lat="44.1251533" lon="12.0772217"><ele>81.0</ele><time>2026-04-09T12:27:19.214Z</time></trkpt><trkpt lat="44.1250917" lon="12.077195"><ele>81.0</ele><time>2026-04-09T12:27:20.214Z</time></trkpt><trkpt lat="44.12503" lon="12.0771683"><ele>81.0</ele><time>2026-04-09T12:27:21.214Z</time></trkpt><trkpt lat="44.1249717" lon="12.07713"><ele>81.0</ele><time>2026-04-09T12:27:22.214Z</time></trkpt><trkpt lat="44.12492" lon="12.077075"><ele>81.0</ele><time>2026-04-09T12:27:23.214Z</time></trkpt><trkpt lat="44.1248667" lon="12.077015"><ele>81.0</ele><time>2026-04-09T12:27:24.214Z</time></trkpt><trkpt lat="44.12482" lon="12.0769467"><ele>81.0</ele><time>2026-04-09T12:27:25.214Z</time></trkpt><trkpt lat="44.124775" lon="12.0768667"><ele>81.83333333333333</ele><time>2026-04-09T12:27:26.214Z</time></trkpt><trkpt lat="44.1247333" lon="12.0767717"><ele>82.66666666666667</ele><time>2026-04-09T12:27:27.214Z</time></trkpt><trkpt lat="44.1247033" lon="12.0766767"><ele>83.5</ele><time>2026-04-09T12:27:28.214Z</time></trkpt><trkpt lat="44.1246783" lon="12.07657"><ele>84.33333333333334</ele><time>2026-04-09T12:27:29.214Z</time></trkpt><trkpt lat="44.1246517" lon="12.0764617"><ele>85.16666666666667</ele><time>2026-04-09T12:27:30.214Z</time></trkpt><trkpt lat="44.124625" lon="12.0763483"><ele>86.0</ele><time>2026-04-09T12:27:31.214Z</time></trkpt><trkpt lat="44.1246" lon="12.076245"><ele>86.0</ele><time>2026-04-09T12:27:32.214Z</time></trkpt><trkpt lat="44.1245767" lon="12.0761367"><ele>86.0</ele><time>2026-04-09T12:27:33.214Z</time></trkpt><trkpt lat="44.1245467" lon="12.0760217"><ele>86.0</ele><time>2026-04-09T12:27:34.214Z</time></trkpt><trkpt lat="44.12452" lon="12.0758983"><ele>86.0</ele><time>2026-04-09T12:27:35.214Z</time></trkpt><trkpt lat="44.12449" lon="12.0757717"><ele>86.0</ele><time>2026-04-09T12:27:36.214Z</time></trkpt><trkpt lat="44.1244583" lon="12.0756433"><ele>84.8</ele><time>2026-04-09T12:27:37.214Z</time></trkpt><trkpt lat="44.1244267" lon="12.0755217"><ele>83.6</ele><time>2026-04-09T12:27:38.214Z</time></trkpt><trkpt lat="44.124395" lon="12.07541"><ele>82.4</ele><time>2026-04-09T12:27:39.214Z</time></trkpt><trkpt lat="44.1243667" lon="12.0752933"><ele>81.2</ele><time>2026-04-09T12:27:40.214Z</time></trkpt><trkpt lat="44.1243417" lon="12.0751683"><ele>80.0</ele><time>2026-04-09T12:27:41.214Z</time></trkpt><trkpt lat="44.12431" lon="12.0750483"><ele>80.0</ele><time>2026-04-09T12:27:42.214Z</time></trkpt><trkpt lat="44.1242817" lon="12.0749417"><ele>80.0</ele><time>2026-04-09T12:27:43.214Z</time></trkpt><trkpt lat="44.1242567" lon="12.0748133"><ele>80.0</ele><time>2026-04-09T12:27:44.214Z</time></trkpt><trkpt lat="44.1242283" lon="12.074695"><ele>80.0</ele><time>2026-04-09T12:27:45.214Z</time></trkpt><trkpt lat="44.1241933" lon="12.07458"><ele>80.0</ele><time>2026-04-09T12:27:46.214Z</time></trkpt><trkpt lat="44.1241567" lon="12.07446"><ele>80.0</ele><time>2026-04-09T12:27:47.214Z</time></trkpt><trkpt lat="44.1241267" lon="12.0743383"><ele>80.0</ele><time>2026-04-09T12:27:48.214Z</time></trkpt><trkpt lat="44.1240883" lon="12.0742167"><ele>80.0</ele><time>2026-04-09T12:27:49.214Z</time></trkpt><trkpt lat="44.124055" lon="12.0740967"><ele>80.0</ele><time>2026-04-09T12:27:50.214Z</time></trkpt><trkpt lat="44.1240267" lon="12.0739783"><ele>80.0</ele><time>2026-04-09T12:27:51.214Z</time></trkpt><trkpt lat="44.124" lon="12.073855"><ele>80.0</ele><time>2026-04-09T12:27:52.214Z</time></trkpt><trkpt lat="44.1239683" lon="12.07373"><ele>80.0</ele><time>2026-04-09T12:27:53.214Z</time></trkpt><trkpt lat="44.123935" lon="12.0736067"><ele>80.0</ele><time>2026-04-09T12:27:54.214Z</time></trkpt><trkpt lat="44.1238967" lon="12.0734817"><ele>80.0</ele><time>2026-04-09T12:27:55.214Z</time></trkpt><trkpt lat="44.1238667" lon="12.073365"><ele>80.0</ele><time>2026-04-09T12:27:56.214Z</time></trkpt><trkpt lat="44.1238283" lon="12.0732483"><ele>78.6</ele><time>2026-04-09T12:27:57.214Z</time></trkpt><trkpt lat="44.1238067" lon="12.073145"><ele>77.2</ele><time>2026-04-09T12:27:58.214Z</time></trkpt><trkpt lat="44.1237767" lon="12.0730267"><ele>75.8</ele><time>2026-04-09T12:27:59.214Z</time></trkpt><trkpt lat="44.1237333" lon="12.0729067"><ele>74.4</ele><time>2026-04-09T12:28:00.214Z</time></trkpt><trkpt lat="44.1236883" lon="12.0727833"><ele>73.0</ele><time>2026-04-09T12:28:01.214Z</time></trkpt><trkpt lat="44.1236483" lon="12.0726683"><ele>73.0</ele><time>2026-04-09T12:28:02.214Z</time></trkpt><trkpt lat="44.1236217" lon="12.0725233"><ele>73.0</ele><time>2026-04-09T12:28:03.214Z</time></trkpt><trkpt lat="44.1235867" lon="12.0723733"><ele>73.0</ele><time>2026-04-09T12:28:04.214Z</time></trkpt><trkpt lat="44.1235583" lon="12.0722317"><ele>73.0</ele><time>2026-04-09T12:28:05.214Z</time></trkpt><trkpt lat="44.12353" lon="12.0720817"><ele>73.0</ele><time>2026-04-09T12:28:06.214Z</time></trkpt><trkpt lat="44.1234967" lon="12.07194"><ele>72.4</ele><time>2026-04-09T12:28:07.214Z</time></trkpt><trkpt lat="44.1234617" lon="12.071795"><ele>71.8</ele><time>2026-04-09T12:28:08.214Z</time></trkpt><trkpt lat="44.1234217" lon="12.0716533"><ele>71.2</ele><time>2026-04-09T12:28:09.214Z</time></trkpt><trkpt lat="44.1233817" lon="12.07152"><ele>70.6</ele><time>2026-04-09T12:28:10.214Z</time></trkpt><trkpt lat="44.123345" lon="12.071385"><ele>70.0</ele><time>2026-04-09T12:28:11.214Z</time></trkpt><trkpt lat="44.123305" lon="12.07126"><ele>70.0</ele><time>2026-04-09T12:28:12.214Z</time></trkpt><trkpt lat="44.1232667" lon="12.071125"><ele>70.0</ele><time>2026-04-09T12:28:13.214Z</time></trkpt><trkpt lat="44.1232333" lon="12.0709917"><ele>70.0</ele><time>2026-04-09T12:28:14.215Z</time></trkpt><trkpt lat="44.1231967" lon="12.0708517"><ele>70.0</ele><time>2026-04-09T12:28:15.214Z</time></trkpt><trkpt lat="44.123165" lon="12.0707083"><ele>70.0</ele><time>2026-04-09T12:28:16.214Z</time></trkpt><trkpt lat="44.12313" lon="12.07056"><ele>69.0</ele><time>2026-04-09T12:28:17.214Z</time></trkpt><trkpt lat="44.1230933" lon="12.0704117"><ele>68.0</ele><time>2026-04-09T12:28:18.214Z</time></trkpt><trkpt lat="44.1230567" lon="12.070285"><ele>67.0</ele><time>2026-04-09T12:28:19.214Z</time></trkpt><trkpt lat="44.1230233" lon="12.0701533"><ele>66.0</ele><time>2026-04-09T12:28:20.214Z</time></trkpt><trkpt lat="44.1229883" lon="12.0700217"><ele>65.0</ele><time>2026-04-09T12:28:21.214Z</time></trkpt><trkpt lat="44.1229533" lon="12.0698867"><ele>64.8</ele><time>2026-04-09T12:28:22.214Z</time></trkpt><trkpt lat="44.1229233" lon="12.0697467"><ele>64.6</ele><time>2026-04-09T12:28:23.214Z</time></trkpt><trkpt lat="44.1228883" lon="12.0696083"><ele>64.4</ele><time>2026-04-09T12:28:24.214Z</time></trkpt><trkpt lat="44.1228517" lon="12.0694817"><ele>64.2</ele><time>2026-04-09T12:28:25.214Z</time></trkpt><trkpt lat="44.1228167" lon="12.0693517"><ele>64.0</ele><time>2026-04-09T12:28:26.214Z</time></trkpt><trkpt lat="44.12278" lon="12.0692217"><ele>63.800000000000004</ele><time>2026-04-09T12:28:27.214Z</time></trkpt><trkpt lat="44.1227417" lon="12.0691"><ele>63.60000000000001</ele><time>2026-04-09T12:28:28.214Z</time></trkpt><trkpt lat="44.1227117" lon="12.0689783"><ele>63.4</ele><time>2026-04-09T12:28:29.214Z</time></trkpt><trkpt lat="44.1226817" lon="12.0688583"><ele>63.2</ele><time>2026-04-09T12:28:30.214Z</time></trkpt><trkpt lat="44.1226517" lon="12.068745"><ele>63.0</ele><time>2026-04-09T12:28:31.214Z</time></trkpt><trkpt lat="44.1226283" lon="12.068625"><ele>63.0</ele><time>2026-04-09T12:28:32.214Z</time></trkpt><trkpt lat="44.12259" lon="12.068515"><ele>63.0</ele><time>2026-04-09T12:28:33.214Z</time></trkpt><trkpt lat="44.1225533" lon="12.0683933"><ele>63.0</ele><time>2026-04-09T12:28:34.214Z</time></trkpt><trkpt lat="44.1225217" lon="12.0682717"><ele>63.0</ele><time>2026-04-09T12:28:35.214Z</time></trkpt><trkpt lat="44.12249" lon="12.06815"><ele>63.0</ele><time>2026-04-09T12:28:36.214Z</time></trkpt><trkpt lat="44.12246" lon="12.0680267"><ele>63.0</ele><time>2026-04-09T12:28:37.214Z</time></trkpt><trkpt lat="44.1224283" lon="12.0679083"><ele>63.0</ele><time>2026-04-09T12:28:38.214Z</time></trkpt><trkpt lat="44.1223967" lon="12.0677933"><ele>63.0</ele><time>2026-04-09T12:28:39.214Z</time></trkpt><trkpt lat="44.1223717" lon="12.0676717"><ele>63.0</ele><time>2026-04-09T12:28:40.214Z</time></trkpt><trkpt lat="44.1223467" lon="12.0675517"><ele>63.0</ele><time>2026-04-09T12:28:41.214Z</time></trkpt><trkpt lat="44.1223233" lon="12.0674317"><ele>63.0</ele><time>2026-04-09T12:28:42.214Z</time></trkpt><trkpt lat="44.1222933" lon="12.067315"><ele>62.833333333333336</ele><time>2026-04-09T12:28:43.214Z</time></trkpt><trkpt lat="44.1222617" lon="12.0671983"><ele>62.66666666666667</ele><time>2026-04-09T12:28:44.214Z</time></trkpt><trkpt lat="44.1222283" lon="12.0670917"><ele>62.5</ele><time>2026-04-09T12:28:45.214Z</time></trkpt><trkpt lat="44.1221983" lon="12.066985"><ele>62.333333333333336</ele><time>2026-04-09T12:28:46.214Z</time></trkpt><trkpt lat="44.1221717" lon="12.0668733"><ele>62.16666666666667</ele><time>2026-04-09T12:28:47.215Z</time></trkpt><trkpt lat="44.1221383" lon="12.0667617"><ele>62.0</ele><time>2026-04-09T12:28:48.214Z</time></trkpt><trkpt lat="44.1221033" lon="12.0666533"><ele>61.833333333333336</ele><time>2026-04-09T12:28:49.214Z</time></trkpt><trkpt lat="44.1220733" lon="12.0665367"><ele>61.66666666666667</ele><time>2026-04-09T12:28:50.214Z</time></trkpt><trkpt lat="44.12204" lon="12.06642"><ele>61.5</ele><time>2026-04-09T12:28:51.214Z</time></trkpt><trkpt lat="44.1220117" lon="12.0663067"><ele>61.33333333333333</ele><time>2026-04-09T12:28:52.214Z</time></trkpt><trkpt lat="44.1219883" lon="12.066195"><ele>61.166666666666664</ele><time>2026-04-09T12:28:53.214Z</time></trkpt><trkpt lat="44.1219583" lon="12.0660783"><ele>61.0</ele><time>2026-04-09T12:28:54.214Z</time></trkpt><trkpt lat="44.1219333" lon="12.06596"><ele>60.99999999999999</ele><time>2026-04-09T12:28:55.214Z</time></trkpt><trkpt lat="44.1219067" lon="12.0658483"><ele>61.0</ele><time>2026-04-09T12:28:56.214Z</time></trkpt><trkpt lat="44.12188" lon="12.0657383"><ele>61.0</ele><time>2026-04-09T12:28:57.214Z</time></trkpt><trkpt lat="44.12185" lon="12.065625"><ele>61.0</ele><time>2026-04-09T12:28:58.214Z</time></trkpt><trkpt lat="44.12182" lon="12.0655233"><ele>60.99999999999999</ele><time>2026-04-09T12:28:59.214Z</time></trkpt><trkpt lat="44.1217883" lon="12.0654267"><ele>61.0</ele><time>2026-04-09T12:29:00.214Z</time></trkpt><trkpt lat="44.1217617" lon="12.0653267"><ele>60.428571428571416</ele><time>2026-04-09T12:29:01.214Z</time></trkpt><trkpt lat="44.121735" lon="12.06524"><ele>59.857142857142854</ele><time>2026-04-09T12:29:02.214Z</time></trkpt><trkpt lat="44.121705" lon="12.0651517"><ele>59.28571428571428</ele><time>2026-04-09T12:29:03.214Z</time></trkpt><trkpt lat="44.12168" lon="12.0650583"><ele>58.71428571428571</ele><time>2026-04-09T12:29:04.214Z</time></trkpt><trkpt lat="44.1216567" lon="12.0649667"><ele>58.14285714285714</ele><time>2026-04-09T12:29:05.215Z</time></trkpt><trkpt lat="44.1216367" lon="12.0648733"><ele>57.57142857142857</ele><time>2026-04-09T12:29:06.214Z</time></trkpt><trkpt lat="44.1216233" lon="12.064785"><ele>57.0</ele><time>2026-04-09T12:29:07.214Z</time></trkpt><trkpt lat="44.1215933" lon="12.0646217"><ele>58.2</ele><time>2026-04-09T12:29:09.214Z</time></trkpt><trkpt lat="44.121555" lon="12.06447"><ele>59.400000000000006</ele><time>2026-04-09T12:29:11.214Z</time></trkpt><trkpt lat="44.1215067" lon="12.0643283"><ele>60.599999999999994</ele><time>2026-04-09T12:29:13.214Z</time></trkpt><trkpt lat="44.12147" lon="12.0641933"><ele>61.8</ele><time>2026-04-09T12:29:15.214Z</time></trkpt><trkpt lat="44.1214333" lon="12.0640633"><ele>63.0</ele><time>2026-04-09T12:29:17.214Z</time></trkpt><trkpt lat="44.1213933" lon="12.0639233"><ele>63.0</ele><time>2026-04-09T12:29:19.214Z</time></trkpt><trkpt lat="44.121365" lon="12.0637783"><ele>63.0</ele><time>2026-04-09T12:29:21.214Z</time></trkpt><trkpt lat="44.12133" lon="12.0636417"><ele>63.0</ele><time>2026-04-09T12:29:23.214Z</time></trkpt><trkpt lat="44.1212967" lon="12.0635133"><ele>63.0</ele><time>2026-04-09T12:29:25.214Z</time></trkpt><trkpt lat="44.1212717" lon="12.0633817"><ele>63.0</ele><time>2026-04-09T12:29:27.214Z</time></trkpt><trkpt lat="44.12124" lon="12.0632383"><ele>62.2</ele><time>2026-04-09T12:29:29.214Z</time></trkpt><trkpt lat="44.1212" lon="12.063095"><ele>61.4</ele><time>2026-04-09T12:29:31.214Z</time></trkpt><trkpt lat="44.12118" lon="12.06301"><ele>60.60000000000001</ele><time>2026-04-09T12:29:32.214Z</time></trkpt><trkpt lat="44.1211417" lon="12.0628617"><ele>59.800000000000004</ele><time>2026-04-09T12:29:34.214Z</time></trkpt><trkpt lat="44.121095" lon="12.062725"><ele>59.0</ele><time>2026-04-09T12:29:36.214Z</time></trkpt><trkpt lat="44.12105" lon="12.0625933"><ele>59.0</ele><time>2026-04-09T12:29:38.214Z</time></trkpt><trkpt lat="44.121005" lon="12.062455"><ele>59.00000000000001</ele><time>2026-04-09T12:29:40.214Z</time></trkpt><trkpt lat="44.1209633" lon="12.062315"><ele>59.00000000000001</ele><time>2026-04-09T12:29:42.214Z</time></trkpt><trkpt lat="44.1209483" lon="12.0621633"><ele>59.0</ele><time>2026-04-09T12:29:44.214Z</time></trkpt><trkpt lat="44.12097" lon="12.0620217"><ele>59.0</ele><time>2026-04-09T12:29:46.214Z</time></trkpt><trkpt lat="44.12104" lon="12.0619167"><ele>58.2</ele><time>2026-04-09T12:29:48.214Z</time></trkpt><trkpt lat="44.1211383" lon="12.0618367"><ele>57.400000000000006</ele><time>2026-04-09T12:29:50.214Z</time></trkpt><trkpt lat="44.1212367" lon="12.061765"><ele>56.6</ele><time>2026-04-09T12:29:52.214Z</time></trkpt><trkpt lat="44.1213417" lon="12.0617"><ele>55.8</ele><time>2026-04-09T12:29:54.214Z</time></trkpt><trkpt lat="44.1214317" lon="12.06164"><ele>55.0</ele><time>2026-04-09T12:29:56.214Z</time></trkpt><trkpt lat="44.1215233" lon="12.0615867"><ele>54.99999999999999</ele><time>2026-04-09T12:29:58.214Z</time></trkpt><trkpt lat="44.1216117" lon="12.0615267"><ele>55.0</ele><time>2026-04-09T12:30:00.214Z</time></trkpt><trkpt lat="44.1216933" lon="12.06146"><ele>55.0</ele><time>2026-04-09T12:30:02.214Z</time></trkpt><trkpt lat="44.1217783" lon="12.0614033"><ele>55.0</ele><time>2026-04-09T12:30:04.214Z</time></trkpt><trkpt lat="44.1218433" lon="12.061375"><ele>54.99999999999999</ele><time>2026-04-09T12:30:08.214Z</time></trkpt><trkpt lat="44.1218883" lon="12.0612733"><ele>55.0</ele><time>2026-04-09T12:30:12.214Z</time></trkpt><trkpt lat="44.121885" lon="12.0611633"><ele>54.99999999999999</ele><time>2026-04-09T12:30:14.214Z</time></trkpt><trkpt lat="44.1218767" lon="12.0610533"><ele>55.0</ele><time>2026-04-09T12:30:16.214Z</time></trkpt><trkpt lat="44.1218667" lon="12.0609367"><ele>55.0</ele><time>2026-04-09T12:30:18.214Z</time></trkpt><trkpt lat="44.1218667" lon="12.06081"><ele>55.0</ele><time>2026-04-09T12:30:20.214Z</time></trkpt><trkpt lat="44.121875" lon="12.0607"><ele>54.99999999999999</ele><time>2026-04-09T12:30:22.214Z</time></trkpt><trkpt lat="44.1218817" lon="12.0605783"><ele>55.0</ele><time>2026-04-09T12:30:24.214Z</time></trkpt><trkpt lat="44.121885" lon="12.0604633"><ele>55.83333333333333</ele><time>2026-04-09T12:30:26.214Z</time></trkpt><trkpt lat="44.1218983" lon="12.0603383"><ele>56.666666666666664</ele><time>2026-04-09T12:30:28.214Z</time></trkpt><trkpt lat="44.12191" lon="12.0602367"><ele>57.5</ele><time>2026-04-09T12:30:30.214Z</time></trkpt><trkpt lat="44.1219017" lon="12.0601467"><ele>58.33333333333333</ele><time>2026-04-09T12:30:32.214Z</time></trkpt><trkpt lat="44.1218483" lon="12.0600483"><ele>59.166666666666664</ele><time>2026-04-09T12:30:35.214Z</time></trkpt><trkpt lat="44.1217717" lon="12.0600133"><ele>60.0</ele><time>2026-04-09T12:30:37.214Z</time></trkpt><trkpt lat="44.1216667" lon="12.0599717"><ele>61.75</ele><time>2026-04-09T12:30:39.214Z</time></trkpt><trkpt lat="44.1215617" lon="12.0599117"><ele>63.5</ele><time>2026-04-09T12:30:41.214Z</time></trkpt><trkpt lat="44.12145" lon="12.0598683"><ele>65.25</ele><time>2026-04-09T12:30:43.214Z</time></trkpt><trkpt lat="44.12134" lon="12.0598133"><ele>67.0</ele><time>2026-04-09T12:30:45.214Z</time></trkpt><trkpt lat="44.1212333" lon="12.0597533"><ele>67.0</ele><time>2026-04-09T12:30:47.214Z</time></trkpt><trkpt lat="44.1211267" lon="12.0597083"><ele>67.0</ele><time>2026-04-09T12:30:49.214Z</time></trkpt><trkpt lat="44.1210267" lon="12.0596867"><ele>67.0</ele><time>2026-04-09T12:30:51.214Z</time></trkpt><trkpt lat="44.12093" lon="12.05966"><ele>67.0</ele><time>2026-04-09T12:30:53.214Z</time></trkpt><trkpt lat="44.1208333" lon="12.0596283"><ele>67.0</ele><time>2026-04-09T12:30:55.214Z</time></trkpt><trkpt lat="44.1207367" lon="12.0596017"><ele>66.6</ele><time>2026-04-09T12:30:57.214Z</time></trkpt><trkpt lat="44.1206517" lon="12.0595617"><ele>66.2</ele><time>2026-04-09T12:30:59.214Z</time></trkpt><trkpt lat="44.1205583" lon="12.0595383"><ele>65.8</ele><time>2026-04-09T12:31:01.214Z</time></trkpt><trkpt lat="44.1204583" lon="12.0594983"><ele>65.4</ele><time>2026-04-09T12:31:03.214Z</time></trkpt><trkpt lat="44.1203633" lon="12.05945"><ele>65.0</ele><time>2026-04-09T12:31:05.214Z</time></trkpt><trkpt lat="44.1202667" lon="12.0594167"><ele>65.0</ele><time>2026-04-09T12:31:07.214Z</time></trkpt><trkpt lat="44.120165" lon="12.0593933"><ele>65.0</ele><time>2026-04-09T12:31:09.214Z</time></trkpt><trkpt lat="44.1200883" lon="12.0593733"><ele>65.0</ele><time>2026-04-09T12:31:11.214Z</time></trkpt><trkpt lat="44.1200067" lon="12.0593583"><ele>65.0</ele><time>2026-04-09T12:31:13.214Z</time></trkpt><trkpt lat="44.1199217" lon="12.0593483"><ele>65.0</ele><time>2026-04-09T12:31:15.214Z</time></trkpt><trkpt lat="44.1198333" lon="12.0593233"><ele>65.0</ele><time>2026-04-09T12:31:17.214Z</time></trkpt><trkpt lat="44.1197217" lon="12.059265"><ele>64.8</ele><time>2026-04-09T12:31:19.214Z</time></trkpt><trkpt lat="44.119605" lon="12.0591833"><ele>64.6</ele><time>2026-04-09T12:31:21.214Z</time></trkpt><trkpt lat="44.11955" lon="12.0591367"><ele>64.4</ele><time>2026-04-09T12:31:22.214Z</time></trkpt><trkpt lat="44.119495" lon="12.0590867"><ele>64.2</ele><time>2026-04-09T12:31:23.214Z</time></trkpt><trkpt lat="44.1193783" lon="12.0589967"><ele>64.0</ele><time>2026-04-09T12:31:25.214Z</time></trkpt><trkpt lat="44.11932" lon="12.0589533"><ele>63.83333333333333</ele><time>2026-04-09T12:31:26.214Z</time></trkpt><trkpt lat="44.1192617" lon="12.05891"><ele>63.666666666666664</ele><time>2026-04-09T12:31:27.214Z</time></trkpt><trkpt lat="44.1192017" lon="12.0588617"><ele>63.5</ele><time>2026-04-09T12:31:28.215Z</time></trkpt><trkpt lat="44.1191433" lon="12.05882"><ele>63.33333333333333</ele><time>2026-04-09T12:31:29.214Z</time></trkpt><trkpt lat="44.1190817" lon="12.0587817"><ele>63.166666666666664</ele><time>2026-04-09T12:31:30.214Z</time></trkpt><trkpt lat="44.11902" lon="12.0587367"><ele>63.0</ele><time>2026-04-09T12:31:31.214Z</time></trkpt><trkpt lat="44.118915" lon="12.05865"><ele>63.0</ele><time>2026-04-09T12:31:33.214Z</time></trkpt><trkpt lat="44.1188133" lon="12.0585767"><ele>63.0</ele><time>2026-04-09T12:31:35.214Z</time></trkpt><trkpt lat="44.1187067" lon="12.0585033"><ele>63.0</ele><time>2026-04-09T12:31:37.214Z</time></trkpt><trkpt lat="44.1186517" lon="12.0584583"><ele>63.0</ele><time>2026-04-09T12:31:38.214Z</time></trkpt><trkpt lat="44.11855" lon="12.0583783"><ele>63.0</ele><time>2026-04-09T12:31:40.214Z</time></trkpt><trkpt lat="44.1184383" lon="12.0583217"><ele>63.0</ele><time>2026-04-09T12:31:42.214Z</time></trkpt><trkpt lat="44.1183333" lon="12.058295"><ele>63.0</ele><time>2026-04-09T12:31:44.214Z</time></trkpt><trkpt lat="44.11822" lon="12.0582683"><ele>63.0</ele><time>2026-04-09T12:31:46.214Z</time></trkpt><trkpt lat="44.1181167" lon="12.0582667"><ele>63.0</ele><time>2026-04-09T12:31:48.214Z</time></trkpt><trkpt lat="44.1180217" lon="12.0582733"><ele>63.0</ele><time>2026-04-09T12:31:50.214Z</time></trkpt><trkpt lat="44.1179317" lon="12.0582733"><ele>64.33333333333333</ele><time>2026-04-09T12:31:52.214Z</time></trkpt><trkpt lat="44.11785" lon="12.0582783"><ele>65.66666666666667</ele><time>2026-04-09T12:31:54.214Z</time></trkpt><trkpt lat="44.11778" lon="12.0582933"><ele>67.0</ele><time>2026-04-09T12:31:56.214Z</time></trkpt><trkpt lat="44.1177133" lon="12.0583267"><ele>68.33333333333334</ele><time>2026-04-09T12:31:58.214Z</time></trkpt><trkpt lat="44.1176333" lon="12.0583667"><ele>69.66666666666667</ele><time>2026-04-09T12:32:01.214Z</time></trkpt><trkpt lat="44.1175633" lon="12.0584017"><ele>71.0</ele><time>2026-04-09T12:32:04.214Z</time></trkpt><trkpt lat="44.11748" lon="12.058435"><ele>71.0</ele><time>2026-04-09T12:32:07.214Z</time></trkpt><trkpt lat="44.1174133" lon="12.0584633"><ele>71.0</ele><time>2026-04-09T12:32:09.214Z</time></trkpt><trkpt lat="44.117355" lon="12.0585"><ele>71.0</ele><time>2026-04-09T12:32:11.214Z</time></trkpt><trkpt lat="44.1172933" lon="12.0585317"><ele>71.0</ele><time>2026-04-09T12:32:13.214Z</time></trkpt><trkpt lat="44.1171933" lon="12.0585483"><ele>71.0</ele><time>2026-04-09T12:32:16.214Z</time></trkpt><trkpt lat="44.1171217" lon="12.0585467"><ele>71.0</ele><time>2026-04-09T12:32:18.214Z</time></trkpt><trkpt lat="44.117025" lon="12.0585433"><ele>71.5</ele><time>2026-04-09T12:32:21.214Z</time></trkpt><trkpt lat="44.1169417" lon="12.058535"><ele>72.0</ele><time>2026-04-09T12:32:23.214Z</time></trkpt><trkpt lat="44.1168567" lon="12.05851"><ele>72.5</ele><time>2026-04-09T12:32:25.214Z</time></trkpt><trkpt lat="44.11677" lon="12.0584867"><ele>73.0</ele><time>2026-04-09T12:32:27.214Z</time></trkpt><trkpt lat="44.116695" lon="12.0584617"><ele>73.5</ele><time>2026-04-09T12:32:29.214Z</time></trkpt><trkpt lat="44.1166233" lon="12.058445"><ele>74.0</ele><time>2026-04-09T12:32:31.214Z</time></trkpt><trkpt lat="44.1165433" lon="12.0584283"><ele>74.14285714285714</ele><time>2026-04-09T12:32:33.214Z</time></trkpt><trkpt lat="44.1164717" lon="12.05842"><ele>74.28571428571428</ele><time>2026-04-09T12:32:35.214Z</time></trkpt><trkpt lat="44.116405" lon="12.0584133"><ele>74.42857142857142</ele><time>2026-04-09T12:32:37.214Z</time></trkpt><trkpt lat="44.1163317" lon="12.0584"><ele>74.57142857142857</ele><time>2026-04-09T12:32:41.214Z</time></trkpt><trkpt lat="44.116265" lon="12.0583833"><ele>74.71428571428571</ele><time>2026-04-09T12:32:44.214Z</time></trkpt><trkpt lat="44.1161967" lon="12.0583867"><ele>74.85714285714285</ele><time>2026-04-09T12:32:49.214Z</time></trkpt><trkpt lat="44.11611" lon="12.05839"><ele>75.0</ele><time>2026-04-09T12:32:52.214Z</time></trkpt><trkpt lat="44.116025" lon="12.0584"><ele>75.0</ele><time>2026-04-09T12:32:55.214Z</time></trkpt><trkpt lat="44.11596" lon="12.0584067"><ele>75.0</ele><time>2026-04-09T12:32:57.214Z</time></trkpt><trkpt lat="44.1158867" lon="12.0584167"><ele>75.0</ele><time>2026-04-09T12:32:59.214Z</time></trkpt><trkpt lat="44.1158133" lon="12.0584283"><ele>75.0</ele><time>2026-04-09T12:33:01.214Z</time></trkpt><trkpt lat="44.1157317" lon="12.05844"><ele>75.0</ele><time>2026-04-09T12:33:03.214Z</time></trkpt><trkpt lat="44.1156467" lon="12.0584517"><ele>75.0</ele><time>2026-04-09T12:33:05.214Z</time></trkpt><trkpt lat="44.1155667" lon="12.0584483"><ele>75.33333333333333</ele><time>2026-04-09T12:33:07.214Z</time></trkpt><trkpt lat="44.115475" lon="12.0584433"><ele>75.66666666666667</ele><time>2026-04-09T12:33:09.214Z</time></trkpt><trkpt lat="44.1153883" lon="12.0584367"><ele>76.0</ele><time>2026-04-09T12:33:11.214Z</time></trkpt><trkpt lat="44.11531" lon="12.0584233"><ele>76.33333333333334</ele><time>2026-04-09T12:33:13.214Z</time></trkpt><trkpt lat="44.11523" lon="12.05842"><ele>76.66666666666667</ele><time>2026-04-09T12:33:15.214Z</time></trkpt><trkpt lat="44.1151283" lon="12.058435"><ele>77.0</ele><time>2026-04-09T12:33:17.214Z</time></trkpt><trkpt lat="44.1150283" lon="12.0584317"><ele>77.0</ele><time>2026-04-09T12:33:19.214Z</time></trkpt><trkpt lat="44.114915" lon="12.0584033"><ele>77.0</ele><time>2026-04-09T12:33:21.214Z</time></trkpt><trkpt lat="44.114825" lon="12.0583733"><ele>77.0</ele><time>2026-04-09T12:33:23.214Z</time></trkpt><trkpt lat="44.11474" lon="12.058335"><ele>77.0</ele><time>2026-04-09T12:33:25.214Z</time></trkpt><trkpt lat="44.1146367" lon="12.0583233"><ele>77.0</ele><time>2026-04-09T12:33:27.214Z</time></trkpt><trkpt lat="44.1145317" lon="12.0583133"><ele>77.4</ele><time>2026-04-09T12:33:29.214Z</time></trkpt><trkpt lat="44.1144183" lon="12.0582967"><ele>77.80000000000001</ele><time>2026-04-09T12:33:31.214Z</time></trkpt><trkpt lat="44.1143083" lon="12.058285"><ele>78.2</ele><time>2026-04-09T12:33:33.214Z</time></trkpt><trkpt lat="44.11421" lon="12.0582633"><ele>78.60000000000001</ele><time>2026-04-09T12:33:35.214Z</time></trkpt><trkpt lat="44.11412" lon="12.0582567"><ele>79.0</ele><time>2026-04-09T12:33:37.214Z</time></trkpt><trkpt lat="44.1140367" lon="12.05827"><ele>79.0</ele><time>2026-04-09T12:33:39.214Z</time></trkpt><trkpt lat="44.1139533" lon="12.0582883"><ele>79.0</ele><time>2026-04-09T12:33:41.214Z</time></trkpt><trkpt lat="44.1138733" lon="12.05828"><ele>79.0</ele><time>2026-04-09T12:33:43.215Z</time></trkpt><trkpt lat="44.1138117" lon="12.0581917"><ele>79.0</ele><time>2026-04-09T12:33:46.214Z</time></trkpt><trkpt lat="44.113745" lon="12.0581367"><ele>79.0</ele><time>2026-04-09T12:33:49.214Z</time></trkpt><trkpt lat="44.113665" lon="12.0581383"><ele>79.0</ele><time>2026-04-09T12:33:52.214Z</time></trkpt><trkpt lat="44.1135967" lon="12.05812"><ele>79.0</ele><time>2026-04-09T12:33:54.214Z</time></trkpt><trkpt lat="44.1135133" lon="12.058125"><ele>79.0</ele><time>2026-04-09T12:33:56.214Z</time></trkpt><trkpt lat="44.1134117" lon="12.0581567"><ele>79.0</ele><time>2026-04-09T12:33:58.214Z</time></trkpt><trkpt lat="44.113305" lon="12.0581917"><ele>79.0</ele><time>2026-04-09T12:34:00.214Z</time></trkpt><trkpt lat="44.1132083" lon="12.0582233"><ele>79.0</ele><time>2026-04-09T12:34:02.214Z</time></trkpt><trkpt lat="44.1130967" lon="12.0582417"><ele>78.75</ele><time>2026-04-09T12:34:04.214Z</time></trkpt><trkpt lat="44.1129833" lon="12.0582467"><ele>78.5</ele><time>2026-04-09T12:34:06.214Z</time></trkpt><trkpt lat="44.11287" lon="12.0582433"><ele>78.25</ele><time>2026-04-09T12:34:08.214Z</time></trkpt><trkpt lat="44.11276" lon="12.0582383"><ele>78.0</ele><time>2026-04-09T12:34:10.214Z</time></trkpt><trkpt lat="44.112645" lon="12.0582317"><ele>78.0</ele><time>2026-04-09T12:34:12.214Z</time></trkpt><trkpt lat="44.1125317" lon="12.05823"><ele>78.0</ele><time>2026-04-09T12:34:14.214Z</time></trkpt><trkpt lat="44.112425" lon="12.0582317"><ele>78.0</ele><time>2026-04-09T12:34:16.214Z</time></trkpt><trkpt lat="44.1123117" lon="12.058245"><ele>78.0</ele><time>2026-04-09T12:34:18.214Z</time></trkpt><trkpt lat="44.112195" lon="12.0582583"><ele>78.0</ele><time>2026-04-09T12:34:20.214Z</time></trkpt><trkpt lat="44.1120767" lon="12.0582733"><ele>78.0</ele><time>2026-04-09T12:34:22.214Z</time></trkpt><trkpt lat="44.111975" lon="12.05828"><ele>78.0</ele><time>2026-04-09T12:34:24.214Z</time></trkpt><trkpt lat="44.11187" lon="12.0582683"><ele>78.0</ele><time>2026-04-09T12:34:26.214Z</time></trkpt><trkpt lat="44.11175" lon="12.0582833"><ele>78.0</ele><time>2026-04-09T12:34:28.214Z</time></trkpt><trkpt lat="44.11163" lon="12.0582883"><ele>78.0</ele><time>2026-04-09T12:34:30.214Z</time></trkpt><trkpt lat="44.1115233" lon="12.058295"><ele>78.0</ele><time>2026-04-09T12:34:32.214Z</time></trkpt><trkpt lat="44.1114183" lon="12.0582883"><ele>78.0</ele><time>2026-04-09T12:34:34.214Z</time></trkpt><trkpt lat="44.11132" lon="12.0582883"><ele>78.0</ele><time>2026-04-09T12:34:36.214Z</time></trkpt><trkpt lat="44.1112033" lon="12.0582867"><ele>78.0</ele><time>2026-04-09T12:34:38.214Z</time></trkpt><trkpt lat="44.111135" lon="12.0582783"><ele>78.14285714285715</ele><time>2026-04-09T12:34:39.214Z</time></trkpt><trkpt lat="44.111065" lon="12.0582683"><ele>78.28571428571428</ele><time>2026-04-09T12:34:40.214Z</time></trkpt><trkpt lat="44.110995" lon="12.0582567"><ele>78.42857142857143</ele><time>2026-04-09T12:34:41.214Z</time></trkpt><trkpt lat="44.110925" lon="12.0582467"><ele>78.57142857142858</ele><time>2026-04-09T12:34:42.214Z</time></trkpt><trkpt lat="44.110855" lon="12.05823"><ele>78.71428571428572</ele><time>2026-04-09T12:34:43.214Z</time></trkpt><trkpt lat="44.1107817" lon="12.0582267"><ele>78.85714285714286</ele><time>2026-04-09T12:34:44.214Z</time></trkpt><trkpt lat="44.1107117" lon="12.0582267"><ele>79.0</ele><time>2026-04-09T12:34:45.214Z</time></trkpt><trkpt lat="44.110645" lon="12.058205"><ele>79.16666666666666</ele><time>2026-04-09T12:34:46.214Z</time></trkpt><trkpt lat="44.1105333" lon="12.0581967"><ele>79.33333333333333</ele><time>2026-04-09T12:34:48.214Z</time></trkpt><trkpt lat="44.1104167" lon="12.0581667"><ele>79.5</ele><time>2026-04-09T12:34:50.214Z</time></trkpt><trkpt lat="44.1103467" lon="12.0581583"><ele>79.66666666666667</ele><time>2026-04-09T12:34:51.214Z</time></trkpt><trkpt lat="44.11028" lon="12.0581583"><ele>79.83333333333334</ele><time>2026-04-09T12:34:52.214Z</time></trkpt><trkpt lat="44.110215" lon="12.0581583"><ele>80.0</ele><time>2026-04-09T12:34:53.214Z</time></trkpt><trkpt lat="44.1101517" lon="12.0581483"><ele>80.0</ele><time>2026-04-09T12:34:54.214Z</time></trkpt><trkpt lat="44.1100833" lon="12.05814"><ele>80.0</ele><time>2026-04-09T12:34:55.214Z</time></trkpt><trkpt lat="44.1100183" lon="12.05813"><ele>80.0</ele><time>2026-04-09T12:34:56.214Z</time></trkpt><trkpt lat="44.1099533" lon="12.0581083"><ele>80.0</ele><time>2026-04-09T12:34:57.214Z</time></trkpt><trkpt lat="44.1098417" lon="12.05808"><ele>80.0</ele><time>2026-04-09T12:34:59.214Z</time></trkpt><trkpt lat="44.1097333" lon="12.05807"><ele>80.0</ele><time>2026-04-09T12:35:01.214Z</time></trkpt><trkpt lat="44.1096583" lon="12.058135"><ele>80.0</ele><time>2026-04-09T12:35:03.214Z</time></trkpt><trkpt lat="44.1096033" lon="12.0582717"><ele>80.0</ele><time>2026-04-09T12:35:05.214Z</time></trkpt><trkpt lat="44.109575" lon="12.0583517"><ele>80.0</ele><time>2026-04-09T12:35:06.214Z</time></trkpt><trkpt lat="44.1095467" lon="12.058505"><ele>80.0</ele><time>2026-04-09T12:35:08.214Z</time></trkpt><trkpt lat="44.1095217" lon="12.0586417"><ele>80.0</ele><time>2026-04-09T12:35:10.214Z</time></trkpt><trkpt lat="44.1094967" lon="12.0587917"><ele>79.83333333333334</ele><time>2026-04-09T12:35:12.214Z</time></trkpt><trkpt lat="44.1094717" lon="12.058955"><ele>79.66666666666667</ele><time>2026-04-09T12:35:14.214Z</time></trkpt><trkpt lat="44.1094517" lon="12.05904"><ele>79.5</ele><time>2026-04-09T12:35:15.214Z</time></trkpt><trkpt lat="44.1094283" lon="12.0591217"><ele>79.33333333333333</ele><time>2026-04-09T12:35:16.214Z</time></trkpt><trkpt lat="44.109395" lon="12.0592817"><ele>79.16666666666666</ele><time>2026-04-09T12:35:18.214Z</time></trkpt><trkpt lat="44.1093783" lon="12.0593683"><ele>79.0</ele><time>2026-04-09T12:35:19.214Z</time></trkpt><trkpt lat="44.1093583" lon="12.0595383"><ele>78.83333333333333</ele><time>2026-04-09T12:35:21.214Z</time></trkpt><trkpt lat="44.1093417" lon="12.0596233"><ele>78.66666666666666</ele><time>2026-04-09T12:35:22.214Z</time></trkpt><trkpt lat="44.1093233" lon="12.0597083"><ele>78.5</ele><time>2026-04-09T12:35:23.214Z</time></trkpt><trkpt lat="44.1092883" lon="12.059865"><ele>78.33333333333333</ele><time>2026-04-09T12:35:25.214Z</time></trkpt><trkpt lat="44.109265" lon="12.05995"><ele>78.16666666666667</ele><time>2026-04-09T12:35:26.214Z</time></trkpt><trkpt lat="44.1092317" lon="12.060025"><ele>78.0</ele><time>2026-04-09T12:35:27.214Z</time></trkpt><trkpt lat="44.1091383" lon="12.060135"><ele>77.83333333333333</ele><time>2026-04-09T12:35:29.214Z</time></trkpt><trkpt lat="44.10908" lon="12.06017"><ele>77.66666666666667</ele><time>2026-04-09T12:35:30.214Z</time></trkpt><trkpt lat="44.1090167" lon="12.0601767"><ele>77.5</ele><time>2026-04-09T12:35:31.214Z</time></trkpt><trkpt lat="44.1089517" lon="12.0601683"><ele>77.33333333333334</ele><time>2026-04-09T12:35:32.214Z</time></trkpt><trkpt lat="44.1088317" lon="12.0601317"><ele>77.16666666666667</ele><time>2026-04-09T12:35:34.214Z</time></trkpt><trkpt lat="44.1087717" lon="12.0601"><ele>77.0</ele><time>2026-04-09T12:35:35.214Z</time></trkpt><trkpt lat="44.10867" lon="12.0601133"><ele>76.8</ele><time>2026-04-09T12:35:37.214Z</time></trkpt><trkpt lat="44.1086133" lon="12.06021"><ele>76.6</ele><time>2026-04-09T12:35:39.214Z</time></trkpt><trkpt lat="44.10856" lon="12.060385"><ele>76.39999999999999</ele><time>2026-04-09T12:35:41.214Z</time></trkpt><trkpt lat="44.1085333" lon="12.0604883"><ele>76.2</ele><time>2026-04-09T12:35:42.214Z</time></trkpt><trkpt lat="44.1085033" lon="12.0605883"><ele>76.0</ele><time>2026-04-09T12:35:43.214Z</time></trkpt><trkpt lat="44.1084767" lon="12.060685"><ele>76.0</ele><time>2026-04-09T12:35:44.214Z</time></trkpt><trkpt lat="44.10845" lon="12.06078"><ele>76.0</ele><time>2026-04-09T12:35:45.214Z</time></trkpt><trkpt lat="44.108425" lon="12.0608783"><ele>76.0</ele><time>2026-04-09T12:35:46.214Z</time></trkpt><trkpt lat="44.1083983" lon="12.0609767"><ele>76.0</ele><time>2026-04-09T12:35:47.214Z</time></trkpt><trkpt lat="44.10837" lon="12.061065"><ele>76.0</ele><time>2026-04-09T12:35:48.214Z</time></trkpt><trkpt lat="44.1083433" lon="12.0611483"><ele>76.0</ele><time>2026-04-09T12:35:49.214Z</time></trkpt><trkpt lat="44.1083117" lon="12.06124"><ele>76.0</ele><time>2026-04-09T12:35:50.214Z</time></trkpt><trkpt lat="44.108285" lon="12.06134"><ele>75.85714285714285</ele><time>2026-04-09T12:35:51.214Z</time></trkpt><trkpt lat="44.1082617" lon="12.06144"><ele>75.71428571428572</ele><time>2026-04-09T12:35:52.214Z</time></trkpt><trkpt lat="44.108235" lon="12.0615333"><ele>75.57142857142857</ele><time>2026-04-09T12:35:53.214Z</time></trkpt><trkpt lat="44.10821" lon="12.06162"><ele>75.42857142857142</ele><time>2026-04-09T12:35:54.214Z</time></trkpt><trkpt lat="44.1081883" lon="12.061705"><ele>75.28571428571428</ele><time>2026-04-09T12:35:55.214Z</time></trkpt><trkpt lat="44.108165" lon="12.0617917"><ele>75.14285714285714</ele><time>2026-04-09T12:35:56.214Z</time></trkpt><trkpt lat="44.10814" lon="12.061875"><ele>75.0</ele><time>2026-04-09T12:35:57.214Z</time></trkpt><trkpt lat="44.1080867" lon="12.06204"><ele>74.33333333333333</ele><time>2026-04-09T12:35:59.214Z</time></trkpt><trkpt lat="44.1080633" lon="12.062125"><ele>73.66666666666667</ele><time>2026-04-09T12:36:00.214Z</time></trkpt><trkpt lat="44.1080417" lon="12.0622083"><ele>73.0</ele><time>2026-04-09T12:36:01.214Z</time></trkpt><trkpt lat="44.108015" lon="12.0622883"><ele>72.33333333333334</ele><time>2026-04-09T12:36:02.214Z</time></trkpt><trkpt lat="44.1079633" lon="12.0624567"><ele>71.66666666666667</ele><time>2026-04-09T12:36:04.214Z</time></trkpt><trkpt lat="44.10794" lon="12.0625417"><ele>71.0</ele><time>2026-04-09T12:36:05.214Z</time></trkpt><trkpt lat="44.1079233" lon="12.0626317"><ele>71.0</ele><time>2026-04-09T12:36:06.214Z</time></trkpt><trkpt lat="44.1079083" lon="12.06272"><ele>71.0</ele><time>2026-04-09T12:36:07.214Z</time></trkpt><trkpt lat="44.1078933" lon="12.0628067"><ele>71.0</ele><time>2026-04-09T12:36:08.214Z</time></trkpt><trkpt lat="44.1078733" lon="12.0628933"><ele>71.0</ele><time>2026-04-09T12:36:09.214Z</time></trkpt><trkpt lat="44.1078567" lon="12.0629783"><ele>71.0</ele><time>2026-04-09T12:36:10.214Z</time></trkpt><trkpt lat="44.10783" lon="12.0631467"><ele>71.0</ele><time>2026-04-09T12:36:12.214Z</time></trkpt><trkpt lat="44.1077967" lon="12.063315"><ele>71.14285714285714</ele><time>2026-04-09T12:36:14.214Z</time></trkpt><trkpt lat="44.1077817" lon="12.0634033"><ele>71.28571428571428</ele><time>2026-04-09T12:36:15.214Z</time></trkpt><trkpt lat="44.1077617" lon="12.0634867"><ele>71.42857142857143</ele><time>2026-04-09T12:36:16.214Z</time></trkpt><trkpt lat="44.10773" lon="12.0635667"><ele>71.57142857142857</ele><time>2026-04-09T12:36:17.214Z</time></trkpt><trkpt lat="44.1076933" lon="12.06364"><ele>71.71428571428572</ele><time>2026-04-09T12:36:18.214Z</time></trkpt><trkpt lat="44.1075933" lon="12.0637367"><ele>71.85714285714286</ele><time>2026-04-09T12:36:20.214Z</time></trkpt><trkpt lat="44.1075317" lon="12.063765"><ele>72.0</ele><time>2026-04-09T12:36:21.215Z</time></trkpt><trkpt lat="44.1074617" lon="12.0637733"><ele>72.00000000000001</ele><time>2026-04-09T12:36:22.214Z</time></trkpt><trkpt lat="44.10739" lon="12.0637683"><ele>72.0</ele><time>2026-04-09T12:36:23.214Z</time></trkpt><trkpt lat="44.1073167" lon="12.0637517"><ele>72.0</ele><time>2026-04-09T12:36:24.214Z</time></trkpt><trkpt lat="44.1072483" lon="12.06373"><ele>72.0</ele><time>2026-04-09T12:36:25.214Z</time></trkpt><trkpt lat="44.1071733" lon="12.0637033"><ele>72.0</ele><time>2026-04-09T12:36:26.214Z</time></trkpt><trkpt lat="44.1071017" lon="12.0636883"><ele>72.00000000000001</ele><time>2026-04-09T12:36:27.214Z</time></trkpt><trkpt lat="44.107035" lon="12.06367"><ele>72.0</ele><time>2026-04-09T12:36:28.214Z</time></trkpt><trkpt lat="44.1069683" lon="12.0636483"><ele>72.0</ele><time>2026-04-09T12:36:29.214Z</time></trkpt><trkpt lat="44.1069033" lon="12.06362"><ele>72.0</ele><time>2026-04-09T12:36:30.214Z</time></trkpt><trkpt lat="44.1068383" lon="12.0635917"><ele>72.0</ele><time>2026-04-09T12:36:31.214Z</time></trkpt><trkpt lat="44.1067717" lon="12.06356"><ele>72.0</ele><time>2026-04-09T12:36:32.214Z</time></trkpt><trkpt lat="44.1067067" lon="12.0635333"><ele>72.0</ele><time>2026-04-09T12:36:33.214Z</time></trkpt><trkpt lat="44.106645" lon="12.0635"><ele>72.0</ele><time>2026-04-09T12:36:34.214Z</time></trkpt><trkpt lat="44.1065217" lon="12.063465"><ele>72.0</ele><time>2026-04-09T12:36:36.214Z</time></trkpt><trkpt lat="44.1064517" lon="12.0634383"><ele>72.0</ele><time>2026-04-09T12:36:37.214Z</time></trkpt><trkpt lat="44.1063833" lon="12.0634183"><ele>72.0</ele><time>2026-04-09T12:36:38.214Z</time></trkpt><trkpt lat="44.1063167" lon="12.0633933"><ele>72.0</ele><time>2026-04-09T12:36:39.214Z</time></trkpt><trkpt lat="44.1062483" lon="12.0633733"><ele>72.0</ele><time>2026-04-09T12:36:40.214Z</time></trkpt><trkpt lat="44.1061817" lon="12.0633583"><ele>72.0</ele><time>2026-04-09T12:36:41.214Z</time></trkpt><trkpt lat="44.106055" lon="12.0633233"><ele>72.00000000000001</ele><time>2026-04-09T12:36:43.214Z</time></trkpt><trkpt lat="44.1059883" lon="12.0633033"><ele>72.0</ele><time>2026-04-09T12:36:44.214Z</time></trkpt><trkpt lat="44.1059217" lon="12.0632867"><ele>72.0</ele><time>2026-04-09T12:36:45.214Z</time></trkpt><trkpt lat="44.1058533" lon="12.0632683"><ele>72.0</ele><time>2026-04-09T12:36:46.214Z</time></trkpt><trkpt lat="44.1057883" lon="12.0632483"><ele>72.0</ele><time>2026-04-09T12:36:47.214Z</time></trkpt><trkpt lat="44.105725" lon="12.06323"><ele>72.00000000000001</ele><time>2026-04-09T12:36:48.214Z</time></trkpt><trkpt lat="44.10566" lon="12.06321"><ele>72.0</ele><time>2026-04-09T12:36:49.214Z</time></trkpt><trkpt lat="44.105595" lon="12.0631917"><ele>72.42857142857143</ele><time>2026-04-09T12:36:50.214Z</time></trkpt><trkpt lat="44.1055283" lon="12.063175"><ele>72.85714285714286</ele><time>2026-04-09T12:36:51.214Z</time></trkpt><trkpt lat="44.1054617" lon="12.0631583"><ele>73.28571428571428</ele><time>2026-04-09T12:36:52.214Z</time></trkpt><trkpt lat="44.105395" lon="12.06314"><ele>73.71428571428572</ele><time>2026-04-09T12:36:53.214Z</time></trkpt><trkpt lat="44.10533" lon="12.0631233"><ele>74.14285714285714</ele><time>2026-04-09T12:36:54.214Z</time></trkpt><trkpt lat="44.1052667" lon="12.0631083"><ele>74.57142857142857</ele><time>2026-04-09T12:36:55.214Z</time></trkpt><trkpt lat="44.1052017" lon="12.063085"><ele>75.0</ele><time>2026-04-09T12:36:56.214Z</time></trkpt><trkpt lat="44.1050883" lon="12.0630383"><ele>75.0</ele><time>2026-04-09T12:36:58.214Z</time></trkpt><trkpt lat="44.1049783" lon="12.0629933"><ele>75.0</ele><time>2026-04-09T12:37:00.214Z</time></trkpt><trkpt lat="44.1048683" lon="12.0629333"><ele>75.0</ele><time>2026-04-09T12:37:02.214Z</time></trkpt><trkpt lat="44.1047517" lon="12.062865"><ele>75.0</ele><time>2026-04-09T12:37:04.214Z</time></trkpt><trkpt lat="44.1046917" lon="12.0628283"><ele>75.0</ele><time>2026-04-09T12:37:05.214Z</time></trkpt><trkpt lat="44.1045667" lon="12.06277"><ele>75.0</ele><time>2026-04-09T12:37:07.214Z</time></trkpt><trkpt lat="44.1045017" lon="12.0627417"><ele>75.0</ele><time>2026-04-09T12:37:08.214Z</time></trkpt><trkpt lat="44.1043817" lon="12.062695"><ele>75.0</ele><time>2026-04-09T12:37:10.214Z</time></trkpt><trkpt lat="44.1042583" lon="12.0626617"><ele>75.0</ele><time>2026-04-09T12:37:12.214Z</time></trkpt><trkpt lat="44.1041933" lon="12.0626483"><ele>75.0</ele><time>2026-04-09T12:37:13.214Z</time></trkpt><trkpt lat="44.1041233" lon="12.0626333"><ele>74.75</ele><time>2026-04-09T12:37:14.214Z</time></trkpt><trkpt lat="44.1040083" lon="12.0625933"><ele>74.5</ele><time>2026-04-09T12:37:16.214Z</time></trkpt><trkpt lat="44.1038917" lon="12.0625533"><ele>74.25</ele><time>2026-04-09T12:37:18.214Z</time></trkpt><trkpt lat="44.1037717" lon="12.062515"><ele>74.0</ele><time>2026-04-09T12:37:20.214Z</time></trkpt><trkpt lat="44.103665" lon="12.06248"><ele>74.0</ele><time>2026-04-09T12:37:22.214Z</time></trkpt><trkpt lat="44.103555" lon="12.062425"><ele>74.0</ele><time>2026-04-09T12:37:24.214Z</time></trkpt><trkpt lat="44.103455" lon="12.0623717"><ele>74.0</ele><time>2026-04-09T12:37:26.214Z</time></trkpt><trkpt lat="44.103355" lon="12.062315"><ele>74.0</ele><time>2026-04-09T12:37:28.214Z</time></trkpt><trkpt lat="44.1032433" lon="12.062275"><ele>74.0</ele><time>2026-04-09T12:37:30.214Z</time></trkpt><trkpt lat="44.1031717" lon="12.06226"><ele>73.8</ele><time>2026-04-09T12:37:31.214Z</time></trkpt><trkpt lat="44.103095" lon="12.06224"><ele>73.60000000000001</ele><time>2026-04-09T12:37:32.214Z</time></trkpt><trkpt lat="44.103025" lon="12.06222"><ele>73.4</ele><time>2026-04-09T12:37:33.214Z</time></trkpt><trkpt lat="44.102895" lon="12.06219"><ele>73.2</ele><time>2026-04-09T12:37:35.214Z</time></trkpt><trkpt lat="44.10277" lon="12.0621617"><ele>73.0</ele><time>2026-04-09T12:37:37.214Z</time></trkpt><trkpt lat="44.1026533" lon="12.0621283"><ele>73.0</ele><time>2026-04-09T12:37:39.214Z</time></trkpt><trkpt lat="44.1025467" lon="12.06209"><ele>73.0</ele><time>2026-04-09T12:37:41.214Z</time></trkpt><trkpt lat="44.1024833" lon="12.062075"><ele>73.0</ele><time>2026-04-09T12:37:42.214Z</time></trkpt><trkpt lat="44.102415" lon="12.06206"><ele>73.0</ele><time>2026-04-09T12:37:43.214Z</time></trkpt><trkpt lat="44.1023467" lon="12.0620483"><ele>73.0</ele><time>2026-04-09T12:37:44.214Z</time></trkpt><trkpt lat="44.10228" lon="12.0620367"><ele>73.0</ele><time>2026-04-09T12:37:45.214Z</time></trkpt><trkpt lat="44.1022133" lon="12.06202"><ele>73.0</ele><time>2026-04-09T12:37:46.214Z</time></trkpt><trkpt lat="44.102145" lon="12.0620017"><ele>73.4</ele><time>2026-04-09T12:37:47.214Z</time></trkpt><trkpt lat="44.1020767" lon="12.061985"><ele>73.8</ele><time>2026-04-09T12:37:48.214Z</time></trkpt><trkpt lat="44.10201" lon="12.0619767"><ele>74.2</ele><time>2026-04-09T12:37:49.214Z</time></trkpt><trkpt lat="44.1019417" lon="12.06197"><ele>74.6</ele><time>2026-04-09T12:37:50.214Z</time></trkpt><trkpt lat="44.1018217" lon="12.0619583"><ele>75.0</ele><time>2026-04-09T12:37:52.214Z</time></trkpt><trkpt lat="44.101695" lon="12.0619533"><ele>75.0</ele><time>2026-04-09T12:37:54.214Z</time></trkpt><trkpt lat="44.1016317" lon="12.0619583"><ele>75.0</ele><time>2026-04-09T12:37:55.214Z</time></trkpt><trkpt lat="44.10156" lon="12.0619583"><ele>75.0</ele><time>2026-04-09T12:37:56.214Z</time></trkpt><trkpt lat="44.1014467" lon="12.06194"><ele>75.0</ele><time>2026-04-09T12:37:58.214Z</time></trkpt><trkpt lat="44.1013367" lon="12.0619167"><ele>75.0</ele><time>2026-04-09T12:38:00.214Z</time></trkpt><trkpt lat="44.1012283" lon="12.0618983"><ele>75.16666666666667</ele><time>2026-04-09T12:38:02.214Z</time></trkpt><trkpt lat="44.10111" lon="12.0618667"><ele>75.33333333333333</ele><time>2026-04-09T12:38:04.214Z</time></trkpt><trkpt lat="44.101045" lon="12.0618433"><ele>75.5</ele><time>2026-04-09T12:38:05.214Z</time></trkpt><trkpt lat="44.1009833" lon="12.0618067"><ele>75.66666666666666</ele><time>2026-04-09T12:38:06.214Z</time></trkpt><trkpt lat="44.1008767" lon="12.061715"><ele>75.83333333333333</ele><time>2026-04-09T12:38:08.214Z</time></trkpt><trkpt lat="44.100825" lon="12.061655"><ele>76.0</ele><time>2026-04-09T12:38:09.215Z</time></trkpt><trkpt lat="44.1007833" lon="12.061585"><ele>75.39999999999999</ele><time>2026-04-09T12:38:10.214Z</time></trkpt><trkpt lat="44.1007417" lon="12.0615183"><ele>74.8</ele><time>2026-04-09T12:38:11.215Z</time></trkpt><trkpt lat="44.1006567" lon="12.0613933"><ele>74.19999999999999</ele><time>2026-04-09T12:38:13.214Z</time></trkpt><trkpt lat="44.10061" lon="12.0613317"><ele>73.6</ele><time>2026-04-09T12:38:14.214Z</time></trkpt><trkpt lat="44.100525" lon="12.0612183"><ele>73.0</ele><time>2026-04-09T12:38:16.214Z</time></trkpt><trkpt lat="44.100445" lon="12.06112"><ele>73.0</ele><time>2026-04-09T12:38:18.214Z</time></trkpt><trkpt lat="44.1003417" lon="12.0610467"><ele>73.0</ele><time>2026-04-09T12:38:20.214Z</time></trkpt><trkpt lat="44.1002367" lon="12.0609733"><ele>73.0</ele><time>2026-04-09T12:38:22.214Z</time></trkpt><trkpt lat="44.1001767" lon="12.0609383"><ele>73.0</ele><time>2026-04-09T12:38:23.214Z</time></trkpt><trkpt lat="44.10007" lon="12.0608717"><ele>73.0</ele><time>2026-04-09T12:38:25.214Z</time></trkpt><trkpt lat="44.0999817" lon="12.060825"><ele>73.33333333333333</ele><time>2026-04-09T12:38:27.214Z</time></trkpt><trkpt lat="44.0998667" lon="12.060805"><ele>73.66666666666666</ele><time>2026-04-09T12:38:29.214Z</time></trkpt><trkpt lat="44.0998017" lon="12.0607983"><ele>74.0</ele><time>2026-04-09T12:38:30.214Z</time></trkpt><trkpt lat="44.09973" lon="12.0607917"><ele>74.33333333333333</ele><time>2026-04-09T12:38:31.214Z</time></trkpt><trkpt lat="44.0996667" lon="12.0608033"><ele>74.66666666666667</ele><time>2026-04-09T12:38:32.214Z</time></trkpt><trkpt lat="44.0996017" lon="12.06083"><ele>75.0</ele><time>2026-04-09T12:38:33.214Z</time></trkpt><trkpt lat="44.0995317" lon="12.0608767"><ele>75.0</ele><time>2026-04-09T12:38:34.214Z</time></trkpt><trkpt lat="44.0994633" lon="12.0609367"><ele>75.0</ele><time>2026-04-09T12:38:35.214Z</time></trkpt><trkpt lat="44.0993867" lon="12.0610117"><ele>75.0</ele><time>2026-04-09T12:38:36.214Z</time></trkpt><trkpt lat="44.099305" lon="12.0610917"><ele>75.0</ele><time>2026-04-09T12:38:37.214Z</time></trkpt><trkpt lat="44.0992417" lon="12.061165"><ele>75.0</ele><time>2026-04-09T12:38:38.214Z</time></trkpt><trkpt lat="44.099175" lon="12.0612283"><ele>75.0</ele><time>2026-04-09T12:38:39.214Z</time></trkpt><trkpt lat="44.0991133" lon="12.06128"><ele>75.2</ele><time>2026-04-09T12:38:40.214Z</time></trkpt><trkpt lat="44.0990183" lon="12.0613617"><ele>75.4</ele><time>2026-04-09T12:38:42.214Z</time></trkpt><trkpt lat="44.098945" lon="12.061435"><ele>75.6</ele><time>2026-04-09T12:38:44.214Z</time></trkpt><trkpt lat="44.0988783" lon="12.0615"><ele>75.8</ele><time>2026-04-09T12:38:46.214Z</time></trkpt><trkpt lat="44.0988" lon="12.0615533"><ele>76.0</ele><time>2026-04-09T12:38:48.214Z</time></trkpt><trkpt lat="44.098725" lon="12.0616117"><ele>76.0</ele><time>2026-04-09T12:38:50.214Z</time></trkpt><trkpt lat="44.0986433" lon="12.0616733"><ele>76.0</ele><time>2026-04-09T12:38:52.214Z</time></trkpt><trkpt lat="44.0985633" lon="12.061715"><ele>76.0</ele><time>2026-04-09T12:38:54.214Z</time></trkpt><trkpt lat="44.098465" lon="12.0617033"><ele>76.0</ele><time>2026-04-09T12:38:56.214Z</time></trkpt><trkpt lat="44.09837" lon="12.0616367"><ele>76.0</ele><time>2026-04-09T12:38:58.214Z</time></trkpt><trkpt lat="44.0982983" lon="12.0615383"><ele>76.0</ele><time>2026-04-09T12:39:00.214Z</time></trkpt><trkpt lat="44.098255" lon="12.0614067"><ele>76.0</ele><time>2026-04-09T12:39:02.214Z</time></trkpt><trkpt lat="44.0982183" lon="12.0612717"><ele>76.0</ele><time>2026-04-09T12:39:04.214Z</time></trkpt><trkpt lat="44.09818" lon="12.0611317"><ele>76.0</ele><time>2026-04-09T12:39:06.214Z</time></trkpt><trkpt lat="44.0981567" lon="12.0610033"><ele>76.0</ele><time>2026-04-09T12:39:08.214Z</time></trkpt><trkpt lat="44.0981217" lon="12.060865"><ele>75.2</ele><time>2026-04-09T12:39:10.214Z</time></trkpt><trkpt lat="44.09807" lon="12.0607433"><ele>74.39999999999999</ele><time>2026-04-09T12:39:12.214Z</time></trkpt><trkpt lat="44.0980067" lon="12.060625"><ele>73.6</ele><time>2026-04-09T12:39:14.214Z</time></trkpt><trkpt lat="44.0979233" lon="12.06054"><ele>72.8</ele><time>2026-04-09T12:39:16.214Z</time></trkpt><trkpt lat="44.097845" lon="12.060445"><ele>72.0</ele><time>2026-04-09T12:39:18.214Z</time></trkpt><trkpt lat="44.0977833" lon="12.0603333"><ele>72.0</ele><time>2026-04-09T12:39:20.214Z</time></trkpt><trkpt lat="44.09775" lon="12.060205"><ele>72.0</ele><time>2026-04-09T12:39:22.214Z</time></trkpt><trkpt lat="44.0977633" lon="12.0600633"><ele>72.0</ele><time>2026-04-09T12:39:24.214Z</time></trkpt><trkpt lat="44.0977917" lon="12.0599233"><ele>72.0</ele><time>2026-04-09T12:39:26.214Z</time></trkpt><trkpt lat="44.0978167" lon="12.0597833"><ele>72.0</ele><time>2026-04-09T12:39:28.214Z</time></trkpt><trkpt lat="44.0978433" lon="12.05965"><ele>73.0</ele><time>2026-04-09T12:39:30.214Z</time></trkpt><trkpt lat="44.09787" lon="12.0595433"><ele>74.0</ele><time>2026-04-09T12:39:32.214Z</time></trkpt><trkpt lat="44.097895" lon="12.0594267"><ele>75.0</ele><time>2026-04-09T12:39:34.214Z</time></trkpt><trkpt lat="44.0979317" lon="12.059305"><ele>76.0</ele><time>2026-04-09T12:39:36.214Z</time></trkpt><trkpt lat="44.09797" lon="12.05917"><ele>77.0</ele><time>2026-04-09T12:39:38.214Z</time></trkpt><trkpt lat="44.0980083" lon="12.05903"><ele>77.4</ele><time>2026-04-09T12:39:40.215Z</time></trkpt><trkpt lat="44.09804" lon="12.0589067"><ele>77.80000000000001</ele><time>2026-04-09T12:39:42.215Z</time></trkpt><trkpt lat="44.0980717" lon="12.05879"><ele>78.2</ele><time>2026-04-09T12:39:44.215Z</time></trkpt><trkpt lat="44.09811" lon="12.0586633"><ele>78.60000000000001</ele><time>2026-04-09T12:39:46.215Z</time></trkpt><trkpt lat="44.0981417" lon="12.0585333"><ele>79.0</ele><time>2026-04-09T12:39:48.215Z</time></trkpt><trkpt lat="44.0981683" lon="12.0583867"><ele>79.6</ele><time>2026-04-09T12:39:50.215Z</time></trkpt><trkpt lat="44.09819" lon="12.0582467"><ele>80.2</ele><time>2026-04-09T12:39:52.215Z</time></trkpt><trkpt lat="44.0981917" lon="12.05812"><ele>80.8</ele><time>2026-04-09T12:39:54.215Z</time></trkpt><trkpt lat="44.0981633" lon="12.058"><ele>81.39999999999999</ele><time>2026-04-09T12:39:56.215Z</time></trkpt><trkpt lat="44.0981083" lon="12.05787"><ele>82.0</ele><time>2026-04-09T12:39:58.215Z</time></trkpt><trkpt lat="44.09805" lon="12.0577433"><ele>82.0</ele><time>2026-04-09T12:40:00.215Z</time></trkpt><trkpt lat="44.0979933" lon="12.0576233"><ele>82.0</ele><time>2026-04-09T12:40:02.215Z</time></trkpt><trkpt lat="44.0979333" lon="12.0575133"><ele>82.0</ele><time>2026-04-09T12:40:04.215Z</time></trkpt><trkpt lat="44.097865" lon="12.0573917"><ele>82.0</ele><time>2026-04-09T12:40:06.215Z</time></trkpt><trkpt lat="44.097795" lon="12.0572767"><ele>82.0</ele><time>2026-04-09T12:40:08.215Z</time></trkpt><trkpt lat="44.0977367" lon="12.0571683"><ele>82.19999999999999</ele><time>2026-04-09T12:40:10.215Z</time></trkpt><trkpt lat="44.09771" lon="12.0570317"><ele>82.4</ele><time>2026-04-09T12:40:12.215Z</time></trkpt><trkpt lat="44.0977183" lon="12.0568783"><ele>82.6</ele><time>2026-04-09T12:40:14.215Z</time></trkpt><trkpt lat="44.0977517" lon="12.0567567"><ele>82.80000000000001</ele><time>2026-04-09T12:40:16.215Z</time></trkpt><trkpt lat="44.09778" lon="12.0566483"><ele>83.0</ele><time>2026-04-09T12:40:18.215Z</time></trkpt><trkpt lat="44.097805" lon="12.0565533"><ele>83.33333333333334</ele><time>2026-04-09T12:40:20.215Z</time></trkpt><trkpt lat="44.097835" lon="12.0564483"><ele>83.66666666666667</ele><time>2026-04-09T12:40:22.215Z</time></trkpt><trkpt lat="44.0978617" lon="12.056345"><ele>84.0</ele><time>2026-04-09T12:40:24.215Z</time></trkpt><trkpt lat="44.0978967" lon="12.0562283"><ele>84.33333333333333</ele><time>2026-04-09T12:40:26.215Z</time></trkpt><trkpt lat="44.0979267" lon="12.0561067"><ele>84.66666666666666</ele><time>2026-04-09T12:40:28.215Z</time></trkpt><trkpt lat="44.0979617" lon="12.0559817"><ele>85.0</ele><time>2026-04-09T12:40:30.216Z</time></trkpt><trkpt lat="44.0979917" lon="12.0558617"><ele>85.2</ele><time>2026-04-09T12:40:32.215Z</time></trkpt><trkpt lat="44.0980233" lon="12.05574"><ele>85.4</ele><time>2026-04-09T12:40:34.215Z</time></trkpt><trkpt lat="44.0980567" lon="12.0556233"><ele>85.6</ele><time>2026-04-09T12:40:36.215Z</time></trkpt><trkpt lat="44.0980833" lon="12.0555217"><ele>85.8</ele><time>2026-04-09T12:40:38.215Z</time></trkpt><trkpt lat="44.0981133" lon="12.0554017"><ele>86.0</ele><time>2026-04-09T12:40:40.215Z</time></trkpt><trkpt lat="44.098145" lon="12.0552733"><ele>86.0</ele><time>2026-04-09T12:40:42.215Z</time></trkpt><trkpt lat="44.0981767" lon="12.0551583"><ele>86.0</ele><time>2026-04-09T12:40:44.215Z</time></trkpt><trkpt lat="44.0982083" lon="12.0550533"><ele>86.0</ele><time>2026-04-09T12:40:46.215Z</time></trkpt><trkpt lat="44.09824" lon="12.0549417"><ele>86.0</ele><time>2026-04-09T12:40:48.215Z</time></trkpt><trkpt lat="44.0982683" lon="12.054825"><ele>86.0</ele><time>2026-04-09T12:40:50.215Z</time></trkpt><trkpt lat="44.09832" lon="12.05475"><ele>86.0</ele><time>2026-04-09T12:40:52.215Z</time></trkpt><trkpt lat="44.0983867" lon="12.0547483"><ele>86.16666666666667</ele><time>2026-04-09T12:40:54.215Z</time></trkpt><trkpt lat="44.0984633" lon="12.0547783"><ele>86.33333333333334</ele><time>2026-04-09T12:40:56.215Z</time></trkpt><trkpt lat="44.09855" lon="12.0548283"><ele>86.5</ele><time>2026-04-09T12:40:58.215Z</time></trkpt><trkpt lat="44.09864" lon="12.0548617"><ele>86.66666666666667</ele><time>2026-04-09T12:41:00.215Z</time></trkpt><trkpt lat="44.0987183" lon="12.0548767"><ele>86.83333333333333</ele><time>2026-04-09T12:41:02.215Z</time></trkpt><trkpt lat="44.0988067" lon="12.0549017"><ele>87.0</ele><time>2026-04-09T12:41:04.215Z</time></trkpt><trkpt lat="44.0989033" lon="12.054935"><ele>87.0</ele><time>2026-04-09T12:41:06.215Z</time></trkpt><trkpt lat="44.099" lon="12.054955"><ele>87.0</ele><time>2026-04-09T12:41:08.215Z</time></trkpt><trkpt lat="44.0990967" lon="12.0549683"><ele>87.0</ele><time>2026-04-09T12:41:10.215Z</time></trkpt><trkpt lat="44.0991983" lon="12.054975"><ele>87.0</ele><time>2026-04-09T12:41:12.215Z</time></trkpt><trkpt lat="44.0993117" lon="12.0549967"><ele>87.0</ele><time>2026-04-09T12:41:14.215Z</time></trkpt><trkpt lat="44.0994217" lon="12.0550417"><ele>87.25</ele><time>2026-04-09T12:41:16.215Z</time></trkpt><trkpt lat="44.0995283" lon="12.0550817"><ele>87.5</ele><time>2026-04-09T12:41:18.215Z</time></trkpt><trkpt lat="44.09964" lon="12.0551233"><ele>87.75</ele><time>2026-04-09T12:41:20.215Z</time></trkpt><trkpt lat="44.0997417" lon="12.0551983"><ele>88.0</ele><time>2026-04-09T12:41:22.215Z</time></trkpt><trkpt lat="44.09984" lon="12.0552633"><ele>88.0</ele><time>2026-04-09T12:41:24.215Z</time></trkpt><trkpt lat="44.09993" lon="12.055295"><ele>88.0</ele><time>2026-04-09T12:41:26.215Z</time></trkpt><trkpt lat="44.1000167" lon="12.0553583"><ele>88.0</ele><time>2026-04-09T12:41:28.215Z</time></trkpt><trkpt lat="44.1000983" lon="12.0553933"><ele>88.0</ele><time>2026-04-09T12:41:30.215Z</time></trkpt><trkpt lat="44.1001833" lon="12.05542"><ele>88.0</ele><time>2026-04-09T12:41:32.215Z</time></trkpt><trkpt lat="44.10028" lon="12.0554817"><ele>88.0</ele><time>2026-04-09T12:41:34.215Z</time></trkpt><trkpt lat="44.1003717" lon="12.055535"><ele>88.0</ele><time>2026-04-09T12:41:36.215Z</time></trkpt><trkpt lat="44.1004583" lon="12.055575"><ele>88.0</ele><time>2026-04-09T12:41:38.215Z</time></trkpt><trkpt lat="44.1005617" lon="12.0556183"><ele>88.0</ele><time>2026-04-09T12:41:40.215Z</time></trkpt><trkpt lat="44.1006667" lon="12.0556617"><ele>88.0</ele><time>2026-04-09T12:41:42.215Z</time></trkpt><trkpt lat="44.1007717" lon="12.055715"><ele>87.75</ele><time>2026-04-09T12:41:44.215Z</time></trkpt><trkpt lat="44.1008817" lon="12.05577"><ele>87.5</ele><time>2026-04-09T12:41:46.215Z</time></trkpt><trkpt lat="44.10099" lon="12.0558183"><ele>87.25</ele><time>2026-04-09T12:41:48.215Z</time></trkpt><trkpt lat="44.1010967" lon="12.0558467"><ele>87.0</ele><time>2026-04-09T12:41:50.215Z</time></trkpt><trkpt lat="44.101205" lon="12.05589"><ele>86.8</ele><time>2026-04-09T12:41:52.215Z</time></trkpt><trkpt lat="44.1013033" lon="12.0559183"><ele>86.6</ele><time>2026-04-09T12:41:54.215Z</time></trkpt><trkpt lat="44.1014033" lon="12.05594"><ele>86.39999999999999</ele><time>2026-04-09T12:41:56.215Z</time></trkpt><trkpt lat="44.1015067" lon="12.05597"><ele>86.19999999999999</ele><time>2026-04-09T12:41:58.215Z</time></trkpt><trkpt lat="44.10161" lon="12.0560017"><ele>86.0</ele><time>2026-04-09T12:42:00.215Z</time></trkpt><trkpt lat="44.1017183" lon="12.05602"><ele>86.0</ele><time>2026-04-09T12:42:02.215Z</time></trkpt><trkpt lat="44.1018283" lon="12.0560517"><ele>86.0</ele><time>2026-04-09T12:42:04.215Z</time></trkpt><trkpt lat="44.1019433" lon="12.0560883"><ele>86.0</ele><time>2026-04-09T12:42:06.215Z</time></trkpt><trkpt lat="44.1020067" lon="12.05611"><ele>86.0</ele><time>2026-04-09T12:42:07.215Z</time></trkpt><trkpt lat="44.1020717" lon="12.05613"><ele>86.0</ele><time>2026-04-09T12:42:08.215Z</time></trkpt><trkpt lat="44.1021333" lon="12.05616"><ele>86.0</ele><time>2026-04-09T12:42:09.215Z</time></trkpt><trkpt lat="44.1021967" lon="12.0561833"><ele>86.0</ele><time>2026-04-09T12:42:10.215Z</time></trkpt><trkpt lat="44.1023183" lon="12.05622"><ele>86.0</ele><time>2026-04-09T12:42:12.215Z</time></trkpt><trkpt lat="44.10243" lon="12.0562433"><ele>86.0</ele><time>2026-04-09T12:42:14.215Z</time></trkpt><trkpt lat="44.1025367" lon="12.0562583"><ele>86.0</ele><time>2026-04-09T12:42:16.215Z</time></trkpt><trkpt lat="44.1026483" lon="12.056305"><ele>86.19999999999999</ele><time>2026-04-09T12:42:18.215Z</time></trkpt><trkpt lat="44.1027717" lon="12.056365"><ele>86.39999999999999</ele><time>2026-04-09T12:42:20.215Z</time></trkpt><trkpt lat="44.1028383" lon="12.0563967"><ele>86.6</ele><time>2026-04-09T12:42:21.215Z</time></trkpt><trkpt lat="44.1029033" lon="12.0564217"><ele>86.8</ele><time>2026-04-09T12:42:22.215Z</time></trkpt><trkpt lat="44.102965" lon="12.0564433"><ele>87.0</ele><time>2026-04-09T12:42:23.215Z</time></trkpt><trkpt lat="44.1030867" lon="12.05648"><ele>87.0</ele><time>2026-04-09T12:42:25.215Z</time></trkpt><trkpt lat="44.10321" lon="12.0565067"><ele>87.0</ele><time>2026-04-09T12:42:27.215Z</time></trkpt><trkpt lat="44.1032783" lon="12.0565217"><ele>87.0</ele><time>2026-04-09T12:42:28.215Z</time></trkpt><trkpt lat="44.1034033" lon="12.0565433"><ele>87.0</ele><time>2026-04-09T12:42:30.215Z</time></trkpt><trkpt lat="44.10347" lon="12.0565517"><ele>87.0</ele><time>2026-04-09T12:42:31.215Z</time></trkpt><trkpt lat="44.103595" lon="12.056575"><ele>86.6</ele><time>2026-04-09T12:42:33.215Z</time></trkpt><trkpt lat="44.103715" lon="12.0565967"><ele>86.19999999999999</ele><time>2026-04-09T12:42:35.215Z</time></trkpt><trkpt lat="44.1037767" lon="12.056615"><ele>85.8</ele><time>2026-04-09T12:42:36.215Z</time></trkpt><trkpt lat="44.1038433" lon="12.056635"><ele>85.4</ele><time>2026-04-09T12:42:37.215Z</time></trkpt><trkpt lat="44.1039683" lon="12.0566667"><ele>85.0</ele><time>2026-04-09T12:42:39.215Z</time></trkpt><trkpt lat="44.1040367" lon="12.0567067"><ele>84.5</ele><time>2026-04-09T12:42:40.215Z</time></trkpt><trkpt lat="44.1041067" lon="12.05673"><ele>84.0</ele><time>2026-04-09T12:42:41.215Z</time></trkpt><trkpt lat="44.1041683" lon="12.0567483"><ele>83.5</ele><time>2026-04-09T12:42:42.215Z</time></trkpt><trkpt lat="44.1042883" lon="12.0567683"><ele>83.0</ele><time>2026-04-09T12:42:44.215Z</time></trkpt><trkpt lat="44.1043533" lon="12.056785"><ele>82.5</ele><time>2026-04-09T12:42:45.215Z</time></trkpt><trkpt lat="44.104425" lon="12.0568083"><ele>82.0</ele><time>2026-04-09T12:42:46.215Z</time></trkpt><trkpt lat="44.10455" lon="12.0568117"><ele>82.0</ele><time>2026-04-09T12:42:48.215Z</time></trkpt><trkpt lat="44.1046183" lon="12.0568217"><ele>82.0</ele><time>2026-04-09T12:42:49.215Z</time></trkpt><trkpt lat="44.104685" lon="12.0568367"><ele>82.0</ele><time>2026-04-09T12:42:50.215Z</time></trkpt><trkpt lat="44.1048117" lon="12.056865"><ele>82.0</ele><time>2026-04-09T12:42:52.215Z</time></trkpt><trkpt lat="44.1048767" lon="12.0568767"><ele>82.0</ele><time>2026-04-09T12:42:53.216Z</time></trkpt><trkpt lat="44.1050017" lon="12.0568983"><ele>82.0</ele><time>2026-04-09T12:42:55.215Z</time></trkpt><trkpt lat="44.1050683" lon="12.05691"><ele>82.0</ele><time>2026-04-09T12:42:56.215Z</time></trkpt><trkpt lat="44.1051883" lon="12.0569283"><ele>82.0</ele><time>2026-04-09T12:42:58.215Z</time></trkpt><trkpt lat="44.105305" lon="12.056955"><ele>82.0</ele><time>2026-04-09T12:43:00.215Z</time></trkpt><trkpt lat="44.1053683" lon="12.0569617"><ele>82.0</ele><time>2026-04-09T12:43:01.215Z</time></trkpt><trkpt lat="44.1054333" lon="12.05697"><ele>82.0</ele><time>2026-04-09T12:43:02.215Z</time></trkpt><trkpt lat="44.1054967" lon="12.05698"><ele>82.0</ele><time>2026-04-09T12:43:03.215Z</time></trkpt><trkpt lat="44.1055667" lon="12.0569833"><ele>82.0</ele><time>2026-04-09T12:43:04.215Z</time></trkpt><trkpt lat="44.1056317" lon="12.0569933"><ele>82.0</ele><time>2026-04-09T12:43:05.215Z</time></trkpt><trkpt lat="44.105695" lon="12.057"><ele>82.0</ele><time>2026-04-09T12:43:06.215Z</time></trkpt><trkpt lat="44.1057633" lon="12.057005"><ele>82.0</ele><time>2026-04-09T12:43:07.215Z</time></trkpt><trkpt lat="44.1058283" lon="12.0570217"><ele>82.0</ele><time>2026-04-09T12:43:08.215Z</time></trkpt><trkpt lat="44.1059517" lon="12.0570633"><ele>82.0</ele><time>2026-04-09T12:43:10.215Z</time></trkpt><trkpt lat="44.1060683" lon="12.0570917"><ele>82.0</ele><time>2026-04-09T12:43:12.215Z</time></trkpt><trkpt lat="44.10619" lon="12.05712"><ele>82.0</ele><time>2026-04-09T12:43:14.215Z</time></trkpt><trkpt lat="44.106255" lon="12.0571383"><ele>82.0</ele><time>2026-04-09T12:43:15.215Z</time></trkpt><trkpt lat="44.1063167" lon="12.0571567"><ele>82.0</ele><time>2026-04-09T12:43:16.215Z</time></trkpt><trkpt lat="44.1064367" lon="12.0571917"><ele>82.0</ele><time>2026-04-09T12:43:18.215Z</time></trkpt><trkpt lat="44.1065533" lon="12.0572283"><ele>82.0</ele><time>2026-04-09T12:43:20.215Z</time></trkpt><trkpt lat="44.1066167" lon="12.0572467"><ele>82.0</ele><time>2026-04-09T12:43:21.215Z</time></trkpt><trkpt lat="44.1066817" lon="12.0572583"><ele>82.0</ele><time>2026-04-09T12:43:22.215Z</time></trkpt><trkpt lat="44.1067983" lon="12.0573"><ele>82.0</ele><time>2026-04-09T12:43:24.215Z</time></trkpt><trkpt lat="44.10686" lon="12.0573267"><ele>82.0</ele><time>2026-04-09T12:43:25.215Z</time></trkpt><trkpt lat="44.106925" lon="12.0573483"><ele>82.0</ele><time>2026-04-09T12:43:26.215Z</time></trkpt><trkpt lat="44.1069883" lon="12.0573683"><ele>82.0</ele><time>2026-04-09T12:43:27.215Z</time></trkpt><trkpt lat="44.1070533" lon="12.05738"><ele>82.0</ele><time>2026-04-09T12:43:28.215Z</time></trkpt><trkpt lat="44.1071717" lon="12.0574133"><ele>82.0</ele><time>2026-04-09T12:43:30.215Z</time></trkpt><trkpt lat="44.1072833" lon="12.0574633"><ele>82.0</ele><time>2026-04-09T12:43:32.215Z</time></trkpt><trkpt lat="44.107405" lon="12.0574983"><ele>81.85714285714285</ele><time>2026-04-09T12:43:34.215Z</time></trkpt><trkpt lat="44.1074683" lon="12.057515"><ele>81.71428571428571</ele><time>2026-04-09T12:43:35.215Z</time></trkpt><trkpt lat="44.1075317" lon="12.05753"><ele>81.57142857142857</ele><time>2026-04-09T12:43:36.215Z</time></trkpt><trkpt lat="44.1076" lon="12.0575433"><ele>81.42857142857142</ele><time>2026-04-09T12:43:37.215Z</time></trkpt><trkpt lat="44.107665" lon="12.057555"><ele>81.28571428571428</ele><time>2026-04-09T12:43:38.215Z</time></trkpt><trkpt lat="44.107735" lon="12.0575733"><ele>81.14285714285714</ele><time>2026-04-09T12:43:39.215Z</time></trkpt><trkpt lat="44.1078033" lon="12.05759"><ele>81.0</ele><time>2026-04-09T12:43:40.215Z</time></trkpt><trkpt lat="44.10787" lon="12.057605"><ele>81.0</ele><time>2026-04-09T12:43:41.215Z</time></trkpt><trkpt lat="44.10794" lon="12.0576233"><ele>81.0</ele><time>2026-04-09T12:43:42.215Z</time></trkpt><trkpt lat="44.10801" lon="12.0576333"><ele>81.0</ele><time>2026-04-09T12:43:43.215Z</time></trkpt><trkpt lat="44.1080783" lon="12.057645"><ele>81.0</ele><time>2026-04-09T12:43:44.215Z</time></trkpt><trkpt lat="44.108145" lon="12.0576467"><ele>81.0</ele><time>2026-04-09T12:43:45.215Z</time></trkpt><trkpt lat="44.1082167" lon="12.0576583"><ele>81.0</ele><time>2026-04-09T12:43:46.215Z</time></trkpt><trkpt lat="44.108285" lon="12.0576783"><ele>81.0</ele><time>2026-04-09T12:43:47.215Z</time></trkpt><trkpt lat="44.1083483" lon="12.057685"><ele>81.0</ele><time>2026-04-09T12:43:48.215Z</time></trkpt><trkpt lat="44.10847" lon="12.0577083"><ele>81.0</ele><time>2026-04-09T12:43:50.215Z</time></trkpt><trkpt lat="44.10858" lon="12.0577267"><ele>81.0</ele><time>2026-04-09T12:43:52.215Z</time></trkpt><trkpt lat="44.1086483" lon="12.0577333"><ele>81.0</ele><time>2026-04-09T12:43:53.215Z</time></trkpt><trkpt lat="44.1087133" lon="12.057745"><ele>81.0</ele><time>2026-04-09T12:43:54.215Z</time></trkpt><trkpt lat="44.1087833" lon="12.057755"><ele>81.0</ele><time>2026-04-09T12:43:55.215Z</time></trkpt><trkpt lat="44.10885" lon="12.0577717"><ele>81.0</ele><time>2026-04-09T12:43:56.215Z</time></trkpt><trkpt lat="44.1089183" lon="12.05779"><ele>81.0</ele><time>2026-04-09T12:43:57.215Z</time></trkpt><trkpt lat="44.108985" lon="12.0578017"><ele>81.0</ele><time>2026-04-09T12:43:58.215Z</time></trkpt><trkpt lat="44.1090517" lon="12.0578133"><ele>81.0</ele><time>2026-04-09T12:43:59.215Z</time></trkpt><trkpt lat="44.1091183" lon="12.057825"><ele>81.0</ele><time>2026-04-09T12:44:00.215Z</time></trkpt><trkpt lat="44.109185" lon="12.0578433"><ele>81.0</ele><time>2026-04-09T12:44:01.215Z</time></trkpt><trkpt lat="44.1092483" lon="12.0578617"><ele>81.0</ele><time>2026-04-09T12:44:02.215Z</time></trkpt><trkpt lat="44.1093183" lon="12.0578833"><ele>80.83333333333333</ele><time>2026-04-09T12:44:03.215Z</time></trkpt><trkpt lat="44.1093833" lon="12.0579067"><ele>80.66666666666667</ele><time>2026-04-09T12:44:04.215Z</time></trkpt><trkpt lat="44.1094483" lon="12.05793"><ele>80.5</ele><time>2026-04-09T12:44:05.215Z</time></trkpt><trkpt lat="44.1095667" lon="12.0579633"><ele>80.33333333333334</ele><time>2026-04-09T12:44:07.215Z</time></trkpt><trkpt lat="44.109625" lon="12.0580017"><ele>80.16666666666667</ele><time>2026-04-09T12:44:08.215Z</time></trkpt><trkpt lat="44.1097383" lon="12.0580533"><ele>80.0</ele><time>2026-04-09T12:44:10.215Z</time></trkpt><trkpt lat="44.1098" lon="12.0580767"><ele>80.0</ele><time>2026-04-09T12:44:11.216Z</time></trkpt><trkpt lat="44.1098633" lon="12.0580967"><ele>80.0</ele><time>2026-04-09T12:44:12.215Z</time></trkpt><trkpt lat="44.109985" lon="12.058135"><ele>80.0</ele><time>2026-04-09T12:44:14.215Z</time></trkpt><trkpt lat="44.110055" lon="12.0581417"><ele>80.0</ele><time>2026-04-09T12:44:15.215Z</time></trkpt><trkpt lat="44.1101233" lon="12.0581467"><ele>80.0</ele><time>2026-04-09T12:44:16.215Z</time></trkpt><trkpt lat="44.11019" lon="12.05815"><ele>80.0</ele><time>2026-04-09T12:44:17.215Z</time></trkpt><trkpt lat="44.1102533" lon="12.0581533"><ele>80.0</ele><time>2026-04-09T12:44:18.215Z</time></trkpt><trkpt lat="44.110375" lon="12.0581583"><ele>80.0</ele><time>2026-04-09T12:44:20.215Z</time></trkpt><trkpt lat="44.1104433" lon="12.058165"><ele>80.0</ele><time>2026-04-09T12:44:21.215Z</time></trkpt><trkpt lat="44.1105117" lon="12.058175"><ele>80.0</ele><time>2026-04-09T12:44:22.215Z</time></trkpt><trkpt lat="44.1106267" lon="12.058195"><ele>80.0</ele><time>2026-04-09T12:44:24.215Z</time></trkpt><trkpt lat="44.11069" lon="12.0582067"><ele>80.0</ele><time>2026-04-09T12:44:25.215Z</time></trkpt><trkpt lat="44.110755" lon="12.058215"><ele>79.8</ele><time>2026-04-09T12:44:26.215Z</time></trkpt><trkpt lat="44.11082" lon="12.0582183"><ele>79.6</ele><time>2026-04-09T12:44:27.215Z</time></trkpt><trkpt lat="44.11094" lon="12.0582367"><ele>79.4</ele><time>2026-04-09T12:44:29.215Z</time></trkpt><trkpt lat="44.1110517" lon="12.0582683"><ele>79.2</ele><time>2026-04-09T12:44:31.215Z</time></trkpt><trkpt lat="44.1111567" lon="12.0582667"><ele>79.0</ele><time>2026-04-09T12:44:33.215Z</time></trkpt><trkpt lat="44.1112583" lon="12.058275"><ele>79.0</ele><time>2026-04-09T12:44:35.215Z</time></trkpt><trkpt lat="44.1113533" lon="12.0582717"><ele>79.0</ele><time>2026-04-09T12:44:37.215Z</time></trkpt><trkpt lat="44.1114683" lon="12.058285"><ele>79.0</ele><time>2026-04-09T12:44:39.215Z</time></trkpt><trkpt lat="44.1115867" lon="12.0582833"><ele>79.0</ele><time>2026-04-09T12:44:41.215Z</time></trkpt><trkpt lat="44.1117017" lon="12.0582733"><ele>79.0</ele><time>2026-04-09T12:44:43.215Z</time></trkpt><trkpt lat="44.1118117" lon="12.0582667"><ele>79.0</ele><time>2026-04-09T12:44:45.215Z</time></trkpt><trkpt lat="44.1119283" lon="12.05825"><ele>79.0</ele><time>2026-04-09T12:44:47.215Z</time></trkpt><trkpt lat="44.1120433" lon="12.0582333"><ele>79.0</ele><time>2026-04-09T12:44:49.215Z</time></trkpt><trkpt lat="44.1121067" lon="12.0582267"><ele>79.0</ele><time>2026-04-09T12:44:50.215Z</time></trkpt><trkpt lat="44.1121717" lon="12.0582283"><ele>79.0</ele><time>2026-04-09T12:44:51.215Z</time></trkpt><trkpt lat="44.112235" lon="12.0582283"><ele>79.0</ele><time>2026-04-09T12:44:52.215Z</time></trkpt><trkpt lat="44.1123" lon="12.0582267"><ele>79.00000000000001</ele><time>2026-04-09T12:44:53.215Z</time></trkpt><trkpt lat="44.112365" lon="12.0582217"><ele>79.0</ele><time>2026-04-09T12:44:54.215Z</time></trkpt><trkpt lat="44.1124283" lon="12.0582267"><ele>79.0</ele><time>2026-04-09T12:44:55.215Z</time></trkpt><trkpt lat="44.1124933" lon="12.0582217"><ele>79.0</ele><time>2026-04-09T12:44:56.215Z</time></trkpt><trkpt lat="44.1125567" lon="12.0582233"><ele>79.0</ele><time>2026-04-09T12:44:57.215Z</time></trkpt><trkpt lat="44.1126217" lon="12.0582267"><ele>79.00000000000001</ele><time>2026-04-09T12:44:58.215Z</time></trkpt><trkpt lat="44.112685" lon="12.0582267"><ele>79.0</ele><time>2026-04-09T12:44:59.215Z</time></trkpt><trkpt lat="44.1128067" lon="12.0582267"><ele>79.0</ele><time>2026-04-09T12:45:01.215Z</time></trkpt><trkpt lat="44.1129267" lon="12.058225"><ele>79.0</ele><time>2026-04-09T12:45:03.215Z</time></trkpt><trkpt lat="44.11299" lon="12.0582233"><ele>79.0</ele><time>2026-04-09T12:45:04.215Z</time></trkpt><trkpt lat="44.1131033" lon="12.0582117"><ele>79.0</ele><time>2026-04-09T12:45:06.215Z</time></trkpt><trkpt lat="44.11321" lon="12.058195"><ele>79.0</ele><time>2026-04-09T12:45:08.215Z</time></trkpt><trkpt lat="44.113315" lon="12.0581467"><ele>79.0</ele><time>2026-04-09T12:45:10.215Z</time></trkpt><trkpt lat="44.1134167" lon="12.0580983"><ele>79.0</ele><time>2026-04-09T12:45:12.215Z</time></trkpt><trkpt lat="44.1135233" lon="12.058045"><ele>79.0</ele><time>2026-04-09T12:45:14.215Z</time></trkpt><trkpt lat="44.11362" lon="12.0579917"><ele>79.0</ele><time>2026-04-09T12:45:16.215Z</time></trkpt><trkpt lat="44.1137117" lon="12.0579417"><ele>79.0</ele><time>2026-04-09T12:45:18.215Z</time></trkpt><trkpt lat="44.1137983" lon="12.0578667"><ele>79.0</ele><time>2026-04-09T12:45:20.215Z</time></trkpt><trkpt lat="44.113875" lon="12.0577867"><ele>79.0</ele><time>2026-04-09T12:45:22.215Z</time></trkpt><trkpt lat="44.1139567" lon="12.0576983"><ele>79.0</ele><time>2026-04-09T12:45:24.215Z</time></trkpt><trkpt lat="44.11404" lon="12.05764"><ele>79.0</ele><time>2026-04-09T12:45:26.215Z</time></trkpt><trkpt lat="44.1141167" lon="12.0576783"><ele>79.0</ele><time>2026-04-09T12:45:28.215Z</time></trkpt><trkpt lat="44.1142133" lon="12.0577417"><ele>79.0</ele><time>2026-04-09T12:45:30.215Z</time></trkpt><trkpt lat="44.114325" lon="12.0578067"><ele>79.0</ele><time>2026-04-09T12:45:32.215Z</time></trkpt><trkpt lat="44.1143833" lon="12.057845"><ele>79.0</ele><time>2026-04-09T12:45:33.215Z</time></trkpt><trkpt lat="44.11449" lon="12.057915"><ele>79.0</ele><time>2026-04-09T12:45:35.215Z</time></trkpt><trkpt lat="44.1145483" lon="12.0579533"><ele>79.0</ele><time>2026-04-09T12:45:36.215Z</time></trkpt><trkpt lat="44.1146667" lon="12.0580283"><ele>79.0</ele><time>2026-04-09T12:45:38.215Z</time></trkpt><trkpt lat="44.114725" lon="12.0580617"><ele>79.0</ele><time>2026-04-09T12:45:39.215Z</time></trkpt><trkpt lat="44.1148467" lon="12.0581233"><ele>79.0</ele><time>2026-04-09T12:45:41.215Z</time></trkpt><trkpt lat="44.114915" lon="12.058155"><ele>79.0</ele><time>2026-04-09T12:45:42.215Z</time></trkpt><trkpt lat="44.114985" lon="12.0581817"><ele>79.0</ele><time>2026-04-09T12:45:43.215Z</time></trkpt><trkpt lat="44.1150533" lon="12.0582033"><ele>79.0</ele><time>2026-04-09T12:45:44.215Z</time></trkpt><trkpt lat="44.115125" lon="12.0582283"><ele>78.66666666666666</ele><time>2026-04-09T12:45:45.215Z</time></trkpt><trkpt lat="44.1151933" lon="12.05825"><ele>78.33333333333333</ele><time>2026-04-09T12:45:46.215Z</time></trkpt><trkpt lat="44.1152567" lon="12.05827"><ele>78.0</ele><time>2026-04-09T12:45:47.215Z</time></trkpt><trkpt lat="44.1153183" lon="12.05829"><ele>77.66666666666667</ele><time>2026-04-09T12:45:48.215Z</time></trkpt><trkpt lat="44.1154383" lon="12.0582967"><ele>77.33333333333334</ele><time>2026-04-09T12:45:50.215Z</time></trkpt><trkpt lat="44.1155067" lon="12.0583017"><ele>77.0</ele><time>2026-04-09T12:45:51.215Z</time></trkpt><trkpt lat="44.1156317" lon="12.0583117"><ele>77.0</ele><time>2026-04-09T12:45:53.215Z</time></trkpt><trkpt lat="44.1156983" lon="12.0583167"><ele>77.0</ele><time>2026-04-09T12:45:54.215Z</time></trkpt><trkpt lat="44.1157633" lon="12.05832"><ele>77.0</ele><time>2026-04-09T12:45:55.215Z</time></trkpt><trkpt lat="44.1158933" lon="12.0583067"><ele>77.0</ele><time>2026-04-09T12:45:57.215Z</time></trkpt><trkpt lat="44.1159633" lon="12.0582933"><ele>77.0</ele><time>2026-04-09T12:45:58.215Z</time></trkpt><trkpt lat="44.1160283" lon="12.0582767"><ele>77.0</ele><time>2026-04-09T12:45:59.215Z</time></trkpt><trkpt lat="44.1160917" lon="12.058265"><ele>77.14285714285714</ele><time>2026-04-09T12:46:00.215Z</time></trkpt><trkpt lat="44.1161583" lon="12.058255"><ele>77.28571428571428</ele><time>2026-04-09T12:46:01.215Z</time></trkpt><trkpt lat="44.1162317" lon="12.0582383"><ele>77.42857142857143</ele><time>2026-04-09T12:46:02.215Z</time></trkpt><trkpt lat="44.1163083" lon="12.0582183"><ele>77.57142857142857</ele><time>2026-04-09T12:46:03.215Z</time></trkpt><trkpt lat="44.1163717" lon="12.0581967"><ele>77.71428571428571</ele><time>2026-04-09T12:46:04.215Z</time></trkpt><trkpt lat="44.1164367" lon="12.0581783"><ele>77.85714285714286</ele><time>2026-04-09T12:46:05.215Z</time></trkpt><trkpt lat="44.1165167" lon="12.0581617"><ele>78.0</ele><time>2026-04-09T12:46:06.215Z</time></trkpt><trkpt lat="44.116585" lon="12.0581367"><ele>78.2</ele><time>2026-04-09T12:46:07.215Z</time></trkpt><trkpt lat="44.1166583" lon="12.0581117"><ele>78.4</ele><time>2026-04-09T12:46:08.215Z</time></trkpt><trkpt lat="44.1167317" lon="12.0580883"><ele>78.60000000000001</ele><time>2026-04-09T12:46:09.215Z</time></trkpt><trkpt lat="44.1168483" lon="12.0580433"><ele>78.8</ele><time>2026-04-09T12:46:11.215Z</time></trkpt><trkpt lat="44.116965" lon="12.0579867"><ele>79.0</ele><time>2026-04-09T12:46:13.215Z</time></trkpt><trkpt lat="44.1170933" lon="12.0579283"><ele>79.00000000000001</ele><time>2026-04-09T12:46:15.215Z</time></trkpt><trkpt lat="44.1171617" lon="12.0579"><ele>79.0</ele><time>2026-04-09T12:46:16.215Z</time></trkpt><trkpt lat="44.1172317" lon="12.05787"><ele>79.0</ele><time>2026-04-09T12:46:17.215Z</time></trkpt><trkpt lat="44.117305" lon="12.0578433"><ele>79.0</ele><time>2026-04-09T12:46:18.215Z</time></trkpt><trkpt lat="44.1173717" lon="12.0578233"><ele>79.0</ele><time>2026-04-09T12:46:19.215Z</time></trkpt><trkpt lat="44.11744" lon="12.0578"><ele>79.00000000000001</ele><time>2026-04-09T12:46:20.215Z</time></trkpt><trkpt lat="44.1175017" lon="12.0577733"><ele>79.0</ele><time>2026-04-09T12:46:21.215Z</time></trkpt><trkpt lat="44.1175667" lon="12.0577433"><ele>78.0</ele><time>2026-04-09T12:46:22.215Z</time></trkpt><trkpt lat="44.1176317" lon="12.0577117"><ele>77.0</ele><time>2026-04-09T12:46:23.215Z</time></trkpt><trkpt lat="44.1177033" lon="12.0576783"><ele>76.0</ele><time>2026-04-09T12:46:24.215Z</time></trkpt><trkpt lat="44.1177767" lon="12.0576533"><ele>75.0</ele><time>2026-04-09T12:46:25.215Z</time></trkpt><trkpt lat="44.1178567" lon="12.0576333"><ele>74.0</ele><time>2026-04-09T12:46:26.215Z</time></trkpt><trkpt lat="44.1179383" lon="12.05762"><ele>73.0</ele><time>2026-04-09T12:46:27.215Z</time></trkpt><trkpt lat="44.1180233" lon="12.0576167"><ele>73.0</ele><time>2026-04-09T12:46:28.215Z</time></trkpt><trkpt lat="44.1181017" lon="12.05762"><ele>73.0</ele><time>2026-04-09T12:46:29.215Z</time></trkpt><trkpt lat="44.1181783" lon="12.0576233"><ele>73.0</ele><time>2026-04-09T12:46:30.215Z</time></trkpt><trkpt lat="44.1182517" lon="12.0576367"><ele>73.0</ele><time>2026-04-09T12:46:31.215Z</time></trkpt><trkpt lat="44.118325" lon="12.05766"><ele>73.0</ele><time>2026-04-09T12:46:32.215Z</time></trkpt><trkpt lat="44.118395" lon="12.0576883"><ele>73.0</ele><time>2026-04-09T12:46:33.215Z</time></trkpt><trkpt lat="44.1184617" lon="12.0577183"><ele>73.0</ele><time>2026-04-09T12:46:34.215Z</time></trkpt><trkpt lat="44.1185267" lon="12.057755"><ele>71.4</ele><time>2026-04-09T12:46:35.215Z</time></trkpt><trkpt lat="44.1185867" lon="12.0577917"><ele>69.8</ele><time>2026-04-09T12:46:36.215Z</time></trkpt><trkpt lat="44.1186917" lon="12.0578767"><ele>68.2</ele><time>2026-04-09T12:46:38.215Z</time></trkpt><trkpt lat="44.1187883" lon="12.0579417"><ele>66.6</ele><time>2026-04-09T12:46:40.215Z</time></trkpt><trkpt lat="44.1188667" lon="12.0579333"><ele>65.0</ele><time>2026-04-09T12:46:42.215Z</time></trkpt><trkpt lat="44.1189033" lon="12.0578217"><ele>65.00000000000001</ele><time>2026-04-09T12:46:45.215Z</time></trkpt><trkpt lat="44.1188867" lon="12.0576933"><ele>65.0</ele><time>2026-04-09T12:46:48.215Z</time></trkpt><trkpt lat="44.1188717" lon="12.0576017"><ele>65.0</ele><time>2026-04-09T12:46:50.215Z</time></trkpt><trkpt lat="44.1188533" lon="12.0575067"><ele>65.0</ele><time>2026-04-09T12:46:52.215Z</time></trkpt><trkpt lat="44.118835" lon="12.057415"><ele>65.0</ele><time>2026-04-09T12:46:54.215Z</time></trkpt><trkpt lat="44.1188067" lon="12.0573167"><ele>65.00000000000001</ele><time>2026-04-09T12:46:56.215Z</time></trkpt><trkpt lat="44.1187817" lon="12.0572267"><ele>65.0</ele><time>2026-04-09T12:46:58.215Z</time></trkpt><trkpt lat="44.1187617" lon="12.0571267"><ele>65.16666666666667</ele><time>2026-04-09T12:47:00.215Z</time></trkpt><trkpt lat="44.11874" lon="12.056995"><ele>65.33333333333334</ele><time>2026-04-09T12:47:02.215Z</time></trkpt><trkpt lat="44.11872" lon="12.0568733"><ele>65.5</ele><time>2026-04-09T12:47:04.215Z</time></trkpt><trkpt lat="44.1186967" lon="12.056775"><ele>65.66666666666667</ele><time>2026-04-09T12:47:06.215Z</time></trkpt><trkpt lat="44.11868" lon="12.0566817"><ele>65.83333333333333</ele><time>2026-04-09T12:47:08.215Z</time></trkpt><trkpt lat="44.1186583" lon="12.056585"><ele>66.0</ele><time>2026-04-09T12:47:10.215Z</time></trkpt><trkpt lat="44.1186233" lon="12.05648"><ele>66.16666666666667</ele><time>2026-04-09T12:47:12.215Z</time></trkpt><trkpt lat="44.1186033" lon="12.05637"><ele>66.33333333333333</ele><time>2026-04-09T12:47:14.215Z</time></trkpt><trkpt lat="44.118585" lon="12.0562467"><ele>66.5</ele><time>2026-04-09T12:47:16.215Z</time></trkpt><trkpt lat="44.11856" lon="12.0561233"><ele>66.66666666666666</ele><time>2026-04-09T12:47:18.215Z</time></trkpt><trkpt lat="44.118545" lon="12.0559967"><ele>66.83333333333333</ele><time>2026-04-09T12:47:20.215Z</time></trkpt><trkpt lat="44.1185317" lon="12.05587"><ele>67.0</ele><time>2026-04-09T12:47:22.215Z</time></trkpt><trkpt lat="44.1185133" lon="12.0557633"><ele>67.66666666666666</ele><time>2026-04-09T12:47:24.215Z</time></trkpt><trkpt lat="44.1184933" lon="12.055645"><ele>68.33333333333333</ele><time>2026-04-09T12:47:26.215Z</time></trkpt><trkpt lat="44.11847" lon="12.0555117"><ele>69.0</ele><time>2026-04-09T12:47:28.215Z</time></trkpt><trkpt lat="44.1184517" lon="12.0553883"><ele>69.66666666666667</ele><time>2026-04-09T12:47:30.215Z</time></trkpt><trkpt lat="44.1184367" lon="12.0552783"><ele>70.33333333333334</ele><time>2026-04-09T12:47:32.215Z</time></trkpt><trkpt lat="44.1184183" lon="12.05516"><ele>71.0</ele><time>2026-04-09T12:47:34.215Z</time></trkpt><trkpt lat="44.118395" lon="12.05505"><ele>71.66666666666667</ele><time>2026-04-09T12:47:36.215Z</time></trkpt><trkpt lat="44.1183683" lon="12.0549467"><ele>72.33333333333334</ele><time>2026-04-09T12:47:38.215Z</time></trkpt><trkpt lat="44.1183417" lon="12.0548283"><ele>73.0</ele><time>2026-04-09T12:47:40.215Z</time></trkpt><trkpt lat="44.1183183" lon="12.0547083"><ele>73.66666666666667</ele><time>2026-04-09T12:47:42.215Z</time></trkpt><trkpt lat="44.1182917" lon="12.054595"><ele>74.33333333333333</ele><time>2026-04-09T12:47:44.215Z</time></trkpt><trkpt lat="44.1182667" lon="12.0544867"><ele>75.0</ele><time>2026-04-09T12:47:46.215Z</time></trkpt><trkpt lat="44.1182483" lon="12.0543567"><ele>75.0</ele><time>2026-04-09T12:47:48.215Z</time></trkpt><trkpt lat="44.11823" lon="12.0542317"><ele>75.0</ele><time>2026-04-09T12:47:50.215Z</time></trkpt><trkpt lat="44.1182067" lon="12.0541083"><ele>75.0</ele><time>2026-04-09T12:47:52.215Z</time></trkpt><trkpt lat="44.1181933" lon="12.053975"><ele>75.0</ele><time>2026-04-09T12:47:54.215Z</time></trkpt><trkpt lat="44.1181833" lon="12.0538433"><ele>75.0</ele><time>2026-04-09T12:47:56.215Z</time></trkpt><trkpt lat="44.1181567" lon="12.0537333"><ele>75.0</ele><time>2026-04-09T12:47:58.215Z</time></trkpt><trkpt lat="44.1181483" lon="12.05361"><ele>75.0</ele><time>2026-04-09T12:48:00.215Z</time></trkpt><trkpt lat="44.11814" lon="12.053475"><ele>75.0</ele><time>2026-04-09T12:48:02.215Z</time></trkpt><trkpt lat="44.1181383" lon="12.0533283"><ele>75.0</ele><time>2026-04-09T12:48:04.215Z</time></trkpt><trkpt lat="44.1181267" lon="12.0531917"><ele>75.0</ele><time>2026-04-09T12:48:06.215Z</time></trkpt><trkpt lat="44.1181217" lon="12.0530483"><ele>75.5</ele><time>2026-04-09T12:48:08.215Z</time></trkpt><trkpt lat="44.11813" lon="12.0529083"><ele>76.0</ele><time>2026-04-09T12:48:10.215Z</time></trkpt><trkpt lat="44.1181217" lon="12.0527417"><ele>76.5</ele><time>2026-04-09T12:48:12.215Z</time></trkpt><trkpt lat="44.1181117" lon="12.0525833"><ele>77.0</ele><time>2026-04-09T12:48:14.215Z</time></trkpt><trkpt lat="44.118095" lon="12.0524233"><ele>77.2</ele><time>2026-04-09T12:48:16.215Z</time></trkpt><trkpt lat="44.1180883" lon="12.052265"><ele>77.4</ele><time>2026-04-09T12:48:18.215Z</time></trkpt><trkpt lat="44.118085" lon="12.0521083"><ele>77.6</ele><time>2026-04-09T12:48:20.215Z</time></trkpt><trkpt lat="44.1180733" lon="12.05198"><ele>77.8</ele><time>2026-04-09T12:48:22.215Z</time></trkpt><trkpt lat="44.1180667" lon="12.0518533"><ele>78.0</ele><time>2026-04-09T12:48:24.215Z</time></trkpt><trkpt lat="44.1180567" lon="12.0517133"><ele>78.2</ele><time>2026-04-09T12:48:26.215Z</time></trkpt><trkpt lat="44.1180333" lon="12.051585"><ele>78.4</ele><time>2026-04-09T12:48:28.215Z</time></trkpt><trkpt lat="44.1180183" lon="12.0514583"><ele>78.60000000000001</ele><time>2026-04-09T12:48:30.215Z</time></trkpt><trkpt lat="44.118005" lon="12.0513283"><ele>78.8</ele><time>2026-04-09T12:48:32.215Z</time></trkpt><trkpt lat="44.117995" lon="12.0511933"><ele>79.0</ele><time>2026-04-09T12:48:34.215Z</time></trkpt><trkpt lat="44.1179817" lon="12.05106"><ele>79.0</ele><time>2026-04-09T12:48:36.215Z</time></trkpt><trkpt lat="44.117975" lon="12.0509383"><ele>79.0</ele><time>2026-04-09T12:48:38.215Z</time></trkpt><trkpt lat="44.1179783" lon="12.050805"><ele>79.0</ele><time>2026-04-09T12:48:40.215Z</time></trkpt><trkpt lat="44.118" lon="12.0506717"><ele>79.0</ele><time>2026-04-09T12:48:42.215Z</time></trkpt><trkpt lat="44.1180233" lon="12.050535"><ele>79.0</ele><time>2026-04-09T12:48:44.215Z</time></trkpt><trkpt lat="44.1180583" lon="12.0504133"><ele>80.0</ele><time>2026-04-09T12:48:46.215Z</time></trkpt><trkpt lat="44.1180917" lon="12.0502833"><ele>81.0</ele><time>2026-04-09T12:48:48.215Z</time></trkpt><trkpt lat="44.1181317" lon="12.0501417"><ele>82.0</ele><time>2026-04-09T12:48:50.215Z</time></trkpt><trkpt lat="44.1181767" lon="12.0500067"><ele>83.0</ele><time>2026-04-09T12:48:52.215Z</time></trkpt><trkpt lat="44.118215" lon="12.04988"><ele>84.0</ele><time>2026-04-09T12:48:54.216Z</time></trkpt><trkpt lat="44.118245" lon="12.0497283"><ele>84.0</ele><time>2026-04-09T12:48:56.215Z</time></trkpt><trkpt lat="44.1182517" lon="12.0495733"><ele>84.0</ele><time>2026-04-09T12:48:58.215Z</time></trkpt><trkpt lat="44.1182567" lon="12.0494283"><ele>84.0</ele><time>2026-04-09T12:49:00.215Z</time></trkpt><trkpt lat="44.118265" lon="12.0492783"><ele>84.0</ele><time>2026-04-09T12:49:02.216Z</time></trkpt><trkpt lat="44.118275" lon="12.0491333"><ele>84.0</ele><time>2026-04-09T12:49:04.215Z</time></trkpt><trkpt lat="44.1182933" lon="12.04897"><ele>83.85714285714286</ele><time>2026-04-09T12:49:06.215Z</time></trkpt><trkpt lat="44.118305" lon="12.04888"><ele>83.71428571428572</ele><time>2026-04-09T12:49:07.215Z</time></trkpt><trkpt lat="44.1183167" lon="12.048785"><ele>83.57142857142857</ele><time>2026-04-09T12:49:08.215Z</time></trkpt><trkpt lat="44.118325" lon="12.0486867"><ele>83.42857142857143</ele><time>2026-04-09T12:49:09.215Z</time></trkpt><trkpt lat="44.118335" lon="12.04859"><ele>83.28571428571429</ele><time>2026-04-09T12:49:10.215Z</time></trkpt><trkpt lat="44.1183483" lon="12.0484967"><ele>83.14285714285714</ele><time>2026-04-09T12:49:11.215Z</time></trkpt><trkpt lat="44.11836" lon="12.0483933"><ele>83.0</ele><time>2026-04-09T12:49:12.215Z</time></trkpt><trkpt lat="44.1183733" lon="12.048285"><ele>83.0</ele><time>2026-04-09T12:49:13.215Z</time></trkpt><trkpt lat="44.1183867" lon="12.0481967"><ele>83.0</ele><time>2026-04-09T12:49:14.215Z</time></trkpt><trkpt lat="44.1184067" lon="12.0480333"><ele>83.0</ele><time>2026-04-09T12:49:16.215Z</time></trkpt><trkpt lat="44.118435" lon="12.04788"><ele>83.0</ele><time>2026-04-09T12:49:18.215Z</time></trkpt><trkpt lat="44.1184367" lon="12.0477417"><ele>83.0</ele><time>2026-04-09T12:49:20.215Z</time></trkpt><trkpt lat="44.1184717" lon="12.047595"><ele>84.0</ele><time>2026-04-09T12:49:22.215Z</time></trkpt><trkpt lat="44.1185233" lon="12.0474533"><ele>85.0</ele><time>2026-04-09T12:49:24.215Z</time></trkpt><trkpt lat="44.1185767" lon="12.0473217"><ele>86.0</ele><time>2026-04-09T12:49:26.215Z</time></trkpt><trkpt lat="44.1186267" lon="12.0471867"><ele>87.0</ele><time>2026-04-09T12:49:28.215Z</time></trkpt><trkpt lat="44.1186783" lon="12.0470733"><ele>88.0</ele><time>2026-04-09T12:49:30.215Z</time></trkpt><trkpt lat="44.1187283" lon="12.046965"><ele>88.0</ele><time>2026-04-09T12:49:32.215Z</time></trkpt><trkpt lat="44.118775" lon="12.046865"><ele>88.0</ele><time>2026-04-09T12:49:34.215Z</time></trkpt><trkpt lat="44.1188117" lon="12.0467517"><ele>88.0</ele><time>2026-04-09T12:49:36.215Z</time></trkpt><trkpt lat="44.1188317" lon="12.0466067"><ele>88.0</ele><time>2026-04-09T12:49:38.215Z</time></trkpt><trkpt lat="44.1188317" lon="12.0464683"><ele>88.0</ele><time>2026-04-09T12:49:40.215Z</time></trkpt><trkpt lat="44.118835" lon="12.0463333"><ele>89.0</ele><time>2026-04-09T12:49:42.215Z</time></trkpt><trkpt lat="44.11884" lon="12.0461833"><ele>90.0</ele><time>2026-04-09T12:49:44.215Z</time></trkpt><trkpt lat="44.1188383" lon="12.0460383"><ele>91.0</ele><time>2026-04-09T12:49:46.215Z</time></trkpt><trkpt lat="44.1188483" lon="12.045885"><ele>92.0</ele><time>2026-04-09T12:49:48.215Z</time></trkpt><trkpt lat="44.1188783" lon="12.0457467"><ele>93.0</ele><time>2026-04-09T12:49:50.215Z</time></trkpt><trkpt lat="44.1189283" lon="12.0456267"><ele>94.4</ele><time>2026-04-09T12:49:52.215Z</time></trkpt><trkpt lat="44.1189917" lon="12.0454983"><ele>95.80000000000001</ele><time>2026-04-09T12:49:54.215Z</time></trkpt><trkpt lat="44.1190517" lon="12.04538"><ele>97.2</ele><time>2026-04-09T12:49:56.215Z</time></trkpt><trkpt lat="44.1191133" lon="12.0452667"><ele>98.6</ele><time>2026-04-09T12:49:58.215Z</time></trkpt><trkpt lat="44.1191633" lon="12.0451683"><ele>100.0</ele><time>2026-04-09T12:50:00.215Z</time></trkpt><trkpt lat="44.11921" lon="12.0450667"><ele>98.2</ele><time>2026-04-09T12:50:02.215Z</time></trkpt><trkpt lat="44.1192567" lon="12.0449517"><ele>96.4</ele><time>2026-04-09T12:50:04.215Z</time></trkpt><trkpt lat="44.1192967" lon="12.04483"><ele>94.6</ele><time>2026-04-09T12:50:06.215Z</time></trkpt><trkpt lat="44.119335" lon="12.0446933"><ele>92.8</ele><time>2026-04-09T12:50:08.215Z</time></trkpt><trkpt lat="44.119375" lon="12.0445683"><ele>91.0</ele><time>2026-04-09T12:50:10.215Z</time></trkpt><trkpt lat="44.1194183" lon="12.0444467"><ele>91.0</ele><time>2026-04-09T12:50:12.215Z</time></trkpt><trkpt lat="44.119465" lon="12.044325"><ele>91.0</ele><time>2026-04-09T12:50:14.215Z</time></trkpt><trkpt lat="44.1195033" lon="12.0441983"><ele>91.0</ele><time>2026-04-09T12:50:16.215Z</time></trkpt><trkpt lat="44.11954" lon="12.0440467"><ele>91.0</ele><time>2026-04-09T12:50:18.215Z</time></trkpt><trkpt lat="44.1195767" lon="12.04391"><ele>91.0</ele><time>2026-04-09T12:50:20.215Z</time></trkpt><trkpt lat="44.1196217" lon="12.0437933"><ele>91.33333333333333</ele><time>2026-04-09T12:50:22.215Z</time></trkpt><trkpt lat="44.1196617" lon="12.0436783"><ele>91.66666666666666</ele><time>2026-04-09T12:50:24.215Z</time></trkpt><trkpt lat="44.1196917" lon="12.0435817"><ele>92.0</ele><time>2026-04-09T12:50:26.215Z</time></trkpt><trkpt lat="44.1197283" lon="12.0434783"><ele>92.33333333333333</ele><time>2026-04-09T12:50:28.215Z</time></trkpt><trkpt lat="44.1197633" lon="12.0433633"><ele>92.66666666666667</ele><time>2026-04-09T12:50:30.215Z</time></trkpt><trkpt lat="44.119795" lon="12.04325"><ele>93.0</ele><time>2026-04-09T12:50:32.215Z</time></trkpt><trkpt lat="44.1198367" lon="12.043145"><ele>93.5</ele><time>2026-04-09T12:50:34.215Z</time></trkpt><trkpt lat="44.1198817" lon="12.0430517"><ele>94.0</ele><time>2026-04-09T12:50:36.215Z</time></trkpt><trkpt lat="44.119915" lon="12.04296"><ele>94.5</ele><time>2026-04-09T12:50:38.215Z</time></trkpt><trkpt lat="44.1199533" lon="12.0428667"><ele>95.0</ele><time>2026-04-09T12:50:40.215Z</time></trkpt><trkpt lat="44.11999" lon="12.0427633"><ele>95.5</ele><time>2026-04-09T12:50:42.215Z</time></trkpt><trkpt lat="44.1200317" lon="12.042655"><ele>96.0</ele><time>2026-04-09T12:50:44.215Z</time></trkpt><trkpt lat="44.1200683" lon="12.042545"><ele>95.5</ele><time>2026-04-09T12:50:46.215Z</time></trkpt><trkpt lat="44.1200967" lon="12.0424467"><ele>95.0</ele><time>2026-04-09T12:50:48.215Z</time></trkpt><trkpt lat="44.1201217" lon="12.0423417"><ele>94.5</ele><time>2026-04-09T12:50:50.215Z</time></trkpt><trkpt lat="44.12014" lon="12.042225"><ele>94.0</ele><time>2026-04-09T12:50:52.215Z</time></trkpt><trkpt lat="44.1201567" lon="12.042115"><ele>93.5</ele><time>2026-04-09T12:50:54.215Z</time></trkpt><trkpt lat="44.1201633" lon="12.0420117"><ele>93.0</ele><time>2026-04-09T12:50:56.215Z</time></trkpt><trkpt lat="44.1201733" lon="12.0419067"><ele>93.0</ele><time>2026-04-09T12:50:58.215Z</time></trkpt><trkpt lat="44.1201717" lon="12.0418117"><ele>93.0</ele><time>2026-04-09T12:51:00.215Z</time></trkpt><trkpt lat="44.1201733" lon="12.041685"><ele>93.0</ele><time>2026-04-09T12:51:03.215Z</time></trkpt><trkpt lat="44.1201717" lon="12.0415767"><ele>93.0</ele><time>2026-04-09T12:51:05.215Z</time></trkpt><trkpt lat="44.1201683" lon="12.0414617"><ele>93.0</ele><time>2026-04-09T12:51:07.215Z</time></trkpt><trkpt lat="44.1201667" lon="12.0413567"><ele>93.0</ele><time>2026-04-09T12:51:09.215Z</time></trkpt><trkpt lat="44.1201667" lon="12.0412517"><ele>93.16666666666667</ele><time>2026-04-09T12:51:11.215Z</time></trkpt><trkpt lat="44.1201583" lon="12.0411317"><ele>93.33333333333333</ele><time>2026-04-09T12:51:13.215Z</time></trkpt><trkpt lat="44.1201467" lon="12.0410167"><ele>93.5</ele><time>2026-04-09T12:51:15.215Z</time></trkpt><trkpt lat="44.1201383" lon="12.040905"><ele>93.66666666666666</ele><time>2026-04-09T12:51:17.215Z</time></trkpt><trkpt lat="44.12014" lon="12.0407983"><ele>93.83333333333333</ele><time>2026-04-09T12:51:19.215Z</time></trkpt><trkpt lat="44.1201383" lon="12.0406983"><ele>94.0</ele><time>2026-04-09T12:51:21.215Z</time></trkpt><trkpt lat="44.1201267" lon="12.040585"><ele>94.0</ele><time>2026-04-09T12:51:23.215Z</time></trkpt><trkpt lat="44.1201133" lon="12.040475"><ele>94.0</ele><time>2026-04-09T12:51:25.215Z</time></trkpt><trkpt lat="44.1201" lon="12.04034"><ele>94.0</ele><time>2026-04-09T12:51:28.215Z</time></trkpt><trkpt lat="44.12011" lon="12.040225"><ele>94.0</ele><time>2026-04-09T12:51:30.215Z</time></trkpt><trkpt lat="44.1201167" lon="12.0401217"><ele>94.0</ele><time>2026-04-09T12:51:32.215Z</time></trkpt><trkpt lat="44.1201283" lon="12.0400083"><ele>94.0</ele><time>2026-04-09T12:51:34.215Z</time></trkpt><trkpt lat="44.1201517" lon="12.039865"><ele>95.0</ele><time>2026-04-09T12:51:36.215Z</time></trkpt><trkpt lat="44.1201933" lon="12.0397433"><ele>96.0</ele><time>2026-04-09T12:51:38.215Z</time></trkpt><trkpt lat="44.1202367" lon="12.039625"><ele>97.0</ele><time>2026-04-09T12:51:40.215Z</time></trkpt><trkpt lat="44.1202767" lon="12.0395167"><ele>98.0</ele><time>2026-04-09T12:51:42.215Z</time></trkpt><trkpt lat="44.120315" lon="12.0394117"><ele>99.00000000000001</ele><time>2026-04-09T12:51:44.215Z</time></trkpt><trkpt lat="44.1203533" lon="12.0393067"><ele>100.0</ele><time>2026-04-09T12:51:46.215Z</time></trkpt><trkpt lat="44.1204017" lon="12.039175"><ele>101.00000000000001</ele><time>2026-04-09T12:51:48.215Z</time></trkpt><trkpt lat="44.1204333" lon="12.0390683"><ele>102.0</ele><time>2026-04-09T12:51:50.215Z</time></trkpt><trkpt lat="44.1204583" lon="12.03898"><ele>103.0</ele><time>2026-04-09T12:51:52.215Z</time></trkpt><trkpt lat="44.1204933" lon="12.0389"><ele>104.0</ele><time>2026-04-09T12:51:54.215Z</time></trkpt><trkpt lat="44.1205333" lon="12.0388183"><ele>105.0</ele><time>2026-04-09T12:51:56.215Z</time></trkpt><trkpt lat="44.12057" lon="12.0387267"><ele>106.00000000000001</ele><time>2026-04-09T12:51:58.215Z</time></trkpt><trkpt lat="44.12061" lon="12.0386267"><ele>107.0</ele><time>2026-04-09T12:52:00.215Z</time></trkpt><trkpt lat="44.1206467" lon="12.0385367"><ele>107.00000000000001</ele><time>2026-04-09T12:52:02.215Z</time></trkpt><trkpt lat="44.1206783" lon="12.0384433"><ele>107.0</ele><time>2026-04-09T12:52:04.215Z</time></trkpt><trkpt lat="44.1207083" lon="12.038355"><ele>107.0</ele><time>2026-04-09T12:52:06.215Z</time></trkpt><trkpt lat="44.12074" lon="12.03827"><ele>107.0</ele><time>2026-04-09T12:52:08.215Z</time></trkpt><trkpt lat="44.1207683" lon="12.038175"><ele>107.0</ele><time>2026-04-09T12:52:10.215Z</time></trkpt><trkpt lat="44.1208083" lon="12.03808"><ele>107.00000000000001</ele><time>2026-04-09T12:52:12.215Z</time></trkpt><trkpt lat="44.1208567" lon="12.0379867"><ele>107.0</ele><time>2026-04-09T12:52:14.215Z</time></trkpt><trkpt lat="44.1208933" lon="12.0378933"><ele>106.42857142857143</ele><time>2026-04-09T12:52:16.215Z</time></trkpt><trkpt lat="44.120935" lon="12.0378167"><ele>105.85714285714286</ele><time>2026-04-09T12:52:18.215Z</time></trkpt><trkpt lat="44.12098" lon="12.037735"><ele>105.28571428571428</ele><time>2026-04-09T12:52:20.215Z</time></trkpt><trkpt lat="44.1210333" lon="12.0376633"><ele>104.71428571428572</ele><time>2026-04-09T12:52:22.215Z</time></trkpt><trkpt lat="44.121085" lon="12.0375883"><ele>104.14285714285714</ele><time>2026-04-09T12:52:24.215Z</time></trkpt><trkpt lat="44.1211383" lon="12.03751"><ele>103.57142857142857</ele><time>2026-04-09T12:52:26.215Z</time></trkpt><trkpt lat="44.121185" lon="12.0374283"><ele>103.0</ele><time>2026-04-09T12:52:28.215Z</time></trkpt><trkpt lat="44.1212133" lon="12.0373483"><ele>104.57142857142856</ele><time>2026-04-09T12:52:31.215Z</time></trkpt><trkpt lat="44.1212517" lon="12.03727"><ele>106.14285714285714</ele><time>2026-04-09T12:52:35.215Z</time></trkpt><trkpt lat="44.1212983" lon="12.0371917"><ele>107.71428571428571</ele><time>2026-04-09T12:52:39.215Z</time></trkpt><trkpt lat="44.12134" lon="12.0371183"><ele>109.28571428571428</ele><time>2026-04-09T12:52:43.215Z</time></trkpt><trkpt lat="44.1213717" lon="12.0370233"><ele>110.85714285714285</ele><time>2026-04-09T12:52:48.215Z</time></trkpt><trkpt lat="44.1214" lon="12.0369233"><ele>112.42857142857142</ele><time>2026-04-09T12:52:53.215Z</time></trkpt><trkpt lat="44.1214217" lon="12.0368317"><ele>114.0</ele><time>2026-04-09T12:52:56.215Z</time></trkpt><trkpt lat="44.1214467" lon="12.0367467"><ele>114.0</ele><time>2026-04-09T12:53:00.215Z</time></trkpt><trkpt lat="44.1214867" lon="12.036665"><ele>113.99999999999999</ele><time>2026-04-09T12:53:03.215Z</time></trkpt><trkpt lat="44.1215383" lon="12.036595"><ele>114.0</ele><time>2026-04-09T12:53:06.215Z</time></trkpt><trkpt lat="44.12161" lon="12.0365483"><ele>114.0</ele><time>2026-04-09T12:53:11.215Z</time></trkpt><trkpt lat="44.1216833" lon="12.03654"><ele>113.99999999999999</ele><time>2026-04-09T12:53:15.215Z</time></trkpt><trkpt lat="44.1217483" lon="12.0365283"><ele>114.0</ele><time>2026-04-09T12:53:19.215Z</time></trkpt><trkpt lat="44.121825" lon="12.036495"><ele>114.0</ele><time>2026-04-09T12:53:23.215Z</time></trkpt><trkpt lat="44.121895" lon="12.0364517"><ele>114.0</ele><time>2026-04-09T12:53:28.215Z</time></trkpt><trkpt lat="44.1219517" lon="12.0363833"><ele>114.0</ele><time>2026-04-09T12:53:32.215Z</time></trkpt><trkpt lat="44.1219917" lon="12.036315"><ele>114.0</ele><time>2026-04-09T12:53:35.215Z</time></trkpt><trkpt lat="44.1220483" lon="12.03622"><ele>114.0</ele><time>2026-04-09T12:53:39.215Z</time></trkpt><trkpt lat="44.1218733" lon="12.0360433"><ele>114.0</ele><time>2026-04-09T12:53:44.724Z</time></trkpt><trkpt lat="44.1220733" lon="12.0359833"><ele>114.0</ele><time>2026-04-09T12:53:45.712Z</time></trkpt><trkpt lat="44.12219" lon="12.03597"><ele>114.0</ele><time>2026-04-09T12:53:46.712Z</time></trkpt><trkpt lat="44.122255" lon="12.03595"><ele>114.0</ele><time>2026-04-09T12:53:50.212Z</time></trkpt><trkpt lat="44.122295" lon="12.03586"><ele>114.0</ele><time>2026-04-09T12:53:53.212Z</time></trkpt><trkpt lat="44.1223333" lon="12.0357767"><ele>114.0</ele><time>2026-04-09T12:53:57.212Z</time></trkpt><trkpt lat="44.12237" lon="12.035695"><ele>114.0</ele><time>2026-04-09T12:54:00.212Z</time></trkpt><trkpt lat="44.1224083" lon="12.0356183"><ele>115.0</ele><time>2026-04-09T12:54:03.212Z</time></trkpt><trkpt lat="44.122445" lon="12.0355333"><ele>115.99999999999999</ele><time>2026-04-09T12:54:07.212Z</time></trkpt><trkpt lat="44.1224717" lon="12.035425"><ele>117.0</ele><time>2026-04-09T12:54:11.212Z</time></trkpt><trkpt lat="44.1224867" lon="12.0353383"><ele>118.0</ele><time>2026-04-09T12:54:14.212Z</time></trkpt><trkpt lat="44.12249" lon="12.035245"><ele>118.99999999999999</ele><time>2026-04-09T12:54:17.212Z</time></trkpt><trkpt lat="44.1224733" lon="12.0351417"><ele>120.0</ele><time>2026-04-09T12:54:21.212Z</time></trkpt><trkpt lat="44.12244" lon="12.0350417"><ele>121.0</ele><time>2026-04-09T12:54:25.212Z</time></trkpt><trkpt lat="44.1224267" lon="12.03495"><ele>121.57142857142857</ele><time>2026-04-09T12:54:28.212Z</time></trkpt><trkpt lat="44.122405" lon="12.0348583"><ele>122.14285714285714</ele><time>2026-04-09T12:54:31.212Z</time></trkpt><trkpt lat="44.122375" lon="12.0347567"><ele>122.71428571428571</ele><time>2026-04-09T12:54:35.212Z</time></trkpt><trkpt lat="44.122345" lon="12.0346533"><ele>123.28571428571428</ele><time>2026-04-09T12:54:39.212Z</time></trkpt><trkpt lat="44.122325" lon="12.034565"><ele>123.85714285714286</ele><time>2026-04-09T12:54:42.212Z</time></trkpt><trkpt lat="44.1222917" lon="12.03449"><ele>124.42857142857142</ele><time>2026-04-09T12:54:45.211Z</time></trkpt><trkpt lat="44.1222533" lon="12.0344"><ele>125.0</ele><time>2026-04-09T12:54:49.211Z</time></trkpt><trkpt lat="44.1222317" lon="12.034295"><ele>125.57142857142857</ele><time>2026-04-09T12:54:52.211Z</time></trkpt><trkpt lat="44.1222017" lon="12.034215"><ele>126.14285714285714</ele><time>2026-04-09T12:54:55.211Z</time></trkpt><trkpt lat="44.1221633" lon="12.03413"><ele>126.71428571428571</ele><time>2026-04-09T12:54:59.211Z</time></trkpt><trkpt lat="44.1221017" lon="12.0340667"><ele>127.28571428571428</ele><time>2026-04-09T12:55:03.212Z</time></trkpt><trkpt lat="44.122045" lon="12.0340283"><ele>127.85714285714286</ele><time>2026-04-09T12:55:06.211Z</time></trkpt><trkpt lat="44.1219733" lon="12.0339933"><ele>128.42857142857142</ele><time>2026-04-09T12:55:10.211Z</time></trkpt><trkpt lat="44.1219033" lon="12.0339967"><ele>129.0</ele><time>2026-04-09T12:55:14.211Z</time></trkpt><trkpt lat="44.1218367" lon="12.0340183"><ele>128.99999999999997</ele><time>2026-04-09T12:55:18.211Z</time></trkpt><trkpt lat="44.121775" lon="12.0340467"><ele>129.0</ele><time>2026-04-09T12:55:22.211Z</time></trkpt><trkpt lat="44.1217167" lon="12.0340917"><ele>129.0</ele><time>2026-04-09T12:55:27.211Z</time></trkpt><trkpt lat="44.12164" lon="12.0341217"><ele>129.0</ele><time>2026-04-09T12:55:31.211Z</time></trkpt><trkpt lat="44.1215767" lon="12.0341417"><ele>129.0</ele><time>2026-04-09T12:55:34.211Z</time></trkpt><trkpt lat="44.1215067" lon="12.0341483"><ele>128.99999999999997</ele><time>2026-04-09T12:55:37.211Z</time></trkpt><trkpt lat="44.12145" lon="12.0340967"><ele>129.0</ele><time>2026-04-09T12:55:41.211Z</time></trkpt><trkpt lat="44.1214017" lon="12.0340233"><ele>130.14285714285714</ele><time>2026-04-09T12:55:44.211Z</time></trkpt><trkpt lat="44.1214167" lon="12.0339183"><ele>131.28571428571428</ele><time>2026-04-09T12:55:48.211Z</time></trkpt><trkpt lat="44.12145" lon="12.03384"><ele>132.42857142857144</ele><time>2026-04-09T12:55:51.211Z</time></trkpt><trkpt lat="44.12149" lon="12.0337617"><ele>133.57142857142856</ele><time>2026-04-09T12:55:54.211Z</time></trkpt><trkpt lat="44.1215283" lon="12.0336733"><ele>134.71428571428572</ele><time>2026-04-09T12:55:57.211Z</time></trkpt><trkpt lat="44.1215733" lon="12.0335983"><ele>135.85714285714286</ele><time>2026-04-09T12:56:00.211Z</time></trkpt><trkpt lat="44.1216267" lon="12.0335283"><ele>137.0</ele><time>2026-04-09T12:56:03.211Z</time></trkpt><trkpt lat="44.121685" lon="12.0334583"><ele>137.00000000000003</ele><time>2026-04-09T12:56:06.211Z</time></trkpt><trkpt lat="44.121755" lon="12.03339"><ele>137.0</ele><time>2026-04-09T12:56:10.211Z</time></trkpt><trkpt lat="44.12179" lon="12.0333117"><ele>137.0</ele><time>2026-04-09T12:56:14.211Z</time></trkpt><trkpt lat="44.1218167" lon="12.0332133"><ele>137.0</ele><time>2026-04-09T12:56:18.211Z</time></trkpt><trkpt lat="44.1218283" lon="12.0331183"><ele>137.0</ele><time>2026-04-09T12:56:22.211Z</time></trkpt><trkpt lat="44.12181" lon="12.03301"><ele>137.00000000000003</ele><time>2026-04-09T12:56:26.211Z</time></trkpt><trkpt lat="44.1217733" lon="12.0329267"><ele>137.0</ele><time>2026-04-09T12:56:30.211Z</time></trkpt><trkpt lat="44.1217267" lon="12.032825"><ele>138.00000000000003</ele><time>2026-04-09T12:56:34.211Z</time></trkpt><trkpt lat="44.12168" lon="12.0327317"><ele>139.0</ele><time>2026-04-09T12:56:37.211Z</time></trkpt><trkpt lat="44.1216233" lon="12.0326717"><ele>140.0</ele><time>2026-04-09T12:56:40.211Z</time></trkpt><trkpt lat="44.12157" lon="12.0326183"><ele>141.0</ele><time>2026-04-09T12:56:43.211Z</time></trkpt><trkpt lat="44.121515" lon="12.0325667"><ele>142.0</ele><time>2026-04-09T12:56:46.211Z</time></trkpt><trkpt lat="44.121455" lon="12.0325033"><ele>143.00000000000003</ele><time>2026-04-09T12:56:49.211Z</time></trkpt><trkpt lat="44.1214083" lon="12.0324417"><ele>144.0</ele><time>2026-04-09T12:56:52.211Z</time></trkpt><trkpt lat="44.1213583" lon="12.0323783"><ele>145.2857142857143</ele><time>2026-04-09T12:56:55.211Z</time></trkpt><trkpt lat="44.1213033" lon="12.032315"><ele>146.57142857142858</ele><time>2026-04-09T12:56:58.211Z</time></trkpt><trkpt lat="44.1212467" lon="12.0322567"><ele>147.85714285714286</ele><time>2026-04-09T12:57:01.211Z</time></trkpt><trkpt lat="44.1211917" lon="12.0322083"><ele>149.14285714285717</ele><time>2026-04-09T12:57:04.211Z</time></trkpt><trkpt lat="44.1211317" lon="12.0321817"><ele>150.42857142857144</ele><time>2026-04-09T12:57:07.211Z</time></trkpt><trkpt lat="44.1210533" lon="12.0321767"><ele>151.71428571428572</ele><time>2026-04-09T12:57:11.211Z</time></trkpt><trkpt lat="44.1209733" lon="12.0321833"><ele>153.0</ele><time>2026-04-09T12:57:15.211Z</time></trkpt><trkpt lat="44.1208967" lon="12.0322117"><ele>153.0</ele><time>2026-04-09T12:57:19.211Z</time></trkpt><trkpt lat="44.1208283" lon="12.03225"><ele>153.0</ele><time>2026-04-09T12:57:23.211Z</time></trkpt><trkpt lat="44.1207483" lon="12.0322667"><ele>153.0</ele><time>2026-04-09T12:57:27.211Z</time></trkpt><trkpt lat="44.12068" lon="12.0322317"><ele>153.0</ele><time>2026-04-09T12:57:31.211Z</time></trkpt><trkpt lat="44.1206417" lon="12.03214"><ele>153.0</ele><time>2026-04-09T12:57:35.211Z</time></trkpt><trkpt lat="44.12062" lon="12.0320367"><ele>153.0</ele><time>2026-04-09T12:57:39.211Z</time></trkpt><trkpt lat="44.1206333" lon="12.031935"><ele>154.28571428571428</ele><time>2026-04-09T12:57:42.211Z</time></trkpt><trkpt lat="44.1206517" lon="12.0318383"><ele>155.57142857142858</ele><time>2026-04-09T12:57:46.211Z</time></trkpt><trkpt lat="44.120675" lon="12.0317483"><ele>156.85714285714286</ele><time>2026-04-09T12:57:50.211Z</time></trkpt><trkpt lat="44.1206967" lon="12.03166"><ele>158.14285714285714</ele><time>2026-04-09T12:57:54.211Z</time></trkpt><trkpt lat="44.1207183" lon="12.0315667"><ele>159.42857142857142</ele><time>2026-04-09T12:57:58.211Z</time></trkpt><trkpt lat="44.1207433" lon="12.0314767"><ele>160.71428571428572</ele><time>2026-04-09T12:58:02.211Z</time></trkpt><trkpt lat="44.1207617" lon="12.0313817"><ele>162.0</ele><time>2026-04-09T12:58:06.211Z</time></trkpt><trkpt lat="44.1207767" lon="12.0312833"><ele>162.0</ele><time>2026-04-09T12:58:10.211Z</time></trkpt><trkpt lat="44.1207933" lon="12.0311883"><ele>162.0</ele><time>2026-04-09T12:58:14.211Z</time></trkpt><trkpt lat="44.1208133" lon="12.03108"><ele>162.0</ele><time>2026-04-09T12:58:18.211Z</time></trkpt><trkpt lat="44.1208317" lon="12.0309783"><ele>162.0</ele><time>2026-04-09T12:58:22.211Z</time></trkpt><trkpt lat="44.1208483" lon="12.0308767"><ele>162.0</ele><time>2026-04-09T12:58:26.211Z</time></trkpt><trkpt lat="44.120855" lon="12.0307817"><ele>162.0</ele><time>2026-04-09T12:58:30.211Z</time></trkpt><trkpt lat="44.1208583" lon="12.0306867"><ele>162.0</ele><time>2026-04-09T12:58:34.211Z</time></trkpt><trkpt lat="44.1208683" lon="12.0305967"><ele>163.16666666666666</ele><time>2026-04-09T12:58:38.211Z</time></trkpt><trkpt lat="44.1208717" lon="12.03049"><ele>164.33333333333334</ele><time>2026-04-09T12:58:42.211Z</time></trkpt><trkpt lat="44.1208683" lon="12.0303867"><ele>165.5</ele><time>2026-04-09T12:58:46.211Z</time></trkpt><trkpt lat="44.1208683" lon="12.030275"><ele>166.66666666666669</ele><time>2026-04-09T12:58:50.211Z</time></trkpt><trkpt lat="44.1208617" lon="12.0301667"><ele>167.83333333333334</ele><time>2026-04-09T12:58:54.211Z</time></trkpt><trkpt lat="44.120865" lon="12.03006"><ele>169.0</ele><time>2026-04-09T12:58:58.211Z</time></trkpt><trkpt lat="44.1208633" lon="12.02996"><ele>170.0</ele><time>2026-04-09T12:59:02.211Z</time></trkpt><trkpt lat="44.1208567" lon="12.029855"><ele>171.0</ele><time>2026-04-09T12:59:06.211Z</time></trkpt><trkpt lat="44.120855" lon="12.029765"><ele>172.0</ele><time>2026-04-09T12:59:09.211Z</time></trkpt><trkpt lat="44.1208517" lon="12.0296733"><ele>173.0</ele><time>2026-04-09T12:59:12.211Z</time></trkpt><trkpt lat="44.1208383" lon="12.029585"><ele>174.0</ele><time>2026-04-09T12:59:15.211Z</time></trkpt><trkpt lat="44.1208233" lon="12.0294667"><ele>175.0</ele><time>2026-04-09T12:59:19.211Z</time></trkpt><trkpt lat="44.120805" lon="12.02938"><ele>176.0</ele><time>2026-04-09T12:59:22.211Z</time></trkpt><trkpt lat="44.1207833" lon="12.0292733"><ele>176.0</ele><time>2026-04-09T12:59:25.211Z</time></trkpt><trkpt lat="44.1207567" lon="12.0291667"><ele>176.0</ele><time>2026-04-09T12:59:28.211Z</time></trkpt><trkpt lat="44.1207283" lon="12.029075"><ele>176.0</ele><time>2026-04-09T12:59:31.211Z</time></trkpt><trkpt lat="44.1206983" lon="12.0289917"><ele>176.0</ele><time>2026-04-09T12:59:34.211Z</time></trkpt><trkpt lat="44.1206733" lon="12.0288933"><ele>176.0</ele><time>2026-04-09T12:59:37.211Z</time></trkpt><trkpt lat="44.1206383" lon="12.0288183"><ele>176.0</ele><time>2026-04-09T12:59:40.211Z</time></trkpt><trkpt lat="44.1205717" lon="12.0287467"><ele>176.0</ele><time>2026-04-09T12:59:44.211Z</time></trkpt><trkpt lat="44.120495" lon="12.028715"><ele>177.0</ele><time>2026-04-09T12:59:47.211Z</time></trkpt><trkpt lat="44.1204233" lon="12.0287033"><ele>178.0</ele><time>2026-04-09T12:59:50.211Z</time></trkpt><trkpt lat="44.120345" lon="12.0287317"><ele>179.0</ele><time>2026-04-09T12:59:53.211Z</time></trkpt><trkpt lat="44.1202733" lon="12.0287767"><ele>180.0</ele><time>2026-04-09T12:59:57.211Z</time></trkpt><trkpt lat="44.1202067" lon="12.0288333"><ele>181.0</ele><time>2026-04-09T13:00:00.211Z</time></trkpt><trkpt lat="44.1201417" lon="12.028885"><ele>182.0</ele><time>2026-04-09T13:00:03.211Z</time></trkpt><trkpt lat="44.12008" lon="12.0289183"><ele>182.0</ele><time>2026-04-09T13:00:06.211Z</time></trkpt><trkpt lat="44.1200117" lon="12.028955"><ele>182.0</ele><time>2026-04-09T13:00:09.211Z</time></trkpt><trkpt lat="44.1199533" lon="12.029"><ele>182.0</ele><time>2026-04-09T13:00:12.211Z</time></trkpt><trkpt lat="44.1198817" lon="12.0290467"><ele>182.0</ele><time>2026-04-09T13:00:15.211Z</time></trkpt><trkpt lat="44.1198117" lon="12.0290833"><ele>182.0</ele><time>2026-04-09T13:00:18.211Z</time></trkpt><trkpt lat="44.1197467" lon="12.0291333"><ele>182.0</ele><time>2026-04-09T13:00:21.211Z</time></trkpt><trkpt lat="44.11969" lon="12.0291783"><ele>182.0</ele><time>2026-04-09T13:00:24.211Z</time></trkpt><trkpt lat="44.1196267" lon="12.02922"><ele>182.5</ele><time>2026-04-09T13:00:27.211Z</time></trkpt><trkpt lat="44.11956" lon="12.029255"><ele>183.0</ele><time>2026-04-09T13:00:30.211Z</time></trkpt><trkpt lat="44.119485" lon="12.02928"><ele>183.5</ele><time>2026-04-09T13:00:33.211Z</time></trkpt><trkpt lat="44.1194017" lon="12.029275"><ele>184.0</ele><time>2026-04-09T13:00:36.211Z</time></trkpt><trkpt lat="44.1193367" lon="12.0292317"><ele>184.5</ele><time>2026-04-09T13:00:39.211Z</time></trkpt><trkpt lat="44.1192867" lon="12.02916"><ele>185.0</ele><time>2026-04-09T13:00:43.211Z</time></trkpt><trkpt lat="44.1192583" lon="12.0290633"><ele>185.28571428571428</ele><time>2026-04-09T13:00:47.211Z</time></trkpt><trkpt lat="44.1192333" lon="12.0289583"><ele>185.57142857142856</ele><time>2026-04-09T13:00:51.211Z</time></trkpt><trkpt lat="44.1192167" lon="12.0288683"><ele>185.85714285714283</ele><time>2026-04-09T13:00:54.211Z</time></trkpt><trkpt lat="44.1191917" lon="12.0287583"><ele>186.14285714285714</ele><time>2026-04-09T13:00:58.211Z</time></trkpt><trkpt lat="44.11918" lon="12.0286667"><ele>186.42857142857144</ele><time>2026-04-09T13:01:01.211Z</time></trkpt><trkpt lat="44.119155" lon="12.02856"><ele>186.7142857142857</ele><time>2026-04-09T13:01:05.211Z</time></trkpt><trkpt lat="44.119135" lon="12.0284683"><ele>187.0</ele><time>2026-04-09T13:01:08.211Z</time></trkpt><trkpt lat="44.11911" lon="12.0283617"><ele>187.42857142857142</ele><time>2026-04-09T13:01:11.211Z</time></trkpt><trkpt lat="44.11908" lon="12.028275"><ele>187.85714285714286</ele><time>2026-04-09T13:01:14.211Z</time></trkpt><trkpt lat="44.11905" lon="12.0281817"><ele>188.28571428571428</ele><time>2026-04-09T13:01:17.211Z</time></trkpt><trkpt lat="44.1190167" lon="12.02809"><ele>188.71428571428572</ele><time>2026-04-09T13:01:20.211Z</time></trkpt><trkpt lat="44.11899" lon="12.0280017"><ele>189.14285714285717</ele><time>2026-04-09T13:01:23.212Z</time></trkpt><trkpt lat="44.1189583" lon="12.02792"><ele>189.57142857142858</ele><time>2026-04-09T13:01:26.211Z</time></trkpt><trkpt lat="44.11893" lon="12.02782"><ele>190.0</ele><time>2026-04-09T13:01:29.211Z</time></trkpt><trkpt lat="44.1188933" lon="12.027745"><ele>191.28571428571428</ele><time>2026-04-09T13:01:32.211Z</time></trkpt><trkpt lat="44.118855" lon="12.027675"><ele>192.57142857142858</ele><time>2026-04-09T13:01:35.211Z</time></trkpt><trkpt lat="44.1188183" lon="12.0275983"><ele>193.85714285714283</ele><time>2026-04-09T13:01:38.211Z</time></trkpt><trkpt lat="44.1187883" lon="12.027515"><ele>195.14285714285714</ele><time>2026-04-09T13:01:41.211Z</time></trkpt><trkpt lat="44.1187583" lon="12.0274333"><ele>196.42857142857142</ele><time>2026-04-09T13:01:44.211Z</time></trkpt><trkpt lat="44.1187217" lon="12.027355"><ele>197.7142857142857</ele><time>2026-04-09T13:01:47.211Z</time></trkpt><trkpt lat="44.1186883" lon="12.0272633"><ele>199.0</ele><time>2026-04-09T13:01:50.211Z</time></trkpt><trkpt lat="44.11866" lon="12.027175"><ele>198.99999999999997</ele><time>2026-04-09T13:01:53.211Z</time></trkpt><trkpt lat="44.11862" lon="12.0270767"><ele>199.0</ele><time>2026-04-09T13:01:57.211Z</time></trkpt><trkpt lat="44.11858" lon="12.0269867"><ele>199.0</ele><time>2026-04-09T13:02:01.211Z</time></trkpt><trkpt lat="44.1185367" lon="12.026895"><ele>199.0</ele><time>2026-04-09T13:02:05.211Z</time></trkpt><trkpt lat="44.1184933" lon="12.0267983"><ele>198.99999999999997</ele><time>2026-04-09T13:02:09.211Z</time></trkpt><trkpt lat="44.1184633" lon="12.0267017"><ele>199.0</ele><time>2026-04-09T13:02:13.211Z</time></trkpt><trkpt lat="44.1184217" lon="12.0266067"><ele>199.7142857142857</ele><time>2026-04-09T13:02:17.211Z</time></trkpt><trkpt lat="44.1183833" lon="12.02651"><ele>200.42857142857142</ele><time>2026-04-09T13:02:21.211Z</time></trkpt><trkpt lat="44.1183383" lon="12.0264233"><ele>201.14285714285714</ele><time>2026-04-09T13:02:25.211Z</time></trkpt><trkpt lat="44.1182983" lon="12.02633"><ele>201.85714285714283</ele><time>2026-04-09T13:02:29.211Z</time></trkpt><trkpt lat="44.1182767" lon="12.0262467"><ele>202.57142857142858</ele><time>2026-04-09T13:02:32.211Z</time></trkpt><trkpt lat="44.1182483" lon="12.0261633"><ele>203.28571428571428</ele><time>2026-04-09T13:02:35.211Z</time></trkpt><trkpt lat="44.118215" lon="12.0260683"><ele>204.0</ele><time>2026-04-09T13:02:39.211Z</time></trkpt><trkpt lat="44.1181683" lon="12.025975"><ele>205.57142857142858</ele><time>2026-04-09T13:02:43.211Z</time></trkpt><trkpt lat="44.1181333" lon="12.0259017"><ele>207.14285714285717</ele><time>2026-04-09T13:02:46.211Z</time></trkpt><trkpt lat="44.1181" lon="12.025825"><ele>208.71428571428572</ele><time>2026-04-09T13:02:49.211Z</time></trkpt><trkpt lat="44.1180717" lon="12.0257283"><ele>210.28571428571428</ele><time>2026-04-09T13:02:53.211Z</time></trkpt><trkpt lat="44.11805" lon="12.0256383"><ele>211.85714285714286</ele><time>2026-04-09T13:02:57.211Z</time></trkpt><trkpt lat="44.1180133" lon="12.025545"><ele>213.42857142857142</ele><time>2026-04-09T13:03:01.211Z</time></trkpt><trkpt lat="44.11798" lon="12.02545"><ele>215.0</ele><time>2026-04-09T13:03:05.211Z</time></trkpt><trkpt lat="44.117935" lon="12.02536"><ele>215.0</ele><time>2026-04-09T13:03:09.211Z</time></trkpt><trkpt lat="44.1178817" lon="12.0252767"><ele>215.0</ele><time>2026-04-09T13:03:13.211Z</time></trkpt><trkpt lat="44.1178217" lon="12.0252467"><ele>215.0</ele><time>2026-04-09T13:03:16.211Z</time></trkpt><trkpt lat="44.1177583" lon="12.0252183"><ele>215.0</ele><time>2026-04-09T13:03:20.211Z</time></trkpt><trkpt lat="44.117695" lon="12.02524"><ele>215.0</ele><time>2026-04-09T13:03:26.211Z</time></trkpt><trkpt lat="44.1176467" lon="12.0253"><ele>215.0</ele><time>2026-04-09T13:03:30.211Z</time></trkpt><trkpt lat="44.1175967" lon="12.0253883"><ele>215.0</ele><time>2026-04-09T13:03:34.211Z</time></trkpt><trkpt lat="44.1175733" lon="12.0254817"><ele>215.0</ele><time>2026-04-09T13:03:38.211Z</time></trkpt><trkpt lat="44.1175583" lon="12.02557"><ele>215.0</ele><time>2026-04-09T13:03:42.211Z</time></trkpt><trkpt lat="44.1175483" lon="12.025675"><ele>215.0</ele><time>2026-04-09T13:03:46.211Z</time></trkpt><trkpt lat="44.1175317" lon="12.02578"><ele>215.0</ele><time>2026-04-09T13:03:50.211Z</time></trkpt><trkpt lat="44.1175083" lon="12.0258667"><ele>215.0</ele><time>2026-04-09T13:03:53.211Z</time></trkpt><trkpt lat="44.1174833" lon="12.0259667"><ele>215.0</ele><time>2026-04-09T13:03:57.211Z</time></trkpt><trkpt lat="44.1174833" lon="12.0260617"><ele>215.0</ele><time>2026-04-09T13:04:01.211Z</time></trkpt><trkpt lat="44.117475" lon="12.0261683"><ele>215.33333333333334</ele><time>2026-04-09T13:04:06.211Z</time></trkpt><trkpt lat="44.1174733" lon="12.0262717"><ele>215.66666666666669</ele><time>2026-04-09T13:04:11.211Z</time></trkpt><trkpt lat="44.1174633" lon="12.0263717"><ele>216.0</ele><time>2026-04-09T13:04:16.211Z</time></trkpt><trkpt lat="44.1174567" lon="12.026475"><ele>216.33333333333331</ele><time>2026-04-09T13:04:22.211Z</time></trkpt><trkpt lat="44.1174483" lon="12.026585"><ele>216.66666666666666</ele><time>2026-04-09T13:04:26.211Z</time></trkpt><trkpt lat="44.1174433" lon="12.0267017"><ele>217.0</ele><time>2026-04-09T13:04:29.211Z</time></trkpt><trkpt lat="44.1174317" lon="12.0268033"><ele>217.0</ele><time>2026-04-09T13:04:32.211Z</time></trkpt><trkpt lat="44.1174167" lon="12.026895"><ele>217.0</ele><time>2026-04-09T13:04:35.211Z</time></trkpt><trkpt lat="44.1173917" lon="12.0269783"><ele>217.0</ele><time>2026-04-09T13:04:38.211Z</time></trkpt><trkpt lat="44.1173667" lon="12.027085"><ele>217.0</ele><time>2026-04-09T13:04:42.211Z</time></trkpt><trkpt lat="44.1173517" lon="12.0271867"><ele>217.0</ele><time>2026-04-09T13:04:45.211Z</time></trkpt><trkpt lat="44.1173467" lon="12.0272867"><ele>217.0</ele><time>2026-04-09T13:04:48.211Z</time></trkpt><trkpt lat="44.117345" lon="12.0273983"><ele>217.0</ele><time>2026-04-09T13:04:51.211Z</time></trkpt><trkpt lat="44.117335" lon="12.0275017"><ele>220.14285714285714</ele><time>2026-04-09T13:04:55.211Z</time></trkpt><trkpt lat="44.1173217" lon="12.027615"><ele>223.28571428571428</ele><time>2026-04-09T13:04:59.211Z</time></trkpt><trkpt lat="44.1173067" lon="12.027725"><ele>226.42857142857144</ele><time>2026-04-09T13:05:03.211Z</time></trkpt><trkpt lat="44.1173017" lon="12.0278267"><ele>229.57142857142858</ele><time>2026-04-09T13:05:07.211Z</time></trkpt><trkpt lat="44.1172983" lon="12.027935"><ele>232.71428571428572</ele><time>2026-04-09T13:05:11.211Z</time></trkpt><trkpt lat="44.1172817" lon="12.0280267"><ele>235.8571428571429</ele><time>2026-04-09T13:05:14.211Z</time></trkpt><trkpt lat="44.1172233" lon="12.0280717"><ele>239.00000000000003</ele><time>2026-04-09T13:05:19.211Z</time></trkpt><trkpt lat="44.117175" lon="12.027995"><ele>239.00000000000003</ele><time>2026-04-09T13:05:24.211Z</time></trkpt><trkpt lat="44.11713" lon="12.0279333"><ele>239.0</ele><time>2026-04-09T13:05:28.211Z</time></trkpt><trkpt lat="44.1170917" lon="12.02785"><ele>239.00000000000003</ele><time>2026-04-09T13:05:32.211Z</time></trkpt><trkpt lat="44.1170617" lon="12.0277467"><ele>239.00000000000003</ele><time>2026-04-09T13:05:36.211Z</time></trkpt><trkpt lat="44.11704" lon="12.0276483"><ele>239.0</ele><time>2026-04-09T13:05:40.211Z</time></trkpt><trkpt lat="44.1170183" lon="12.0275417"><ele>239.00000000000003</ele><time>2026-04-09T13:05:44.211Z</time></trkpt><trkpt lat="44.1169783" lon="12.0274567"><ele>239.00000000000003</ele><time>2026-04-09T13:05:47.211Z</time></trkpt><trkpt lat="44.1169483" lon="12.02736"><ele>239.00000000000003</ele><time>2026-04-09T13:05:50.211Z</time></trkpt><trkpt lat="44.1169283" lon="12.0272633"><ele>239.0</ele><time>2026-04-09T13:05:53.211Z</time></trkpt><trkpt lat="44.1169067" lon="12.0271667"><ele>239.00000000000003</ele><time>2026-04-09T13:05:56.211Z</time></trkpt><trkpt lat="44.1168833" lon="12.0270767"><ele>239.00000000000003</ele><time>2026-04-09T13:05:59.211Z</time></trkpt><trkpt lat="44.1168567" lon="12.0269933"><ele>239.0</ele><time>2026-04-09T13:06:02.211Z</time></trkpt><trkpt lat="44.1168217" lon="12.02691"><ele>239.00000000000003</ele><time>2026-04-09T13:06:05.211Z</time></trkpt><trkpt lat="44.1167917" lon="12.0268233"><ele>239.00000000000003</ele><time>2026-04-09T13:06:08.211Z</time></trkpt><trkpt lat="44.116765" lon="12.0267317"><ele>239.00000000000003</ele><time>2026-04-09T13:06:11.211Z</time></trkpt><trkpt lat="44.1167383" lon="12.0266517"><ele>239.0</ele><time>2026-04-09T13:06:14.211Z</time></trkpt><trkpt lat="44.11671" lon="12.0265483"><ele>239.00000000000003</ele><time>2026-04-09T13:06:18.211Z</time></trkpt><trkpt lat="44.1166967" lon="12.0264617"><ele>239.00000000000003</ele><time>2026-04-09T13:06:21.211Z</time></trkpt><trkpt lat="44.1166883" lon="12.026365"><ele>239.0</ele><time>2026-04-09T13:06:24.211Z</time></trkpt><trkpt lat="44.116685" lon="12.0262533"><ele>239.00000000000003</ele><time>2026-04-09T13:06:28.211Z</time></trkpt><trkpt lat="44.1166783" lon="12.026135"><ele>239.00000000000003</ele><time>2026-04-09T13:06:32.211Z</time></trkpt><trkpt lat="44.1166833" lon="12.026025"><ele>238.8571428571429</ele><time>2026-04-09T13:06:36.211Z</time></trkpt><trkpt lat="44.116675" lon="12.0259267"><ele>238.71428571428572</ele><time>2026-04-09T13:06:40.211Z</time></trkpt><trkpt lat="44.1166283" lon="12.0258417"><ele>238.57142857142858</ele><time>2026-04-09T13:06:45.211Z</time></trkpt><trkpt lat="44.11657" lon="12.025785"><ele>238.42857142857144</ele><time>2026-04-09T13:06:48.211Z</time></trkpt><trkpt lat="44.1164967" lon="12.0257733"><ele>238.28571428571428</ele><time>2026-04-09T13:06:53.211Z</time></trkpt><trkpt lat="44.1164733" lon="12.0258633"><ele>238.14285714285714</ele><time>2026-04-09T13:06:58.211Z</time></trkpt><trkpt lat="44.1164483" lon="12.025965"><ele>238.0</ele><time>2026-04-09T13:07:02.211Z</time></trkpt><trkpt lat="44.1164333" lon="12.026065"><ele>240.66666666666666</ele><time>2026-04-09T13:07:06.211Z</time></trkpt><trkpt lat="44.1164233" lon="12.026165"><ele>243.33333333333331</ele><time>2026-04-09T13:07:10.211Z</time></trkpt><trkpt lat="44.1163983" lon="12.026275"><ele>246.0</ele><time>2026-04-09T13:07:14.211Z</time></trkpt><trkpt lat="44.11638" lon="12.02639"><ele>248.66666666666669</ele><time>2026-04-09T13:07:18.211Z</time></trkpt><trkpt lat="44.1163683" lon="12.026485"><ele>251.33333333333334</ele><time>2026-04-09T13:07:21.211Z</time></trkpt><trkpt lat="44.1163483" lon="12.0265983"><ele>254.0</ele><time>2026-04-09T13:07:25.211Z</time></trkpt><trkpt lat="44.116325" lon="12.0266833"><ele>254.33333333333334</ele><time>2026-04-09T13:07:28.211Z</time></trkpt><trkpt lat="44.116305" lon="12.0267933"><ele>254.66666666666669</ele><time>2026-04-09T13:07:32.211Z</time></trkpt><trkpt lat="44.1162967" lon="12.0268883"><ele>255.0</ele><time>2026-04-09T13:07:35.211Z</time></trkpt><trkpt lat="44.11628" lon="12.0269967"><ele>255.33333333333331</ele><time>2026-04-09T13:07:39.211Z</time></trkpt><trkpt lat="44.11626" lon="12.0271083"><ele>255.66666666666666</ele><time>2026-04-09T13:07:43.211Z</time></trkpt><trkpt lat="44.116235" lon="12.0272117"><ele>256.0</ele><time>2026-04-09T13:07:47.211Z</time></trkpt><trkpt lat="44.1162117" lon="12.0273017"><ele>256.0</ele><time>2026-04-09T13:07:50.211Z</time></trkpt><trkpt lat="44.1162133" lon="12.0273983"><ele>255.99999999999997</ele><time>2026-04-09T13:07:53.211Z</time></trkpt><trkpt lat="44.1162083" lon="12.0274967"><ele>256.0</ele><time>2026-04-09T13:07:56.211Z</time></trkpt><trkpt lat="44.1162033" lon="12.0276083"><ele>256.0</ele><time>2026-04-09T13:07:59.212Z</time></trkpt><trkpt lat="44.116185" lon="12.027705"><ele>255.99999999999997</ele><time>2026-04-09T13:08:02.211Z</time></trkpt><trkpt lat="44.11613" lon="12.027775"><ele>256.0</ele><time>2026-04-09T13:08:06.211Z</time></trkpt><trkpt lat="44.1160683" lon="12.0277367"><ele>256.0</ele><time>2026-04-09T13:08:13.211Z</time></trkpt><trkpt lat="44.11602" lon="12.0276767"><ele>256.0</ele><time>2026-04-09T13:08:18.211Z</time></trkpt><trkpt lat="44.1160033" lon="12.02759"><ele>255.99999999999997</ele><time>2026-04-09T13:08:21.211Z</time></trkpt><trkpt lat="44.1159917" lon="12.02749"><ele>256.0</ele><time>2026-04-09T13:08:25.211Z</time></trkpt><trkpt lat="44.1159767" lon="12.0273817"><ele>256.0</ele><time>2026-04-09T13:08:29.211Z</time></trkpt><trkpt lat="44.1159467" lon="12.0272783"><ele>255.99999999999997</ele><time>2026-04-09T13:08:33.211Z</time></trkpt><trkpt lat="44.1159217" lon="12.0271717"><ele>256.0</ele><time>2026-04-09T13:08:37.211Z</time></trkpt><trkpt lat="44.115905" lon="12.0270767"><ele>256.0</ele><time>2026-04-09T13:08:40.211Z</time></trkpt><trkpt lat="44.115885" lon="12.0269833"><ele>256.0</ele><time>2026-04-09T13:08:43.211Z</time></trkpt><trkpt lat="44.1158617" lon="12.026895"><ele>255.99999999999997</ele><time>2026-04-09T13:08:46.211Z</time></trkpt><trkpt lat="44.1158467" lon="12.0267917"><ele>256.0</ele><time>2026-04-09T13:08:49.211Z</time></trkpt><trkpt lat="44.11582" lon="12.0266983"><ele>256.0</ele><time>2026-04-09T13:08:52.211Z</time></trkpt><trkpt lat="44.1157933" lon="12.0266067"><ele>255.99999999999997</ele><time>2026-04-09T13:08:55.211Z</time></trkpt><trkpt lat="44.1157717" lon="12.0265133"><ele>256.0</ele><time>2026-04-09T13:08:58.211Z</time></trkpt><trkpt lat="44.1157483" lon="12.026415"><ele>256.0</ele><time>2026-04-09T13:09:02.211Z</time></trkpt><trkpt lat="44.1157133" lon="12.0263167"><ele>257.0</ele><time>2026-04-09T13:09:06.211Z</time></trkpt><trkpt lat="44.1156733" lon="12.0262383"><ele>258.0</ele><time>2026-04-09T13:09:09.211Z</time></trkpt><trkpt lat="44.11564" lon="12.0261633"><ele>259.0</ele><time>2026-04-09T13:09:12.211Z</time></trkpt><trkpt lat="44.1156033" lon="12.0260583"><ele>260.0</ele><time>2026-04-09T13:09:16.211Z</time></trkpt><trkpt lat="44.11558" lon="12.0259767"><ele>261.0</ele><time>2026-04-09T13:09:19.211Z</time></trkpt><trkpt lat="44.115555" lon="12.0258833"><ele>262.0</ele><time>2026-04-09T13:09:22.211Z</time></trkpt><trkpt lat="44.115515" lon="12.02578"><ele>263.0</ele><time>2026-04-09T13:09:26.211Z</time></trkpt><trkpt lat="44.11549" lon="12.0256867"><ele>263.7142857142857</ele><time>2026-04-09T13:09:29.211Z</time></trkpt><trkpt lat="44.1154633" lon="12.0256033"><ele>264.4285714285714</ele><time>2026-04-09T13:09:32.211Z</time></trkpt><trkpt lat="44.1154333" lon="12.0255217"><ele>265.1428571428571</ele><time>2026-04-09T13:09:35.211Z</time></trkpt><trkpt lat="44.1153967" lon="12.025435"><ele>265.85714285714283</ele><time>2026-04-09T13:09:39.211Z</time></trkpt><trkpt lat="44.11537" lon="12.025355"><ele>266.57142857142856</ele><time>2026-04-09T13:09:43.211Z</time></trkpt><trkpt lat="44.1153233" lon="12.02527"><ele>267.2857142857143</ele><time>2026-04-09T13:09:49.211Z</time></trkpt><trkpt lat="44.1152733" lon="12.0251833"><ele>268.0</ele><time>2026-04-09T13:09:54.211Z</time></trkpt><trkpt lat="44.1152317" lon="12.0251117"><ele>268.0</ele><time>2026-04-09T13:09:58.211Z</time></trkpt><trkpt lat="44.115195" lon="12.0250367"><ele>268.0</ele><time>2026-04-09T13:10:02.211Z</time></trkpt><trkpt lat="44.1151633" lon="12.0249533"><ele>268.0</ele><time>2026-04-09T13:10:06.211Z</time></trkpt><trkpt lat="44.1151267" lon="12.024875"><ele>268.0</ele><time>2026-04-09T13:10:10.211Z</time></trkpt><trkpt lat="44.1150967" lon="12.0247833"><ele>268.0</ele><time>2026-04-09T13:10:14.211Z</time></trkpt><trkpt lat="44.11506" lon="12.024675"><ele>268.0</ele><time>2026-04-09T13:10:18.211Z</time></trkpt><trkpt lat="44.1150383" lon="12.0245733"><ele>268.0</ele><time>2026-04-09T13:10:21.211Z</time></trkpt><trkpt lat="44.1150083" lon="12.0244867"><ele>268.5</ele><time>2026-04-09T13:10:24.211Z</time></trkpt><trkpt lat="44.1149767" lon="12.02438"><ele>269.0</ele><time>2026-04-09T13:10:27.211Z</time></trkpt><trkpt lat="44.1149417" lon="12.024275"><ele>269.5</ele><time>2026-04-09T13:10:30.211Z</time></trkpt><trkpt lat="44.1149167" lon="12.0241867"><ele>270.0</ele><time>2026-04-09T13:10:33.211Z</time></trkpt><trkpt lat="44.1148883" lon="12.0241083"><ele>270.5</ele><time>2026-04-09T13:10:36.211Z</time></trkpt><trkpt lat="44.1148633" lon="12.0240217"><ele>271.0</ele><time>2026-04-09T13:10:45.211Z</time></trkpt><trkpt lat="44.1147717" lon="12.0237533"><ele>270.3333333333333</ele><time>2026-04-09T13:10:48.211Z</time></trkpt><trkpt lat="44.1147417" lon="12.0236217"><ele>269.66666666666663</ele><time>2026-04-09T13:10:50.211Z</time></trkpt><trkpt lat="44.11472" lon="12.0234883"><ele>269.0</ele><time>2026-04-09T13:10:52.211Z</time></trkpt><trkpt lat="44.114715" lon="12.0233867"><ele>268.3333333333333</ele><time>2026-04-09T13:10:54.211Z</time></trkpt><trkpt lat="44.1146883" lon="12.023295"><ele>267.6666666666667</ele><time>2026-04-09T13:10:56.211Z</time></trkpt><trkpt lat="44.1146617" lon="12.02319"><ele>267.0</ele><time>2026-04-09T13:10:59.211Z</time></trkpt><trkpt lat="44.1146367" lon="12.0230817"><ele>267.0</ele><time>2026-04-09T13:11:02.211Z</time></trkpt><trkpt lat="44.1146133" lon="12.0229733"><ele>267.0</ele><time>2026-04-09T13:11:05.211Z</time></trkpt><trkpt lat="44.1145833" lon="12.0228633"><ele>267.0</ele><time>2026-04-09T13:11:09.211Z</time></trkpt><trkpt lat="44.11457" lon="12.022755"><ele>267.0</ele><time>2026-04-09T13:11:12.211Z</time></trkpt><trkpt lat="44.1145517" lon="12.02264"><ele>267.0</ele><time>2026-04-09T13:11:15.211Z</time></trkpt><trkpt lat="44.1145333" lon="12.0225433"><ele>267.0</ele><time>2026-04-09T13:11:18.211Z</time></trkpt><trkpt lat="44.1145183" lon="12.0224367"><ele>268.28571428571433</ele><time>2026-04-09T13:11:21.211Z</time></trkpt><trkpt lat="44.1145117" lon="12.0223333"><ele>269.57142857142856</ele><time>2026-04-09T13:11:24.211Z</time></trkpt><trkpt lat="44.1145" lon="12.0222383"><ele>270.8571428571429</ele><time>2026-04-09T13:11:27.211Z</time></trkpt><trkpt lat="44.11449" lon="12.0221483"><ele>272.14285714285717</ele><time>2026-04-09T13:11:30.211Z</time></trkpt><trkpt lat="44.1144767" lon="12.0220533"><ele>273.42857142857144</ele><time>2026-04-09T13:11:33.211Z</time></trkpt><trkpt lat="44.1144533" lon="12.0219467"><ele>274.7142857142857</ele><time>2026-04-09T13:11:36.212Z</time></trkpt><trkpt lat="44.1144333" lon="12.021835"><ele>276.0</ele><time>2026-04-09T13:11:40.211Z</time></trkpt><trkpt lat="44.1144117" lon="12.021725"><ele>277.14285714285717</ele><time>2026-04-09T13:11:44.211Z</time></trkpt><trkpt lat="44.1143933" lon="12.0216367"><ele>278.28571428571433</ele><time>2026-04-09T13:11:47.211Z</time></trkpt><trkpt lat="44.11437" lon="12.02153"><ele>279.42857142857144</ele><time>2026-04-09T13:11:51.211Z</time></trkpt><trkpt lat="44.1143517" lon="12.0214217"><ele>280.57142857142856</ele><time>2026-04-09T13:11:55.211Z</time></trkpt><trkpt lat="44.114335" lon="12.0213317"><ele>281.71428571428567</ele><time>2026-04-09T13:11:58.211Z</time></trkpt><trkpt lat="44.1143317" lon="12.0212367"><ele>282.85714285714283</ele><time>2026-04-09T13:12:01.211Z</time></trkpt><trkpt lat="44.114325" lon="12.0211333"><ele>284.0</ele><time>2026-04-09T13:12:04.211Z</time></trkpt><trkpt lat="44.11431" lon="12.021045"><ele>284.0</ele><time>2026-04-09T13:12:07.211Z</time></trkpt><trkpt lat="44.1142933" lon="12.0209517"><ele>284.0</ele><time>2026-04-09T13:12:11.211Z</time></trkpt><trkpt lat="44.11429" lon="12.02085"><ele>284.0</ele><time>2026-04-09T13:12:15.211Z</time></trkpt><trkpt lat="44.1142867" lon="12.0207467"><ele>284.0</ele><time>2026-04-09T13:12:19.211Z</time></trkpt><trkpt lat="44.1142883" lon="12.02064"><ele>284.0</ele><time>2026-04-09T13:12:24.211Z</time></trkpt><trkpt lat="44.11429" lon="12.02054"><ele>284.0</ele><time>2026-04-09T13:12:28.211Z</time></trkpt><trkpt lat="44.1142967" lon="12.02044"><ele>284.0</ele><time>2026-04-09T13:12:32.211Z</time></trkpt><trkpt lat="44.114295" lon="12.0203483"><ele>285.1428571428571</ele><time>2026-04-09T13:12:36.211Z</time></trkpt><trkpt lat="44.114305" lon="12.020255"><ele>286.2857142857143</ele><time>2026-04-09T13:12:40.211Z</time></trkpt><trkpt lat="44.1143117" lon="12.020165"><ele>287.42857142857144</ele><time>2026-04-09T13:12:45.211Z</time></trkpt><trkpt lat="44.1143017" lon="12.0200583"><ele>288.57142857142856</ele><time>2026-04-09T13:12:49.211Z</time></trkpt><trkpt lat="44.1142717" lon="12.019965"><ele>289.7142857142857</ele><time>2026-04-09T13:12:53.211Z</time></trkpt><trkpt lat="44.114225" lon="12.0199033"><ele>290.85714285714283</ele><time>2026-04-09T13:12:56.211Z</time></trkpt><trkpt lat="44.1141617" lon="12.0198567"><ele>292.0</ele><time>2026-04-09T13:13:00.211Z</time></trkpt><trkpt lat="44.1140833" lon="12.01985"><ele>293.2857142857143</ele><time>2026-04-09T13:13:05.211Z</time></trkpt><trkpt lat="44.11401" lon="12.0198583"><ele>294.57142857142856</ele><time>2026-04-09T13:13:10.211Z</time></trkpt><trkpt lat="44.113935" lon="12.0198717"><ele>295.8571428571429</ele><time>2026-04-09T13:13:14.211Z</time></trkpt><trkpt lat="44.113865" lon="12.0198517"><ele>297.1428571428571</ele><time>2026-04-09T13:13:18.211Z</time></trkpt><trkpt lat="44.11381" lon="12.0198067"><ele>298.42857142857144</ele><time>2026-04-09T13:13:22.211Z</time></trkpt><trkpt lat="44.1137583" lon="12.019745"><ele>299.7142857142857</ele><time>2026-04-09T13:13:26.211Z</time></trkpt><trkpt lat="44.113725" lon="12.0196683"><ele>301.0</ele><time>2026-04-09T13:13:32.211Z</time></trkpt><trkpt lat="44.1136983" lon="12.0195733"><ele>301.0</ele><time>2026-04-09T13:13:38.211Z</time></trkpt><trkpt lat="44.1136717" lon="12.0194783"><ele>301.0</ele><time>2026-04-09T13:13:44.211Z</time></trkpt><trkpt lat="44.1136333" lon="12.0193933"><ele>301.0</ele><time>2026-04-09T13:13:49.211Z</time></trkpt><trkpt lat="44.11361" lon="12.01931"><ele>301.0</ele><time>2026-04-09T13:13:53.211Z</time></trkpt><trkpt lat="44.1135733" lon="12.0192267"><ele>301.0</ele><time>2026-04-09T13:13:58.211Z</time></trkpt><trkpt lat="44.11355" lon="12.019135"><ele>301.0</ele><time>2026-04-09T13:14:02.211Z</time></trkpt><trkpt lat="44.113525" lon="12.0190317"><ele>301.0</ele><time>2026-04-09T13:14:07.211Z</time></trkpt><trkpt lat="44.1135067" lon="12.0189267"><ele>302.7142857142857</ele><time>2026-04-09T13:14:12.211Z</time></trkpt><trkpt lat="44.1134867" lon="12.018825"><ele>304.42857142857144</ele><time>2026-04-09T13:14:17.211Z</time></trkpt><trkpt lat="44.1134467" lon="12.0187467"><ele>306.1428571428571</ele><time>2026-04-09T13:14:22.212Z</time></trkpt><trkpt lat="44.11341" lon="12.01866"><ele>307.8571428571429</ele><time>2026-04-09T13:14:27.211Z</time></trkpt><trkpt lat="44.1133783" lon="12.0185783"><ele>309.57142857142856</ele><time>2026-04-09T13:14:31.211Z</time></trkpt><trkpt lat="44.113345" lon="12.0184817"><ele>311.2857142857143</ele><time>2026-04-09T13:14:35.211Z</time></trkpt><trkpt lat="44.1133167" lon="12.0184033"><ele>313.0</ele><time>2026-04-09T13:14:38.211Z</time></trkpt><trkpt lat="44.1132767" lon="12.018325"><ele>313.85714285714283</ele><time>2026-04-09T13:14:42.211Z</time></trkpt><trkpt lat="44.11323" lon="12.0182483"><ele>314.7142857142857</ele><time>2026-04-09T13:14:46.211Z</time></trkpt><trkpt lat="44.1131783" lon="12.0181933"><ele>315.57142857142856</ele><time>2026-04-09T13:14:51.211Z</time></trkpt><trkpt lat="44.1131217" lon="12.0181133"><ele>316.42857142857144</ele><time>2026-04-09T13:14:56.211Z</time></trkpt><trkpt lat="44.11308" lon="12.018045"><ele>317.2857142857143</ele><time>2026-04-09T13:15:00.211Z</time></trkpt><trkpt lat="44.1130267" lon="12.0179883"><ele>318.14285714285717</ele><time>2026-04-09T13:15:04.211Z</time></trkpt><trkpt lat="44.1129733" lon="12.0179267"><ele>319.0</ele><time>2026-04-09T13:15:09.211Z</time></trkpt><trkpt lat="44.1129217" lon="12.0178617"><ele>319.0</ele><time>2026-04-09T13:15:14.211Z</time></trkpt><trkpt lat="44.1128667" lon="12.0178033"><ele>319.0</ele><time>2026-04-09T13:15:20.211Z</time></trkpt><trkpt lat="44.1128067" lon="12.0177517"><ele>319.0</ele><time>2026-04-09T13:15:25.211Z</time></trkpt><trkpt lat="44.1127417" lon="12.0176983"><ele>319.0</ele><time>2026-04-09T13:15:29.212Z</time></trkpt><trkpt lat="44.1126683" lon="12.0176467"><ele>319.0</ele><time>2026-04-09T13:15:33.211Z</time></trkpt><trkpt lat="44.112605" lon="12.0175867"><ele>319.0</ele><time>2026-04-09T13:15:37.211Z</time></trkpt><trkpt lat="44.112545" lon="12.0175267"><ele>319.0</ele><time>2026-04-09T13:15:41.211Z</time></trkpt><trkpt lat="44.1124867" lon="12.0174817"><ele>320.16666666666663</ele><time>2026-04-09T13:15:44.211Z</time></trkpt><trkpt lat="44.1124283" lon="12.0174017"><ele>321.3333333333333</ele><time>2026-04-09T13:15:48.211Z</time></trkpt><trkpt lat="44.1123833" lon="12.01731"><ele>322.5</ele><time>2026-04-09T13:15:52.211Z</time></trkpt><trkpt lat="44.1123417" lon="12.017215"><ele>323.6666666666667</ele><time>2026-04-09T13:15:56.211Z</time></trkpt><trkpt lat="44.1123133" lon="12.0171083"><ele>324.83333333333337</ele><time>2026-04-09T13:16:00.211Z</time></trkpt><trkpt lat="44.112275" lon="12.017015"><ele>326.0</ele><time>2026-04-09T13:16:04.211Z</time></trkpt><trkpt lat="44.112235" lon="12.01693"><ele>326.0</ele><time>2026-04-09T13:16:08.211Z</time></trkpt><trkpt lat="44.1122067" lon="12.016835"><ele>326.0</ele><time>2026-04-09T13:16:13.211Z</time></trkpt><trkpt lat="44.1121783" lon="12.016755"><ele>326.0</ele><time>2026-04-09T13:16:18.211Z</time></trkpt><trkpt lat="44.1121383" lon="12.0166617"><ele>326.0</ele><time>2026-04-09T13:16:23.211Z</time></trkpt><trkpt lat="44.1121" lon="12.0165683"><ele>326.0</ele><time>2026-04-09T13:16:28.211Z</time></trkpt><trkpt lat="44.1120533" lon="12.0164783"><ele>326.0</ele><time>2026-04-09T13:16:33.211Z</time></trkpt><trkpt lat="44.1120167" lon="12.0163967"><ele>326.0</ele><time>2026-04-09T13:16:37.211Z</time></trkpt><trkpt lat="44.1119817" lon="12.0163233"><ele>327.42857142857144</ele><time>2026-04-09T13:16:41.211Z</time></trkpt><trkpt lat="44.1119483" lon="12.01623"><ele>328.85714285714283</ele><time>2026-04-09T13:16:46.211Z</time></trkpt><trkpt lat="44.111905" lon="12.0161567"><ele>330.2857142857143</ele><time>2026-04-09T13:16:51.211Z</time></trkpt><trkpt lat="44.1118617" lon="12.0160717"><ele>331.7142857142857</ele><time>2026-04-09T13:16:56.211Z</time></trkpt><trkpt lat="44.1118167" lon="12.0159967"><ele>333.1428571428571</ele><time>2026-04-09T13:17:00.211Z</time></trkpt><trkpt lat="44.111785" lon="12.0159067"><ele>334.57142857142856</ele><time>2026-04-09T13:17:04.211Z</time></trkpt><trkpt lat="44.1117883" lon="12.015805"><ele>336.0</ele><time>2026-04-09T13:17:08.211Z</time></trkpt><trkpt lat="44.111845" lon="12.0157333"><ele>337.57142857142856</ele><time>2026-04-09T13:17:12.211Z</time></trkpt><trkpt lat="44.1119033" lon="12.0156933"><ele>339.1428571428571</ele><time>2026-04-09T13:17:16.211Z</time></trkpt><trkpt lat="44.111965" lon="12.0156617"><ele>340.7142857142857</ele><time>2026-04-09T13:17:22.211Z</time></trkpt><trkpt lat="44.11203" lon="12.0156883"><ele>342.2857142857143</ele><time>2026-04-09T13:17:27.211Z</time></trkpt><trkpt lat="44.1121" lon="12.0157283"><ele>343.85714285714283</ele><time>2026-04-09T13:17:31.211Z</time></trkpt><trkpt lat="44.11217" lon="12.0157533"><ele>345.42857142857144</ele><time>2026-04-09T13:17:34.211Z</time></trkpt><trkpt lat="44.11224" lon="12.0157667"><ele>347.0</ele><time>2026-04-09T13:17:37.211Z</time></trkpt><trkpt lat="44.1123167" lon="12.015775"><ele>347.0</ele><time>2026-04-09T13:17:41.211Z</time></trkpt><trkpt lat="44.1123933" lon="12.0158067"><ele>347.0</ele><time>2026-04-09T13:17:45.211Z</time></trkpt><trkpt lat="44.1124717" lon="12.0158383"><ele>347.0</ele><time>2026-04-09T13:17:49.211Z</time></trkpt><trkpt lat="44.1125333" lon="12.0158583"><ele>347.0</ele><time>2026-04-09T13:17:52.211Z</time></trkpt><trkpt lat="44.1126017" lon="12.0158667"><ele>347.0</ele><time>2026-04-09T13:17:55.211Z</time></trkpt><trkpt lat="44.112675" lon="12.015855"><ele>347.0</ele><time>2026-04-09T13:17:58.211Z</time></trkpt><trkpt lat="44.112755" lon="12.015835"><ele>347.0</ele><time>2026-04-09T13:18:01.211Z</time></trkpt><trkpt lat="44.1128283" lon="12.0158267"><ele>347.7142857142857</ele><time>2026-04-09T13:18:04.211Z</time></trkpt><trkpt lat="44.1129" lon="12.015815"><ele>348.4285714285714</ele><time>2026-04-09T13:18:07.211Z</time></trkpt><trkpt lat="44.1129633" lon="12.0157917"><ele>349.1428571428571</ele><time>2026-04-09T13:18:10.211Z</time></trkpt><trkpt lat="44.1130433" lon="12.0157667"><ele>349.8571428571429</ele><time>2026-04-09T13:18:14.211Z</time></trkpt><trkpt lat="44.1131083" lon="12.0157367"><ele>350.57142857142856</ele><time>2026-04-09T13:18:17.211Z</time></trkpt><trkpt lat="44.11317" lon="12.0157067"><ele>351.2857142857143</ele><time>2026-04-09T13:18:20.211Z</time></trkpt><trkpt lat="44.1132333" lon="12.0156783"><ele>352.0</ele><time>2026-04-09T13:18:23.211Z</time></trkpt><trkpt lat="44.113295" lon="12.015645"><ele>352.0</ele><time>2026-04-09T13:18:26.211Z</time></trkpt><trkpt lat="44.11336" lon="12.01558"><ele>352.0</ele><time>2026-04-09T13:18:30.211Z</time></trkpt><trkpt lat="44.1134067" lon="12.0155083"><ele>352.0</ele><time>2026-04-09T13:18:33.211Z</time></trkpt><trkpt lat="44.113455" lon="12.0154267"><ele>352.0</ele><time>2026-04-09T13:18:36.211Z</time></trkpt><trkpt lat="44.11351" lon="12.0153317"><ele>352.0</ele><time>2026-04-09T13:18:39.211Z</time></trkpt><trkpt lat="44.1135483" lon="12.0152583"><ele>352.0</ele><time>2026-04-09T13:18:41.211Z</time></trkpt><trkpt lat="44.11359" lon="12.01518"><ele>352.0</ele><time>2026-04-09T13:18:43.211Z</time></trkpt><trkpt lat="44.1136467" lon="12.0150517"><ele>353.40000000000003</ele><time>2026-04-09T13:18:45.211Z</time></trkpt><trkpt lat="44.113715" lon="12.0149317"><ele>354.8</ele><time>2026-04-09T13:18:47.211Z</time></trkpt><trkpt lat="44.1137833" lon="12.014805"><ele>356.2</ele><time>2026-04-09T13:18:49.211Z</time></trkpt><trkpt lat="44.1138667" lon="12.0146783"><ele>357.6</ele><time>2026-04-09T13:18:51.211Z</time></trkpt><trkpt lat="44.113915" lon="12.014615"><ele>359.0</ele><time>2026-04-09T13:18:52.211Z</time></trkpt><trkpt lat="44.113965" lon="12.0145517"><ele>359.0</ele><time>2026-04-09T13:18:53.211Z</time></trkpt><trkpt lat="44.1140133" lon="12.014485"><ele>359.0</ele><time>2026-04-09T13:18:54.211Z</time></trkpt><trkpt lat="44.1140667" lon="12.01443"><ele>359.0</ele><time>2026-04-09T13:18:55.211Z</time></trkpt><trkpt lat="44.1141217" lon="12.014375"><ele>359.0</ele><time>2026-04-09T13:18:56.211Z</time></trkpt><trkpt lat="44.11418" lon="12.014315"><ele>359.0</ele><time>2026-04-09T13:18:57.211Z</time></trkpt><trkpt lat="44.1142417" lon="12.01426"><ele>359.0</ele><time>2026-04-09T13:18:58.211Z</time></trkpt><trkpt lat="44.1142983" lon="12.0142083"><ele>359.0</ele><time>2026-04-09T13:18:59.211Z</time></trkpt><trkpt lat="44.1143583" lon="12.01416"><ele>357.2</ele><time>2026-04-09T13:19:00.211Z</time></trkpt><trkpt lat="44.1144183" lon="12.0141083"><ele>355.4</ele><time>2026-04-09T13:19:01.211Z</time></trkpt><trkpt lat="44.1144833" lon="12.0140567"><ele>353.6</ele><time>2026-04-09T13:19:02.211Z</time></trkpt><trkpt lat="44.114595" lon="12.0139733"><ele>351.8</ele><time>2026-04-09T13:19:04.211Z</time></trkpt><trkpt lat="44.1146683" lon="12.01389"><ele>350.0</ele><time>2026-04-09T13:19:06.211Z</time></trkpt><trkpt lat="44.1147183" lon="12.013795"><ele>350.0</ele><time>2026-04-09T13:19:08.211Z</time></trkpt><trkpt lat="44.1147383" lon="12.0136733"><ele>350.0</ele><time>2026-04-09T13:19:10.211Z</time></trkpt><trkpt lat="44.1147367" lon="12.0135533"><ele>350.0</ele><time>2026-04-09T13:19:13.211Z</time></trkpt><trkpt lat="44.11472" lon="12.01344"><ele>350.0</ele><time>2026-04-09T13:19:16.211Z</time></trkpt><trkpt lat="44.1147" lon="12.0133567"><ele>350.0</ele><time>2026-04-09T13:19:18.211Z</time></trkpt><trkpt lat="44.11469" lon="12.0132333"><ele>350.0</ele><time>2026-04-09T13:19:21.211Z</time></trkpt><trkpt lat="44.1146733" lon="12.0131467"><ele>350.0</ele><time>2026-04-09T13:19:23.211Z</time></trkpt><trkpt lat="44.1146617" lon="12.0130333"><ele>350.0</ele><time>2026-04-09T13:19:25.211Z</time></trkpt><trkpt lat="44.11464" lon="12.01292"><ele>350.0</ele><time>2026-04-09T13:19:27.211Z</time></trkpt><trkpt lat="44.1146183" lon="12.0127883"><ele>350.0</ele><time>2026-04-09T13:19:29.211Z</time></trkpt><trkpt lat="44.1145983" lon="12.0126617"><ele>350.0</ele><time>2026-04-09T13:19:31.211Z</time></trkpt><trkpt lat="44.1145817" lon="12.0125617"><ele>350.0</ele><time>2026-04-09T13:19:33.211Z</time></trkpt><trkpt lat="44.1145733" lon="12.0124533"><ele>349.1666666666667</ele><time>2026-04-09T13:19:35.211Z</time></trkpt><trkpt lat="44.114555" lon="12.012335"><ele>348.33333333333337</ele><time>2026-04-09T13:19:37.211Z</time></trkpt><trkpt lat="44.1145283" lon="12.012245"><ele>347.5</ele><time>2026-04-09T13:19:39.211Z</time></trkpt><trkpt lat="44.11451" lon="12.0121333"><ele>346.6666666666667</ele><time>2026-04-09T13:19:41.211Z</time></trkpt><trkpt lat="44.1144917" lon="12.0120183"><ele>345.8333333333333</ele><time>2026-04-09T13:19:43.211Z</time></trkpt><trkpt lat="44.1144683" lon="12.0119067"><ele>345.0</ele><time>2026-04-09T13:19:45.211Z</time></trkpt><trkpt lat="44.11445" lon="12.01179"><ele>345.0</ele><time>2026-04-09T13:19:47.211Z</time></trkpt><trkpt lat="44.11443" lon="12.011695"><ele>345.0</ele><time>2026-04-09T13:19:49.211Z</time></trkpt><trkpt lat="44.1143617" lon="12.0116433"><ele>345.0</ele><time>2026-04-09T13:19:51.211Z</time></trkpt><trkpt lat="44.1142883" lon="12.0116017"><ele>345.0</ele><time>2026-04-09T13:19:53.211Z</time></trkpt><trkpt lat="44.1142083" lon="12.01156"><ele>345.0</ele><time>2026-04-09T13:19:55.211Z</time></trkpt><trkpt lat="44.1141283" lon="12.0115517"><ele>345.0</ele><time>2026-04-09T13:19:57.211Z</time></trkpt><trkpt lat="44.1140483" lon="12.011565"><ele>346.2857142857143</ele><time>2026-04-09T13:19:59.211Z</time></trkpt><trkpt lat="44.1139583" lon="12.011575"><ele>347.57142857142856</ele><time>2026-04-09T13:20:01.211Z</time></trkpt><trkpt lat="44.1138733" lon="12.011545"><ele>348.8571428571429</ele><time>2026-04-09T13:20:03.211Z</time></trkpt><trkpt lat="44.1138083" lon="12.0115017"><ele>350.1428571428571</ele><time>2026-04-09T13:20:05.211Z</time></trkpt><trkpt lat="44.1137533" lon="12.0114567"><ele>351.4285714285714</ele><time>2026-04-09T13:20:07.211Z</time></trkpt><trkpt lat="44.113725" lon="12.0113767"><ele>352.7142857142857</ele><time>2026-04-09T13:20:09.211Z</time></trkpt><trkpt lat="44.1137017" lon="12.011285"><ele>354.0</ele><time>2026-04-09T13:20:11.211Z</time></trkpt><trkpt lat="44.1137" lon="12.011195"><ele>354.0</ele><time>2026-04-09T13:20:13.211Z</time></trkpt><trkpt lat="44.1137167" lon="12.01109"><ele>354.0</ele><time>2026-04-09T13:20:15.211Z</time></trkpt><trkpt lat="44.1137383" lon="12.0109733"><ele>354.0</ele><time>2026-04-09T13:20:17.211Z</time></trkpt><trkpt lat="44.11376" lon="12.0108567"><ele>354.0</ele><time>2026-04-09T13:20:19.211Z</time></trkpt><trkpt lat="44.113785" lon="12.01075"><ele>354.0</ele><time>2026-04-09T13:20:21.211Z</time></trkpt><trkpt lat="44.1137683" lon="12.0106183"><ele>354.0</ele><time>2026-04-09T13:20:24.211Z</time></trkpt><trkpt lat="44.1137233" lon="12.01053"><ele>353.5</ele><time>2026-04-09T13:20:26.211Z</time></trkpt><trkpt lat="44.11368" lon="12.0104433"><ele>353.0</ele><time>2026-04-09T13:20:28.211Z</time></trkpt><trkpt lat="44.1136183" lon="12.0103617"><ele>352.5</ele><time>2026-04-09T13:20:30.211Z</time></trkpt><trkpt lat="44.1135583" lon="12.0102717"><ele>352.0</ele><time>2026-04-09T13:20:32.211Z</time></trkpt><trkpt lat="44.11351" lon="12.01019"><ele>351.5</ele><time>2026-04-09T13:20:34.211Z</time></trkpt><trkpt lat="44.1134633" lon="12.01012"><ele>351.0</ele><time>2026-04-09T13:20:36.211Z</time></trkpt><trkpt lat="44.1134433" lon="12.0100217"><ele>351.6666666666667</ele><time>2026-04-09T13:20:38.211Z</time></trkpt><trkpt lat="44.113445" lon="12.0099117"><ele>352.3333333333333</ele><time>2026-04-09T13:20:40.211Z</time></trkpt><trkpt lat="44.11346" lon="12.009795"><ele>353.0</ele><time>2026-04-09T13:20:42.211Z</time></trkpt><trkpt lat="44.1134783" lon="12.0096933"><ele>353.66666666666663</ele><time>2026-04-09T13:20:44.211Z</time></trkpt><trkpt lat="44.1134983" lon="12.0096"><ele>354.3333333333333</ele><time>2026-04-09T13:20:46.211Z</time></trkpt><trkpt lat="44.1135267" lon="12.0095067"><ele>355.0</ele><time>2026-04-09T13:20:48.211Z</time></trkpt><trkpt lat="44.11355" lon="12.0094167"><ele>355.0</ele><time>2026-04-09T13:20:50.211Z</time></trkpt><trkpt lat="44.11357" lon="12.00929"><ele>355.0</ele><time>2026-04-09T13:20:53.211Z</time></trkpt><trkpt lat="44.1135917" lon="12.0092"><ele>355.0</ele><time>2026-04-09T13:20:55.211Z</time></trkpt><trkpt lat="44.11362" lon="12.009115"><ele>355.0</ele><time>2026-04-09T13:20:57.212Z</time></trkpt><trkpt lat="44.1136483" lon="12.009025"><ele>355.0</ele><time>2026-04-09T13:20:59.211Z</time></trkpt><trkpt lat="44.1136767" lon="12.00894"><ele>355.0</ele><time>2026-04-09T13:21:01.211Z</time></trkpt><trkpt lat="44.113715" lon="12.0088617"><ele>355.0</ele><time>2026-04-09T13:21:03.211Z</time></trkpt><trkpt lat="44.1137567" lon="12.0087833"><ele>355.57142857142856</ele><time>2026-04-09T13:21:05.211Z</time></trkpt><trkpt lat="44.1138" lon="12.0087117"><ele>356.14285714285717</ele><time>2026-04-09T13:21:07.211Z</time></trkpt><trkpt lat="44.1138417" lon="12.00864"><ele>356.7142857142857</ele><time>2026-04-09T13:21:09.211Z</time></trkpt><trkpt lat="44.1138883" lon="12.0085483"><ele>357.2857142857143</ele><time>2026-04-09T13:21:12.211Z</time></trkpt><trkpt lat="44.11393" lon="12.0084667"><ele>357.8571428571429</ele><time>2026-04-09T13:21:14.211Z</time></trkpt><trkpt lat="44.1139817" lon="12.0083667"><ele>358.42857142857144</ele><time>2026-04-09T13:21:17.211Z</time></trkpt><trkpt lat="44.1140183" lon="12.0082933"><ele>359.0</ele><time>2026-04-09T13:21:19.211Z</time></trkpt><trkpt lat="44.11408" lon="12.0081967"><ele>359.0</ele><time>2026-04-09T13:21:22.211Z</time></trkpt><trkpt lat="44.11413" lon="12.0081383"><ele>359.0</ele><time>2026-04-09T13:21:24.211Z</time></trkpt><trkpt lat="44.1141717" lon="12.0080667"><ele>359.0</ele><time>2026-04-09T13:21:26.211Z</time></trkpt><trkpt lat="44.1142233" lon="12.008005"><ele>359.0</ele><time>2026-04-09T13:21:28.211Z</time></trkpt><trkpt lat="44.11428" lon="12.007945"><ele>359.0</ele><time>2026-04-09T13:21:30.211Z</time></trkpt><trkpt lat="44.11435" lon="12.0079"><ele>359.0</ele><time>2026-04-09T13:21:32.211Z</time></trkpt><trkpt lat="44.1144133" lon="12.007875"><ele>359.0</ele><time>2026-04-09T13:21:34.211Z</time></trkpt><trkpt lat="44.1145067" lon="12.0078267"><ele>359.0</ele><time>2026-04-09T13:21:37.211Z</time></trkpt><trkpt lat="44.1145683" lon="12.007785"><ele>359.0</ele><time>2026-04-09T13:21:39.211Z</time></trkpt><trkpt lat="44.1146417" lon="12.007715"><ele>359.0</ele><time>2026-04-09T13:21:42.211Z</time></trkpt><trkpt lat="44.1146883" lon="12.0076383"><ele>359.0</ele><time>2026-04-09T13:21:44.211Z</time></trkpt><trkpt lat="44.114725" lon="12.0075317"><ele>359.0</ele><time>2026-04-09T13:21:47.211Z</time></trkpt><trkpt lat="44.1147383" lon="12.0074433"><ele>359.0</ele><time>2026-04-09T13:21:50.211Z</time></trkpt><trkpt lat="44.1147383" lon="12.0073367"><ele>360.6666666666667</ele><time>2026-04-09T13:21:53.211Z</time></trkpt><trkpt lat="44.1147317" lon="12.0072167"><ele>362.33333333333337</ele><time>2026-04-09T13:21:56.211Z</time></trkpt><trkpt lat="44.1147367" lon="12.0071067"><ele>364.0</ele><time>2026-04-09T13:21:58.211Z</time></trkpt><trkpt lat="44.1147367" lon="12.006985"><ele>365.6666666666667</ele><time>2026-04-09T13:22:00.211Z</time></trkpt><trkpt lat="44.114735" lon="12.0068617"><ele>367.3333333333333</ele><time>2026-04-09T13:22:02.211Z</time></trkpt><trkpt lat="44.11473" lon="12.0067533"><ele>369.0</ele><time>2026-04-09T13:22:04.211Z</time></trkpt><trkpt lat="44.1147233" lon="12.00664"><ele>369.0</ele><time>2026-04-09T13:22:06.211Z</time></trkpt><trkpt lat="44.1147167" lon="12.006525"><ele>369.0</ele><time>2026-04-09T13:22:08.211Z</time></trkpt><trkpt lat="44.1147117" lon="12.00642"><ele>369.0</ele><time>2026-04-09T13:22:10.211Z</time></trkpt><trkpt lat="44.1147183" lon="12.0062983"><ele>369.0</ele><time>2026-04-09T13:22:12.211Z</time></trkpt><trkpt lat="44.1147283" lon="12.0061983"><ele>369.0</ele><time>2026-04-09T13:22:14.211Z</time></trkpt><trkpt lat="44.1147333" lon="12.0060917"><ele>369.0</ele><time>2026-04-09T13:22:16.211Z</time></trkpt><trkpt lat="44.1147317" lon="12.0059567"><ele>367.6666666666667</ele><time>2026-04-09T13:22:18.211Z</time></trkpt><trkpt lat="44.1147233" lon="12.0058167"><ele>366.3333333333333</ele><time>2026-04-09T13:22:20.211Z</time></trkpt><trkpt lat="44.1147217" lon="12.005685"><ele>365.0</ele><time>2026-04-09T13:22:22.211Z</time></trkpt><trkpt lat="44.1147267" lon="12.0055783"><ele>363.66666666666663</ele><time>2026-04-09T13:22:24.211Z</time></trkpt><trkpt lat="44.114725" lon="12.0054667"><ele>362.3333333333333</ele><time>2026-04-09T13:22:26.211Z</time></trkpt><trkpt lat="44.114725" lon="12.00535"><ele>361.0</ele><time>2026-04-09T13:22:28.211Z</time></trkpt><trkpt lat="44.1147267" lon="12.0052283"><ele>361.0</ele><time>2026-04-09T13:22:30.211Z</time></trkpt><trkpt lat="44.1147267" lon="12.0051067"><ele>361.0</ele><time>2026-04-09T13:22:32.211Z</time></trkpt><trkpt lat="44.1147267" lon="12.0049767"><ele>361.0</ele><time>2026-04-09T13:22:34.211Z</time></trkpt><trkpt lat="44.1147183" lon="12.0048583"><ele>361.0</ele><time>2026-04-09T13:22:36.211Z</time></trkpt><trkpt lat="44.1147083" lon="12.0047367"><ele>361.0</ele><time>2026-04-09T13:22:38.211Z</time></trkpt><trkpt lat="44.1146967" lon="12.004635"><ele>361.0</ele><time>2026-04-09T13:22:40.211Z</time></trkpt><trkpt lat="44.114705" lon="12.004485"><ele>360.5</ele><time>2026-04-09T13:22:42.211Z</time></trkpt><trkpt lat="44.1147067" lon="12.00434"><ele>360.0</ele><time>2026-04-09T13:22:44.211Z</time></trkpt><trkpt lat="44.1147083" lon="12.0042167"><ele>359.5</ele><time>2026-04-09T13:22:46.212Z</time></trkpt><trkpt lat="44.11471" lon="12.0040967"><ele>359.0</ele><time>2026-04-09T13:22:48.211Z</time></trkpt><trkpt lat="44.1147017" lon="12.00399"><ele>358.5</ele><time>2026-04-09T13:22:50.211Z</time></trkpt><trkpt lat="44.1147" lon="12.003885"><ele>358.0</ele><time>2026-04-09T13:22:52.211Z</time></trkpt><trkpt lat="44.114705" lon="12.0037917"><ele>356.8333333333333</ele><time>2026-04-09T13:22:54.211Z</time></trkpt><trkpt lat="44.114715" lon="12.0037017"><ele>355.66666666666663</ele><time>2026-04-09T13:22:56.211Z</time></trkpt><trkpt lat="44.1147133" lon="12.003575"><ele>354.5</ele><time>2026-04-09T13:22:59.211Z</time></trkpt><trkpt lat="44.1147167" lon="12.0034467"><ele>353.3333333333333</ele><time>2026-04-09T13:23:02.211Z</time></trkpt><trkpt lat="44.1147167" lon="12.003345"><ele>352.1666666666667</ele><time>2026-04-09T13:23:04.211Z</time></trkpt><trkpt lat="44.1147183" lon="12.0031933"><ele>351.0</ele><time>2026-04-09T13:23:07.211Z</time></trkpt><trkpt lat="44.1147217" lon="12.0030583"><ele>349.5</ele><time>2026-04-09T13:23:10.211Z</time></trkpt><trkpt lat="44.1147267" lon="12.0029683"><ele>348.0</ele><time>2026-04-09T13:23:12.211Z</time></trkpt><trkpt lat="44.1147133" lon="12.0028583"><ele>346.5</ele><time>2026-04-09T13:23:14.211Z</time></trkpt><trkpt lat="44.1147033" lon="12.0027417"><ele>345.0</ele><time>2026-04-09T13:23:16.211Z</time></trkpt><trkpt lat="44.1146967" lon="12.00261"><ele>343.5</ele><time>2026-04-09T13:23:18.211Z</time></trkpt><trkpt lat="44.1147" lon="12.00246"><ele>342.0</ele><time>2026-04-09T13:23:20.211Z</time></trkpt><trkpt lat="44.114715" lon="12.002315"><ele>341.6</ele><time>2026-04-09T13:23:22.211Z</time></trkpt><trkpt lat="44.1147283" lon="12.0021483"><ele>341.20000000000005</ele><time>2026-04-09T13:23:24.211Z</time></trkpt><trkpt lat="44.1147517" lon="12.0019617"><ele>340.8</ele><time>2026-04-09T13:23:26.212Z</time></trkpt><trkpt lat="44.1147617" lon="12.001875"><ele>340.4</ele><time>2026-04-09T13:23:27.211Z</time></trkpt><trkpt lat="44.1147817" lon="12.0017817"><ele>340.0</ele><time>2026-04-09T13:23:28.211Z</time></trkpt><trkpt lat="44.114805" lon="12.00169"><ele>340.0</ele><time>2026-04-09T13:23:29.211Z</time></trkpt><trkpt lat="44.1148283" lon="12.0015933"><ele>340.0</ele><time>2026-04-09T13:23:30.211Z</time></trkpt><trkpt lat="44.114845" lon="12.0014983"><ele>340.0</ele><time>2026-04-09T13:23:31.211Z</time></trkpt><trkpt lat="44.1148483" lon="12.001395"><ele>340.0</ele><time>2026-04-09T13:23:32.211Z</time></trkpt><trkpt lat="44.11485" lon="12.0012783"><ele>340.0</ele><time>2026-04-09T13:23:33.211Z</time></trkpt><trkpt lat="44.11483" lon="12.0011667"><ele>340.0</ele><time>2026-04-09T13:23:34.211Z</time></trkpt><trkpt lat="44.11481" lon="12.0010483"><ele>340.0</ele><time>2026-04-09T13:23:35.211Z</time></trkpt><trkpt lat="44.1147933" lon="12.0009317"><ele>340.0</ele><time>2026-04-09T13:23:36.211Z</time></trkpt><trkpt lat="44.114765" lon="12.0008117"><ele>340.0</ele><time>2026-04-09T13:23:37.211Z</time></trkpt><trkpt lat="44.11474" lon="12.0006867"><ele>340.0</ele><time>2026-04-09T13:23:38.211Z</time></trkpt><trkpt lat="44.114725" lon="12.0005683"><ele>340.0</ele><time>2026-04-09T13:23:39.211Z</time></trkpt><trkpt lat="44.1147183" lon="12.000445"><ele>340.0</ele><time>2026-04-09T13:23:40.211Z</time></trkpt><trkpt lat="44.1147083" lon="12.0003283"><ele>341.0</ele><time>2026-04-09T13:23:41.211Z</time></trkpt><trkpt lat="44.1147017" lon="12.000205"><ele>342.0</ele><time>2026-04-09T13:23:42.211Z</time></trkpt><trkpt lat="44.11471" lon="12.0000917"><ele>343.0</ele><time>2026-04-09T13:23:43.211Z</time></trkpt><trkpt lat="44.11473" lon="11.9999967"><ele>344.0</ele><time>2026-04-09T13:23:44.211Z</time></trkpt><trkpt lat="44.1147767" lon="11.999905"><ele>345.0</ele><time>2026-04-09T13:23:45.211Z</time></trkpt><trkpt lat="44.1148317" lon="11.9998267"><ele>346.0</ele><time>2026-04-09T13:23:46.211Z</time></trkpt><trkpt lat="44.11489" lon="11.9997633"><ele>347.8</ele><time>2026-04-09T13:23:47.211Z</time></trkpt><trkpt lat="44.1149583" lon="11.9997017"><ele>349.6</ele><time>2026-04-09T13:23:48.211Z</time></trkpt><trkpt lat="44.1150383" lon="11.9996383"><ele>351.4</ele><time>2026-04-09T13:23:49.211Z</time></trkpt><trkpt lat="44.11513" lon="11.9995817"><ele>353.2</ele><time>2026-04-09T13:23:50.211Z</time></trkpt><trkpt lat="44.1152167" lon="11.9995383"><ele>355.0</ele><time>2026-04-09T13:23:51.211Z</time></trkpt><trkpt lat="44.1153" lon="11.9995083"><ele>355.0</ele><time>2026-04-09T13:23:52.211Z</time></trkpt><trkpt lat="44.1153783" lon="11.999475"><ele>355.0</ele><time>2026-04-09T13:23:53.211Z</time></trkpt><trkpt lat="44.1154567" lon="11.999435"><ele>355.0</ele><time>2026-04-09T13:23:54.211Z</time></trkpt><trkpt lat="44.115525" lon="11.9993967"><ele>355.0</ele><time>2026-04-09T13:23:55.211Z</time></trkpt><trkpt lat="44.11559" lon="11.9993583"><ele>355.0</ele><time>2026-04-09T13:23:56.211Z</time></trkpt><trkpt lat="44.1156917" lon="11.9992867"><ele>355.0</ele><time>2026-04-09T13:23:58.211Z</time></trkpt><trkpt lat="44.1157717" lon="11.99923"><ele>354.8333333333333</ele><time>2026-04-09T13:24:00.211Z</time></trkpt><trkpt lat="44.1158333" lon="11.9991733"><ele>354.66666666666663</ele><time>2026-04-09T13:24:02.211Z</time></trkpt><trkpt lat="44.1158717" lon="11.9990967"><ele>354.5</ele><time>2026-04-09T13:24:04.211Z</time></trkpt><trkpt lat="44.1159133" lon="11.999025"><ele>354.3333333333333</ele><time>2026-04-09T13:24:06.211Z</time></trkpt><trkpt lat="44.1159833" lon="11.9989417"><ele>354.1666666666667</ele><time>2026-04-09T13:24:09.211Z</time></trkpt><trkpt lat="44.1160333" lon="11.998885"><ele>354.0</ele><time>2026-04-09T13:24:11.211Z</time></trkpt><trkpt lat="44.1161083" lon="11.9988083"><ele>354.0</ele><time>2026-04-09T13:24:14.211Z</time></trkpt><trkpt lat="44.11617" lon="11.9987117"><ele>354.0</ele><time>2026-04-09T13:24:17.211Z</time></trkpt><trkpt lat="44.1162167" lon="11.9986333"><ele>354.0</ele><time>2026-04-09T13:24:19.211Z</time></trkpt><trkpt lat="44.1162717" lon="11.99855"><ele>354.0</ele><time>2026-04-09T13:24:21.211Z</time></trkpt><trkpt lat="44.11634" lon="11.99847"><ele>354.0</ele><time>2026-04-09T13:24:23.211Z</time></trkpt><trkpt lat="44.1164367" lon="11.9984133"><ele>354.0</ele><time>2026-04-09T13:24:25.211Z</time></trkpt><trkpt lat="44.1165133" lon="11.9983433"><ele>354.0</ele><time>2026-04-09T13:24:27.211Z</time></trkpt><trkpt lat="44.1165917" lon="11.9983117"><ele>354.0</ele><time>2026-04-09T13:24:29.211Z</time></trkpt><trkpt lat="44.11669" lon="11.9982933"><ele>354.0</ele><time>2026-04-09T13:24:31.211Z</time></trkpt><trkpt lat="44.116755" lon="11.9982933"><ele>354.0</ele><time>2026-04-09T13:24:32.211Z</time></trkpt><trkpt lat="44.11685" lon="11.998275"><ele>354.0</ele><time>2026-04-09T13:24:34.211Z</time></trkpt><trkpt lat="44.1169517" lon="11.998275"><ele>354.0</ele><time>2026-04-09T13:24:36.211Z</time></trkpt><trkpt lat="44.1170517" lon="11.9982733"><ele>354.0</ele><time>2026-04-09T13:24:38.211Z</time></trkpt><trkpt lat="44.1171583" lon="11.9982817"><ele>354.0</ele><time>2026-04-09T13:24:40.211Z</time></trkpt><trkpt lat="44.1172533" lon="11.9982917"><ele>354.0</ele><time>2026-04-09T13:24:42.211Z</time></trkpt><trkpt lat="44.1173417" lon="11.9983167"><ele>354.0</ele><time>2026-04-09T13:24:44.211Z</time></trkpt><trkpt lat="44.11744" lon="11.9983167"><ele>354.0</ele><time>2026-04-09T13:24:46.211Z</time></trkpt><trkpt lat="44.117535" lon="11.9983067"><ele>354.6</ele><time>2026-04-09T13:24:48.211Z</time></trkpt><trkpt lat="44.1176267" lon="11.9983067"><ele>355.2</ele><time>2026-04-09T13:24:50.211Z</time></trkpt><trkpt lat="44.117715" lon="11.9983083"><ele>355.8</ele><time>2026-04-09T13:24:52.212Z</time></trkpt><trkpt lat="44.1178133" lon="11.9983"><ele>356.40000000000003</ele><time>2026-04-09T13:24:54.211Z</time></trkpt><trkpt lat="44.1179133" lon="11.9982683"><ele>357.0</ele><time>2026-04-09T13:24:56.211Z</time></trkpt><trkpt lat="44.1180117" lon="11.9982217"><ele>357.0</ele><time>2026-04-09T13:24:58.211Z</time></trkpt><trkpt lat="44.1181233" lon="11.9981617"><ele>357.0</ele><time>2026-04-09T13:25:00.211Z</time></trkpt><trkpt lat="44.11822" lon="11.9980767"><ele>357.0</ele><time>2026-04-09T13:25:02.212Z</time></trkpt><trkpt lat="44.118315" lon="11.997995"><ele>357.0</ele><time>2026-04-09T13:25:04.211Z</time></trkpt><trkpt lat="44.1184117" lon="11.9978967"><ele>356.5</ele><time>2026-04-09T13:25:06.211Z</time></trkpt><trkpt lat="44.1184983" lon="11.997805"><ele>356.0</ele><time>2026-04-09T13:25:08.211Z</time></trkpt><trkpt lat="44.1185817" lon="11.997705"><ele>355.5</ele><time>2026-04-09T13:25:10.211Z</time></trkpt><trkpt lat="44.1186717" lon="11.997605"><ele>355.0</ele><time>2026-04-09T13:25:12.211Z</time></trkpt><trkpt lat="44.11877" lon="11.9975117"><ele>354.8</ele><time>2026-04-09T13:25:14.211Z</time></trkpt><trkpt lat="44.1188517" lon="11.9974283"><ele>354.6</ele><time>2026-04-09T13:25:16.211Z</time></trkpt><trkpt lat="44.1189267" lon="11.99735"><ele>354.4</ele><time>2026-04-09T13:25:18.211Z</time></trkpt><trkpt lat="44.11903" lon="11.9972767"><ele>354.2</ele><time>2026-04-09T13:25:20.211Z</time></trkpt><trkpt lat="44.1191317" lon="11.9972433"><ele>354.0</ele><time>2026-04-09T13:25:22.211Z</time></trkpt><trkpt lat="44.1192433" lon="11.9972267"><ele>354.0</ele><time>2026-04-09T13:25:24.211Z</time></trkpt><trkpt lat="44.1193583" lon="11.9972117"><ele>354.0</ele><time>2026-04-09T13:25:26.211Z</time></trkpt><trkpt lat="44.11946" lon="11.9972433"><ele>354.0</ele><time>2026-04-09T13:25:28.211Z</time></trkpt><trkpt lat="44.1195233" lon="11.9972583"><ele>354.0</ele><time>2026-04-09T13:25:29.211Z</time></trkpt><trkpt lat="44.1196417" lon="11.9972917"><ele>354.0</ele><time>2026-04-09T13:25:31.211Z</time></trkpt><trkpt lat="44.1197083" lon="11.99731"><ele>354.0</ele><time>2026-04-09T13:25:32.211Z</time></trkpt><trkpt lat="44.1197883" lon="11.9973267"><ele>354.0</ele><time>2026-04-09T13:25:33.211Z</time></trkpt><trkpt lat="44.1198717" lon="11.9973367"><ele>354.0</ele><time>2026-04-09T13:25:34.211Z</time></trkpt><trkpt lat="44.119955" lon="11.99735"><ele>354.0</ele><time>2026-04-09T13:25:35.211Z</time></trkpt><trkpt lat="44.12003" lon="11.9973583"><ele>354.0</ele><time>2026-04-09T13:25:36.211Z</time></trkpt><trkpt lat="44.12011" lon="11.99737"><ele>354.0</ele><time>2026-04-09T13:25:37.211Z</time></trkpt><trkpt lat="44.1201983" lon="11.9973783"><ele>353.0</ele><time>2026-04-09T13:25:38.211Z</time></trkpt><trkpt lat="44.1202917" lon="11.9973883"><ele>352.0</ele><time>2026-04-09T13:25:39.211Z</time></trkpt><trkpt lat="44.1203967" lon="11.9973983"><ele>351.0</ele><time>2026-04-09T13:25:40.211Z</time></trkpt><trkpt lat="44.1205083" lon="11.99741"><ele>350.0</ele><time>2026-04-09T13:25:41.211Z</time></trkpt><trkpt lat="44.1206217" lon="11.997415"><ele>349.0</ele><time>2026-04-09T13:25:42.211Z</time></trkpt><trkpt lat="44.12073" lon="11.997415"><ele>347.25</ele><time>2026-04-09T13:25:43.211Z</time></trkpt><trkpt lat="44.1208417" lon="11.9974067"><ele>345.5</ele><time>2026-04-09T13:25:44.211Z</time></trkpt><trkpt lat="44.1209567" lon="11.997385"><ele>343.75</ele><time>2026-04-09T13:25:45.211Z</time></trkpt><trkpt lat="44.1210683" lon="11.9973583"><ele>342.0</ele><time>2026-04-09T13:25:46.211Z</time></trkpt><trkpt lat="44.121185" lon="11.9973333"><ele>342.0</ele><time>2026-04-09T13:25:47.211Z</time></trkpt><trkpt lat="44.12131" lon="11.9973067"><ele>342.0</ele><time>2026-04-09T13:25:48.211Z</time></trkpt><trkpt lat="44.12143" lon="11.997285"><ele>342.0</ele><time>2026-04-09T13:25:49.211Z</time></trkpt><trkpt lat="44.121555" lon="11.9972617"><ele>342.0</ele><time>2026-04-09T13:25:50.211Z</time></trkpt><trkpt lat="44.12167" lon="11.9972317"><ele>339.40000000000003</ele><time>2026-04-09T13:25:51.211Z</time></trkpt><trkpt lat="44.12178" lon="11.997205"><ele>336.8</ele><time>2026-04-09T13:25:52.211Z</time></trkpt><trkpt lat="44.12188" lon="11.9971817"><ele>334.2</ele><time>2026-04-09T13:25:53.211Z</time></trkpt><trkpt lat="44.1219767" lon="11.9971617"><ele>331.6</ele><time>2026-04-09T13:25:54.211Z</time></trkpt><trkpt lat="44.1220667" lon="11.9971683"><ele>329.0</ele><time>2026-04-09T13:25:55.211Z</time></trkpt><trkpt lat="44.122145" lon="11.9972017"><ele>329.0</ele><time>2026-04-09T13:25:56.211Z</time></trkpt><trkpt lat="44.12222" lon="11.9972567"><ele>329.0</ele><time>2026-04-09T13:25:57.211Z</time></trkpt><trkpt lat="44.12228" lon="11.9973433"><ele>329.0</ele><time>2026-04-09T13:25:58.211Z</time></trkpt><trkpt lat="44.122315" lon="11.997465"><ele>329.0</ele><time>2026-04-09T13:25:59.211Z</time></trkpt><trkpt lat="44.122325" lon="11.9976"><ele>329.0</ele><time>2026-04-09T13:26:00.211Z</time></trkpt><trkpt lat="44.1223133" lon="11.997745"><ele>327.79999999999995</ele><time>2026-04-09T13:26:01.211Z</time></trkpt><trkpt lat="44.1223067" lon="11.9978917"><ele>326.59999999999997</ele><time>2026-04-09T13:26:02.211Z</time></trkpt><trkpt lat="44.1223117" lon="11.9980333"><ele>325.4</ele><time>2026-04-09T13:26:03.211Z</time></trkpt><trkpt lat="44.1223417" lon="11.998165"><ele>324.2</ele><time>2026-04-09T13:26:04.211Z</time></trkpt><trkpt lat="44.1223917" lon="11.99829"><ele>323.0</ele><time>2026-04-09T13:26:05.211Z</time></trkpt><trkpt lat="44.1224617" lon="11.998405"><ele>317.75</ele><time>2026-04-09T13:26:06.211Z</time></trkpt><trkpt lat="44.122545" lon="11.9985083"><ele>312.5</ele><time>2026-04-09T13:26:07.211Z</time></trkpt><trkpt lat="44.1226467" lon="11.99858"><ele>307.25</ele><time>2026-04-09T13:26:08.211Z</time></trkpt><trkpt lat="44.122765" lon="11.9986217"><ele>302.0</ele><time>2026-04-09T13:26:09.212Z</time></trkpt><trkpt lat="44.1228883" lon="11.9986333"><ele>302.0</ele><time>2026-04-09T13:26:10.211Z</time></trkpt><trkpt lat="44.1230183" lon="11.9986433"><ele>302.0</ele><time>2026-04-09T13:26:11.211Z</time></trkpt><trkpt lat="44.1231383" lon="11.99864"><ele>302.0</ele><time>2026-04-09T13:26:12.211Z</time></trkpt><trkpt lat="44.12326" lon="11.9986483"><ele>302.0</ele><time>2026-04-09T13:26:13.211Z</time></trkpt><trkpt lat="44.1233983" lon="11.99867"><ele>300.5</ele><time>2026-04-09T13:26:14.211Z</time></trkpt><trkpt lat="44.12353" lon="11.998695"><ele>299.0</ele><time>2026-04-09T13:26:15.211Z</time></trkpt><trkpt lat="44.1236583" lon="11.9987383"><ele>297.5</ele><time>2026-04-09T13:26:16.211Z</time></trkpt><trkpt lat="44.1237883" lon="11.9987983"><ele>296.0</ele><time>2026-04-09T13:26:17.211Z</time></trkpt><trkpt lat="44.1239" lon="11.9988867"><ele>296.0</ele><time>2026-04-09T13:26:18.211Z</time></trkpt><trkpt lat="44.12401" lon="11.998975"><ele>296.0</ele><time>2026-04-09T13:26:19.211Z</time></trkpt><trkpt lat="44.12412" lon="11.9990533"><ele>296.0</ele><time>2026-04-09T13:26:20.211Z</time></trkpt><trkpt lat="44.124235" lon="11.9991233"><ele>296.0</ele><time>2026-04-09T13:26:21.211Z</time></trkpt><trkpt lat="44.1243483" lon="11.999195"><ele>291.5</ele><time>2026-04-09T13:26:22.211Z</time></trkpt><trkpt lat="44.1244533" lon="11.999275"><ele>287.0</ele><time>2026-04-09T13:26:23.211Z</time></trkpt><trkpt lat="44.1245567" lon="11.99936"><ele>282.5</ele><time>2026-04-09T13:26:24.211Z</time></trkpt><trkpt lat="44.1246583" lon="11.9994383"><ele>278.0</ele><time>2026-04-09T13:26:25.211Z</time></trkpt><trkpt lat="44.1247533" lon="11.9995117"><ele>278.0</ele><time>2026-04-09T13:26:26.211Z</time></trkpt><trkpt lat="44.12484" lon="11.99958"><ele>278.0</ele><time>2026-04-09T13:26:27.211Z</time></trkpt><trkpt lat="44.1249233" lon="11.9996417"><ele>278.0</ele><time>2026-04-09T13:26:28.211Z</time></trkpt><trkpt lat="44.1250033" lon="11.9997033"><ele>278.0</ele><time>2026-04-09T13:26:29.211Z</time></trkpt><trkpt lat="44.1250817" lon="11.9997683"><ele>278.0</ele><time>2026-04-09T13:26:30.211Z</time></trkpt><trkpt lat="44.1251517" lon="11.9998167"><ele>280.33333333333337</ele><time>2026-04-09T13:26:31.211Z</time></trkpt><trkpt lat="44.1252317" lon="11.9998483"><ele>282.6666666666667</ele><time>2026-04-09T13:26:32.211Z</time></trkpt><trkpt lat="44.12531" lon="11.9998617"><ele>285.0</ele><time>2026-04-09T13:26:33.211Z</time></trkpt><trkpt lat="44.12538" lon="11.9998633"><ele>287.3333333333333</ele><time>2026-04-09T13:26:34.211Z</time></trkpt><trkpt lat="44.1254583" lon="11.99987"><ele>289.66666666666663</ele><time>2026-04-09T13:26:35.211Z</time></trkpt><trkpt lat="44.1255217" lon="11.99987"><ele>292.0</ele><time>2026-04-09T13:26:36.211Z</time></trkpt><trkpt lat="44.125645" lon="11.9998833"><ele>292.0</ele><time>2026-04-09T13:26:38.212Z</time></trkpt><trkpt lat="44.1257083" lon="11.9998917"><ele>292.0</ele><time>2026-04-09T13:26:39.211Z</time></trkpt><trkpt lat="44.125835" lon="11.9999083"><ele>292.0</ele><time>2026-04-09T13:26:41.211Z</time></trkpt><trkpt lat="44.1259417" lon="11.9999367"><ele>292.0</ele><time>2026-04-09T13:26:43.211Z</time></trkpt><trkpt lat="44.1260483" lon="11.9999733"><ele>292.0</ele><time>2026-04-09T13:26:45.211Z</time></trkpt><trkpt lat="44.12616" lon="12.0000067"><ele>292.0</ele><time>2026-04-09T13:26:47.211Z</time></trkpt><trkpt lat="44.1262833" lon="12.0000383"><ele>292.0</ele><time>2026-04-09T13:26:49.211Z</time></trkpt><trkpt lat="44.1263933" lon="12.0000783"><ele>292.0</ele><time>2026-04-09T13:26:51.211Z</time></trkpt><trkpt lat="44.126505" lon="12.000115"><ele>292.0</ele><time>2026-04-09T13:26:53.211Z</time></trkpt><trkpt lat="44.126615" lon="12.00016"><ele>292.0</ele><time>2026-04-09T13:26:55.211Z</time></trkpt><trkpt lat="44.1267167" lon="12.0002433"><ele>292.0</ele><time>2026-04-09T13:26:57.211Z</time></trkpt><trkpt lat="44.1267933" lon="12.0003717"><ele>292.0</ele><time>2026-04-09T13:26:59.211Z</time></trkpt><trkpt lat="44.1268267" lon="12.0004483"><ele>292.0</ele><time>2026-04-09T13:27:00.211Z</time></trkpt><trkpt lat="44.1268667" lon="12.000525"><ele>292.0</ele><time>2026-04-09T13:27:01.211Z</time></trkpt><trkpt lat="44.1269483" lon="12.0006567"><ele>292.0</ele><time>2026-04-09T13:27:03.211Z</time></trkpt><trkpt lat="44.1270183" lon="12.0007783"><ele>292.0</ele><time>2026-04-09T13:27:05.212Z</time></trkpt><trkpt lat="44.1270933" lon="12.0009033"><ele>292.0</ele><time>2026-04-09T13:27:07.211Z</time></trkpt><trkpt lat="44.1271833" lon="12.0010283"><ele>292.0</ele><time>2026-04-09T13:27:09.211Z</time></trkpt><trkpt lat="44.12723" lon="12.0010967"><ele>292.0</ele><time>2026-04-09T13:27:10.211Z</time></trkpt><trkpt lat="44.1272767" lon="12.0011583"><ele>292.0</ele><time>2026-04-09T13:27:11.211Z</time></trkpt><trkpt lat="44.1273567" lon="12.0012667"><ele>292.0</ele><time>2026-04-09T13:27:13.211Z</time></trkpt><trkpt lat="44.12744" lon="12.0013817"><ele>292.0</ele><time>2026-04-09T13:27:15.211Z</time></trkpt><trkpt lat="44.1275283" lon="12.00151"><ele>292.0</ele><time>2026-04-09T13:27:17.211Z</time></trkpt><trkpt lat="44.1275733" lon="12.001585"><ele>292.0</ele><time>2026-04-09T13:27:18.211Z</time></trkpt><trkpt lat="44.1276283" lon="12.00168"><ele>292.0</ele><time>2026-04-09T13:27:19.211Z</time></trkpt><trkpt lat="44.127675" lon="12.0017867"><ele>292.0</ele><time>2026-04-09T13:27:20.211Z</time></trkpt><trkpt lat="44.1277183" lon="12.0018733"><ele>292.0</ele><time>2026-04-09T13:27:21.212Z</time></trkpt><trkpt lat="44.1277617" lon="12.0019733"><ele>292.0</ele><time>2026-04-09T13:27:22.211Z</time></trkpt><trkpt lat="44.1278083" lon="12.0020767"><ele>292.0</ele><time>2026-04-09T13:27:23.211Z</time></trkpt><trkpt lat="44.1278617" lon="12.0021783"><ele>292.0</ele><time>2026-04-09T13:27:24.211Z</time></trkpt><trkpt lat="44.1279217" lon="12.0022783"><ele>292.0</ele><time>2026-04-09T13:27:25.211Z</time></trkpt><trkpt lat="44.1279983" lon="12.0023717"><ele>292.0</ele><time>2026-04-09T13:27:26.211Z</time></trkpt><trkpt lat="44.128085" lon="12.00246"><ele>292.0</ele><time>2026-04-09T13:27:27.211Z</time></trkpt><trkpt lat="44.12818" lon="12.00255"><ele>292.0</ele><time>2026-04-09T13:27:28.211Z</time></trkpt><trkpt lat="44.128275" lon="12.00263"><ele>292.0</ele><time>2026-04-09T13:27:29.211Z</time></trkpt><trkpt lat="44.1283683" lon="12.0027"><ele>291.25</ele><time>2026-04-09T13:27:30.211Z</time></trkpt><trkpt lat="44.1284683" lon="12.0027767"><ele>290.5</ele><time>2026-04-09T13:27:31.211Z</time></trkpt><trkpt lat="44.1285617" lon="12.0028683"><ele>289.75</ele><time>2026-04-09T13:27:32.211Z</time></trkpt><trkpt lat="44.1286667" lon="12.0029567"><ele>289.0</ele><time>2026-04-09T13:27:33.211Z</time></trkpt><trkpt lat="44.1287783" lon="12.0030483"><ele>289.0</ele><time>2026-04-09T13:27:34.211Z</time></trkpt><trkpt lat="44.1288983" lon="12.00314"><ele>289.0</ele><time>2026-04-09T13:27:35.211Z</time></trkpt><trkpt lat="44.1290167" lon="12.0032233"><ele>289.0</ele><time>2026-04-09T13:27:36.211Z</time></trkpt><trkpt lat="44.129135" lon="12.003315"><ele>289.0</ele><time>2026-04-09T13:27:37.211Z</time></trkpt><trkpt lat="44.12925" lon="12.0033967"><ele>285.25</ele><time>2026-04-09T13:27:38.211Z</time></trkpt><trkpt lat="44.129365" lon="12.003475"><ele>281.5</ele><time>2026-04-09T13:27:39.211Z</time></trkpt><trkpt lat="44.1294683" lon="12.00354"><ele>277.75</ele><time>2026-04-09T13:27:40.211Z</time></trkpt><trkpt lat="44.1295683" lon="12.003595"><ele>274.0</ele><time>2026-04-09T13:27:41.211Z</time></trkpt><trkpt lat="44.129665" lon="12.0036433"><ele>274.0</ele><time>2026-04-09T13:27:42.211Z</time></trkpt><trkpt lat="44.1297617" lon="12.0036867"><ele>274.0</ele><time>2026-04-09T13:27:43.211Z</time></trkpt><trkpt lat="44.129855" lon="12.0037217"><ele>274.0</ele><time>2026-04-09T13:27:44.211Z</time></trkpt><trkpt lat="44.1299467" lon="12.0037533"><ele>274.0</ele><time>2026-04-09T13:27:45.211Z</time></trkpt><trkpt lat="44.1300417" lon="12.00379"><ele>274.0</ele><time>2026-04-09T13:27:46.211Z</time></trkpt><trkpt lat="44.1301283" lon="12.0038217"><ele>273.2</ele><time>2026-04-09T13:27:47.211Z</time></trkpt><trkpt lat="44.13022" lon="12.0038517"><ele>272.4</ele><time>2026-04-09T13:27:48.211Z</time></trkpt><trkpt lat="44.1303083" lon="12.0038767"><ele>271.6</ele><time>2026-04-09T13:27:49.211Z</time></trkpt><trkpt lat="44.1303967" lon="12.0038967"><ele>270.8</ele><time>2026-04-09T13:27:50.211Z</time></trkpt><trkpt lat="44.1304933" lon="12.0039217"><ele>270.0</ele><time>2026-04-09T13:27:51.211Z</time></trkpt><trkpt lat="44.1305933" lon="12.00394"><ele>270.0</ele><time>2026-04-09T13:27:52.211Z</time></trkpt><trkpt lat="44.13069" lon="12.0039533"><ele>270.0</ele><time>2026-04-09T13:27:53.211Z</time></trkpt><trkpt lat="44.1307967" lon="12.003965"><ele>270.0</ele><time>2026-04-09T13:27:54.211Z</time></trkpt><trkpt lat="44.1309017" lon="12.0039733"><ele>270.0</ele><time>2026-04-09T13:27:55.211Z</time></trkpt><trkpt lat="44.1310183" lon="12.0039817"><ele>270.0</ele><time>2026-04-09T13:27:56.211Z</time></trkpt><trkpt lat="44.131145" lon="12.003995"><ele>268.25</ele><time>2026-04-09T13:27:57.211Z</time></trkpt><trkpt lat="44.131275" lon="12.003985"><ele>266.5</ele><time>2026-04-09T13:27:58.211Z</time></trkpt><trkpt lat="44.1314033" lon="12.0039833"><ele>264.75</ele><time>2026-04-09T13:27:59.211Z</time></trkpt><trkpt lat="44.1315333" lon="12.00399"><ele>263.0</ele><time>2026-04-09T13:28:00.211Z</time></trkpt><trkpt lat="44.1316767" lon="12.0039967"><ele>261.25</ele><time>2026-04-09T13:28:01.211Z</time></trkpt><trkpt lat="44.13183" lon="12.0039933"><ele>259.5</ele><time>2026-04-09T13:28:02.211Z</time></trkpt><trkpt lat="44.1319717" lon="12.004"><ele>257.75</ele><time>2026-04-09T13:28:03.211Z</time></trkpt><trkpt lat="44.1321017" lon="12.0040033"><ele>256.0</ele><time>2026-04-09T13:28:04.211Z</time></trkpt><trkpt lat="44.1322333" lon="12.0040133"><ele>256.0</ele><time>2026-04-09T13:28:05.211Z</time></trkpt><trkpt lat="44.132355" lon="12.00401"><ele>256.0</ele><time>2026-04-09T13:28:06.211Z</time></trkpt><trkpt lat="44.13248" lon="12.0040183"><ele>256.0</ele><time>2026-04-09T13:28:07.211Z</time></trkpt><trkpt lat="44.1326067" lon="12.0040383"><ele>256.0</ele><time>2026-04-09T13:28:08.211Z</time></trkpt><trkpt lat="44.132725" lon="12.0040417"><ele>255.5</ele><time>2026-04-09T13:28:09.211Z</time></trkpt><trkpt lat="44.13284" lon="12.0040483"><ele>255.0</ele><time>2026-04-09T13:28:10.212Z</time></trkpt><trkpt lat="44.1329533" lon="12.00406"><ele>254.5</ele><time>2026-04-09T13:28:11.211Z</time></trkpt><trkpt lat="44.1330683" lon="12.00407"><ele>254.0</ele><time>2026-04-09T13:28:12.211Z</time></trkpt><trkpt lat="44.1331767" lon="12.004085"><ele>255.25</ele><time>2026-04-09T13:28:13.211Z</time></trkpt><trkpt lat="44.1332917" lon="12.004115"><ele>256.5</ele><time>2026-04-09T13:28:14.211Z</time></trkpt><trkpt lat="44.1334083" lon="12.00413"><ele>257.75</ele><time>2026-04-09T13:28:15.211Z</time></trkpt><trkpt lat="44.1335283" lon="12.004145"><ele>259.0</ele><time>2026-04-09T13:28:16.211Z</time></trkpt><trkpt lat="44.1336517" lon="12.0041683"><ele>259.0</ele><time>2026-04-09T13:28:17.211Z</time></trkpt><trkpt lat="44.133775" lon="12.0041867"><ele>259.0</ele><time>2026-04-09T13:28:18.211Z</time></trkpt><trkpt lat="44.1339083" lon="12.0042067"><ele>259.0</ele><time>2026-04-09T13:28:19.211Z</time></trkpt><trkpt lat="44.13405" lon="12.0042317"><ele>259.0</ele><time>2026-04-09T13:28:20.211Z</time></trkpt><trkpt lat="44.1341767" lon="12.00426"><ele>257.0</ele><time>2026-04-09T13:28:21.211Z</time></trkpt><trkpt lat="44.1343067" lon="12.0042883"><ele>255.0</ele><time>2026-04-09T13:28:22.211Z</time></trkpt><trkpt lat="44.1344367" lon="12.004315"><ele>253.0</ele><time>2026-04-09T13:28:23.211Z</time></trkpt><trkpt lat="44.1345667" lon="12.0043483"><ele>251.0</ele><time>2026-04-09T13:28:24.211Z</time></trkpt><trkpt lat="44.1346933" lon="12.0043667"><ele>251.0</ele><time>2026-04-09T13:28:25.212Z</time></trkpt><trkpt lat="44.1348283" lon="12.0043833"><ele>251.0</ele><time>2026-04-09T13:28:26.211Z</time></trkpt><trkpt lat="44.1349633" lon="12.0044117"><ele>251.0</ele><time>2026-04-09T13:28:27.212Z</time></trkpt><trkpt lat="44.1351067" lon="12.0044383"><ele>251.0</ele><time>2026-04-09T13:28:28.211Z</time></trkpt><trkpt lat="44.135245" lon="12.0044433"><ele>250.0</ele><time>2026-04-09T13:28:29.211Z</time></trkpt><trkpt lat="44.135385" lon="12.0044733"><ele>249.0</ele><time>2026-04-09T13:28:30.211Z</time></trkpt><trkpt lat="44.1355233" lon="12.0044983"><ele>248.0</ele><time>2026-04-09T13:28:31.211Z</time></trkpt><trkpt lat="44.135655" lon="12.0045217"><ele>247.0</ele><time>2026-04-09T13:28:32.211Z</time></trkpt><trkpt lat="44.1357967" lon="12.0045517"><ele>246.25</ele><time>2026-04-09T13:28:33.211Z</time></trkpt><trkpt lat="44.135925" lon="12.004575"><ele>245.5</ele><time>2026-04-09T13:28:34.211Z</time></trkpt><trkpt lat="44.13605" lon="12.0046"><ele>244.75</ele><time>2026-04-09T13:28:35.211Z</time></trkpt><trkpt lat="44.136175" lon="12.0046217"><ele>244.0</ele><time>2026-04-09T13:28:36.211Z</time></trkpt><trkpt lat="44.1362967" lon="12.0046333"><ele>244.0</ele><time>2026-04-09T13:28:37.211Z</time></trkpt><trkpt lat="44.13642" lon="12.0046467"><ele>244.0</ele><time>2026-04-09T13:28:38.211Z</time></trkpt><trkpt lat="44.1365383" lon="12.0046733"><ele>244.0</ele><time>2026-04-09T13:28:39.211Z</time></trkpt><trkpt lat="44.1366583" lon="12.0047"><ele>244.0</ele><time>2026-04-09T13:28:40.211Z</time></trkpt><trkpt lat="44.136775" lon="12.00471"><ele>242.6</ele><time>2026-04-09T13:28:41.211Z</time></trkpt><trkpt lat="44.1368917" lon="12.0047117"><ele>241.2</ele><time>2026-04-09T13:28:42.211Z</time></trkpt><trkpt lat="44.1369967" lon="12.0047367"><ele>239.79999999999998</ele><time>2026-04-09T13:28:43.211Z</time></trkpt><trkpt lat="44.1371067" lon="12.00476"><ele>238.39999999999998</ele><time>2026-04-09T13:28:44.211Z</time></trkpt><trkpt lat="44.13722" lon="12.0047717"><ele>237.0</ele><time>2026-04-09T13:28:45.211Z</time></trkpt><trkpt lat="44.1373283" lon="12.0047783"><ele>236.25</ele><time>2026-04-09T13:28:46.211Z</time></trkpt><trkpt lat="44.1374367" lon="12.0047883"><ele>235.5</ele><time>2026-04-09T13:28:47.211Z</time></trkpt><trkpt lat="44.13755" lon="12.0048033"><ele>234.75</ele><time>2026-04-09T13:28:48.211Z</time></trkpt><trkpt lat="44.1376667" lon="12.0048133"><ele>234.0</ele><time>2026-04-09T13:28:49.211Z</time></trkpt><trkpt lat="44.1377917" lon="12.004825"><ele>234.0</ele><time>2026-04-09T13:28:50.211Z</time></trkpt><trkpt lat="44.137915" lon="12.0048417"><ele>234.0</ele><time>2026-04-09T13:28:51.211Z</time></trkpt><trkpt lat="44.1380383" lon="12.0048483"><ele>234.0</ele><time>2026-04-09T13:28:52.211Z</time></trkpt><trkpt lat="44.138165" lon="12.0048567"><ele>234.0</ele><time>2026-04-09T13:28:53.211Z</time></trkpt><trkpt lat="44.1382967" lon="12.0048717"><ele>232.5</ele><time>2026-04-09T13:28:54.211Z</time></trkpt><trkpt lat="44.13843" lon="12.0048733"><ele>231.0</ele><time>2026-04-09T13:28:55.211Z</time></trkpt><trkpt lat="44.1385567" lon="12.0048783"><ele>229.5</ele><time>2026-04-09T13:28:56.211Z</time></trkpt><trkpt lat="44.1386783" lon="12.004885"><ele>228.0</ele><time>2026-04-09T13:28:57.211Z</time></trkpt><trkpt lat="44.1387983" lon="12.0049067"><ele>228.0</ele><time>2026-04-09T13:28:58.211Z</time></trkpt><trkpt lat="44.1389183" lon="12.0049383"><ele>228.0</ele><time>2026-04-09T13:28:59.211Z</time></trkpt><trkpt lat="44.1390283" lon="12.00499"><ele>228.0</ele><time>2026-04-09T13:29:00.211Z</time></trkpt><trkpt lat="44.1391333" lon="12.00506"><ele>228.0</ele><time>2026-04-09T13:29:01.211Z</time></trkpt><trkpt lat="44.1392433" lon="12.005135"><ele>227.5</ele><time>2026-04-09T13:29:02.211Z</time></trkpt><trkpt lat="44.1393467" lon="12.0052017"><ele>227.0</ele><time>2026-04-09T13:29:03.211Z</time></trkpt><trkpt lat="44.1394483" lon="12.0052683"><ele>226.5</ele><time>2026-04-09T13:29:04.211Z</time></trkpt><trkpt lat="44.139555" lon="12.0053433"><ele>226.0</ele><time>2026-04-09T13:29:05.211Z</time></trkpt><trkpt lat="44.1396617" lon="12.005415"><ele>226.0</ele><time>2026-04-09T13:29:06.211Z</time></trkpt><trkpt lat="44.13977" lon="12.0054783"><ele>226.0</ele><time>2026-04-09T13:29:07.211Z</time></trkpt><trkpt lat="44.139875" lon="12.005545"><ele>226.0</ele><time>2026-04-09T13:29:08.211Z</time></trkpt><trkpt lat="44.1399717" lon="12.005605"><ele>226.0</ele><time>2026-04-09T13:29:09.211Z</time></trkpt><trkpt lat="44.1400783" lon="12.00567"><ele>224.0</ele><time>2026-04-09T13:29:10.211Z</time></trkpt><trkpt lat="44.140185" lon="12.0057367"><ele>222.0</ele><time>2026-04-09T13:29:11.211Z</time></trkpt><trkpt lat="44.1402883" lon="12.005805"><ele>220.0</ele><time>2026-04-09T13:29:12.211Z</time></trkpt><trkpt lat="44.1404" lon="12.0058783"><ele>218.0</ele><time>2026-04-09T13:29:13.211Z</time></trkpt><trkpt lat="44.14051" lon="12.0059483"><ele>218.0</ele><time>2026-04-09T13:29:14.211Z</time></trkpt><trkpt lat="44.14062" lon="12.0060217"><ele>218.0</ele><time>2026-04-09T13:29:15.211Z</time></trkpt><trkpt lat="44.1407283" lon="12.0060967"><ele>218.0</ele><time>2026-04-09T13:29:16.211Z</time></trkpt><trkpt lat="44.1408433" lon="12.0061767"><ele>218.0</ele><time>2026-04-09T13:29:17.211Z</time></trkpt><trkpt lat="44.1409517" lon="12.00626"><ele>218.0</ele><time>2026-04-09T13:29:18.211Z</time></trkpt><trkpt lat="44.1410583" lon="12.0063417"><ele>218.0</ele><time>2026-04-09T13:29:19.211Z</time></trkpt><trkpt lat="44.14116" lon="12.0064267"><ele>218.0</ele><time>2026-04-09T13:29:20.211Z</time></trkpt><trkpt lat="44.1412633" lon="12.00651"><ele>218.0</ele><time>2026-04-09T13:29:21.211Z</time></trkpt><trkpt lat="44.1413583" lon="12.0065883"><ele>218.0</ele><time>2026-04-09T13:29:22.211Z</time></trkpt><trkpt lat="44.14144" lon="12.0066583"><ele>218.0</ele><time>2026-04-09T13:29:23.211Z</time></trkpt><trkpt lat="44.1415233" lon="12.0067317"><ele>218.0</ele><time>2026-04-09T13:29:24.211Z</time></trkpt><trkpt lat="44.1416033" lon="12.0068"><ele>218.0</ele><time>2026-04-09T13:29:25.211Z</time></trkpt><trkpt lat="44.1416833" lon="12.00687"><ele>218.0</ele><time>2026-04-09T13:29:26.211Z</time></trkpt><trkpt lat="44.14176" lon="12.0069467"><ele>216.83333333333334</ele><time>2026-04-09T13:29:27.211Z</time></trkpt><trkpt lat="44.1418233" lon="12.0070217"><ele>215.66666666666669</ele><time>2026-04-09T13:29:28.211Z</time></trkpt><trkpt lat="44.1418833" lon="12.0071117"><ele>214.5</ele><time>2026-04-09T13:29:29.211Z</time></trkpt><trkpt lat="44.1419317" lon="12.0072033"><ele>213.33333333333331</ele><time>2026-04-09T13:29:30.211Z</time></trkpt><trkpt lat="44.1419767" lon="12.0072967"><ele>212.16666666666666</ele><time>2026-04-09T13:29:31.211Z</time></trkpt><trkpt lat="44.1420117" lon="12.0073883"><ele>211.0</ele><time>2026-04-09T13:29:32.211Z</time></trkpt><trkpt lat="44.14204" lon="12.0074833"><ele>210.66666666666666</ele><time>2026-04-09T13:29:33.211Z</time></trkpt><trkpt lat="44.14206" lon="12.0076367"><ele>210.33333333333331</ele><time>2026-04-09T13:29:35.211Z</time></trkpt><trkpt lat="44.1420567" lon="12.0077467"><ele>210.0</ele><time>2026-04-09T13:29:37.211Z</time></trkpt><trkpt lat="44.142055" lon="12.007845"><ele>209.66666666666669</ele><time>2026-04-09T13:29:39.211Z</time></trkpt><trkpt lat="44.1420467" lon="12.0079533"><ele>209.33333333333334</ele><time>2026-04-09T13:29:42.211Z</time></trkpt><trkpt lat="44.142045" lon="12.00806"><ele>209.0</ele><time>2026-04-09T13:29:45.211Z</time></trkpt><trkpt lat="44.1420483" lon="12.0081583"><ele>209.00000000000003</ele><time>2026-04-09T13:29:48.211Z</time></trkpt><trkpt lat="44.1420517" lon="12.0082517"><ele>209.0</ele><time>2026-04-09T13:29:51.211Z</time></trkpt><trkpt lat="44.1420533" lon="12.0083533"><ele>209.0</ele><time>2026-04-09T13:29:54.211Z</time></trkpt><trkpt lat="44.142045" lon="12.0084617"><ele>209.0</ele><time>2026-04-09T13:29:57.211Z</time></trkpt><trkpt lat="44.142045" lon="12.0085767"><ele>209.00000000000003</ele><time>2026-04-09T13:30:00.211Z</time></trkpt><trkpt lat="44.1420683" lon="12.0086917"><ele>209.0</ele><time>2026-04-09T13:30:03.211Z</time></trkpt><trkpt lat="44.142085" lon="12.008815"><ele>208.66666666666669</ele><time>2026-04-09T13:30:06.211Z</time></trkpt><trkpt lat="44.1421233" lon="12.0089083"><ele>208.33333333333334</ele><time>2026-04-09T13:30:09.211Z</time></trkpt><trkpt lat="44.1421733" lon="12.0089817"><ele>208.0</ele><time>2026-04-09T13:30:11.211Z</time></trkpt><trkpt lat="44.1422233" lon="12.0090483"><ele>207.66666666666669</ele><time>2026-04-09T13:30:13.211Z</time></trkpt><trkpt lat="44.142275" lon="12.0091367"><ele>207.33333333333334</ele><time>2026-04-09T13:30:15.211Z</time></trkpt><trkpt lat="44.1423233" lon="12.0092167"><ele>207.0</ele><time>2026-04-09T13:30:17.211Z</time></trkpt><trkpt lat="44.142385" lon="12.0093017"><ele>209.8</ele><time>2026-04-09T13:30:19.211Z</time></trkpt><trkpt lat="44.1424633" lon="12.0094"><ele>212.6</ele><time>2026-04-09T13:30:21.211Z</time></trkpt><trkpt lat="44.1425583" lon="12.009505"><ele>215.40000000000003</ele><time>2026-04-09T13:30:23.211Z</time></trkpt><trkpt lat="44.142655" lon="12.0096117"><ele>218.20000000000002</ele><time>2026-04-09T13:30:25.211Z</time></trkpt><trkpt lat="44.14271" lon="12.009675"><ele>221.0</ele><time>2026-04-09T13:30:26.211Z</time></trkpt><trkpt lat="44.14276" lon="12.0097383"><ele>221.00000000000003</ele><time>2026-04-09T13:30:27.211Z</time></trkpt><trkpt lat="44.14281" lon="12.0097967"><ele>221.0</ele><time>2026-04-09T13:30:28.211Z</time></trkpt><trkpt lat="44.1429083" lon="12.00992"><ele>221.0</ele><time>2026-04-09T13:30:30.211Z</time></trkpt><trkpt lat="44.1429583" lon="12.0099783"><ele>221.0</ele><time>2026-04-09T13:30:31.211Z</time></trkpt><trkpt lat="44.14301" lon="12.0100417"><ele>221.00000000000003</ele><time>2026-04-09T13:30:32.211Z</time></trkpt><trkpt lat="44.1430617" lon="12.0101033"><ele>221.0</ele><time>2026-04-09T13:30:33.211Z</time></trkpt><trkpt lat="44.1431167" lon="12.0101633"><ele>219.66666666666669</ele><time>2026-04-09T13:30:34.211Z</time></trkpt><trkpt lat="44.14317" lon="12.010225"><ele>218.33333333333334</ele><time>2026-04-09T13:30:35.211Z</time></trkpt><trkpt lat="44.14322" lon="12.0102817"><ele>217.0</ele><time>2026-04-09T13:30:36.211Z</time></trkpt><trkpt lat="44.143275" lon="12.0103367"><ele>215.66666666666669</ele><time>2026-04-09T13:30:37.211Z</time></trkpt><trkpt lat="44.1433283" lon="12.0104017"><ele>214.33333333333334</ele><time>2026-04-09T13:30:38.211Z</time></trkpt><trkpt lat="44.14341" lon="12.0105217"><ele>213.0</ele><time>2026-04-09T13:30:40.211Z</time></trkpt><trkpt lat="44.1435" lon="12.0106283"><ele>213.0</ele><time>2026-04-09T13:30:42.211Z</time></trkpt><trkpt lat="44.14358" lon="12.0107117"><ele>213.0</ele><time>2026-04-09T13:30:44.211Z</time></trkpt><trkpt lat="44.1436383" lon="12.0107883"><ele>213.0</ele><time>2026-04-09T13:30:46.211Z</time></trkpt><trkpt lat="44.1436983" lon="12.0108533"><ele>213.0</ele><time>2026-04-09T13:30:48.211Z</time></trkpt><trkpt lat="44.1437467" lon="12.010915"><ele>213.0</ele><time>2026-04-09T13:30:50.211Z</time></trkpt><trkpt lat="44.1438017" lon="12.011"><ele>213.0</ele><time>2026-04-09T13:30:53.211Z</time></trkpt><trkpt lat="44.1438567" lon="12.011075"><ele>212.5</ele><time>2026-04-09T13:30:56.211Z</time></trkpt><trkpt lat="44.1439133" lon="12.0111567"><ele>212.0</ele><time>2026-04-09T13:31:00.211Z</time></trkpt><trkpt lat="44.1439733" lon="12.0112333"><ele>211.5</ele><time>2026-04-09T13:31:04.211Z</time></trkpt><trkpt lat="44.1440117" lon="12.011325"><ele>211.0</ele><time>2026-04-09T13:31:08.211Z</time></trkpt><trkpt lat="44.144045" lon="12.01143"><ele>210.5</ele><time>2026-04-09T13:31:12.211Z</time></trkpt><trkpt lat="44.1440717" lon="12.01152"><ele>210.0</ele><time>2026-04-09T13:31:15.211Z</time></trkpt><trkpt lat="44.144085" lon="12.0116117"><ele>209.57142857142858</ele><time>2026-04-09T13:31:18.211Z</time></trkpt><trkpt lat="44.1440833" lon="12.0117017"><ele>209.14285714285714</ele><time>2026-04-09T13:31:21.211Z</time></trkpt><trkpt lat="44.1440717" lon="12.0118033"><ele>208.71428571428572</ele><time>2026-04-09T13:31:25.211Z</time></trkpt><trkpt lat="44.1440567" lon="12.0119083"><ele>208.28571428571428</ele><time>2026-04-09T13:31:29.211Z</time></trkpt><trkpt lat="44.1440433" lon="12.012005"><ele>207.85714285714286</ele><time>2026-04-09T13:31:33.211Z</time></trkpt><trkpt lat="44.1440317" lon="12.012115"><ele>207.42857142857144</ele><time>2026-04-09T13:31:37.211Z</time></trkpt><trkpt lat="44.1440117" lon="12.0122083"><ele>207.0</ele><time>2026-04-09T13:31:41.211Z</time></trkpt><trkpt lat="44.1440033" lon="12.0123017"><ele>207.0</ele><time>2026-04-09T13:31:45.211Z</time></trkpt><trkpt lat="44.144005" lon="12.012415"><ele>207.0</ele><time>2026-04-09T13:31:49.211Z</time></trkpt><trkpt lat="44.1439917" lon="12.0125167"><ele>207.0</ele><time>2026-04-09T13:31:53.211Z</time></trkpt><trkpt lat="44.14398" lon="12.0126333"><ele>207.0</ele><time>2026-04-09T13:31:57.211Z</time></trkpt><trkpt lat="44.143985" lon="12.0127433"><ele>207.0</ele><time>2026-04-09T13:32:01.211Z</time></trkpt><trkpt lat="44.1439883" lon="12.0128383"><ele>207.0</ele><time>2026-04-09T13:32:05.211Z</time></trkpt><trkpt lat="44.1440067" lon="12.0129267"><ele>208.5</ele><time>2026-04-09T13:32:08.211Z</time></trkpt><trkpt lat="44.144025" lon="12.013035"><ele>210.0</ele><time>2026-04-09T13:32:12.211Z</time></trkpt><trkpt lat="44.1440467" lon="12.0131367"><ele>211.5</ele><time>2026-04-09T13:32:16.211Z</time></trkpt><trkpt lat="44.14409" lon="12.0132367"><ele>213.0</ele><time>2026-04-09T13:32:20.211Z</time></trkpt><trkpt lat="44.1441317" lon="12.0133183"><ele>214.5</ele><time>2026-04-09T13:32:23.211Z</time></trkpt><trkpt lat="44.14417" lon="12.013405"><ele>216.0</ele><time>2026-04-09T13:32:26.211Z</time></trkpt><trkpt lat="44.1442083" lon="12.0135"><ele>220.0</ele><time>2026-04-09T13:32:29.211Z</time></trkpt><trkpt lat="44.1442533" lon="12.01359"><ele>224.0</ele><time>2026-04-09T13:32:32.211Z</time></trkpt><trkpt lat="44.1443067" lon="12.0136833"><ele>228.0</ele><time>2026-04-09T13:32:35.211Z</time></trkpt><trkpt lat="44.1443567" lon="12.013765"><ele>232.0</ele><time>2026-04-09T13:32:38.211Z</time></trkpt><trkpt lat="44.144405" lon="12.013845"><ele>236.0</ele><time>2026-04-09T13:32:41.211Z</time></trkpt><trkpt lat="44.144455" lon="12.01393"><ele>240.0</ele><time>2026-04-09T13:32:44.211Z</time></trkpt><trkpt lat="44.1445267" lon="12.01411"><ele>238.33333333333334</ele><time>2026-04-09T13:32:52.212Z</time></trkpt><trkpt lat="44.1445783" lon="12.014185"><ele>236.66666666666669</ele><time>2026-04-09T13:32:54.212Z</time></trkpt><trkpt lat="44.144635" lon="12.0142783"><ele>235.0</ele><time>2026-04-09T13:32:56.212Z</time></trkpt><trkpt lat="44.14469" lon="12.014375"><ele>233.33333333333334</ele><time>2026-04-09T13:32:58.212Z</time></trkpt><trkpt lat="44.1447333" lon="12.0144533"><ele>231.66666666666669</ele><time>2026-04-09T13:33:00.212Z</time></trkpt><trkpt lat="44.1447683" lon="12.0145267"><ele>230.0</ele><time>2026-04-09T13:33:02.212Z</time></trkpt><trkpt lat="44.1448167" lon="12.0146317"><ele>233.16666666666669</ele><time>2026-04-09T13:33:05.212Z</time></trkpt><trkpt lat="44.1448883" lon="12.014725"><ele>236.33333333333334</ele><time>2026-04-09T13:33:08.212Z</time></trkpt><trkpt lat="44.1449433" lon="12.0147817"><ele>239.5</ele><time>2026-04-09T13:33:10.212Z</time></trkpt><trkpt lat="44.1450033" lon="12.0148383"><ele>242.66666666666669</ele><time>2026-04-09T13:33:12.212Z</time></trkpt><trkpt lat="44.1450717" lon="12.0148817"><ele>245.83333333333334</ele><time>2026-04-09T13:33:14.212Z</time></trkpt><trkpt lat="44.1451433" lon="12.0149267"><ele>249.0</ele><time>2026-04-09T13:33:16.212Z</time></trkpt><trkpt lat="44.1452183" lon="12.0149583"><ele>249.0</ele><time>2026-04-09T13:33:18.212Z</time></trkpt><trkpt lat="44.1452983" lon="12.0149633"><ele>248.99999999999997</ele><time>2026-04-09T13:33:20.212Z</time></trkpt><trkpt lat="44.1453983" lon="12.01496"><ele>248.99999999999997</ele><time>2026-04-09T13:33:22.212Z</time></trkpt><trkpt lat="44.145505" lon="12.0149367"><ele>249.0</ele><time>2026-04-09T13:33:24.212Z</time></trkpt><trkpt lat="44.1455967" lon="12.0148983"><ele>249.0</ele><time>2026-04-09T13:33:26.212Z</time></trkpt><trkpt lat="44.145695" lon="12.01486"><ele>249.0</ele><time>2026-04-09T13:33:28.212Z</time></trkpt><trkpt lat="44.1458017" lon="12.0148067"><ele>249.0</ele><time>2026-04-09T13:33:30.212Z</time></trkpt><trkpt lat="44.14587" lon="12.0147817"><ele>249.0</ele><time>2026-04-09T13:33:31.212Z</time></trkpt><trkpt lat="44.1459417" lon="12.0147617"><ele>249.0</ele><time>2026-04-09T13:33:32.212Z</time></trkpt><trkpt lat="44.1460117" lon="12.01474"><ele>249.0</ele><time>2026-04-09T13:33:33.212Z</time></trkpt><trkpt lat="44.14608" lon="12.0147117"><ele>249.0</ele><time>2026-04-09T13:33:34.212Z</time></trkpt><trkpt lat="44.1461533" lon="12.014685"><ele>249.0</ele><time>2026-04-09T13:33:35.212Z</time></trkpt><trkpt lat="44.1462333" lon="12.0146517"><ele>249.0</ele><time>2026-04-09T13:33:36.212Z</time></trkpt><trkpt lat="44.146315" lon="12.01462"><ele>249.0</ele><time>2026-04-09T13:33:37.213Z</time></trkpt><trkpt lat="44.1463917" lon="12.0145917"><ele>249.0</ele><time>2026-04-09T13:33:38.212Z</time></trkpt><trkpt lat="44.146475" lon="12.0145683"><ele>249.0</ele><time>2026-04-09T13:33:39.212Z</time></trkpt><trkpt lat="44.146555" lon="12.0145467"><ele>249.0</ele><time>2026-04-09T13:33:40.212Z</time></trkpt><trkpt lat="44.1466333" lon="12.0145283"><ele>248.0</ele><time>2026-04-09T13:33:41.212Z</time></trkpt><trkpt lat="44.1467083" lon="12.014505"><ele>247.0</ele><time>2026-04-09T13:33:42.212Z</time></trkpt><trkpt lat="44.1467783" lon="12.0144833"><ele>246.0</ele><time>2026-04-09T13:33:43.212Z</time></trkpt><trkpt lat="44.1468417" lon="12.01446"><ele>245.0</ele><time>2026-04-09T13:33:44.212Z</time></trkpt><trkpt lat="44.1469033" lon="12.014435"><ele>244.0</ele><time>2026-04-09T13:33:45.213Z</time></trkpt><trkpt lat="44.1470183" lon="12.0143867"><ele>243.0</ele><time>2026-04-09T13:33:47.212Z</time></trkpt><trkpt lat="44.1471283" lon="12.0143317"><ele>243.0</ele><time>2026-04-09T13:33:49.212Z</time></trkpt><trkpt lat="44.1472417" lon="12.01429"><ele>243.0</ele><time>2026-04-09T13:33:51.212Z</time></trkpt><trkpt lat="44.1473533" lon="12.014255"><ele>243.0</ele><time>2026-04-09T13:33:53.212Z</time></trkpt><trkpt lat="44.147465" lon="12.014225"><ele>243.0</ele><time>2026-04-09T13:33:55.212Z</time></trkpt><trkpt lat="44.147565" lon="12.014205"><ele>243.0</ele><time>2026-04-09T13:33:57.212Z</time></trkpt><trkpt lat="44.1476817" lon="12.0142233"><ele>242.2</ele><time>2026-04-09T13:33:59.212Z</time></trkpt><trkpt lat="44.1477833" lon="12.0142733"><ele>241.4</ele><time>2026-04-09T13:34:01.212Z</time></trkpt><trkpt lat="44.1478767" lon="12.01437"><ele>240.59999999999997</ele><time>2026-04-09T13:34:03.212Z</time></trkpt><trkpt lat="44.147975" lon="12.0144867"><ele>239.79999999999998</ele><time>2026-04-09T13:34:05.212Z</time></trkpt><trkpt lat="44.148025" lon="12.0145533"><ele>239.0</ele><time>2026-04-09T13:34:06.212Z</time></trkpt><trkpt lat="44.14808" lon="12.014625"><ele>239.00000000000003</ele><time>2026-04-09T13:34:07.212Z</time></trkpt><trkpt lat="44.1481267" lon="12.0146917"><ele>239.0</ele><time>2026-04-09T13:34:08.212Z</time></trkpt><trkpt lat="44.1481767" lon="12.01477"><ele>239.00000000000003</ele><time>2026-04-09T13:34:09.212Z</time></trkpt><trkpt lat="44.14822" lon="12.0148433"><ele>239.00000000000003</ele><time>2026-04-09T13:34:10.212Z</time></trkpt><trkpt lat="44.1482683" lon="12.0149133"><ele>239.0</ele><time>2026-04-09T13:34:11.212Z</time></trkpt><trkpt lat="44.1483217" lon="12.0149833"><ele>239.00000000000003</ele><time>2026-04-09T13:34:12.212Z</time></trkpt><trkpt lat="44.14837" lon="12.0150533"><ele>239.00000000000003</ele><time>2026-04-09T13:34:13.212Z</time></trkpt><trkpt lat="44.1484217" lon="12.01512"><ele>238.00000000000003</ele><time>2026-04-09T13:34:14.212Z</time></trkpt><trkpt lat="44.1484717" lon="12.0151833"><ele>237.0</ele><time>2026-04-09T13:34:15.212Z</time></trkpt><trkpt lat="44.148525" lon="12.015255"><ele>236.0</ele><time>2026-04-09T13:34:16.212Z</time></trkpt><trkpt lat="44.1485683" lon="12.0153233"><ele>235.0</ele><time>2026-04-09T13:34:17.212Z</time></trkpt><trkpt lat="44.1486183" lon="12.0153833"><ele>234.00000000000003</ele><time>2026-04-09T13:34:18.212Z</time></trkpt><trkpt lat="44.14871" lon="12.015505"><ele>233.0</ele><time>2026-04-09T13:34:20.212Z</time></trkpt><trkpt lat="44.1487933" lon="12.0156317"><ele>233.0</ele><time>2026-04-09T13:34:22.212Z</time></trkpt><trkpt lat="44.148875" lon="12.015745"><ele>233.0</ele><time>2026-04-09T13:34:24.212Z</time></trkpt><trkpt lat="44.1489617" lon="12.015855"><ele>233.0</ele><time>2026-04-09T13:34:26.212Z</time></trkpt><trkpt lat="44.1490583" lon="12.0159383"><ele>233.0</ele><time>2026-04-09T13:34:28.212Z</time></trkpt><trkpt lat="44.1491667" lon="12.0159817"><ele>234.0</ele><time>2026-04-09T13:34:30.212Z</time></trkpt><trkpt lat="44.14928" lon="12.0160067"><ele>235.0</ele><time>2026-04-09T13:34:32.212Z</time></trkpt><trkpt lat="44.1494033" lon="12.0160233"><ele>236.0</ele><time>2026-04-09T13:34:34.212Z</time></trkpt><trkpt lat="44.1495217" lon="12.0160267"><ele>237.0</ele><time>2026-04-09T13:34:36.212Z</time></trkpt><trkpt lat="44.14963" lon="12.0160183"><ele>237.0</ele><time>2026-04-09T13:34:38.212Z</time></trkpt><trkpt lat="44.14973" lon="12.0160117"><ele>237.0</ele><time>2026-04-09T13:34:40.212Z</time></trkpt><trkpt lat="44.1498433" lon="12.0160317"><ele>237.0</ele><time>2026-04-09T13:34:42.212Z</time></trkpt><trkpt lat="44.1499533" lon="12.016065"><ele>237.0</ele><time>2026-04-09T13:34:44.212Z</time></trkpt><trkpt lat="44.1500717" lon="12.0161233"><ele>236.33333333333334</ele><time>2026-04-09T13:34:46.212Z</time></trkpt><trkpt lat="44.1501367" lon="12.0161567"><ele>235.66666666666669</ele><time>2026-04-09T13:34:47.212Z</time></trkpt><trkpt lat="44.15021" lon="12.0161983"><ele>235.0</ele><time>2026-04-09T13:34:48.212Z</time></trkpt><trkpt lat="44.1502883" lon="12.016225"><ele>234.33333333333334</ele><time>2026-04-09T13:34:49.212Z</time></trkpt><trkpt lat="44.1503633" lon="12.0162483"><ele>233.66666666666669</ele><time>2026-04-09T13:34:50.212Z</time></trkpt><trkpt lat="44.15044" lon="12.01627"><ele>233.0</ele><time>2026-04-09T13:34:51.212Z</time></trkpt><trkpt lat="44.1505217" lon="12.016275"><ele>233.0</ele><time>2026-04-09T13:34:52.212Z</time></trkpt><trkpt lat="44.15061" lon="12.0162617"><ele>233.0</ele><time>2026-04-09T13:34:53.212Z</time></trkpt><trkpt lat="44.1507017" lon="12.016245"><ele>233.0</ele><time>2026-04-09T13:34:54.212Z</time></trkpt><trkpt lat="44.1507983" lon="12.0162267"><ele>233.0</ele><time>2026-04-09T13:34:55.212Z</time></trkpt><trkpt lat="44.1508933" lon="12.0161967"><ele>233.0</ele><time>2026-04-09T13:34:56.212Z</time></trkpt><trkpt lat="44.1510017" lon="12.0161717"><ele>231.2</ele><time>2026-04-09T13:34:57.212Z</time></trkpt><trkpt lat="44.1511133" lon="12.01616"><ele>229.4</ele><time>2026-04-09T13:34:58.212Z</time></trkpt><trkpt lat="44.15122" lon="12.0161317"><ele>227.59999999999997</ele><time>2026-04-09T13:34:59.212Z</time></trkpt><trkpt lat="44.15133" lon="12.01611"><ele>225.79999999999998</ele><time>2026-04-09T13:35:00.212Z</time></trkpt><trkpt lat="44.1514233" lon="12.01607"><ele>224.0</ele><time>2026-04-09T13:35:01.212Z</time></trkpt><trkpt lat="44.151505" lon="12.0160567"><ele>223.83333333333334</ele><time>2026-04-09T13:35:02.212Z</time></trkpt><trkpt lat="44.151575" lon="12.016055"><ele>223.66666666666669</ele><time>2026-04-09T13:35:03.212Z</time></trkpt><trkpt lat="44.151665" lon="12.01609"><ele>223.5</ele><time>2026-04-09T13:35:05.212Z</time></trkpt><trkpt lat="44.151685" lon="12.01619"><ele>223.33333333333331</ele><time>2026-04-09T13:35:07.212Z</time></trkpt><trkpt lat="44.151645" lon="12.016305"><ele>223.16666666666666</ele><time>2026-04-09T13:35:09.212Z</time></trkpt><trkpt lat="44.15161" lon="12.0164333"><ele>223.0</ele><time>2026-04-09T13:35:11.212Z</time></trkpt><trkpt lat="44.1515783" lon="12.0165733"><ele>222.2</ele><time>2026-04-09T13:35:13.212Z</time></trkpt><trkpt lat="44.1515467" lon="12.0167267"><ele>221.4</ele><time>2026-04-09T13:35:15.212Z</time></trkpt><trkpt lat="44.151515" lon="12.0168983"><ele>220.59999999999997</ele><time>2026-04-09T13:35:17.212Z</time></trkpt><trkpt lat="44.151485" lon="12.0170617"><ele>219.79999999999998</ele><time>2026-04-09T13:35:19.212Z</time></trkpt><trkpt lat="44.1514733" lon="12.0171483"><ele>219.0</ele><time>2026-04-09T13:35:20.212Z</time></trkpt><trkpt lat="44.15146" lon="12.017235"><ele>220.57142857142858</ele><time>2026-04-09T13:35:21.212Z</time></trkpt><trkpt lat="44.1514433" lon="12.017325"><ele>222.1428571428571</ele><time>2026-04-09T13:35:22.212Z</time></trkpt><trkpt lat="44.1514267" lon="12.0174133"><ele>223.7142857142857</ele><time>2026-04-09T13:35:23.212Z</time></trkpt><trkpt lat="44.1514083" lon="12.0175067"><ele>225.28571428571428</ele><time>2026-04-09T13:35:24.212Z</time></trkpt><trkpt lat="44.151395" lon="12.0176033"><ele>226.85714285714283</ele><time>2026-04-09T13:35:25.212Z</time></trkpt><trkpt lat="44.15138" lon="12.0177"><ele>228.4285714285714</ele><time>2026-04-09T13:35:26.212Z</time></trkpt><trkpt lat="44.1513617" lon="12.0177983"><ele>229.99999999999997</ele><time>2026-04-09T13:35:27.212Z</time></trkpt><trkpt lat="44.15134" lon="12.017895"><ele>230.33333333333334</ele><time>2026-04-09T13:35:28.212Z</time></trkpt><trkpt lat="44.15132" lon="12.01799"><ele>230.66666666666669</ele><time>2026-04-09T13:35:29.212Z</time></trkpt><trkpt lat="44.1512983" lon="12.01809"><ele>231.0</ele><time>2026-04-09T13:35:30.212Z</time></trkpt><trkpt lat="44.151285" lon="12.018185"><ele>231.33333333333331</ele><time>2026-04-09T13:35:31.212Z</time></trkpt><trkpt lat="44.1512767" lon="12.0182733"><ele>231.66666666666666</ele><time>2026-04-09T13:35:32.212Z</time></trkpt><trkpt lat="44.1512767" lon="12.01844"><ele>232.0</ele><time>2026-04-09T13:35:34.212Z</time></trkpt><trkpt lat="44.1512917" lon="12.0185983"><ele>232.0</ele><time>2026-04-09T13:35:36.212Z</time></trkpt><trkpt lat="44.1513083" lon="12.0187567"><ele>232.0</ele><time>2026-04-09T13:35:38.212Z</time></trkpt><trkpt lat="44.1513117" lon="12.0189067"><ele>232.0</ele><time>2026-04-09T13:35:40.212Z</time></trkpt><trkpt lat="44.1513183" lon="12.0190467"><ele>232.0</ele><time>2026-04-09T13:35:42.212Z</time></trkpt><trkpt lat="44.15133" lon="12.0191883"><ele>232.0</ele><time>2026-04-09T13:35:44.212Z</time></trkpt><trkpt lat="44.1513417" lon="12.0193333"><ele>231.99999999999997</ele><time>2026-04-09T13:35:46.212Z</time></trkpt><trkpt lat="44.151335" lon="12.01947"><ele>232.0</ele><time>2026-04-09T13:35:48.212Z</time></trkpt><trkpt lat="44.15132" lon="12.019605"><ele>232.0</ele><time>2026-04-09T13:35:50.212Z</time></trkpt><trkpt lat="44.1512967" lon="12.01976"><ele>232.0</ele><time>2026-04-09T13:35:52.212Z</time></trkpt><trkpt lat="44.151285" lon="12.0198533"><ele>231.99999999999997</ele><time>2026-04-09T13:35:53.212Z</time></trkpt><trkpt lat="44.151275" lon="12.0199517"><ele>232.0</ele><time>2026-04-09T13:35:54.212Z</time></trkpt><trkpt lat="44.1512667" lon="12.0200433"><ele>230.49999999999997</ele><time>2026-04-09T13:35:55.212Z</time></trkpt><trkpt lat="44.151265" lon="12.02014"><ele>229.0</ele><time>2026-04-09T13:35:56.212Z</time></trkpt><trkpt lat="44.151265" lon="12.0202367"><ele>227.5</ele><time>2026-04-09T13:35:57.212Z</time></trkpt><trkpt lat="44.1512567" lon="12.0203367"><ele>226.0</ele><time>2026-04-09T13:35:58.212Z</time></trkpt><trkpt lat="44.1512433" lon="12.02044"><ele>224.49999999999997</ele><time>2026-04-09T13:35:59.212Z</time></trkpt><trkpt lat="44.1512233" lon="12.0205483"><ele>223.0</ele><time>2026-04-09T13:36:00.212Z</time></trkpt><trkpt lat="44.1512" lon="12.020665"><ele>222.99999999999997</ele><time>2026-04-09T13:36:01.212Z</time></trkpt><trkpt lat="44.151175" lon="12.0207833"><ele>223.0</ele><time>2026-04-09T13:36:02.212Z</time></trkpt><trkpt lat="44.151145" lon="12.020895"><ele>223.0</ele><time>2026-04-09T13:36:03.212Z</time></trkpt><trkpt lat="44.1511233" lon="12.0210067"><ele>223.0</ele><time>2026-04-09T13:36:04.212Z</time></trkpt><trkpt lat="44.1511033" lon="12.0211167"><ele>222.99999999999997</ele><time>2026-04-09T13:36:05.212Z</time></trkpt><trkpt lat="44.15109" lon="12.0212283"><ele>223.0</ele><time>2026-04-09T13:36:06.212Z</time></trkpt><trkpt lat="44.1510883" lon="12.0213383"><ele>221.33333333333331</ele><time>2026-04-09T13:36:07.212Z</time></trkpt><trkpt lat="44.1511017" lon="12.021445"><ele>219.66666666666666</ele><time>2026-04-09T13:36:08.212Z</time></trkpt><trkpt lat="44.151125" lon="12.0215467"><ele>218.0</ele><time>2026-04-09T13:36:09.212Z</time></trkpt><trkpt lat="44.1511683" lon="12.0216483"><ele>216.33333333333331</ele><time>2026-04-09T13:36:10.212Z</time></trkpt><trkpt lat="44.151225" lon="12.02175"><ele>214.66666666666666</ele><time>2026-04-09T13:36:11.212Z</time></trkpt><trkpt lat="44.1512783" lon="12.0218583"><ele>213.0</ele><time>2026-04-09T13:36:12.212Z</time></trkpt><trkpt lat="44.15133" lon="12.0219767"><ele>211.0</ele><time>2026-04-09T13:36:13.212Z</time></trkpt><trkpt lat="44.15138" lon="12.0220933"><ele>209.0</ele><time>2026-04-09T13:36:14.212Z</time></trkpt><trkpt lat="44.1514467" lon="12.022215"><ele>207.0</ele><time>2026-04-09T13:36:15.212Z</time></trkpt><trkpt lat="44.1515117" lon="12.0223367"><ele>205.0</ele><time>2026-04-09T13:36:16.212Z</time></trkpt><trkpt lat="44.1515767" lon="12.0224567"><ele>203.0</ele><time>2026-04-09T13:36:17.212Z</time></trkpt><trkpt lat="44.151645" lon="12.0225967"><ele>201.0</ele><time>2026-04-09T13:36:18.212Z</time></trkpt><trkpt lat="44.1517283" lon="12.0227433"><ele>199.0</ele><time>2026-04-09T13:36:19.212Z</time></trkpt><trkpt lat="44.1518033" lon="12.0228917"><ele>197.0</ele><time>2026-04-09T13:36:20.212Z</time></trkpt><trkpt lat="44.15188" lon="12.0230417"><ele>195.0</ele><time>2026-04-09T13:36:21.212Z</time></trkpt><trkpt lat="44.151965" lon="12.0231983"><ele>192.5</ele><time>2026-04-09T13:36:22.212Z</time></trkpt><trkpt lat="44.1520383" lon="12.0233617"><ele>190.0</ele><time>2026-04-09T13:36:23.212Z</time></trkpt><trkpt lat="44.152105" lon="12.023525"><ele>187.5</ele><time>2026-04-09T13:36:24.212Z</time></trkpt><trkpt lat="44.152185" lon="12.0236883"><ele>185.0</ele><time>2026-04-09T13:36:25.212Z</time></trkpt><trkpt lat="44.1522467" lon="12.0238433"><ele>185.0</ele><time>2026-04-09T13:36:26.212Z</time></trkpt><trkpt lat="44.15231" lon="12.0239833"><ele>185.0</ele><time>2026-04-09T13:36:27.212Z</time></trkpt><trkpt lat="44.1523733" lon="12.024115"><ele>185.0</ele><time>2026-04-09T13:36:28.212Z</time></trkpt><trkpt lat="44.1524283" lon="12.0242367"><ele>185.0</ele><time>2026-04-09T13:36:29.212Z</time></trkpt><trkpt lat="44.15248" lon="12.0243533"><ele>185.0</ele><time>2026-04-09T13:36:30.212Z</time></trkpt><trkpt lat="44.1525233" lon="12.02446"><ele>185.16666666666666</ele><time>2026-04-09T13:36:31.212Z</time></trkpt><trkpt lat="44.15257" lon="12.0245617"><ele>185.33333333333331</ele><time>2026-04-09T13:36:32.212Z</time></trkpt><trkpt lat="44.1526117" lon="12.0246583"><ele>185.5</ele><time>2026-04-09T13:36:33.212Z</time></trkpt><trkpt lat="44.1526533" lon="12.0247617"><ele>185.66666666666666</ele><time>2026-04-09T13:36:34.212Z</time></trkpt><trkpt lat="44.152695" lon="12.0248683"><ele>185.83333333333334</ele><time>2026-04-09T13:36:35.212Z</time></trkpt><trkpt lat="44.1527367" lon="12.0249733"><ele>186.0</ele><time>2026-04-09T13:36:36.212Z</time></trkpt><trkpt lat="44.1527817" lon="12.0250817"><ele>184.60000000000002</ele><time>2026-04-09T13:36:37.212Z</time></trkpt><trkpt lat="44.1528267" lon="12.0251867"><ele>183.2</ele><time>2026-04-09T13:36:38.212Z</time></trkpt><trkpt lat="44.1528733" lon="12.0252883"><ele>181.8</ele><time>2026-04-09T13:36:39.212Z</time></trkpt><trkpt lat="44.15292" lon="12.0254017"><ele>180.39999999999998</ele><time>2026-04-09T13:36:40.212Z</time></trkpt><trkpt lat="44.1529683" lon="12.0255133"><ele>179.0</ele><time>2026-04-09T13:36:41.213Z</time></trkpt><trkpt lat="44.1530183" lon="12.0256283"><ele>179.0</ele><time>2026-04-09T13:36:42.212Z</time></trkpt><trkpt lat="44.1530683" lon="12.0257433"><ele>179.0</ele><time>2026-04-09T13:36:43.212Z</time></trkpt><trkpt lat="44.1531183" lon="12.0258633"><ele>179.0</ele><time>2026-04-09T13:36:44.212Z</time></trkpt><trkpt lat="44.153155" lon="12.0259767"><ele>179.0</ele><time>2026-04-09T13:36:45.212Z</time></trkpt><trkpt lat="44.1531967" lon="12.0260817"><ele>179.0</ele><time>2026-04-09T13:36:46.212Z</time></trkpt><trkpt lat="44.1532333" lon="12.0261967"><ele>179.0</ele><time>2026-04-09T13:36:47.212Z</time></trkpt><trkpt lat="44.1532683" lon="12.026325"><ele>179.0</ele><time>2026-04-09T13:36:48.212Z</time></trkpt><trkpt lat="44.1533" lon="12.0264567"><ele>179.0</ele><time>2026-04-09T13:36:49.212Z</time></trkpt><trkpt lat="44.1533333" lon="12.0265833"><ele>179.0</ele><time>2026-04-09T13:36:50.212Z</time></trkpt><trkpt lat="44.153365" lon="12.0267083"><ele>179.0</ele><time>2026-04-09T13:36:51.212Z</time></trkpt><trkpt lat="44.1533967" lon="12.0268367"><ele>179.0</ele><time>2026-04-09T13:36:52.212Z</time></trkpt><trkpt lat="44.15343" lon="12.0269733"><ele>179.0</ele><time>2026-04-09T13:36:53.212Z</time></trkpt><trkpt lat="44.1534583" lon="12.0271033"><ele>179.0</ele><time>2026-04-09T13:36:54.212Z</time></trkpt><trkpt lat="44.1534917" lon="12.0272317"><ele>179.0</ele><time>2026-04-09T13:36:55.213Z</time></trkpt><trkpt lat="44.153525" lon="12.0273583"><ele>179.0</ele><time>2026-04-09T13:36:56.213Z</time></trkpt><trkpt lat="44.1535567" lon="12.0274767"><ele>177.79999999999998</ele><time>2026-04-09T13:36:57.212Z</time></trkpt><trkpt lat="44.1535917" lon="12.0275917"><ele>176.6</ele><time>2026-04-09T13:36:58.212Z</time></trkpt><trkpt lat="44.1536283" lon="12.0277083"><ele>175.4</ele><time>2026-04-09T13:36:59.212Z</time></trkpt><trkpt lat="44.1536617" lon="12.027825"><ele>174.2</ele><time>2026-04-09T13:37:00.212Z</time></trkpt><trkpt lat="44.1536883" lon="12.0279417"><ele>173.0</ele><time>2026-04-09T13:37:01.212Z</time></trkpt><trkpt lat="44.1537233" lon="12.028065"><ele>173.0</ele><time>2026-04-09T13:37:02.212Z</time></trkpt><trkpt lat="44.15376" lon="12.0281867"><ele>173.0</ele><time>2026-04-09T13:37:03.212Z</time></trkpt><trkpt lat="44.1537867" lon="12.0283083"><ele>173.0</ele><time>2026-04-09T13:37:04.212Z</time></trkpt><trkpt lat="44.1538133" lon="12.0284333"><ele>173.0</ele><time>2026-04-09T13:37:05.212Z</time></trkpt><trkpt lat="44.1538467" lon="12.02855"><ele>173.0</ele><time>2026-04-09T13:37:06.212Z</time></trkpt><trkpt lat="44.1538767" lon="12.0286733"><ele>173.2</ele><time>2026-04-09T13:37:07.212Z</time></trkpt><trkpt lat="44.1539083" lon="12.0287967"><ele>173.4</ele><time>2026-04-09T13:37:08.212Z</time></trkpt><trkpt lat="44.1539367" lon="12.0289217"><ele>173.6</ele><time>2026-04-09T13:37:09.212Z</time></trkpt><trkpt lat="44.1539717" lon="12.0290483"><ele>173.79999999999998</ele><time>2026-04-09T13:37:10.212Z</time></trkpt><trkpt lat="44.154005" lon="12.0291783"><ele>174.0</ele><time>2026-04-09T13:37:11.212Z</time></trkpt><trkpt lat="44.1540417" lon="12.0293083"><ele>174.0</ele><time>2026-04-09T13:37:12.212Z</time></trkpt><trkpt lat="44.1540733" lon="12.0294317"><ele>174.0</ele><time>2026-04-09T13:37:13.212Z</time></trkpt><trkpt lat="44.154105" lon="12.029555"><ele>174.0</ele><time>2026-04-09T13:37:14.212Z</time></trkpt><trkpt lat="44.154135" lon="12.0296817"><ele>174.0</ele><time>2026-04-09T13:37:15.212Z</time></trkpt><trkpt lat="44.1541683" lon="12.02981"><ele>174.0</ele><time>2026-04-09T13:37:16.212Z</time></trkpt><trkpt lat="44.1541967" lon="12.0299367"><ele>173.39999999999998</ele><time>2026-04-09T13:37:17.212Z</time></trkpt><trkpt lat="44.1542233" lon="12.03006"><ele>172.8</ele><time>2026-04-09T13:37:18.212Z</time></trkpt><trkpt lat="44.1542483" lon="12.0301683"><ele>172.2</ele><time>2026-04-09T13:37:19.212Z</time></trkpt><trkpt lat="44.154275" lon="12.030255"><ele>171.60000000000002</ele><time>2026-04-09T13:37:20.212Z</time></trkpt><trkpt lat="44.15436" lon="12.0303733"><ele>171.0</ele><time>2026-04-09T13:37:22.212Z</time></trkpt><trkpt lat="44.1544817" lon="12.03039"><ele>171.0</ele><time>2026-04-09T13:37:24.212Z</time></trkpt><trkpt lat="44.1545983" lon="12.0303267"><ele>171.0</ele><time>2026-04-09T13:37:26.212Z</time></trkpt><trkpt lat="44.1546567" lon="12.0302917"><ele>171.0</ele><time>2026-04-09T13:37:27.212Z</time></trkpt><trkpt lat="44.1547767" lon="12.0302317"><ele>171.0</ele><time>2026-04-09T13:37:29.212Z</time></trkpt><trkpt lat="44.15485" lon="12.0302033"><ele>171.0</ele><time>2026-04-09T13:37:30.212Z</time></trkpt><trkpt lat="44.1549133" lon="12.03017"><ele>170.4</ele><time>2026-04-09T13:37:31.212Z</time></trkpt><trkpt lat="44.1549733" lon="12.0301383"><ele>169.8</ele><time>2026-04-09T13:37:32.212Z</time></trkpt><trkpt lat="44.1550767" lon="12.0301283"><ele>169.20000000000002</ele><time>2026-04-09T13:37:34.212Z</time></trkpt><trkpt lat="44.1551517" lon="12.0301933"><ele>168.60000000000002</ele><time>2026-04-09T13:37:36.212Z</time></trkpt><trkpt lat="44.155195" lon="12.0303383"><ele>168.0</ele><time>2026-04-09T13:37:38.212Z</time></trkpt><trkpt lat="44.1552117" lon="12.0304917"><ele>168.0</ele><time>2026-04-09T13:37:40.212Z</time></trkpt><trkpt lat="44.1552183" lon="12.03066"><ele>168.0</ele><time>2026-04-09T13:37:42.212Z</time></trkpt><trkpt lat="44.155225" lon="12.030835"><ele>168.0</ele><time>2026-04-09T13:37:44.212Z</time></trkpt><trkpt lat="44.15523" lon="12.0309383"><ele>168.0</ele><time>2026-04-09T13:37:45.212Z</time></trkpt><trkpt lat="44.15523" lon="12.0310367"><ele>168.0</ele><time>2026-04-09T13:37:46.212Z</time></trkpt><trkpt lat="44.1552233" lon="12.031135"><ele>167.71428571428572</ele><time>2026-04-09T13:37:47.212Z</time></trkpt><trkpt lat="44.1552083" lon="12.0312433"><ele>167.42857142857144</ele><time>2026-04-09T13:37:48.212Z</time></trkpt><trkpt lat="44.1551867" lon="12.0313417"><ele>167.14285714285714</ele><time>2026-04-09T13:37:49.212Z</time></trkpt><trkpt lat="44.155155" lon="12.03143"><ele>166.85714285714286</ele><time>2026-04-09T13:37:50.212Z</time></trkpt><trkpt lat="44.1551217" lon="12.03151"><ele>166.57142857142858</ele><time>2026-04-09T13:37:51.212Z</time></trkpt><trkpt lat="44.155085" lon="12.0315933"><ele>166.28571428571428</ele><time>2026-04-09T13:37:52.212Z</time></trkpt><trkpt lat="44.1550483" lon="12.0316783"><ele>166.0</ele><time>2026-04-09T13:37:53.212Z</time></trkpt><trkpt lat="44.1550033" lon="12.03176"><ele>165.33333333333334</ele><time>2026-04-09T13:37:54.212Z</time></trkpt><trkpt lat="44.1549533" lon="12.0318417"><ele>164.66666666666669</ele><time>2026-04-09T13:37:55.212Z</time></trkpt><trkpt lat="44.1549117" lon="12.0319267"><ele>164.0</ele><time>2026-04-09T13:37:56.212Z</time></trkpt><trkpt lat="44.15487" lon="12.03201"><ele>163.33333333333334</ele><time>2026-04-09T13:37:57.212Z</time></trkpt><trkpt lat="44.1548233" lon="12.032105"><ele>162.66666666666666</ele><time>2026-04-09T13:37:58.212Z</time></trkpt><trkpt lat="44.1547783" lon="12.0321967"><ele>162.0</ele><time>2026-04-09T13:37:59.212Z</time></trkpt><trkpt lat="44.154725" lon="12.0322783"><ele>161.33333333333334</ele><time>2026-04-09T13:38:00.212Z</time></trkpt><trkpt lat="44.1546717" lon="12.0323617"><ele>160.66666666666666</ele><time>2026-04-09T13:38:01.212Z</time></trkpt><trkpt lat="44.154615" lon="12.0324433"><ele>160.0</ele><time>2026-04-09T13:38:02.212Z</time></trkpt><trkpt lat="44.1545517" lon="12.0325167"><ele>159.33333333333331</ele><time>2026-04-09T13:38:03.212Z</time></trkpt><trkpt lat="44.1544917" lon="12.0326033"><ele>158.66666666666666</ele><time>2026-04-09T13:38:04.212Z</time></trkpt><trkpt lat="44.1544283" lon="12.0326767"><ele>158.0</ele><time>2026-04-09T13:38:05.212Z</time></trkpt><trkpt lat="44.154375" lon="12.0327567"><ele>156.83333333333331</ele><time>2026-04-09T13:38:06.212Z</time></trkpt><trkpt lat="44.1543267" lon="12.032845"><ele>155.66666666666666</ele><time>2026-04-09T13:38:07.212Z</time></trkpt><trkpt lat="44.1542783" lon="12.03293"><ele>154.5</ele><time>2026-04-09T13:38:08.212Z</time></trkpt><trkpt lat="44.154225" lon="12.0330167"><ele>153.33333333333334</ele><time>2026-04-09T13:38:09.212Z</time></trkpt><trkpt lat="44.1541783" lon="12.0330967"><ele>152.16666666666669</ele><time>2026-04-09T13:38:10.212Z</time></trkpt><trkpt lat="44.1541333" lon="12.033175"><ele>151.0</ele><time>2026-04-09T13:38:11.212Z</time></trkpt><trkpt lat="44.1540917" lon="12.0332583"><ele>150.0</ele><time>2026-04-09T13:38:12.212Z</time></trkpt><trkpt lat="44.1540433" lon="12.0333433"><ele>149.0</ele><time>2026-04-09T13:38:13.212Z</time></trkpt><trkpt lat="44.1540017" lon="12.0334233"><ele>148.0</ele><time>2026-04-09T13:38:14.212Z</time></trkpt><trkpt lat="44.153965" lon="12.0335067"><ele>147.0</ele><time>2026-04-09T13:38:15.212Z</time></trkpt><trkpt lat="44.1539317" lon="12.0335817"><ele>146.0</ele><time>2026-04-09T13:38:16.212Z</time></trkpt><trkpt lat="44.153865" lon="12.0337183"><ele>145.0</ele><time>2026-04-09T13:38:18.212Z</time></trkpt><trkpt lat="44.1538033" lon="12.03387"><ele>143.6</ele><time>2026-04-09T13:38:20.212Z</time></trkpt><trkpt lat="44.153745" lon="12.0340167"><ele>142.2</ele><time>2026-04-09T13:38:22.212Z</time></trkpt><trkpt lat="44.1536983" lon="12.03416"><ele>140.8</ele><time>2026-04-09T13:38:24.212Z</time></trkpt><trkpt lat="44.1536433" lon="12.0342867"><ele>139.4</ele><time>2026-04-09T13:38:26.212Z</time></trkpt><trkpt lat="44.1536267" lon="12.0343833"><ele>138.0</ele><time>2026-04-09T13:38:28.212Z</time></trkpt><trkpt lat="44.15371" lon="12.0344833"><ele>138.0</ele><time>2026-04-09T13:38:31.212Z</time></trkpt><trkpt lat="44.1538133" lon="12.0345367"><ele>138.0</ele><time>2026-04-09T13:38:33.212Z</time></trkpt><trkpt lat="44.1538783" lon="12.034565"><ele>138.0</ele><time>2026-04-09T13:38:34.212Z</time></trkpt><trkpt lat="44.1539467" lon="12.0346"><ele>138.0</ele><time>2026-04-09T13:38:35.212Z</time></trkpt><trkpt lat="44.1540183" lon="12.0346333"><ele>138.0</ele><time>2026-04-09T13:38:36.212Z</time></trkpt><trkpt lat="44.1540867" lon="12.03467"><ele>138.0</ele><time>2026-04-09T13:38:37.212Z</time></trkpt><trkpt lat="44.1541633" lon="12.0347167"><ele>138.16666666666666</ele><time>2026-04-09T13:38:38.212Z</time></trkpt><trkpt lat="44.1542433" lon="12.03476"><ele>138.33333333333334</ele><time>2026-04-09T13:38:39.212Z</time></trkpt><trkpt lat="44.1543217" lon="12.0347983"><ele>138.5</ele><time>2026-04-09T13:38:40.212Z</time></trkpt><trkpt lat="44.154395" lon="12.0348383"><ele>138.66666666666669</ele><time>2026-04-09T13:38:41.212Z</time></trkpt><trkpt lat="44.1544783" lon="12.0348733"><ele>138.83333333333334</ele><time>2026-04-09T13:38:42.212Z</time></trkpt><trkpt lat="44.1545717" lon="12.03492"><ele>139.0</ele><time>2026-04-09T13:38:43.212Z</time></trkpt><trkpt lat="44.154665" lon="12.034965"><ele>139.0</ele><time>2026-04-09T13:38:44.212Z</time></trkpt><trkpt lat="44.1547583" lon="12.03501"><ele>139.0</ele><time>2026-04-09T13:38:45.212Z</time></trkpt><trkpt lat="44.154845" lon="12.035035"><ele>139.0</ele><time>2026-04-09T13:38:46.212Z</time></trkpt><trkpt lat="44.1549133" lon="12.03507"><ele>139.0</ele><time>2026-04-09T13:38:47.212Z</time></trkpt><trkpt lat="44.15497" lon="12.0351217"><ele>139.0</ele><time>2026-04-09T13:38:48.212Z</time></trkpt><trkpt lat="44.1550433" lon="12.0352583"><ele>137.83333333333334</ele><time>2026-04-09T13:38:50.212Z</time></trkpt><trkpt lat="44.1550567" lon="12.0353533"><ele>136.66666666666669</ele><time>2026-04-09T13:38:51.212Z</time></trkpt><trkpt lat="44.1550733" lon="12.0354417"><ele>135.5</ele><time>2026-04-09T13:38:52.212Z</time></trkpt><trkpt lat="44.1551567" lon="12.0355667"><ele>134.33333333333334</ele><time>2026-04-09T13:38:54.212Z</time></trkpt><trkpt lat="44.1552233" lon="12.0356133"><ele>133.16666666666666</ele><time>2026-04-09T13:38:55.211Z</time></trkpt><trkpt lat="44.1553" lon="12.0356517"><ele>132.0</ele><time>2026-04-09T13:38:56.211Z</time></trkpt><trkpt lat="44.15538" lon="12.0356933"><ele>132.0</ele><time>2026-04-09T13:38:57.211Z</time></trkpt><trkpt lat="44.15546" lon="12.0357367"><ele>132.0</ele><time>2026-04-09T13:38:58.211Z</time></trkpt><trkpt lat="44.1555467" lon="12.0357717"><ele>132.0</ele><time>2026-04-09T13:38:59.212Z</time></trkpt><trkpt lat="44.1556383" lon="12.0358117"><ele>132.0</ele><time>2026-04-09T13:39:00.211Z</time></trkpt><trkpt lat="44.1557333" lon="12.035855"><ele>132.0</ele><time>2026-04-09T13:39:01.211Z</time></trkpt><trkpt lat="44.1558233" lon="12.0358917"><ele>131.0</ele><time>2026-04-09T13:39:02.211Z</time></trkpt><trkpt lat="44.155915" lon="12.0359333"><ele>130.0</ele><time>2026-04-09T13:39:03.211Z</time></trkpt><trkpt lat="44.1560067" lon="12.0359767"><ele>129.0</ele><time>2026-04-09T13:39:04.211Z</time></trkpt><trkpt lat="44.1560983" lon="12.0360283"><ele>128.0</ele><time>2026-04-09T13:39:05.211Z</time></trkpt><trkpt lat="44.1561933" lon="12.0360767"><ele>127.0</ele><time>2026-04-09T13:39:06.211Z</time></trkpt><trkpt lat="44.1562933" lon="12.0361383"><ele>127.0</ele><time>2026-04-09T13:39:07.211Z</time></trkpt><trkpt lat="44.1563917" lon="12.0361883"><ele>126.99999999999999</ele><time>2026-04-09T13:39:08.211Z</time></trkpt><trkpt lat="44.1564933" lon="12.0362433"><ele>126.99999999999999</ele><time>2026-04-09T13:39:09.211Z</time></trkpt><trkpt lat="44.1565917" lon="12.0362933"><ele>127.0</ele><time>2026-04-09T13:39:10.211Z</time></trkpt><trkpt lat="44.1566967" lon="12.0363367"><ele>127.0</ele><time>2026-04-09T13:39:11.211Z</time></trkpt><trkpt lat="44.1568" lon="12.036385"><ele>125.6</ele><time>2026-04-09T13:39:12.211Z</time></trkpt><trkpt lat="44.1568983" lon="12.0364317"><ele>124.19999999999999</ele><time>2026-04-09T13:39:13.211Z</time></trkpt><trkpt lat="44.157" lon="12.03648"><ele>122.8</ele><time>2026-04-09T13:39:14.211Z</time></trkpt><trkpt lat="44.157105" lon="12.0365283"><ele>121.4</ele><time>2026-04-09T13:39:15.211Z</time></trkpt><trkpt lat="44.15721" lon="12.0365633"><ele>120.0</ele><time>2026-04-09T13:39:16.211Z</time></trkpt><trkpt lat="44.1573217" lon="12.0366033"><ele>119.75</ele><time>2026-04-09T13:39:17.211Z</time></trkpt><trkpt lat="44.1574383" lon="12.0366417"><ele>119.5</ele><time>2026-04-09T13:39:18.211Z</time></trkpt><trkpt lat="44.1575483" lon="12.036685"><ele>119.25</ele><time>2026-04-09T13:39:19.211Z</time></trkpt><trkpt lat="44.15766" lon="12.0367283"><ele>119.0</ele><time>2026-04-09T13:39:20.211Z</time></trkpt><trkpt lat="44.1577833" lon="12.0367817"><ele>119.0</ele><time>2026-04-09T13:39:21.211Z</time></trkpt><trkpt lat="44.1578983" lon="12.0368267"><ele>119.0</ele><time>2026-04-09T13:39:22.211Z</time></trkpt><trkpt lat="44.1580083" lon="12.0368633"><ele>119.0</ele><time>2026-04-09T13:39:23.211Z</time></trkpt><trkpt lat="44.15812" lon="12.0369083"><ele>119.0</ele><time>2026-04-09T13:39:24.211Z</time></trkpt><trkpt lat="44.15823" lon="12.0369567"><ele>116.75</ele><time>2026-04-09T13:39:25.211Z</time></trkpt><trkpt lat="44.1583367" lon="12.03701"><ele>114.5</ele><time>2026-04-09T13:39:26.211Z</time></trkpt><trkpt lat="44.1584467" lon="12.0370583"><ele>112.25</ele><time>2026-04-09T13:39:27.212Z</time></trkpt><trkpt lat="44.1585567" lon="12.0371"><ele>110.0</ele><time>2026-04-09T13:39:28.211Z</time></trkpt><trkpt lat="44.1586733" lon="12.037135"><ele>110.0</ele><time>2026-04-09T13:39:29.211Z</time></trkpt><trkpt lat="44.15879" lon="12.0371567"><ele>110.0</ele><time>2026-04-09T13:39:30.211Z</time></trkpt><trkpt lat="44.1589067" lon="12.037165"><ele>110.0</ele><time>2026-04-09T13:39:31.211Z</time></trkpt><trkpt lat="44.1590283" lon="12.0371733"><ele>110.0</ele><time>2026-04-09T13:39:32.211Z</time></trkpt><trkpt lat="44.1591517" lon="12.037165"><ele>108.75</ele><time>2026-04-09T13:39:33.211Z</time></trkpt><trkpt lat="44.15927" lon="12.0371567"><ele>107.5</ele><time>2026-04-09T13:39:34.211Z</time></trkpt><trkpt lat="44.159385" lon="12.0371617"><ele>106.25</ele><time>2026-04-09T13:39:35.211Z</time></trkpt><trkpt lat="44.1594983" lon="12.03717"><ele>105.0</ele><time>2026-04-09T13:39:36.211Z</time></trkpt><trkpt lat="44.1596133" lon="12.0371817"><ele>105.0</ele><time>2026-04-09T13:39:37.211Z</time></trkpt><trkpt lat="44.15973" lon="12.0372033"><ele>105.0</ele><time>2026-04-09T13:39:38.211Z</time></trkpt><trkpt lat="44.159845" lon="12.0372283"><ele>105.0</ele><time>2026-04-09T13:39:39.211Z</time></trkpt><trkpt lat="44.1599583" lon="12.0372567"><ele>105.0</ele><time>2026-04-09T13:39:40.211Z</time></trkpt><trkpt lat="44.16007" lon="12.0372917"><ele>104.0</ele><time>2026-04-09T13:39:41.211Z</time></trkpt><trkpt lat="44.160185" lon="12.037315"><ele>103.0</ele><time>2026-04-09T13:39:42.211Z</time></trkpt><trkpt lat="44.1603" lon="12.0373417"><ele>102.0</ele><time>2026-04-09T13:39:43.211Z</time></trkpt><trkpt lat="44.1604067" lon="12.03737"><ele>101.0</ele><time>2026-04-09T13:39:44.211Z</time></trkpt><trkpt lat="44.160515" lon="12.0374"><ele>101.0</ele><time>2026-04-09T13:39:45.211Z</time></trkpt><trkpt lat="44.16061" lon="12.0374167"><ele>101.0</ele><time>2026-04-09T13:39:46.211Z</time></trkpt><trkpt lat="44.1607067" lon="12.037435"><ele>101.0</ele><time>2026-04-09T13:39:47.211Z</time></trkpt><trkpt lat="44.1607933" lon="12.0374583"><ele>101.0</ele><time>2026-04-09T13:39:48.211Z</time></trkpt><trkpt lat="44.16088" lon="12.0374767"><ele>101.0</ele><time>2026-04-09T13:39:49.211Z</time></trkpt><trkpt lat="44.1609683" lon="12.037515"><ele>101.19999999999999</ele><time>2026-04-09T13:39:50.211Z</time></trkpt><trkpt lat="44.1610633" lon="12.0375683"><ele>101.39999999999999</ele><time>2026-04-09T13:39:51.211Z</time></trkpt><trkpt lat="44.1611533" lon="12.0376283"><ele>101.6</ele><time>2026-04-09T13:39:52.211Z</time></trkpt><trkpt lat="44.1612417" lon="12.03769"><ele>101.8</ele><time>2026-04-09T13:39:53.211Z</time></trkpt><trkpt lat="44.1613267" lon="12.0377583"><ele>102.0</ele><time>2026-04-09T13:39:54.211Z</time></trkpt><trkpt lat="44.1614033" lon="12.03784"><ele>102.0</ele><time>2026-04-09T13:39:55.211Z</time></trkpt><trkpt lat="44.1614517" lon="12.037925"><ele>102.0</ele><time>2026-04-09T13:39:56.211Z</time></trkpt><trkpt lat="44.161475" lon="12.0380267"><ele>102.0</ele><time>2026-04-09T13:39:57.211Z</time></trkpt><trkpt lat="44.16148" lon="12.0381367"><ele>102.0</ele><time>2026-04-09T13:39:58.211Z</time></trkpt><trkpt lat="44.1614717" lon="12.0382417"><ele>102.0</ele><time>2026-04-09T13:39:59.211Z</time></trkpt><trkpt lat="44.1614433" lon="12.038345"><ele>102.0</ele><time>2026-04-09T13:40:00.211Z</time></trkpt><trkpt lat="44.1614083" lon="12.0384483"><ele>101.33333333333333</ele><time>2026-04-09T13:40:01.211Z</time></trkpt><trkpt lat="44.1613767" lon="12.03855"><ele>100.66666666666666</ele><time>2026-04-09T13:40:02.211Z</time></trkpt><trkpt lat="44.1613433" lon="12.0386483"><ele>100.0</ele><time>2026-04-09T13:40:03.211Z</time></trkpt><trkpt lat="44.161305" lon="12.0387533"><ele>99.33333333333333</ele><time>2026-04-09T13:40:04.211Z</time></trkpt><trkpt lat="44.1612733" lon="12.0388567"><ele>98.66666666666666</ele><time>2026-04-09T13:40:05.211Z</time></trkpt><trkpt lat="44.1612467" lon="12.0389583"><ele>98.0</ele><time>2026-04-09T13:40:06.211Z</time></trkpt><trkpt lat="44.1612183" lon="12.0390617"><ele>97.83333333333333</ele><time>2026-04-09T13:40:07.211Z</time></trkpt><trkpt lat="44.1611967" lon="12.039155"><ele>97.66666666666666</ele><time>2026-04-09T13:40:08.211Z</time></trkpt><trkpt lat="44.1611733" lon="12.0392367"><ele>97.5</ele><time>2026-04-09T13:40:09.211Z</time></trkpt><trkpt lat="44.1611517" lon="12.0393567"><ele>97.33333333333334</ele><time>2026-04-09T13:40:11.211Z</time></trkpt><trkpt lat="44.1612183" lon="12.0394483"><ele>97.16666666666667</ele><time>2026-04-09T13:40:13.211Z</time></trkpt><trkpt lat="44.1612883" lon="12.0395167"><ele>97.0</ele><time>2026-04-09T13:40:15.211Z</time></trkpt><trkpt lat="44.1613867" lon="12.03959"><ele>97.0</ele><time>2026-04-09T13:40:17.211Z</time></trkpt><trkpt lat="44.1614917" lon="12.039675"><ele>97.0</ele><time>2026-04-09T13:40:19.211Z</time></trkpt><trkpt lat="44.1616033" lon="12.03976"><ele>97.0</ele><time>2026-04-09T13:40:21.211Z</time></trkpt><trkpt lat="44.1616583" lon="12.0398083"><ele>97.0</ele><time>2026-04-09T13:40:22.211Z</time></trkpt><trkpt lat="44.161765" lon="12.0399067"><ele>97.0</ele><time>2026-04-09T13:40:24.211Z</time></trkpt><trkpt lat="44.1618767" lon="12.0400067"><ele>95.83333333333334</ele><time>2026-04-09T13:40:26.211Z</time></trkpt><trkpt lat="44.1619683" lon="12.040115"><ele>94.66666666666667</ele><time>2026-04-09T13:40:28.211Z</time></trkpt><trkpt lat="44.162045" lon="12.0402483"><ele>93.5</ele><time>2026-04-09T13:40:30.211Z</time></trkpt><trkpt lat="44.1620883" lon="12.0403167"><ele>92.33333333333334</ele><time>2026-04-09T13:40:31.211Z</time></trkpt><trkpt lat="44.1621283" lon="12.0403917"><ele>91.16666666666667</ele><time>2026-04-09T13:40:32.211Z</time></trkpt><trkpt lat="44.1621617" lon="12.0404683"><ele>90.0</ele><time>2026-04-09T13:40:33.211Z</time></trkpt><trkpt lat="44.1622" lon="12.0405567"><ele>90.0</ele><time>2026-04-09T13:40:34.211Z</time></trkpt><trkpt lat="44.1622267" lon="12.04064"><ele>90.0</ele><time>2026-04-09T13:40:35.211Z</time></trkpt><trkpt lat="44.16229" lon="12.0407933"><ele>90.0</ele><time>2026-04-09T13:40:37.211Z</time></trkpt><trkpt lat="44.1623267" lon="12.0408833"><ele>90.0</ele><time>2026-04-09T13:40:38.211Z</time></trkpt><trkpt lat="44.1623633" lon="12.0409733"><ele>90.0</ele><time>2026-04-09T13:40:39.211Z</time></trkpt><trkpt lat="44.162405" lon="12.0410583"><ele>90.0</ele><time>2026-04-09T13:40:40.211Z</time></trkpt><trkpt lat="44.16246" lon="12.0411417"><ele>89.4</ele><time>2026-04-09T13:40:41.211Z</time></trkpt><trkpt lat="44.162515" lon="12.0412283"><ele>88.8</ele><time>2026-04-09T13:40:42.211Z</time></trkpt><trkpt lat="44.1625717" lon="12.04132"><ele>88.19999999999999</ele><time>2026-04-09T13:40:43.211Z</time></trkpt><trkpt lat="44.16263" lon="12.0414167"><ele>87.6</ele><time>2026-04-09T13:40:44.211Z</time></trkpt><trkpt lat="44.162695" lon="12.0415117"><ele>87.0</ele><time>2026-04-09T13:40:45.211Z</time></trkpt><trkpt lat="44.1627633" lon="12.0416183"><ele>85.8</ele><time>2026-04-09T13:40:46.211Z</time></trkpt><trkpt lat="44.1628333" lon="12.04172"><ele>84.6</ele><time>2026-04-09T13:40:47.211Z</time></trkpt><trkpt lat="44.162915" lon="12.0418267"><ele>83.39999999999999</ele><time>2026-04-09T13:40:48.211Z</time></trkpt><trkpt lat="44.163005" lon="12.041935"><ele>82.19999999999999</ele><time>2026-04-09T13:40:49.211Z</time></trkpt><trkpt lat="44.1630933" lon="12.0420367"><ele>81.0</ele><time>2026-04-09T13:40:50.211Z</time></trkpt><trkpt lat="44.1631867" lon="12.0421317"><ele>80.75</ele><time>2026-04-09T13:40:51.211Z</time></trkpt><trkpt lat="44.1632733" lon="12.04222"><ele>80.5</ele><time>2026-04-09T13:40:52.211Z</time></trkpt><trkpt lat="44.1633683" lon="12.04231"><ele>80.25</ele><time>2026-04-09T13:40:53.211Z</time></trkpt><trkpt lat="44.16346" lon="12.0424017"><ele>80.0</ele><time>2026-04-09T13:40:54.211Z</time></trkpt><trkpt lat="44.163555" lon="12.0424933"><ele>79.0</ele><time>2026-04-09T13:40:55.211Z</time></trkpt><trkpt lat="44.1636467" lon="12.04259"><ele>78.0</ele><time>2026-04-09T13:40:56.211Z</time></trkpt><trkpt lat="44.1637417" lon="12.0426867"><ele>77.0</ele><time>2026-04-09T13:40:57.211Z</time></trkpt><trkpt lat="44.1638333" lon="12.042775"><ele>76.0</ele><time>2026-04-09T13:40:58.211Z</time></trkpt><trkpt lat="44.1639317" lon="12.042865"><ele>76.0</ele><time>2026-04-09T13:40:59.211Z</time></trkpt><trkpt lat="44.1640217" lon="12.0429517"><ele>76.0</ele><time>2026-04-09T13:41:00.211Z</time></trkpt><trkpt lat="44.1641083" lon="12.0430533"><ele>76.0</ele><time>2026-04-09T13:41:01.211Z</time></trkpt><trkpt lat="44.1641867" lon="12.04315"><ele>76.0</ele><time>2026-04-09T13:41:02.211Z</time></trkpt><trkpt lat="44.1642567" lon="12.0432533"><ele>76.0</ele><time>2026-04-09T13:41:03.211Z</time></trkpt><trkpt lat="44.1643217" lon="12.0433483"><ele>75.39999999999999</ele><time>2026-04-09T13:41:04.211Z</time></trkpt><trkpt lat="44.164385" lon="12.04345"><ele>74.8</ele><time>2026-04-09T13:41:05.211Z</time></trkpt><trkpt lat="44.1644467" lon="12.0435567"><ele>74.19999999999999</ele><time>2026-04-09T13:41:06.211Z</time></trkpt><trkpt lat="44.1645067" lon="12.0436617"><ele>73.6</ele><time>2026-04-09T13:41:07.211Z</time></trkpt><trkpt lat="44.1645667" lon="12.0437683"><ele>73.0</ele><time>2026-04-09T13:41:08.211Z</time></trkpt><trkpt lat="44.1646333" lon="12.0438683"><ele>73.0</ele><time>2026-04-09T13:41:09.211Z</time></trkpt><trkpt lat="44.1646933" lon="12.0439567"><ele>73.0</ele><time>2026-04-09T13:41:10.211Z</time></trkpt><trkpt lat="44.164755" lon="12.04405"><ele>73.0</ele><time>2026-04-09T13:41:11.211Z</time></trkpt><trkpt lat="44.1648233" lon="12.044145"><ele>73.0</ele><time>2026-04-09T13:41:12.211Z</time></trkpt><trkpt lat="44.1648883" lon="12.0442433"><ele>73.0</ele><time>2026-04-09T13:41:13.211Z</time></trkpt><trkpt lat="44.1649483" lon="12.044335"><ele>72.66666666666666</ele><time>2026-04-09T13:41:14.211Z</time></trkpt><trkpt lat="44.1650067" lon="12.0444233"><ele>72.33333333333333</ele><time>2026-04-09T13:41:15.211Z</time></trkpt><trkpt lat="44.1650633" lon="12.0445033"><ele>72.0</ele><time>2026-04-09T13:41:16.211Z</time></trkpt><trkpt lat="44.1651133" lon="12.04459"><ele>71.66666666666667</ele><time>2026-04-09T13:41:17.211Z</time></trkpt><trkpt lat="44.1651633" lon="12.0446783"><ele>71.33333333333334</ele><time>2026-04-09T13:41:18.211Z</time></trkpt><trkpt lat="44.165215" lon="12.04476"><ele>71.0</ele><time>2026-04-09T13:41:19.211Z</time></trkpt><trkpt lat="44.1652717" lon="12.0448367"><ele>71.0</ele><time>2026-04-09T13:41:20.211Z</time></trkpt><trkpt lat="44.1653283" lon="12.0449083"><ele>71.0</ele><time>2026-04-09T13:41:21.211Z</time></trkpt><trkpt lat="44.1653867" lon="12.0449767"><ele>71.0</ele><time>2026-04-09T13:41:22.211Z</time></trkpt><trkpt lat="44.165445" lon="12.04505"><ele>71.0</ele><time>2026-04-09T13:41:23.211Z</time></trkpt><trkpt lat="44.165505" lon="12.0451217"><ele>71.0</ele><time>2026-04-09T13:41:24.211Z</time></trkpt><trkpt lat="44.1655617" lon="12.0451917"><ele>71.0</ele><time>2026-04-09T13:41:25.211Z</time></trkpt><trkpt lat="44.16562" lon="12.0452583"><ele>70.71428571428571</ele><time>2026-04-09T13:41:26.211Z</time></trkpt><trkpt lat="44.1656733" lon="12.0453233"><ele>70.42857142857142</ele><time>2026-04-09T13:41:27.211Z</time></trkpt><trkpt lat="44.1657283" lon="12.04539"><ele>70.14285714285714</ele><time>2026-04-09T13:41:28.211Z</time></trkpt><trkpt lat="44.16579" lon="12.0454633"><ele>69.85714285714286</ele><time>2026-04-09T13:41:29.211Z</time></trkpt><trkpt lat="44.165845" lon="12.0455283"><ele>69.57142857142858</ele><time>2026-04-09T13:41:30.211Z</time></trkpt><trkpt lat="44.1659" lon="12.0455983"><ele>69.28571428571429</ele><time>2026-04-09T13:41:31.211Z</time></trkpt><trkpt lat="44.1659533" lon="12.045665"><ele>69.0</ele><time>2026-04-09T13:41:32.211Z</time></trkpt><trkpt lat="44.1660067" lon="12.0457317"><ele>68.66666666666667</ele><time>2026-04-09T13:41:33.211Z</time></trkpt><trkpt lat="44.1660667" lon="12.04581"><ele>68.33333333333333</ele><time>2026-04-09T13:41:34.211Z</time></trkpt><trkpt lat="44.1661217" lon="12.045875"><ele>68.0</ele><time>2026-04-09T13:41:35.211Z</time></trkpt><trkpt lat="44.166175" lon="12.0459467"><ele>67.66666666666666</ele><time>2026-04-09T13:41:36.211Z</time></trkpt><trkpt lat="44.1662367" lon="12.04602"><ele>67.33333333333333</ele><time>2026-04-09T13:41:37.211Z</time></trkpt><trkpt lat="44.1663" lon="12.04609"><ele>67.0</ele><time>2026-04-09T13:41:38.211Z</time></trkpt><trkpt lat="44.1663617" lon="12.0461617"><ele>67.0</ele><time>2026-04-09T13:41:39.211Z</time></trkpt><trkpt lat="44.1664217" lon="12.0462433"><ele>67.0</ele><time>2026-04-09T13:41:40.211Z</time></trkpt><trkpt lat="44.1664783" lon="12.0463117"><ele>67.0</ele><time>2026-04-09T13:41:41.211Z</time></trkpt><trkpt lat="44.166545" lon="12.0463833"><ele>67.0</ele><time>2026-04-09T13:41:42.211Z</time></trkpt><trkpt lat="44.1666167" lon="12.0464567"><ele>67.0</ele><time>2026-04-09T13:41:43.211Z</time></trkpt><trkpt lat="44.166695" lon="12.0465333"><ele>67.0</ele><time>2026-04-09T13:41:44.211Z</time></trkpt><trkpt lat="44.1667767" lon="12.0466133"><ele>66.2</ele><time>2026-04-09T13:41:45.211Z</time></trkpt><trkpt lat="44.1668667" lon="12.04669"><ele>65.4</ele><time>2026-04-09T13:41:46.211Z</time></trkpt><trkpt lat="44.1669617" lon="12.0467683"><ele>64.6</ele><time>2026-04-09T13:41:47.211Z</time></trkpt><trkpt lat="44.16706" lon="12.046855"><ele>63.8</ele><time>2026-04-09T13:41:48.211Z</time></trkpt><trkpt lat="44.16716" lon="12.0469367"><ele>63.0</ele><time>2026-04-09T13:41:49.211Z</time></trkpt><trkpt lat="44.167265" lon="12.0470367"><ele>61.0</ele><time>2026-04-09T13:41:50.211Z</time></trkpt><trkpt lat="44.1673783" lon="12.0471483"><ele>59.0</ele><time>2026-04-09T13:41:51.211Z</time></trkpt><trkpt lat="44.167495" lon="12.04726"><ele>57.0</ele><time>2026-04-09T13:41:52.211Z</time></trkpt><trkpt lat="44.1675967" lon="12.0473617"><ele>55.0</ele><time>2026-04-09T13:41:53.211Z</time></trkpt><trkpt lat="44.1676867" lon="12.04745"><ele>54.4</ele><time>2026-04-09T13:41:54.211Z</time></trkpt><trkpt lat="44.167775" lon="12.0475317"><ele>53.8</ele><time>2026-04-09T13:41:55.211Z</time></trkpt><trkpt lat="44.1678517" lon="12.0476083"><ele>53.2</ele><time>2026-04-09T13:41:56.211Z</time></trkpt><trkpt lat="44.16793" lon="12.047685"><ele>52.6</ele><time>2026-04-09T13:41:57.211Z</time></trkpt><trkpt lat="44.168015" lon="12.04776"><ele>52.0</ele><time>2026-04-09T13:41:58.211Z</time></trkpt><trkpt lat="44.1680967" lon="12.0478317"><ele>52.0</ele><time>2026-04-09T13:41:59.211Z</time></trkpt><trkpt lat="44.1681667" lon="12.0479017"><ele>52.0</ele><time>2026-04-09T13:42:00.211Z</time></trkpt><trkpt lat="44.1682317" lon="12.0479583"><ele>52.0</ele><time>2026-04-09T13:42:01.211Z</time></trkpt><trkpt lat="44.1683367" lon="12.048045"><ele>52.0</ele><time>2026-04-09T13:42:03.211Z</time></trkpt><trkpt lat="44.1684283" lon="12.0481333"><ele>52.0</ele><time>2026-04-09T13:42:05.211Z</time></trkpt><trkpt lat="44.16853" lon="12.04822"><ele>51.33333333333333</ele><time>2026-04-09T13:42:07.211Z</time></trkpt><trkpt lat="44.1686117" lon="12.0483067"><ele>50.666666666666664</ele><time>2026-04-09T13:42:09.211Z</time></trkpt><trkpt lat="44.16866" lon="12.0483917"><ele>50.0</ele><time>2026-04-09T13:42:11.211Z</time></trkpt><trkpt lat="44.1686383" lon="12.0485117"><ele>49.33333333333333</ele><time>2026-04-09T13:42:14.211Z</time></trkpt><trkpt lat="44.1685733" lon="12.0485883"><ele>48.666666666666664</ele><time>2026-04-09T13:42:17.211Z</time></trkpt><trkpt lat="44.1685233" lon="12.0486417"><ele>48.0</ele><time>2026-04-09T13:42:19.211Z</time></trkpt><trkpt lat="44.1684617" lon="12.0486967"><ele>47.99999999999999</ele><time>2026-04-09T13:42:21.211Z</time></trkpt><trkpt lat="44.1684083" lon="12.0487483"><ele>48.0</ele><time>2026-04-09T13:42:23.211Z</time></trkpt><trkpt lat="44.168355" lon="12.0488"><ele>48.0</ele><time>2026-04-09T13:42:25.211Z</time></trkpt><trkpt lat="44.1682833" lon="12.04885"><ele>48.0</ele><time>2026-04-09T13:42:27.211Z</time></trkpt><trkpt lat="44.16822" lon="12.048915"><ele>48.0</ele><time>2026-04-09T13:42:29.211Z</time></trkpt><trkpt lat="44.16816" lon="12.048985"><ele>47.99999999999999</ele><time>2026-04-09T13:42:31.211Z</time></trkpt><trkpt lat="44.168105" lon="12.04905"><ele>48.0</ele><time>2026-04-09T13:42:33.211Z</time></trkpt><trkpt lat="44.168045" lon="12.0491067"><ele>48.333333333333336</ele><time>2026-04-09T13:42:35.211Z</time></trkpt><trkpt lat="44.1679933" lon="12.0491733"><ele>48.66666666666667</ele><time>2026-04-09T13:42:37.211Z</time></trkpt><trkpt lat="44.1679383" lon="12.0492383"><ele>49.0</ele><time>2026-04-09T13:42:39.211Z</time></trkpt><trkpt lat="44.1678783" lon="12.049325"><ele>49.333333333333336</ele><time>2026-04-09T13:42:42.211Z</time></trkpt><trkpt lat="44.16783" lon="12.0493883"><ele>49.66666666666667</ele><time>2026-04-09T13:42:44.211Z</time></trkpt><trkpt lat="44.1677817" lon="12.0494517"><ele>50.0</ele><time>2026-04-09T13:42:46.211Z</time></trkpt><trkpt lat="44.1677167" lon="12.0495467"><ele>50.00000000000001</ele><time>2026-04-09T13:42:49.211Z</time></trkpt><trkpt lat="44.16767" lon="12.0496083"><ele>50.0</ele><time>2026-04-09T13:42:51.211Z</time></trkpt><trkpt lat="44.1676267" lon="12.0496733"><ele>50.0</ele><time>2026-04-09T13:42:53.211Z</time></trkpt><trkpt lat="44.167575" lon="12.0497317"><ele>50.0</ele><time>2026-04-09T13:42:55.211Z</time></trkpt><trkpt lat="44.1675217" lon="12.049795"><ele>50.0</ele><time>2026-04-09T13:42:57.211Z</time></trkpt><trkpt lat="44.1674767" lon="12.04987"><ele>50.00000000000001</ele><time>2026-04-09T13:42:59.211Z</time></trkpt><trkpt lat="44.1674367" lon="12.0499433"><ele>50.0</ele><time>2026-04-09T13:43:01.211Z</time></trkpt><trkpt lat="44.16738" lon="12.0500117"><ele>51.16666666666667</ele><time>2026-04-09T13:43:03.211Z</time></trkpt><trkpt lat="44.16733" lon="12.0500783"><ele>52.333333333333336</ele><time>2026-04-09T13:43:05.211Z</time></trkpt><trkpt lat="44.1672583" lon="12.0501817"><ele>53.5</ele><time>2026-04-09T13:43:08.211Z</time></trkpt><trkpt lat="44.1672033" lon="12.0502533"><ele>54.66666666666667</ele><time>2026-04-09T13:43:10.211Z</time></trkpt><trkpt lat="44.1671467" lon="12.0503083"><ele>55.833333333333336</ele><time>2026-04-09T13:43:12.211Z</time></trkpt><trkpt lat="44.1670883" lon="12.05037"><ele>57.0</ele><time>2026-04-09T13:43:14.211Z</time></trkpt><trkpt lat="44.16703" lon="12.0504233"><ele>57.0</ele><time>2026-04-09T13:43:16.211Z</time></trkpt><trkpt lat="44.1669467" lon="12.0505067"><ele>57.0</ele><time>2026-04-09T13:43:19.211Z</time></trkpt><trkpt lat="44.166885" lon="12.0505717"><ele>57.0</ele><time>2026-04-09T13:43:21.211Z</time></trkpt><trkpt lat="44.166835" lon="12.050645"><ele>57.0</ele><time>2026-04-09T13:43:23.211Z</time></trkpt><trkpt lat="44.1667817" lon="12.0507117"><ele>57.0</ele><time>2026-04-09T13:43:25.211Z</time></trkpt><trkpt lat="44.1667267" lon="12.0507733"><ele>57.0</ele><time>2026-04-09T13:43:27.211Z</time></trkpt><trkpt lat="44.1666717" lon="12.0508467"><ele>57.42857142857142</ele><time>2026-04-09T13:43:29.211Z</time></trkpt><trkpt lat="44.1666183" lon="12.0509117"><ele>57.85714285714285</ele><time>2026-04-09T13:43:31.211Z</time></trkpt><trkpt lat="44.1665767" lon="12.0509783"><ele>58.285714285714285</ele><time>2026-04-09T13:43:33.211Z</time></trkpt><trkpt lat="44.1665283" lon="12.0510417"><ele>58.71428571428571</ele><time>2026-04-09T13:43:35.211Z</time></trkpt><trkpt lat="44.16648" lon="12.0511067"><ele>59.14285714285714</ele><time>2026-04-09T13:43:37.211Z</time></trkpt><trkpt lat="44.1663967" lon="12.05119"><ele>59.57142857142857</ele><time>2026-04-09T13:43:40.211Z</time></trkpt><trkpt lat="44.166335" lon="12.0512417"><ele>60.0</ele><time>2026-04-09T13:43:42.211Z</time></trkpt><trkpt lat="44.166285" lon="12.0513"><ele>60.166666666666664</ele><time>2026-04-09T13:43:44.211Z</time></trkpt><trkpt lat="44.1662233" lon="12.051365"><ele>60.33333333333333</ele><time>2026-04-09T13:43:46.211Z</time></trkpt><trkpt lat="44.1661667" lon="12.0514233"><ele>60.5</ele><time>2026-04-09T13:43:48.211Z</time></trkpt><trkpt lat="44.1661067" lon="12.0514867"><ele>60.666666666666664</ele><time>2026-04-09T13:43:50.211Z</time></trkpt><trkpt lat="44.16604" lon="12.0515517"><ele>60.83333333333333</ele><time>2026-04-09T13:43:52.211Z</time></trkpt><trkpt lat="44.165975" lon="12.0516117"><ele>61.0</ele><time>2026-04-09T13:43:54.211Z</time></trkpt><trkpt lat="44.1659067" lon="12.051665"><ele>61.49999999999999</ele><time>2026-04-09T13:43:56.211Z</time></trkpt><trkpt lat="44.1658367" lon="12.0517267"><ele>62.0</ele><time>2026-04-09T13:43:58.211Z</time></trkpt><trkpt lat="44.1657683" lon="12.0517817"><ele>62.5</ele><time>2026-04-09T13:44:00.211Z</time></trkpt><trkpt lat="44.1656983" lon="12.051835"><ele>63.0</ele><time>2026-04-09T13:44:02.211Z</time></trkpt><trkpt lat="44.165635" lon="12.05189"><ele>63.49999999999999</ele><time>2026-04-09T13:44:04.211Z</time></trkpt><trkpt lat="44.1655667" lon="12.0519617"><ele>64.0</ele><time>2026-04-09T13:44:06.211Z</time></trkpt><trkpt lat="44.1654933" lon="12.0520283"><ele>64.0</ele><time>2026-04-09T13:44:08.211Z</time></trkpt><trkpt lat="44.1654217" lon="12.052105"><ele>64.0</ele><time>2026-04-09T13:44:10.211Z</time></trkpt><trkpt lat="44.16534" lon="12.052175"><ele>64.0</ele><time>2026-04-09T13:44:12.211Z</time></trkpt><trkpt lat="44.1652717" lon="12.05225"><ele>64.0</ele><time>2026-04-09T13:44:14.211Z</time></trkpt><trkpt lat="44.1652033" lon="12.05234"><ele>64.0</ele><time>2026-04-09T13:44:16.211Z</time></trkpt><trkpt lat="44.1651383" lon="12.0524317"><ele>64.2</ele><time>2026-04-09T13:44:18.211Z</time></trkpt><trkpt lat="44.1650717" lon="12.0525267"><ele>64.4</ele><time>2026-04-09T13:44:20.211Z</time></trkpt><trkpt lat="44.1650083" lon="12.0526167"><ele>64.6</ele><time>2026-04-09T13:44:22.211Z</time></trkpt><trkpt lat="44.164935" lon="12.0526983"><ele>64.8</ele><time>2026-04-09T13:44:24.211Z</time></trkpt><trkpt lat="44.1648617" lon="12.0527767"><ele>65.0</ele><time>2026-04-09T13:44:26.211Z</time></trkpt><trkpt lat="44.1647933" lon="12.0528617"><ele>65.0</ele><time>2026-04-09T13:44:28.211Z</time></trkpt><trkpt lat="44.1647217" lon="12.052955"><ele>65.0</ele><time>2026-04-09T13:44:30.211Z</time></trkpt><trkpt lat="44.1646467" lon="12.0530517"><ele>65.0</ele><time>2026-04-09T13:44:32.211Z</time></trkpt><trkpt lat="44.1645733" lon="12.05315"><ele>65.0</ele><time>2026-04-09T13:44:34.211Z</time></trkpt><trkpt lat="44.1645067" lon="12.0532417"><ele>65.0</ele><time>2026-04-09T13:44:36.211Z</time></trkpt><trkpt lat="44.1644367" lon="12.0533333"><ele>64.83333333333334</ele><time>2026-04-09T13:44:38.211Z</time></trkpt><trkpt lat="44.1643633" lon="12.0534133"><ele>64.66666666666667</ele><time>2026-04-09T13:44:40.211Z</time></trkpt><trkpt lat="44.164285" lon="12.0534933"><ele>64.5</ele><time>2026-04-09T13:44:42.211Z</time></trkpt><trkpt lat="44.1642183" lon="12.0535517"><ele>64.33333333333333</ele><time>2026-04-09T13:44:44.211Z</time></trkpt><trkpt lat="44.1641533" lon="12.053615"><ele>64.16666666666666</ele><time>2026-04-09T13:44:46.211Z</time></trkpt><trkpt lat="44.1640833" lon="12.05367"><ele>64.0</ele><time>2026-04-09T13:44:48.211Z</time></trkpt><trkpt lat="44.1640133" lon="12.0537183"><ele>64.5</ele><time>2026-04-09T13:44:50.211Z</time></trkpt><trkpt lat="44.1639383" lon="12.0537633"><ele>65.0</ele><time>2026-04-09T13:44:52.211Z</time></trkpt><trkpt lat="44.1638533" lon="12.0538133"><ele>65.5</ele><time>2026-04-09T13:44:55.211Z</time></trkpt><trkpt lat="44.1637883" lon="12.0538783"><ele>66.0</ele><time>2026-04-09T13:44:58.211Z</time></trkpt><trkpt lat="44.1638067" lon="12.0539817"><ele>66.5</ele><time>2026-04-09T13:45:01.211Z</time></trkpt><trkpt lat="44.1638267" lon="12.0540733"><ele>67.0</ele><time>2026-04-09T13:45:03.211Z</time></trkpt><trkpt lat="44.1638483" lon="12.0541683"><ele>67.0</ele><time>2026-04-09T13:45:05.211Z</time></trkpt><trkpt lat="44.1638667" lon="12.0542767"><ele>67.0</ele><time>2026-04-09T13:45:07.211Z</time></trkpt><trkpt lat="44.163855" lon="12.0543767"><ele>67.0</ele><time>2026-04-09T13:45:09.211Z</time></trkpt><trkpt lat="44.1638267" lon="12.054475"><ele>67.0</ele><time>2026-04-09T13:45:11.211Z</time></trkpt><trkpt lat="44.1637983" lon="12.054575"><ele>67.0</ele><time>2026-04-09T13:45:13.211Z</time></trkpt><trkpt lat="44.1637817" lon="12.0546683"><ele>67.0</ele><time>2026-04-09T13:45:15.211Z</time></trkpt><trkpt lat="44.163765" lon="12.0547667"><ele>67.0</ele><time>2026-04-09T13:45:17.211Z</time></trkpt><trkpt lat="44.1637467" lon="12.054855"><ele>67.0</ele><time>2026-04-09T13:45:19.211Z</time></trkpt><trkpt lat="44.16372" lon="12.0549767"><ele>67.0</ele><time>2026-04-09T13:45:22.211Z</time></trkpt><trkpt lat="44.1637" lon="12.0550617"><ele>67.0</ele><time>2026-04-09T13:45:24.211Z</time></trkpt><trkpt lat="44.1636833" lon="12.0551567"><ele>67.0</ele><time>2026-04-09T13:45:26.211Z</time></trkpt><trkpt lat="44.1636633" lon="12.0552467"><ele>67.0</ele><time>2026-04-09T13:45:28.211Z</time></trkpt><trkpt lat="44.1636433" lon="12.0553333"><ele>67.0</ele><time>2026-04-09T13:45:30.211Z</time></trkpt><trkpt lat="44.1636267" lon="12.0554333"><ele>67.0</ele><time>2026-04-09T13:45:32.211Z</time></trkpt><trkpt lat="44.1636067" lon="12.0555283"><ele>67.0</ele><time>2026-04-09T13:45:34.211Z</time></trkpt><trkpt lat="44.1635867" lon="12.05564"><ele>67.0</ele><time>2026-04-09T13:45:36.211Z</time></trkpt><trkpt lat="44.163555" lon="12.055765"><ele>67.0</ele><time>2026-04-09T13:45:38.211Z</time></trkpt><trkpt lat="44.1635333" lon="12.0559"><ele>67.0</ele><time>2026-04-09T13:45:40.211Z</time></trkpt><trkpt lat="44.1635083" lon="12.056025"><ele>67.0</ele><time>2026-04-09T13:45:42.211Z</time></trkpt><trkpt lat="44.1634917" lon="12.0561533"><ele>66.83333333333333</ele><time>2026-04-09T13:45:44.211Z</time></trkpt><trkpt lat="44.163475" lon="12.0562733"><ele>66.66666666666666</ele><time>2026-04-09T13:45:46.212Z</time></trkpt><trkpt lat="44.16347" lon="12.0564067"><ele>66.5</ele><time>2026-04-09T13:45:48.211Z</time></trkpt><trkpt lat="44.1634817" lon="12.056535"><ele>66.33333333333333</ele><time>2026-04-09T13:45:50.211Z</time></trkpt><trkpt lat="44.16351" lon="12.05663"><ele>66.16666666666667</ele><time>2026-04-09T13:45:52.211Z</time></trkpt><trkpt lat="44.1635733" lon="12.05671"><ele>66.0</ele><time>2026-04-09T13:45:54.211Z</time></trkpt><trkpt lat="44.16364" lon="12.0567917"><ele>65.8</ele><time>2026-04-09T13:45:56.211Z</time></trkpt><trkpt lat="44.1637217" lon="12.0568667"><ele>65.6</ele><time>2026-04-09T13:45:58.211Z</time></trkpt><trkpt lat="44.1638117" lon="12.0569333"><ele>65.4</ele><time>2026-04-09T13:46:00.211Z</time></trkpt><trkpt lat="44.1638983" lon="12.0570067"><ele>65.2</ele><time>2026-04-09T13:46:02.211Z</time></trkpt><trkpt lat="44.1639817" lon="12.0570817"><ele>65.0</ele><time>2026-04-09T13:46:04.211Z</time></trkpt><trkpt lat="44.164065" lon="12.057155"><ele>64.8</ele><time>2026-04-09T13:46:06.211Z</time></trkpt><trkpt lat="44.1641633" lon="12.0572333"><ele>64.6</ele><time>2026-04-09T13:46:08.211Z</time></trkpt><trkpt lat="44.1642633" lon="12.0573183"><ele>64.4</ele><time>2026-04-09T13:46:10.211Z</time></trkpt><trkpt lat="44.164355" lon="12.057405"><ele>64.2</ele><time>2026-04-09T13:46:12.211Z</time></trkpt><trkpt lat="44.1644433" lon="12.0574783"><ele>64.0</ele><time>2026-04-09T13:46:14.211Z</time></trkpt><trkpt lat="44.1645217" lon="12.05755"><ele>63.75</ele><time>2026-04-09T13:46:16.211Z</time></trkpt><trkpt lat="44.1646033" lon="12.057625"><ele>63.5</ele><time>2026-04-09T13:46:18.211Z</time></trkpt><trkpt lat="44.164695" lon="12.0577067"><ele>63.25</ele><time>2026-04-09T13:46:20.211Z</time></trkpt><trkpt lat="44.1648" lon="12.0577917"><ele>63.0</ele><time>2026-04-09T13:46:22.211Z</time></trkpt><trkpt lat="44.1649083" lon="12.0578883"><ele>63.0</ele><time>2026-04-09T13:46:24.211Z</time></trkpt><trkpt lat="44.1649633" lon="12.0579383"><ele>63.0</ele><time>2026-04-09T13:46:25.211Z</time></trkpt><trkpt lat="44.1650617" lon="12.0580317"><ele>63.0</ele><time>2026-04-09T13:46:27.211Z</time></trkpt><trkpt lat="44.165135" lon="12.0580983"><ele>63.0</ele><time>2026-04-09T13:46:29.211Z</time></trkpt><trkpt lat="44.16523" lon="12.05814"><ele>63.0</ele><time>2026-04-09T13:46:31.211Z</time></trkpt><trkpt lat="44.1653433" lon="12.0581867"><ele>63.0</ele><time>2026-04-09T13:46:33.211Z</time></trkpt><trkpt lat="44.16546" lon="12.0582317"><ele>63.0</ele><time>2026-04-09T13:46:35.211Z</time></trkpt><trkpt lat="44.1655683" lon="12.0582717"><ele>63.0</ele><time>2026-04-09T13:46:37.211Z</time></trkpt><trkpt lat="44.1656833" lon="12.0583183"><ele>63.0</ele><time>2026-04-09T13:46:39.211Z</time></trkpt><trkpt lat="44.165795" lon="12.0583683"><ele>62.8</ele><time>2026-04-09T13:46:41.211Z</time></trkpt><trkpt lat="44.1659083" lon="12.0584217"><ele>62.599999999999994</ele><time>2026-04-09T13:46:43.211Z</time></trkpt><trkpt lat="44.1660267" lon="12.0584733"><ele>62.400000000000006</ele><time>2026-04-09T13:46:45.211Z</time></trkpt><trkpt lat="44.1661317" lon="12.0585333"><ele>62.2</ele><time>2026-04-09T13:46:47.211Z</time></trkpt><trkpt lat="44.166185" lon="12.05858"><ele>62.0</ele><time>2026-04-09T13:46:48.211Z</time></trkpt><trkpt lat="44.1662217" lon="12.0586583"><ele>62.00000000000001</ele><time>2026-04-09T13:46:52.221Z</time></trkpt><trkpt lat="44.1662217" lon="12.0587817"><ele>62.0</ele><time>2026-04-09T13:46:53.211Z</time></trkpt><trkpt lat="44.1662167" lon="12.0588833"><ele>62.0</ele><time>2026-04-09T13:46:54.211Z</time></trkpt><trkpt lat="44.1661783" lon="12.0590567"><ele>62.0</ele><time>2026-04-09T13:46:56.211Z</time></trkpt><trkpt lat="44.1661667" lon="12.05916"><ele>62.00000000000001</ele><time>2026-04-09T13:46:57.211Z</time></trkpt><trkpt lat="44.166155" lon="12.05925"><ele>62.0</ele><time>2026-04-09T13:46:58.211Z</time></trkpt><trkpt lat="44.166125" lon="12.05941"><ele>61.8</ele><time>2026-04-09T13:47:00.211Z</time></trkpt><trkpt lat="44.1660717" lon="12.0595433"><ele>61.6</ele><time>2026-04-09T13:47:02.211Z</time></trkpt><trkpt lat="44.1660183" lon="12.0596667"><ele>61.39999999999999</ele><time>2026-04-09T13:47:04.211Z</time></trkpt><trkpt lat="44.1659633" lon="12.05978"><ele>61.199999999999996</ele><time>2026-04-09T13:47:06.211Z</time></trkpt><trkpt lat="44.1658983" lon="12.0598783"><ele>61.0</ele><time>2026-04-09T13:47:08.212Z</time></trkpt><trkpt lat="44.1658417" lon="12.0599833"><ele>60.8</ele><time>2026-04-09T13:47:10.211Z</time></trkpt><trkpt lat="44.1657833" lon="12.0600833"><ele>60.599999999999994</ele><time>2026-04-09T13:47:12.211Z</time></trkpt><trkpt lat="44.1657333" lon="12.06018"><ele>60.4</ele><time>2026-04-09T13:47:14.211Z</time></trkpt><trkpt lat="44.16568" lon="12.0602883"><ele>60.2</ele><time>2026-04-09T13:47:16.211Z</time></trkpt><trkpt lat="44.1656217" lon="12.06039"><ele>60.0</ele><time>2026-04-09T13:47:18.211Z</time></trkpt><trkpt lat="44.1655583" lon="12.0604783"><ele>60.333333333333336</ele><time>2026-04-09T13:47:20.211Z</time></trkpt><trkpt lat="44.1655033" lon="12.0605867"><ele>60.66666666666667</ele><time>2026-04-09T13:47:22.212Z</time></trkpt><trkpt lat="44.165455" lon="12.06069"><ele>61.0</ele><time>2026-04-09T13:47:24.211Z</time></trkpt><trkpt lat="44.165405" lon="12.0607833"><ele>61.333333333333336</ele><time>2026-04-09T13:47:26.211Z</time></trkpt><trkpt lat="44.1653483" lon="12.0608767"><ele>61.66666666666667</ele><time>2026-04-09T13:47:28.211Z</time></trkpt><trkpt lat="44.165295" lon="12.0609783"><ele>62.0</ele><time>2026-04-09T13:47:30.211Z</time></trkpt><trkpt lat="44.1652433" lon="12.0610717"><ele>62.0</ele><time>2026-04-09T13:47:32.211Z</time></trkpt><trkpt lat="44.1651867" lon="12.0611917"><ele>62.0</ele><time>2026-04-09T13:47:34.211Z</time></trkpt><trkpt lat="44.1651083" lon="12.0613033"><ele>62.0</ele><time>2026-04-09T13:47:36.211Z</time></trkpt><trkpt lat="44.165035" lon="12.061425"><ele>62.0</ele><time>2026-04-09T13:47:38.211Z</time></trkpt><trkpt lat="44.1649617" lon="12.0615533"><ele>62.0</ele><time>2026-04-09T13:47:40.211Z</time></trkpt><trkpt lat="44.1649217" lon="12.0616217"><ele>62.16666666666667</ele><time>2026-04-09T13:47:41.211Z</time></trkpt><trkpt lat="44.16488" lon="12.06169"><ele>62.333333333333336</ele><time>2026-04-09T13:47:42.211Z</time></trkpt><trkpt lat="44.16483" lon="12.0618017"><ele>62.5</ele><time>2026-04-09T13:47:44.211Z</time></trkpt><trkpt lat="44.1647867" lon="12.061915"><ele>62.66666666666667</ele><time>2026-04-09T13:47:46.211Z</time></trkpt><trkpt lat="44.164755" lon="12.06204"><ele>62.833333333333336</ele><time>2026-04-09T13:47:48.211Z</time></trkpt><trkpt lat="44.164725" lon="12.0621733"><ele>63.0</ele><time>2026-04-09T13:47:50.211Z</time></trkpt><trkpt lat="44.1647317" lon="12.0623183"><ele>62.599999999999994</ele><time>2026-04-09T13:47:52.211Z</time></trkpt><trkpt lat="44.1647667" lon="12.06247"><ele>62.199999999999996</ele><time>2026-04-09T13:47:54.211Z</time></trkpt><trkpt lat="44.1648217" lon="12.062605"><ele>61.8</ele><time>2026-04-09T13:47:56.211Z</time></trkpt><trkpt lat="44.164895" lon="12.0627283"><ele>61.4</ele><time>2026-04-09T13:47:58.211Z</time></trkpt><trkpt lat="44.16495" lon="12.06278"><ele>61.0</ele><time>2026-04-09T13:47:59.211Z</time></trkpt><trkpt lat="44.1650083" lon="12.06283"><ele>60.71428571428571</ele><time>2026-04-09T13:48:00.211Z</time></trkpt><trkpt lat="44.165065" lon="12.0628767"><ele>60.42857142857143</ele><time>2026-04-09T13:48:01.211Z</time></trkpt><trkpt lat="44.1651233" lon="12.062925"><ele>60.14285714285714</ele><time>2026-04-09T13:48:02.211Z</time></trkpt><trkpt lat="44.16518" lon="12.0629733"><ele>59.857142857142854</ele><time>2026-04-09T13:48:03.211Z</time></trkpt><trkpt lat="44.1652467" lon="12.0630267"><ele>59.57142857142857</ele><time>2026-04-09T13:48:04.211Z</time></trkpt><trkpt lat="44.16531" lon="12.063075"><ele>59.285714285714285</ele><time>2026-04-09T13:48:05.211Z</time></trkpt><trkpt lat="44.1653667" lon="12.0631217"><ele>59.0</ele><time>2026-04-09T13:48:06.211Z</time></trkpt><trkpt lat="44.1654217" lon="12.0631717"><ele>59.0</ele><time>2026-04-09T13:48:07.211Z</time></trkpt><trkpt lat="44.16548" lon="12.0632233"><ele>59.0</ele><time>2026-04-09T13:48:08.211Z</time></trkpt><trkpt lat="44.1655383" lon="12.063275"><ele>59.0</ele><time>2026-04-09T13:48:09.211Z</time></trkpt><trkpt lat="44.1655983" lon="12.0633233"><ele>59.0</ele><time>2026-04-09T13:48:10.211Z</time></trkpt><trkpt lat="44.1656533" lon="12.06338"><ele>59.0</ele><time>2026-04-09T13:48:11.211Z</time></trkpt><trkpt lat="44.1657083" lon="12.0634317"><ele>59.0</ele><time>2026-04-09T13:48:12.211Z</time></trkpt><trkpt lat="44.1657633" lon="12.063485"><ele>59.0</ele><time>2026-04-09T13:48:13.211Z</time></trkpt><trkpt lat="44.165815" lon="12.0635383"><ele>58.57142857142857</ele><time>2026-04-09T13:48:14.211Z</time></trkpt><trkpt lat="44.1658733" lon="12.0635883"><ele>58.142857142857146</ele><time>2026-04-09T13:48:15.211Z</time></trkpt><trkpt lat="44.1659283" lon="12.0636383"><ele>57.714285714285715</ele><time>2026-04-09T13:48:16.211Z</time></trkpt><trkpt lat="44.1659833" lon="12.06369"><ele>57.285714285714285</ele><time>2026-04-09T13:48:17.211Z</time></trkpt><trkpt lat="44.1660417" lon="12.0637433"><ele>56.85714285714286</ele><time>2026-04-09T13:48:18.211Z</time></trkpt><trkpt lat="44.1661017" lon="12.06379"><ele>56.42857142857143</ele><time>2026-04-09T13:48:19.211Z</time></trkpt><trkpt lat="44.1661617" lon="12.0638317"><ele>56.0</ele><time>2026-04-09T13:48:20.211Z</time></trkpt><trkpt lat="44.1662167" lon="12.0638817"><ele>56.0</ele><time>2026-04-09T13:48:21.211Z</time></trkpt><trkpt lat="44.16627" lon="12.0639383"><ele>56.0</ele><time>2026-04-09T13:48:22.211Z</time></trkpt><trkpt lat="44.166325" lon="12.0639917"><ele>56.0</ele><time>2026-04-09T13:48:23.211Z</time></trkpt><trkpt lat="44.16638" lon="12.0640467"><ele>56.0</ele><time>2026-04-09T13:48:24.211Z</time></trkpt><trkpt lat="44.1664433" lon="12.0641133"><ele>56.0</ele><time>2026-04-09T13:48:25.211Z</time></trkpt><trkpt lat="44.1665017" lon="12.0641717"><ele>56.0</ele><time>2026-04-09T13:48:26.211Z</time></trkpt><trkpt lat="44.166565" lon="12.0642283"><ele>56.0</ele><time>2026-04-09T13:48:27.211Z</time></trkpt><trkpt lat="44.1666267" lon="12.0642833"><ele>55.66666666666667</ele><time>2026-04-09T13:48:28.211Z</time></trkpt><trkpt lat="44.1666833" lon="12.064335"><ele>55.333333333333336</ele><time>2026-04-09T13:48:29.211Z</time></trkpt><trkpt lat="44.1667833" lon="12.0644333"><ele>55.0</ele><time>2026-04-09T13:48:31.211Z</time></trkpt><trkpt lat="44.1668417" lon="12.06449"><ele>54.66666666666667</ele><time>2026-04-09T13:48:32.211Z</time></trkpt><trkpt lat="44.1668983" lon="12.0645433"><ele>54.333333333333336</ele><time>2026-04-09T13:48:33.211Z</time></trkpt><trkpt lat="44.1669583" lon="12.064595"><ele>54.0</ele><time>2026-04-09T13:48:34.211Z</time></trkpt><trkpt lat="44.1670167" lon="12.0646483"><ele>54.0</ele><time>2026-04-09T13:48:35.211Z</time></trkpt><trkpt lat="44.1670783" lon="12.0647"><ele>54.0</ele><time>2026-04-09T13:48:36.211Z</time></trkpt><trkpt lat="44.167135" lon="12.06475"><ele>54.0</ele><time>2026-04-09T13:48:37.211Z</time></trkpt><trkpt lat="44.1671867" lon="12.0648017"><ele>54.0</ele><time>2026-04-09T13:48:38.211Z</time></trkpt><trkpt lat="44.1672867" lon="12.0648933"><ele>54.0</ele><time>2026-04-09T13:48:40.211Z</time></trkpt><trkpt lat="44.16734" lon="12.0649417"><ele>54.0</ele><time>2026-04-09T13:48:41.211Z</time></trkpt><trkpt lat="44.1674467" lon="12.06503"><ele>53.400000000000006</ele><time>2026-04-09T13:48:43.211Z</time></trkpt><trkpt lat="44.16755" lon="12.0651183"><ele>52.800000000000004</ele><time>2026-04-09T13:48:45.211Z</time></trkpt><trkpt lat="44.1676083" lon="12.06517"><ele>52.2</ele><time>2026-04-09T13:48:46.211Z</time></trkpt><trkpt lat="44.167715" lon="12.0652683"><ele>51.599999999999994</ele><time>2026-04-09T13:48:48.211Z</time></trkpt><trkpt lat="44.1677733" lon="12.0653117"><ele>51.0</ele><time>2026-04-09T13:48:49.211Z</time></trkpt><trkpt lat="44.16788" lon="12.0654033"><ele>51.0</ele><time>2026-04-09T13:48:51.211Z</time></trkpt><trkpt lat="44.16794" lon="12.065445"><ele>51.0</ele><time>2026-04-09T13:48:52.211Z</time></trkpt><trkpt lat="44.1679967" lon="12.0654883"><ele>51.0</ele><time>2026-04-09T13:48:53.211Z</time></trkpt><trkpt lat="44.1680567" lon="12.06553"><ele>51.0</ele><time>2026-04-09T13:48:54.211Z</time></trkpt><trkpt lat="44.16812" lon="12.0655767"><ele>51.0</ele><time>2026-04-09T13:48:55.211Z</time></trkpt><trkpt lat="44.16818" lon="12.0656267"><ele>51.0</ele><time>2026-04-09T13:48:56.211Z</time></trkpt><trkpt lat="44.16824" lon="12.065665"><ele>51.0</ele><time>2026-04-09T13:48:57.211Z</time></trkpt><trkpt lat="44.168295" lon="12.06571"><ele>50.599999999999994</ele><time>2026-04-09T13:48:58.211Z</time></trkpt><trkpt lat="44.1684067" lon="12.065785"><ele>50.2</ele><time>2026-04-09T13:49:00.211Z</time></trkpt><trkpt lat="44.168465" lon="12.0658217"><ele>49.8</ele><time>2026-04-09T13:49:01.211Z</time></trkpt><trkpt lat="44.1685767" lon="12.0658933"><ele>49.400000000000006</ele><time>2026-04-09T13:49:03.211Z</time></trkpt><trkpt lat="44.1686733" lon="12.0659717"><ele>49.0</ele><time>2026-04-09T13:49:05.211Z</time></trkpt><trkpt lat="44.1687283" lon="12.0660183"><ele>48.99999999999999</ele><time>2026-04-09T13:49:06.211Z</time></trkpt><trkpt lat="44.1687817" lon="12.0660683"><ele>49.0</ele><time>2026-04-09T13:49:07.211Z</time></trkpt><trkpt lat="44.16884" lon="12.0661167"><ele>49.0</ele><time>2026-04-09T13:49:08.211Z</time></trkpt><trkpt lat="44.1689517" lon="12.0661917"><ele>49.0</ele><time>2026-04-09T13:49:10.211Z</time></trkpt><trkpt lat="44.1690067" lon="12.066235"><ele>48.99999999999999</ele><time>2026-04-09T13:49:11.211Z</time></trkpt><trkpt lat="44.1690667" lon="12.0662783"><ele>49.0</ele><time>2026-04-09T13:49:12.211Z</time></trkpt><trkpt lat="44.1691267" lon="12.0663283"><ele>48.714285714285715</ele><time>2026-04-09T13:49:13.211Z</time></trkpt><trkpt lat="44.1691833" lon="12.0663767"><ele>48.42857142857143</ele><time>2026-04-09T13:49:14.211Z</time></trkpt><trkpt lat="44.1692417" lon="12.0664183"><ele>48.14285714285714</ele><time>2026-04-09T13:49:15.211Z</time></trkpt><trkpt lat="44.1693" lon="12.06646"><ele>47.85714285714286</ele><time>2026-04-09T13:49:16.211Z</time></trkpt><trkpt lat="44.1693633" lon="12.066505"><ele>47.57142857142857</ele><time>2026-04-09T13:49:17.211Z</time></trkpt><trkpt lat="44.1694233" lon="12.0665483"><ele>47.285714285714285</ele><time>2026-04-09T13:49:18.211Z</time></trkpt><trkpt lat="44.1694833" lon="12.0665917"><ele>47.0</ele><time>2026-04-09T13:49:19.211Z</time></trkpt><trkpt lat="44.169545" lon="12.0666333"><ele>47.0</ele><time>2026-04-09T13:49:20.211Z</time></trkpt><trkpt lat="44.1696083" lon="12.06668"><ele>47.0</ele><time>2026-04-09T13:49:21.211Z</time></trkpt><trkpt lat="44.16967" lon="12.0667283"><ele>47.0</ele><time>2026-04-09T13:49:22.211Z</time></trkpt><trkpt lat="44.1697283" lon="12.06678"><ele>47.0</ele><time>2026-04-09T13:49:23.211Z</time></trkpt><trkpt lat="44.1697933" lon="12.0668317"><ele>47.0</ele><time>2026-04-09T13:49:24.211Z</time></trkpt><trkpt lat="44.16985" lon="12.066875"><ele>47.0</ele><time>2026-04-09T13:49:25.211Z</time></trkpt><trkpt lat="44.1699083" lon="12.0669183"><ele>47.0</ele><time>2026-04-09T13:49:26.211Z</time></trkpt><trkpt lat="44.1699633" lon="12.06697"><ele>47.0</ele><time>2026-04-09T13:49:27.211Z</time></trkpt><trkpt lat="44.1700433" lon="12.0671017"><ele>47.0</ele><time>2026-04-09T13:49:29.211Z</time></trkpt><trkpt lat="44.1700717" lon="12.0671917"><ele>47.0</ele><time>2026-04-09T13:49:30.211Z</time></trkpt><trkpt lat="44.1700733" lon="12.067355"><ele>47.0</ele><time>2026-04-09T13:49:32.211Z</time></trkpt><trkpt lat="44.17002" lon="12.067495"><ele>47.0</ele><time>2026-04-09T13:49:34.211Z</time></trkpt><trkpt lat="44.1699833" lon="12.06757"><ele>46.6</ele><time>2026-04-09T13:49:35.211Z</time></trkpt><trkpt lat="44.1699133" lon="12.06771"><ele>46.2</ele><time>2026-04-09T13:49:37.211Z</time></trkpt><trkpt lat="44.1698567" lon="12.067865"><ele>45.8</ele><time>2026-04-09T13:49:39.211Z</time></trkpt><trkpt lat="44.169825" lon="12.0679433"><ele>45.4</ele><time>2026-04-09T13:49:40.211Z</time></trkpt><trkpt lat="44.1697667" lon="12.0680883"><ele>45.0</ele><time>2026-04-09T13:49:42.211Z</time></trkpt><trkpt lat="44.1697" lon="12.068235"><ele>45.0</ele><time>2026-04-09T13:49:44.211Z</time></trkpt><trkpt lat="44.169635" lon="12.0683767"><ele>45.0</ele><time>2026-04-09T13:49:46.211Z</time></trkpt><trkpt lat="44.1696067" lon="12.06847"><ele>45.0</ele><time>2026-04-09T13:49:47.211Z</time></trkpt><trkpt lat="44.169535" lon="12.0686133"><ele>45.0</ele><time>2026-04-09T13:49:49.211Z</time></trkpt><trkpt lat="44.1694767" lon="12.0687683"><ele>45.0</ele><time>2026-04-09T13:49:51.211Z</time></trkpt><trkpt lat="44.169445" lon="12.068845"><ele>45.0</ele><time>2026-04-09T13:49:52.211Z</time></trkpt><trkpt lat="44.16939" lon="12.0690033"><ele>45.0</ele><time>2026-04-09T13:49:54.211Z</time></trkpt><trkpt lat="44.16936" lon="12.069085"><ele>45.0</ele><time>2026-04-09T13:49:55.211Z</time></trkpt><trkpt lat="44.1693283" lon="12.0691633"><ele>45.0</ele><time>2026-04-09T13:49:56.211Z</time></trkpt><trkpt lat="44.1692733" lon="12.06932"><ele>45.0</ele><time>2026-04-09T13:49:58.211Z</time></trkpt><trkpt lat="44.1692133" lon="12.0694717"><ele>45.0</ele><time>2026-04-09T13:50:00.211Z</time></trkpt><trkpt lat="44.1691617" lon="12.0696233"><ele>45.0</ele><time>2026-04-09T13:50:02.211Z</time></trkpt><trkpt lat="44.16913" lon="12.0697117"><ele>45.0</ele><time>2026-04-09T13:50:03.211Z</time></trkpt><trkpt lat="44.1690983" lon="12.069795"><ele>45.0</ele><time>2026-04-09T13:50:04.211Z</time></trkpt><trkpt lat="44.169065" lon="12.06988"><ele>45.0</ele><time>2026-04-09T13:50:05.211Z</time></trkpt><trkpt lat="44.16904" lon="12.069965"><ele>45.0</ele><time>2026-04-09T13:50:06.211Z</time></trkpt><trkpt lat="44.1690083" lon="12.0700483"><ele>44.833333333333336</ele><time>2026-04-09T13:50:07.211Z</time></trkpt><trkpt lat="44.1689767" lon="12.0701317"><ele>44.666666666666664</ele><time>2026-04-09T13:50:08.211Z</time></trkpt><trkpt lat="44.168945" lon="12.0702183"><ele>44.5</ele><time>2026-04-09T13:50:09.211Z</time></trkpt><trkpt lat="44.1689133" lon="12.0703"><ele>44.33333333333333</ele><time>2026-04-09T13:50:10.211Z</time></trkpt><trkpt lat="44.16888" lon="12.0703883"><ele>44.166666666666664</ele><time>2026-04-09T13:50:11.211Z</time></trkpt><trkpt lat="44.168845" lon="12.0704733"><ele>44.0</ele><time>2026-04-09T13:50:12.211Z</time></trkpt><trkpt lat="44.1687717" lon="12.0706183"><ele>44.0</ele><time>2026-04-09T13:50:14.211Z</time></trkpt><trkpt lat="44.1687" lon="12.070765"><ele>44.0</ele><time>2026-04-09T13:50:16.211Z</time></trkpt><trkpt lat="44.1686283" lon="12.0709017"><ele>44.0</ele><time>2026-04-09T13:50:18.211Z</time></trkpt><trkpt lat="44.168555" lon="12.071035"><ele>44.0</ele><time>2026-04-09T13:50:20.211Z</time></trkpt><trkpt lat="44.16852" lon="12.0711083"><ele>44.0</ele><time>2026-04-09T13:50:21.211Z</time></trkpt><trkpt lat="44.16845" lon="12.07125"><ele>44.0</ele><time>2026-04-09T13:50:23.211Z</time></trkpt><trkpt lat="44.1684" lon="12.0713833"><ele>44.0</ele><time>2026-04-09T13:50:25.211Z</time></trkpt><trkpt lat="44.16834" lon="12.0715133"><ele>44.0</ele><time>2026-04-09T13:50:27.211Z</time></trkpt><trkpt lat="44.1682833" lon="12.0716617"><ele>44.0</ele><time>2026-04-09T13:50:29.211Z</time></trkpt><trkpt lat="44.1682467" lon="12.0717417"><ele>44.0</ele><time>2026-04-09T13:50:30.211Z</time></trkpt><trkpt lat="44.1682133" lon="12.0718217"><ele>43.5</ele><time>2026-04-09T13:50:31.211Z</time></trkpt><trkpt lat="44.168275" lon="12.0722117"><ele>43.0</ele><time>2026-04-09T13:50:32.762Z</time></trkpt><trkpt lat="44.1681333" lon="12.0724167"><ele>43.0</ele><time>2026-04-09T13:50:34.127Z</time></trkpt><trkpt lat="44.1680717" lon="12.0722467"><ele>43.0</ele><time>2026-04-09T13:50:35.212Z</time></trkpt><trkpt lat="44.1679967" lon="12.0723483"><ele>43.0</ele><time>2026-04-09T13:50:38.212Z</time></trkpt><trkpt lat="44.1679583" lon="12.07243"><ele>43.0</ele><time>2026-04-09T13:50:39.212Z</time></trkpt><trkpt lat="44.16792" lon="12.0725033"><ele>43.0</ele><time>2026-04-09T13:50:40.212Z</time></trkpt><trkpt lat="44.167885" lon="12.072595"><ele>42.833333333333336</ele><time>2026-04-09T13:50:41.212Z</time></trkpt><trkpt lat="44.1678367" lon="12.0726983"><ele>42.66666666666667</ele><time>2026-04-09T13:50:42.212Z</time></trkpt><trkpt lat="44.1678017" lon="12.0727883"><ele>42.5</ele><time>2026-04-09T13:50:43.212Z</time></trkpt><trkpt lat="44.1677617" lon="12.0728683"><ele>42.333333333333336</ele><time>2026-04-09T13:50:44.212Z</time></trkpt><trkpt lat="44.1677067" lon="12.0729383"><ele>42.166666666666664</ele><time>2026-04-09T13:50:45.212Z</time></trkpt><trkpt lat="44.1676483" lon="12.07301"><ele>42.0</ele><time>2026-04-09T13:50:46.212Z</time></trkpt><trkpt lat="44.1676017" lon="12.0730767"><ele>42.0</ele><time>2026-04-09T13:50:47.212Z</time></trkpt><trkpt lat="44.1675633" lon="12.07315"><ele>42.0</ele><time>2026-04-09T13:50:48.212Z</time></trkpt><trkpt lat="44.1675283" lon="12.0732233"><ele>42.0</ele><time>2026-04-09T13:50:49.212Z</time></trkpt><trkpt lat="44.1674433" lon="12.0733767"><ele>42.0</ele><time>2026-04-09T13:50:51.212Z</time></trkpt><trkpt lat="44.1674" lon="12.0734533"><ele>42.0</ele><time>2026-04-09T13:50:52.212Z</time></trkpt><trkpt lat="44.16736" lon="12.073525"><ele>42.0</ele><time>2026-04-09T13:50:53.212Z</time></trkpt><trkpt lat="44.16732" lon="12.0735967"><ele>41.5</ele><time>2026-04-09T13:50:54.212Z</time></trkpt><trkpt lat="44.1672817" lon="12.0736717"><ele>41.0</ele><time>2026-04-09T13:50:55.212Z</time></trkpt><trkpt lat="44.167245" lon="12.073745"><ele>40.5</ele><time>2026-04-09T13:50:56.212Z</time></trkpt><trkpt lat="44.1672117" lon="12.0738233"><ele>40.0</ele><time>2026-04-09T13:50:57.212Z</time></trkpt><trkpt lat="44.1671667" lon="12.0739033"><ele>39.5</ele><time>2026-04-09T13:50:58.212Z</time></trkpt><trkpt lat="44.16713" lon="12.0739767"><ele>39.0</ele><time>2026-04-09T13:50:59.212Z</time></trkpt><trkpt lat="44.1670583" lon="12.0741217"><ele>39.0</ele><time>2026-04-09T13:51:01.212Z</time></trkpt><trkpt lat="44.166995" lon="12.0742533"><ele>39.0</ele><time>2026-04-09T13:51:03.212Z</time></trkpt><trkpt lat="44.1669317" lon="12.0743983"><ele>39.0</ele><time>2026-04-09T13:51:05.212Z</time></trkpt><trkpt lat="44.1668667" lon="12.0745117"><ele>39.0</ele><time>2026-04-09T13:51:07.212Z</time></trkpt><trkpt lat="44.166795" lon="12.0746367"><ele>39.0</ele><time>2026-04-09T13:51:09.212Z</time></trkpt><trkpt lat="44.1667567" lon="12.0747067"><ele>39.0</ele><time>2026-04-09T13:51:10.212Z</time></trkpt><trkpt lat="44.1666817" lon="12.0748267"><ele>39.0</ele><time>2026-04-09T13:51:12.212Z</time></trkpt><trkpt lat="44.1665983" lon="12.0749433"><ele>39.0</ele><time>2026-04-09T13:51:14.212Z</time></trkpt><trkpt lat="44.16652" lon="12.0750533"><ele>39.0</ele><time>2026-04-09T13:51:16.212Z</time></trkpt><trkpt lat="44.16643" lon="12.075155"><ele>39.333333333333336</ele><time>2026-04-09T13:51:18.212Z</time></trkpt><trkpt lat="44.1663433" lon="12.075245"><ele>39.666666666666664</ele><time>2026-04-09T13:51:20.212Z</time></trkpt><trkpt lat="44.166265" lon="12.075315"><ele>40.0</ele><time>2026-04-09T13:51:22.212Z</time></trkpt><trkpt lat="44.1661967" lon="12.075345"><ele>40.33333333333333</ele><time>2026-04-09T13:51:24.212Z</time></trkpt><trkpt lat="44.16613" lon="12.0753683"><ele>40.666666666666664</ele><time>2026-04-09T13:51:26.212Z</time></trkpt><trkpt lat="44.1660783" lon="12.0754817"><ele>41.0</ele><time>2026-04-09T13:51:29.212Z</time></trkpt><trkpt lat="44.1660933" lon="12.0756"><ele>41.0</ele><time>2026-04-09T13:51:31.212Z</time></trkpt><trkpt lat="44.1661267" lon="12.075735"><ele>41.0</ele><time>2026-04-09T13:51:33.212Z</time></trkpt><trkpt lat="44.166115" lon="12.0758733"><ele>41.0</ele><time>2026-04-09T13:51:35.212Z</time></trkpt><trkpt lat="44.166075" lon="12.0760117"><ele>41.0</ele><time>2026-04-09T13:51:37.212Z</time></trkpt><trkpt lat="44.1660283" lon="12.0761433"><ele>41.0</ele><time>2026-04-09T13:51:39.212Z</time></trkpt><trkpt lat="44.165975" lon="12.07628"><ele>41.0</ele><time>2026-04-09T13:51:41.212Z</time></trkpt><trkpt lat="44.16593" lon="12.076425"><ele>41.0</ele><time>2026-04-09T13:51:43.212Z</time></trkpt><trkpt lat="44.1658767" lon="12.0765667"><ele>41.0</ele><time>2026-04-09T13:51:45.212Z</time></trkpt><trkpt lat="44.1658267" lon="12.0767117"><ele>41.0</ele><time>2026-04-09T13:51:47.212Z</time></trkpt><trkpt lat="44.16578" lon="12.07685"><ele>40.75</ele><time>2026-04-09T13:51:49.212Z</time></trkpt><trkpt lat="44.1657333" lon="12.0769867"><ele>40.5</ele><time>2026-04-09T13:51:51.212Z</time></trkpt><trkpt lat="44.1656783" lon="12.077125"><ele>40.25</ele><time>2026-04-09T13:51:53.212Z</time></trkpt><trkpt lat="44.165625" lon="12.0772667"><ele>40.0</ele><time>2026-04-09T13:51:55.212Z</time></trkpt><trkpt lat="44.1655717" lon="12.077415"><ele>39.6</ele><time>2026-04-09T13:51:57.212Z</time></trkpt><trkpt lat="44.1655267" lon="12.0775633"><ele>39.2</ele><time>2026-04-09T13:51:59.212Z</time></trkpt><trkpt lat="44.1654717" lon="12.0777117"><ele>38.8</ele><time>2026-04-09T13:52:01.212Z</time></trkpt><trkpt lat="44.1654217" lon="12.0778767"><ele>38.4</ele><time>2026-04-09T13:52:03.212Z</time></trkpt><trkpt lat="44.1653917" lon="12.0779583"><ele>38.0</ele><time>2026-04-09T13:52:04.212Z</time></trkpt><trkpt lat="44.1653367" lon="12.0781033"><ele>38.0</ele><time>2026-04-09T13:52:06.212Z</time></trkpt><trkpt lat="44.16528" lon="12.0782467"><ele>38.0</ele><time>2026-04-09T13:52:08.212Z</time></trkpt><trkpt lat="44.1652433" lon="12.0783267"><ele>38.0</ele><time>2026-04-09T13:52:09.212Z</time></trkpt><trkpt lat="44.1652133" lon="12.0784083"><ele>38.0</ele><time>2026-04-09T13:52:10.212Z</time></trkpt><trkpt lat="44.1651567" lon="12.0785567"><ele>38.0</ele><time>2026-04-09T13:52:12.212Z</time></trkpt><trkpt lat="44.1651" lon="12.0787067"><ele>38.199999999999996</ele><time>2026-04-09T13:52:14.212Z</time></trkpt><trkpt lat="44.1650367" lon="12.078865"><ele>38.4</ele><time>2026-04-09T13:52:16.212Z</time></trkpt><trkpt lat="44.1650033" lon="12.0789433"><ele>38.599999999999994</ele><time>2026-04-09T13:52:17.212Z</time></trkpt><trkpt lat="44.1649533" lon="12.0791"><ele>38.8</ele><time>2026-04-09T13:52:19.212Z</time></trkpt><trkpt lat="44.1649183" lon="12.0791767"><ele>39.0</ele><time>2026-04-09T13:52:20.212Z</time></trkpt><trkpt lat="44.16488" lon="12.079255"><ele>39.0</ele><time>2026-04-09T13:52:21.212Z</time></trkpt><trkpt lat="44.1648467" lon="12.0793333"><ele>39.0</ele><time>2026-04-09T13:52:22.212Z</time></trkpt><trkpt lat="44.1648167" lon="12.0794117"><ele>39.0</ele><time>2026-04-09T13:52:23.212Z</time></trkpt><trkpt lat="44.16479" lon="12.0794933"><ele>39.0</ele><time>2026-04-09T13:52:24.212Z</time></trkpt><trkpt lat="44.1647317" lon="12.0796483"><ele>39.0</ele><time>2026-04-09T13:52:26.212Z</time></trkpt><trkpt lat="44.1646817" lon="12.079805"><ele>39.0</ele><time>2026-04-09T13:52:28.212Z</time></trkpt><trkpt lat="44.164655" lon="12.079885"><ele>38.833333333333336</ele><time>2026-04-09T13:52:29.212Z</time></trkpt><trkpt lat="44.1646183" lon="12.079965"><ele>38.666666666666664</ele><time>2026-04-09T13:52:30.212Z</time></trkpt><trkpt lat="44.1645817" lon="12.080045"><ele>38.5</ele><time>2026-04-09T13:52:31.212Z</time></trkpt><trkpt lat="44.1645267" lon="12.0801983"><ele>38.33333333333333</ele><time>2026-04-09T13:52:33.212Z</time></trkpt><trkpt lat="44.1645033" lon="12.08028"><ele>38.166666666666664</ele><time>2026-04-09T13:52:34.212Z</time></trkpt><trkpt lat="44.1644517" lon="12.08042"><ele>38.0</ele><time>2026-04-09T13:52:36.212Z</time></trkpt><trkpt lat="44.1644067" lon="12.0805667"><ele>38.0</ele><time>2026-04-09T13:52:38.212Z</time></trkpt><trkpt lat="44.1643633" lon="12.08072"><ele>38.0</ele><time>2026-04-09T13:52:40.212Z</time></trkpt><trkpt lat="44.1643117" lon="12.0808783"><ele>38.0</ele><time>2026-04-09T13:52:42.212Z</time></trkpt><trkpt lat="44.16428" lon="12.08096"><ele>38.0</ele><time>2026-04-09T13:52:43.212Z</time></trkpt><trkpt lat="44.1642483" lon="12.08104"><ele>38.0</ele><time>2026-04-09T13:52:44.212Z</time></trkpt><trkpt lat="44.1642233" lon="12.0811233"><ele>38.0</ele><time>2026-04-09T13:52:45.212Z</time></trkpt><trkpt lat="44.1641967" lon="12.0812033"><ele>38.166666666666664</ele><time>2026-04-09T13:52:46.212Z</time></trkpt><trkpt lat="44.164165" lon="12.0812817"><ele>38.33333333333333</ele><time>2026-04-09T13:52:47.212Z</time></trkpt><trkpt lat="44.1641367" lon="12.0813633"><ele>38.5</ele><time>2026-04-09T13:52:48.212Z</time></trkpt><trkpt lat="44.1641017" lon="12.0814467"><ele>38.666666666666664</ele><time>2026-04-09T13:52:49.213Z</time></trkpt><trkpt lat="44.1640667" lon="12.0815283"><ele>38.833333333333336</ele><time>2026-04-09T13:52:50.212Z</time></trkpt><trkpt lat="44.164005" lon="12.0816783"><ele>39.0</ele><time>2026-04-09T13:52:52.212Z</time></trkpt><trkpt lat="44.1639483" lon="12.08183"><ele>39.0</ele><time>2026-04-09T13:52:54.212Z</time></trkpt><trkpt lat="44.1639167" lon="12.0819117"><ele>39.0</ele><time>2026-04-09T13:52:55.212Z</time></trkpt><trkpt lat="44.1638533" lon="12.0820617"><ele>39.0</ele><time>2026-04-09T13:52:57.212Z</time></trkpt><trkpt lat="44.163785" lon="12.0822083"><ele>39.0</ele><time>2026-04-09T13:52:59.212Z</time></trkpt><trkpt lat="44.1637533" lon="12.0822883"><ele>39.0</ele><time>2026-04-09T13:53:00.212Z</time></trkpt><trkpt lat="44.16372" lon="12.082365"><ele>39.0</ele><time>2026-04-09T13:53:01.212Z</time></trkpt><trkpt lat="44.16369" lon="12.0824433"><ele>39.0</ele><time>2026-04-09T13:53:02.212Z</time></trkpt><trkpt lat="44.1636333" lon="12.0825967"><ele>39.0</ele><time>2026-04-09T13:53:04.212Z</time></trkpt><trkpt lat="44.163605" lon="12.0826767"><ele>39.0</ele><time>2026-04-09T13:53:05.212Z</time></trkpt><trkpt lat="44.163575" lon="12.0827617"><ele>39.0</ele><time>2026-04-09T13:53:06.212Z</time></trkpt><trkpt lat="44.1635383" lon="12.0828467"><ele>39.0</ele><time>2026-04-09T13:53:07.212Z</time></trkpt><trkpt lat="44.1635067" lon="12.0829333"><ele>39.0</ele><time>2026-04-09T13:53:08.212Z</time></trkpt><trkpt lat="44.1634533" lon="12.08309"><ele>39.0</ele><time>2026-04-09T13:53:10.212Z</time></trkpt><trkpt lat="44.1634233" lon="12.083175"><ele>39.0</ele><time>2026-04-09T13:53:11.212Z</time></trkpt><trkpt lat="44.1633933" lon="12.0832567"><ele>39.0</ele><time>2026-04-09T13:53:12.212Z</time></trkpt><trkpt lat="44.1633583" lon="12.0833367"><ele>39.0</ele><time>2026-04-09T13:53:13.212Z</time></trkpt><trkpt lat="44.1632983" lon="12.0834867"><ele>39.0</ele><time>2026-04-09T13:53:15.213Z</time></trkpt><trkpt lat="44.163235" lon="12.08364"><ele>39.0</ele><time>2026-04-09T13:53:17.212Z</time></trkpt><trkpt lat="44.1632017" lon="12.0837217"><ele>39.0</ele><time>2026-04-09T13:53:18.212Z</time></trkpt><trkpt lat="44.1631667" lon="12.0838017"><ele>39.0</ele><time>2026-04-09T13:53:19.212Z</time></trkpt><trkpt lat="44.16313" lon="12.08388"><ele>39.0</ele><time>2026-04-09T13:53:20.212Z</time></trkpt><trkpt lat="44.1630967" lon="12.08396"><ele>39.0</ele><time>2026-04-09T13:53:21.212Z</time></trkpt><trkpt lat="44.1630583" lon="12.0840433"><ele>39.0</ele><time>2026-04-09T13:53:22.212Z</time></trkpt><trkpt lat="44.16302" lon="12.0841217"><ele>39.0</ele><time>2026-04-09T13:53:23.212Z</time></trkpt><trkpt lat="44.16298" lon="12.0841933"><ele>39.0</ele><time>2026-04-09T13:53:24.212Z</time></trkpt><trkpt lat="44.1629083" lon="12.0843333"><ele>39.0</ele><time>2026-04-09T13:53:26.212Z</time></trkpt><trkpt lat="44.1628317" lon="12.0844683"><ele>39.0</ele><time>2026-04-09T13:53:28.212Z</time></trkpt><trkpt lat="44.1627933" lon="12.0845383"><ele>39.0</ele><time>2026-04-09T13:53:29.212Z</time></trkpt><trkpt lat="44.1627217" lon="12.0846717"><ele>39.0</ele><time>2026-04-09T13:53:31.212Z</time></trkpt><trkpt lat="44.1626533" lon="12.0848067"><ele>39.0</ele><time>2026-04-09T13:53:33.212Z</time></trkpt><trkpt lat="44.1626133" lon="12.0848767"><ele>39.0</ele><time>2026-04-09T13:53:34.212Z</time></trkpt><trkpt lat="44.1625733" lon="12.0849467"><ele>39.0</ele><time>2026-04-09T13:53:35.212Z</time></trkpt><trkpt lat="44.16253" lon="12.0850167"><ele>39.0</ele><time>2026-04-09T13:53:36.212Z</time></trkpt><trkpt lat="44.1624383" lon="12.0851383"><ele>39.0</ele><time>2026-04-09T13:53:38.212Z</time></trkpt><trkpt lat="44.162385" lon="12.08519"><ele>39.0</ele><time>2026-04-09T13:53:39.212Z</time></trkpt><trkpt lat="44.1623267" lon="12.0852317"><ele>38.57142857142858</ele><time>2026-04-09T13:53:40.212Z</time></trkpt><trkpt lat="44.162265" lon="12.0852683"><ele>38.14285714285714</ele><time>2026-04-09T13:53:41.212Z</time></trkpt><trkpt lat="44.1622" lon="12.0852983"><ele>37.714285714285715</ele><time>2026-04-09T13:53:42.212Z</time></trkpt><trkpt lat="44.1621317" lon="12.085315"><ele>37.28571428571429</ele><time>2026-04-09T13:53:43.212Z</time></trkpt><trkpt lat="44.16206" lon="12.0853333"><ele>36.85714285714286</ele><time>2026-04-09T13:53:44.212Z</time></trkpt><trkpt lat="44.1619933" lon="12.0853467"><ele>36.42857142857143</ele><time>2026-04-09T13:53:45.212Z</time></trkpt><trkpt lat="44.1619233" lon="12.08536"><ele>36.0</ele><time>2026-04-09T13:53:46.212Z</time></trkpt><trkpt lat="44.1618567" lon="12.0853733"><ele>36.0</ele><time>2026-04-09T13:53:47.212Z</time></trkpt><trkpt lat="44.1617883" lon="12.0853833"><ele>36.0</ele><time>2026-04-09T13:53:48.212Z</time></trkpt><trkpt lat="44.1617217" lon="12.0854"><ele>36.0</ele><time>2026-04-09T13:53:49.212Z</time></trkpt><trkpt lat="44.1616017" lon="12.0854233"><ele>36.0</ele><time>2026-04-09T13:53:51.212Z</time></trkpt><trkpt lat="44.161475" lon="12.0854517"><ele>36.0</ele><time>2026-04-09T13:53:53.212Z</time></trkpt><trkpt lat="44.16141" lon="12.0854617"><ele>36.4</ele><time>2026-04-09T13:53:54.212Z</time></trkpt><trkpt lat="44.1612883" lon="12.0854717"><ele>36.8</ele><time>2026-04-09T13:53:56.212Z</time></trkpt><trkpt lat="44.1611617" lon="12.0854817"><ele>37.199999999999996</ele><time>2026-04-09T13:53:58.212Z</time></trkpt><trkpt lat="44.16109" lon="12.0854917"><ele>37.6</ele><time>2026-04-09T13:53:59.212Z</time></trkpt><trkpt lat="44.1610217" lon="12.0855017"><ele>38.0</ele><time>2026-04-09T13:54:00.212Z</time></trkpt><trkpt lat="44.1609533" lon="12.0855183"><ele>38.0</ele><time>2026-04-09T13:54:01.212Z</time></trkpt><trkpt lat="44.1608883" lon="12.085535"><ele>38.0</ele><time>2026-04-09T13:54:02.212Z</time></trkpt><trkpt lat="44.160765" lon="12.0855483"><ele>38.0</ele><time>2026-04-09T13:54:04.212Z</time></trkpt><trkpt lat="44.1607017" lon="12.08555"><ele>38.0</ele><time>2026-04-09T13:54:05.212Z</time></trkpt><trkpt lat="44.1605783" lon="12.085565"><ele>38.0</ele><time>2026-04-09T13:54:07.212Z</time></trkpt><trkpt lat="44.16051" lon="12.085575"><ele>38.0</ele><time>2026-04-09T13:54:08.212Z</time></trkpt><trkpt lat="44.1604417" lon="12.085585"><ele>38.0</ele><time>2026-04-09T13:54:09.212Z</time></trkpt><trkpt lat="44.1603733" lon="12.0855917"><ele>38.0</ele><time>2026-04-09T13:54:10.212Z</time></trkpt><trkpt lat="44.1603033" lon="12.0855983"><ele>38.0</ele><time>2026-04-09T13:54:11.212Z</time></trkpt><trkpt lat="44.160235" lon="12.0856083"><ele>38.0</ele><time>2026-04-09T13:54:12.212Z</time></trkpt><trkpt lat="44.1601683" lon="12.0856167"><ele>38.0</ele><time>2026-04-09T13:54:13.212Z</time></trkpt><trkpt lat="44.1601033" lon="12.0856217"><ele>38.0</ele><time>2026-04-09T13:54:14.212Z</time></trkpt><trkpt lat="44.1600383" lon="12.0856267"><ele>38.0</ele><time>2026-04-09T13:54:15.212Z</time></trkpt><trkpt lat="44.15997" lon="12.08563"><ele>38.0</ele><time>2026-04-09T13:54:16.212Z</time></trkpt><trkpt lat="44.1598983" lon="12.0856417"><ele>38.0</ele><time>2026-04-09T13:54:17.212Z</time></trkpt><trkpt lat="44.1598333" lon="12.0856483"><ele>38.0</ele><time>2026-04-09T13:54:18.212Z</time></trkpt><trkpt lat="44.15977" lon="12.085655"><ele>38.0</ele><time>2026-04-09T13:54:19.212Z</time></trkpt><trkpt lat="44.1597017" lon="12.0856617"><ele>38.0</ele><time>2026-04-09T13:54:20.212Z</time></trkpt><trkpt lat="44.1596333" lon="12.0856683"><ele>38.0</ele><time>2026-04-09T13:54:21.212Z</time></trkpt><trkpt lat="44.1595067" lon="12.0856833"><ele>38.0</ele><time>2026-04-09T13:54:23.212Z</time></trkpt><trkpt lat="44.1594433" lon="12.085695"><ele>38.0</ele><time>2026-04-09T13:54:24.212Z</time></trkpt><trkpt lat="44.1593767" lon="12.0857033"><ele>38.0</ele><time>2026-04-09T13:54:25.212Z</time></trkpt><trkpt lat="44.15925" lon="12.085705"><ele>38.0</ele><time>2026-04-09T13:54:27.212Z</time></trkpt><trkpt lat="44.1591233" lon="12.0857183"><ele>38.0</ele><time>2026-04-09T13:54:29.212Z</time></trkpt><trkpt lat="44.159055" lon="12.0857267"><ele>38.285714285714285</ele><time>2026-04-09T13:54:30.212Z</time></trkpt><trkpt lat="44.15899" lon="12.0857317"><ele>38.57142857142858</ele><time>2026-04-09T13:54:31.212Z</time></trkpt><trkpt lat="44.1589233" lon="12.0857317"><ele>38.85714285714286</ele><time>2026-04-09T13:54:32.212Z</time></trkpt><trkpt lat="44.1588567" lon="12.0857367"><ele>39.14285714285714</ele><time>2026-04-09T13:54:33.212Z</time></trkpt><trkpt lat="44.15879" lon="12.0857467"><ele>39.42857142857143</ele><time>2026-04-09T13:54:34.212Z</time></trkpt><trkpt lat="44.1587217" lon="12.0857517"><ele>39.714285714285715</ele><time>2026-04-09T13:54:35.212Z</time></trkpt><trkpt lat="44.1586583" lon="12.0857567"><ele>40.0</ele><time>2026-04-09T13:54:36.212Z</time></trkpt><trkpt lat="44.1585933" lon="12.0857567"><ele>40.0</ele><time>2026-04-09T13:54:37.212Z</time></trkpt><trkpt lat="44.1585283" lon="12.08575"><ele>40.0</ele><time>2026-04-09T13:54:38.212Z</time></trkpt><trkpt lat="44.1584633" lon="12.0857433"><ele>40.0</ele><time>2026-04-09T13:54:39.212Z</time></trkpt><trkpt lat="44.1584" lon="12.085735"><ele>40.0</ele><time>2026-04-09T13:54:40.212Z</time></trkpt><trkpt lat="44.1583317" lon="12.08572"><ele>40.0</ele><time>2026-04-09T13:54:41.212Z</time></trkpt><trkpt lat="44.1582683" lon="12.08569"><ele>40.0</ele><time>2026-04-09T13:54:42.212Z</time></trkpt><trkpt lat="44.1582067" lon="12.08566"><ele>40.0</ele><time>2026-04-09T13:54:43.212Z</time></trkpt><trkpt lat="44.15815" lon="12.08562"><ele>39.4</ele><time>2026-04-09T13:54:44.212Z</time></trkpt><trkpt lat="44.1580917" lon="12.0855867"><ele>38.8</ele><time>2026-04-09T13:54:45.212Z</time></trkpt><trkpt lat="44.15803" lon="12.0855533"><ele>38.2</ele><time>2026-04-09T13:54:46.213Z</time></trkpt><trkpt lat="44.157915" lon="12.085495"><ele>37.6</ele><time>2026-04-09T13:54:48.212Z</time></trkpt><trkpt lat="44.157815" lon="12.08546"><ele>37.0</ele><time>2026-04-09T13:54:50.212Z</time></trkpt><trkpt lat="44.15772" lon="12.085435"><ele>37.0</ele><time>2026-04-09T13:54:52.213Z</time></trkpt><trkpt lat="44.1576183" lon="12.0854117"><ele>37.0</ele><time>2026-04-09T13:54:54.212Z</time></trkpt><trkpt lat="44.157515" lon="12.0853667"><ele>37.0</ele><time>2026-04-09T13:54:56.212Z</time></trkpt><trkpt lat="44.157415" lon="12.085295"><ele>37.0</ele><time>2026-04-09T13:54:58.212Z</time></trkpt><trkpt lat="44.157325" lon="12.0852067"><ele>37.0</ele><time>2026-04-09T13:55:00.212Z</time></trkpt><trkpt lat="44.15723" lon="12.0851117"><ele>37.25</ele><time>2026-04-09T13:55:02.212Z</time></trkpt><trkpt lat="44.1571367" lon="12.0850133"><ele>37.5</ele><time>2026-04-09T13:55:04.212Z</time></trkpt><trkpt lat="44.1570467" lon="12.08491"><ele>37.75</ele><time>2026-04-09T13:55:06.212Z</time></trkpt><trkpt lat="44.15697" lon="12.0848067"><ele>38.0</ele><time>2026-04-09T13:55:08.212Z</time></trkpt><trkpt lat="44.1568783" lon="12.0846967"><ele>38.0</ele><time>2026-04-09T13:55:10.212Z</time></trkpt><trkpt lat="44.1567833" lon="12.0845967"><ele>38.0</ele><time>2026-04-09T13:55:12.213Z</time></trkpt><trkpt lat="44.1566917" lon="12.0844817"><ele>38.0</ele><time>2026-04-09T13:55:14.212Z</time></trkpt><trkpt lat="44.1566433" lon="12.0844233"><ele>38.0</ele><time>2026-04-09T13:55:15.212Z</time></trkpt><trkpt lat="44.15655" lon="12.08431"><ele>38.0</ele><time>2026-04-09T13:55:17.212Z</time></trkpt><trkpt lat="44.1564983" lon="12.0842517"><ele>38.33333333333333</ele><time>2026-04-09T13:55:18.212Z</time></trkpt><trkpt lat="44.1564467" lon="12.0841983"><ele>38.666666666666664</ele><time>2026-04-09T13:55:19.212Z</time></trkpt><trkpt lat="44.156395" lon="12.0841467"><ele>39.0</ele><time>2026-04-09T13:55:20.212Z</time></trkpt><trkpt lat="44.1563417" lon="12.0840967"><ele>39.333333333333336</ele><time>2026-04-09T13:55:21.212Z</time></trkpt><trkpt lat="44.1562483" lon="12.0839867"><ele>39.66666666666667</ele><time>2026-04-09T13:55:23.212Z</time></trkpt><trkpt lat="44.1562033" lon="12.083925"><ele>40.0</ele><time>2026-04-09T13:55:24.212Z</time></trkpt><trkpt lat="44.1561133" lon="12.0838167"><ele>40.0</ele><time>2026-04-09T13:55:26.212Z</time></trkpt><trkpt lat="44.1560233" lon="12.0837117"><ele>40.0</ele><time>2026-04-09T13:55:28.212Z</time></trkpt><trkpt lat="44.1559267" lon="12.0835967"><ele>40.0</ele><time>2026-04-09T13:55:30.212Z</time></trkpt><trkpt lat="44.1558283" lon="12.08349"><ele>40.0</ele><time>2026-04-09T13:55:32.212Z</time></trkpt><trkpt lat="44.1557783" lon="12.0834267"><ele>40.0</ele><time>2026-04-09T13:55:33.212Z</time></trkpt><trkpt lat="44.1557283" lon="12.0833717"><ele>40.0</ele><time>2026-04-09T13:55:34.212Z</time></trkpt><trkpt lat="44.1556733" lon="12.083315"><ele>40.0</ele><time>2026-04-09T13:55:35.212Z</time></trkpt><trkpt lat="44.1556233" lon="12.08325"><ele>40.0</ele><time>2026-04-09T13:55:36.212Z</time></trkpt><trkpt lat="44.1555733" lon="12.08318"><ele>40.0</ele><time>2026-04-09T13:55:37.212Z</time></trkpt><trkpt lat="44.1554783" lon="12.0830633"><ele>40.0</ele><time>2026-04-09T13:55:39.212Z</time></trkpt><trkpt lat="44.15543" lon="12.083005"><ele>40.0</ele><time>2026-04-09T13:55:40.212Z</time></trkpt><trkpt lat="44.15534" lon="12.0828883"><ele>39.833333333333336</ele><time>2026-04-09T13:55:42.212Z</time></trkpt><trkpt lat="44.15525" lon="12.0827683"><ele>39.66666666666667</ele><time>2026-04-09T13:55:44.212Z</time></trkpt><trkpt lat="44.1552033" lon="12.0827033"><ele>39.5</ele><time>2026-04-09T13:55:45.212Z</time></trkpt><trkpt lat="44.1551533" lon="12.0826433"><ele>39.333333333333336</ele><time>2026-04-09T13:55:46.213Z</time></trkpt><trkpt lat="44.155105" lon="12.08258"><ele>39.166666666666664</ele><time>2026-04-09T13:55:47.212Z</time></trkpt><trkpt lat="44.1550533" lon="12.08252"><ele>39.0</ele><time>2026-04-09T13:55:48.212Z</time></trkpt><trkpt lat="44.1550033" lon="12.08245"><ele>39.0</ele><time>2026-04-09T13:55:49.212Z</time></trkpt><trkpt lat="44.1549533" lon="12.0823883"><ele>39.0</ele><time>2026-04-09T13:55:50.212Z</time></trkpt><trkpt lat="44.154905" lon="12.0823233"><ele>39.0</ele><time>2026-04-09T13:55:51.212Z</time></trkpt><trkpt lat="44.1548567" lon="12.0822617"><ele>39.0</ele><time>2026-04-09T13:55:52.212Z</time></trkpt><trkpt lat="44.1548067" lon="12.0821983"><ele>39.0</ele><time>2026-04-09T13:55:53.212Z</time></trkpt><trkpt lat="44.1547567" lon="12.0821367"><ele>39.0</ele><time>2026-04-09T13:55:54.212Z</time></trkpt><trkpt lat="44.154705" lon="12.0820767"><ele>39.0</ele><time>2026-04-09T13:55:55.212Z</time></trkpt><trkpt lat="44.1546567" lon="12.0820167"><ele>39.166666666666664</ele><time>2026-04-09T13:55:56.212Z</time></trkpt><trkpt lat="44.1546133" lon="12.0819483"><ele>39.333333333333336</ele><time>2026-04-09T13:55:57.212Z</time></trkpt><trkpt lat="44.15451" lon="12.0818367"><ele>39.5</ele><time>2026-04-09T13:55:59.212Z</time></trkpt><trkpt lat="44.1544617" lon="12.0817783"><ele>39.66666666666667</ele><time>2026-04-09T13:56:00.212Z</time></trkpt><trkpt lat="44.15441" lon="12.081715"><ele>39.833333333333336</ele><time>2026-04-09T13:56:01.212Z</time></trkpt><trkpt lat="44.1543583" lon="12.0816517"><ele>40.0</ele><time>2026-04-09T13:56:02.212Z</time></trkpt><trkpt lat="44.15431" lon="12.0815883"><ele>40.0</ele><time>2026-04-09T13:56:03.212Z</time></trkpt><trkpt lat="44.1542583" lon="12.0815333"><ele>40.0</ele><time>2026-04-09T13:56:04.212Z</time></trkpt><trkpt lat="44.154205" lon="12.0814683"><ele>40.0</ele><time>2026-04-09T13:56:05.212Z</time></trkpt><trkpt lat="44.1541533" lon="12.0814033"><ele>40.0</ele><time>2026-04-09T13:56:06.212Z</time></trkpt><trkpt lat="44.1541017" lon="12.0813433"><ele>40.0</ele><time>2026-04-09T13:56:07.212Z</time></trkpt><trkpt lat="44.1540017" lon="12.0812333"><ele>40.0</ele><time>2026-04-09T13:56:09.212Z</time></trkpt><trkpt lat="44.1539517" lon="12.0811783"><ele>40.0</ele><time>2026-04-09T13:56:10.212Z</time></trkpt><trkpt lat="44.1538617" lon="12.0810617"><ele>40.0</ele><time>2026-04-09T13:56:12.212Z</time></trkpt><trkpt lat="44.153815" lon="12.08099"><ele>40.0</ele><time>2026-04-09T13:56:13.212Z</time></trkpt><trkpt lat="44.15376" lon="12.0809183"><ele>40.0</ele><time>2026-04-09T13:56:14.212Z</time></trkpt><trkpt lat="44.15371" lon="12.08085"><ele>40.0</ele><time>2026-04-09T13:56:15.212Z</time></trkpt><trkpt lat="44.1536617" lon="12.0807817"><ele>40.0</ele><time>2026-04-09T13:56:16.212Z</time></trkpt><trkpt lat="44.1536167" lon="12.0807133"><ele>39.833333333333336</ele><time>2026-04-09T13:56:17.212Z</time></trkpt><trkpt lat="44.15353" lon="12.0805833"><ele>39.66666666666667</ele><time>2026-04-09T13:56:19.212Z</time></trkpt><trkpt lat="44.1534833" lon="12.0805167"><ele>39.5</ele><time>2026-04-09T13:56:20.212Z</time></trkpt><trkpt lat="44.1534433" lon="12.080445"><ele>39.333333333333336</ele><time>2026-04-09T13:56:21.212Z</time></trkpt><trkpt lat="44.1534033" lon="12.0803767"><ele>39.166666666666664</ele><time>2026-04-09T13:56:22.212Z</time></trkpt><trkpt lat="44.15336" lon="12.0803033"><ele>39.0</ele><time>2026-04-09T13:56:23.212Z</time></trkpt><trkpt lat="44.15332" lon="12.080235"><ele>39.0</ele><time>2026-04-09T13:56:24.212Z</time></trkpt><trkpt lat="44.153235" lon="12.080115"><ele>39.0</ele><time>2026-04-09T13:56:26.212Z</time></trkpt><trkpt lat="44.15315" lon="12.079995"><ele>39.0</ele><time>2026-04-09T13:56:28.212Z</time></trkpt><trkpt lat="44.1530617" lon="12.0798883"><ele>39.0</ele><time>2026-04-09T13:56:30.212Z</time></trkpt><trkpt lat="44.152985" lon="12.0797867"><ele>39.6</ele><time>2026-04-09T13:56:32.212Z</time></trkpt><trkpt lat="44.1528917" lon="12.0797083"><ele>40.2</ele><time>2026-04-09T13:56:34.212Z</time></trkpt><trkpt lat="44.1527867" lon="12.0797083"><ele>40.800000000000004</ele><time>2026-04-09T13:56:36.212Z</time></trkpt><trkpt lat="44.1526817" lon="12.0798017"><ele>41.4</ele><time>2026-04-09T13:56:38.212Z</time></trkpt><trkpt lat="44.1526367" lon="12.079865"><ele>42.0</ele><time>2026-04-09T13:56:39.212Z</time></trkpt><trkpt lat="44.1525583" lon="12.0800067"><ele>42.0</ele><time>2026-04-09T13:56:41.212Z</time></trkpt><trkpt lat="44.15252" lon="12.0800817"><ele>42.0</ele><time>2026-04-09T13:56:42.212Z</time></trkpt><trkpt lat="44.15248" lon="12.0801583"><ele>42.0</ele><time>2026-04-09T13:56:43.212Z</time></trkpt><trkpt lat="44.152435" lon="12.08022"><ele>42.0</ele><time>2026-04-09T13:56:44.212Z</time></trkpt><trkpt lat="44.1523567" lon="12.0803383"><ele>42.0</ele><time>2026-04-09T13:56:46.212Z</time></trkpt><trkpt lat="44.1522833" lon="12.0804733"><ele>42.0</ele><time>2026-04-09T13:56:48.212Z</time></trkpt><trkpt lat="44.15225" lon="12.0805517"><ele>41.833333333333336</ele><time>2026-04-09T13:56:49.212Z</time></trkpt><trkpt lat="44.1522183" lon="12.08063"><ele>41.666666666666664</ele><time>2026-04-09T13:56:50.212Z</time></trkpt><trkpt lat="44.1521883" lon="12.0807083"><ele>41.5</ele><time>2026-04-09T13:56:51.212Z</time></trkpt><trkpt lat="44.15213" lon="12.0808583"><ele>41.33333333333333</ele><time>2026-04-09T13:56:53.212Z</time></trkpt><trkpt lat="44.1520767" lon="12.081015"><ele>41.166666666666664</ele><time>2026-04-09T13:56:55.212Z</time></trkpt><trkpt lat="44.1520433" lon="12.0810983"><ele>41.0</ele><time>2026-04-09T13:56:56.212Z</time></trkpt><trkpt lat="44.1520117" lon="12.0811767"><ele>40.83333333333333</ele><time>2026-04-09T13:56:57.212Z</time></trkpt><trkpt lat="44.1519883" lon="12.0812617"><ele>40.666666666666664</ele><time>2026-04-09T13:56:58.212Z</time></trkpt><trkpt lat="44.1519433" lon="12.081425"><ele>40.5</ele><time>2026-04-09T13:57:00.212Z</time></trkpt><trkpt lat="44.151915" lon="12.0815067"><ele>40.333333333333336</ele><time>2026-04-09T13:57:01.212Z</time></trkpt><trkpt lat="44.1518867" lon="12.0815883"><ele>40.16666666666667</ele><time>2026-04-09T13:57:02.212Z</time></trkpt><trkpt lat="44.1518617" lon="12.081675"><ele>40.0</ele><time>2026-04-09T13:57:03.212Z</time></trkpt><trkpt lat="44.1518333" lon="12.0817583"><ele>39.833333333333336</ele><time>2026-04-09T13:57:04.212Z</time></trkpt><trkpt lat="44.1517733" lon="12.0819117"><ele>39.66666666666667</ele><time>2026-04-09T13:57:06.212Z</time></trkpt><trkpt lat="44.15174" lon="12.0819883"><ele>39.5</ele><time>2026-04-09T13:57:07.212Z</time></trkpt><trkpt lat="44.1516817" lon="12.0821333"><ele>39.333333333333336</ele><time>2026-04-09T13:57:09.212Z</time></trkpt><trkpt lat="44.1516583" lon="12.0822167"><ele>39.166666666666664</ele><time>2026-04-09T13:57:10.212Z</time></trkpt><trkpt lat="44.1516283" lon="12.0822983"><ele>39.0</ele><time>2026-04-09T13:57:11.212Z</time></trkpt><trkpt lat="44.1516017" lon="12.08238"><ele>39.4</ele><time>2026-04-09T13:57:12.212Z</time></trkpt><trkpt lat="44.15157" lon="12.0824567"><ele>39.8</ele><time>2026-04-09T13:57:13.212Z</time></trkpt><trkpt lat="44.151525" lon="12.0826083"><ele>40.199999999999996</ele><time>2026-04-09T13:57:15.212Z</time></trkpt><trkpt lat="44.1514933" lon="12.0826867"><ele>40.599999999999994</ele><time>2026-04-09T13:57:16.212Z</time></trkpt><trkpt lat="44.1514383" lon="12.08283"><ele>41.0</ele><time>2026-04-09T13:57:18.212Z</time></trkpt><trkpt lat="44.151395" lon="12.0829783"><ele>41.0</ele><time>2026-04-09T13:57:20.212Z</time></trkpt><trkpt lat="44.15134" lon="12.0831183"><ele>41.0</ele><time>2026-04-09T13:57:22.212Z</time></trkpt><trkpt lat="44.1513" lon="12.0832533"><ele>41.0</ele><time>2026-04-09T13:57:24.212Z</time></trkpt><trkpt lat="44.1512667" lon="12.0833817"><ele>41.0</ele><time>2026-04-09T13:57:26.212Z</time></trkpt><trkpt lat="44.15122" lon="12.0835233"><ele>41.0</ele><time>2026-04-09T13:57:28.212Z</time></trkpt><trkpt lat="44.151175" lon="12.08365"><ele>41.0</ele><time>2026-04-09T13:57:30.212Z</time></trkpt><trkpt lat="44.1511233" lon="12.08378"><ele>41.0</ele><time>2026-04-09T13:57:32.212Z</time></trkpt><trkpt lat="44.151065" lon="12.0839267"><ele>41.0</ele><time>2026-04-09T13:57:34.212Z</time></trkpt><trkpt lat="44.1509983" lon="12.084045"><ele>41.0</ele><time>2026-04-09T13:57:36.212Z</time></trkpt><trkpt lat="44.1509217" lon="12.08414"><ele>41.0</ele><time>2026-04-09T13:57:38.212Z</time></trkpt><trkpt lat="44.1508267" lon="12.08417"><ele>41.199999999999996</ele><time>2026-04-09T13:57:40.212Z</time></trkpt><trkpt lat="44.1507233" lon="12.08418"><ele>41.4</ele><time>2026-04-09T13:57:42.212Z</time></trkpt><trkpt lat="44.1506217" lon="12.0842333"><ele>41.6</ele><time>2026-04-09T13:57:44.212Z</time></trkpt><trkpt lat="44.1505433" lon="12.08435"><ele>41.8</ele><time>2026-04-09T13:57:46.212Z</time></trkpt><trkpt lat="44.1505183" lon="12.0844933"><ele>42.0</ele><time>2026-04-09T13:57:48.213Z</time></trkpt><trkpt lat="44.150555" lon="12.084635"><ele>42.0</ele><time>2026-04-09T13:57:50.212Z</time></trkpt><trkpt lat="44.1506" lon="12.0846967"><ele>42.0</ele><time>2026-04-09T13:57:51.212Z</time></trkpt><trkpt lat="44.1506517" lon="12.0847483"><ele>42.0</ele><time>2026-04-09T13:57:52.212Z</time></trkpt><trkpt lat="44.1507633" lon="12.08483"><ele>42.0</ele><time>2026-04-09T13:57:54.212Z</time></trkpt><trkpt lat="44.15081" lon="12.0848917"><ele>42.0</ele><time>2026-04-09T13:57:55.213Z</time></trkpt><trkpt lat="44.1508533" lon="12.0849567"><ele>42.0</ele><time>2026-04-09T13:57:56.212Z</time></trkpt><trkpt lat="44.1508967" lon="12.0850317"><ele>42.0</ele><time>2026-04-09T13:57:57.212Z</time></trkpt><trkpt lat="44.150935" lon="12.0851083"><ele>42.0</ele><time>2026-04-09T13:57:58.212Z</time></trkpt><trkpt lat="44.1509767" lon="12.0851783"><ele>42.0</ele><time>2026-04-09T13:57:59.212Z</time></trkpt><trkpt lat="44.1510217" lon="12.085245"><ele>42.0</ele><time>2026-04-09T13:58:00.212Z</time></trkpt><trkpt lat="44.15106" lon="12.0853183"><ele>42.0</ele><time>2026-04-09T13:58:01.212Z</time></trkpt><trkpt lat="44.1511033" lon="12.0853933"><ele>42.0</ele><time>2026-04-09T13:58:02.212Z</time></trkpt><trkpt lat="44.1511483" lon="12.0854667"><ele>42.0</ele><time>2026-04-09T13:58:03.212Z</time></trkpt><trkpt lat="44.151195" lon="12.0855433"><ele>42.0</ele><time>2026-04-09T13:58:04.212Z</time></trkpt><trkpt lat="44.15124" lon="12.085615"><ele>42.0</ele><time>2026-04-09T13:58:05.212Z</time></trkpt><trkpt lat="44.1512817" lon="12.0856817"><ele>42.0</ele><time>2026-04-09T13:58:06.212Z</time></trkpt><trkpt lat="44.15132" lon="12.0857517"><ele>42.0</ele><time>2026-04-09T13:58:07.212Z</time></trkpt><trkpt lat="44.1513633" lon="12.08582"><ele>42.0</ele><time>2026-04-09T13:58:08.212Z</time></trkpt><trkpt lat="44.1514333" lon="12.08596"><ele>42.0</ele><time>2026-04-09T13:58:10.212Z</time></trkpt><trkpt lat="44.151475" lon="12.086035"><ele>41.5</ele><time>2026-04-09T13:58:11.212Z</time></trkpt><trkpt lat="44.151555" lon="12.0861767"><ele>41.0</ele><time>2026-04-09T13:58:13.212Z</time></trkpt><trkpt lat="44.1516033" lon="12.0862517"><ele>40.5</ele><time>2026-04-09T13:58:14.212Z</time></trkpt><trkpt lat="44.1516533" lon="12.086325"><ele>40.0</ele><time>2026-04-09T13:58:15.212Z</time></trkpt><trkpt lat="44.151705" lon="12.0863967"><ele>39.5</ele><time>2026-04-09T13:58:16.212Z</time></trkpt><trkpt lat="44.151755" lon="12.08647"><ele>39.0</ele><time>2026-04-09T13:58:17.212Z</time></trkpt><trkpt lat="44.1518" lon="12.0865317"><ele>38.57142857142858</ele><time>2026-04-09T13:58:18.212Z</time></trkpt><trkpt lat="44.1518433" lon="12.0866"><ele>38.14285714285714</ele><time>2026-04-09T13:58:19.212Z</time></trkpt><trkpt lat="44.1518883" lon="12.0866683"><ele>37.714285714285715</ele><time>2026-04-09T13:58:20.212Z</time></trkpt><trkpt lat="44.1519417" lon="12.0867367"><ele>37.28571428571429</ele><time>2026-04-09T13:58:21.212Z</time></trkpt><trkpt lat="44.151995" lon="12.0868083"><ele>36.85714285714286</ele><time>2026-04-09T13:58:22.212Z</time></trkpt><trkpt lat="44.1520383" lon="12.0868767"><ele>36.42857142857143</ele><time>2026-04-09T13:58:23.212Z</time></trkpt><trkpt lat="44.152085" lon="12.086945"><ele>36.0</ele><time>2026-04-09T13:58:24.212Z</time></trkpt><trkpt lat="44.15213" lon="12.0870183"><ele>36.0</ele><time>2026-04-09T13:58:25.212Z</time></trkpt><trkpt lat="44.1521717" lon="12.087085"><ele>36.0</ele><time>2026-04-09T13:58:26.212Z</time></trkpt><trkpt lat="44.15226" lon="12.0872117"><ele>36.0</ele><time>2026-04-09T13:58:28.212Z</time></trkpt><trkpt lat="44.1523067" lon="12.0872783"><ele>36.0</ele><time>2026-04-09T13:58:29.212Z</time></trkpt><trkpt lat="44.15235" lon="12.087345"><ele>36.0</ele><time>2026-04-09T13:58:30.212Z</time></trkpt><trkpt lat="44.152395" lon="12.0874183"><ele>36.0</ele><time>2026-04-09T13:58:31.212Z</time></trkpt><trkpt lat="44.1524383" lon="12.0874917"><ele>35.85714285714286</ele><time>2026-04-09T13:58:32.212Z</time></trkpt><trkpt lat="44.1524783" lon="12.087565"><ele>35.714285714285715</ele><time>2026-04-09T13:58:33.213Z</time></trkpt><trkpt lat="44.152525" lon="12.087635"><ele>35.57142857142857</ele><time>2026-04-09T13:58:34.212Z</time></trkpt><trkpt lat="44.1525683" lon="12.0877067"><ele>35.42857142857143</ele><time>2026-04-09T13:58:35.212Z</time></trkpt><trkpt lat="44.1526133" lon="12.0877783"><ele>35.285714285714285</ele><time>2026-04-09T13:58:36.212Z</time></trkpt><trkpt lat="44.1526567" lon="12.0878433"><ele>35.142857142857146</ele><time>2026-04-09T13:58:37.212Z</time></trkpt><trkpt lat="44.1527067" lon="12.0879183"><ele>35.0</ele><time>2026-04-09T13:58:38.212Z</time></trkpt><trkpt lat="44.1527583" lon="12.0879967"><ele>35.0</ele><time>2026-04-09T13:58:39.212Z</time></trkpt><trkpt lat="44.1528117" lon="12.0880733"><ele>35.0</ele><time>2026-04-09T13:58:40.212Z</time></trkpt><trkpt lat="44.15285" lon="12.0881467"><ele>35.0</ele><time>2026-04-09T13:58:41.212Z</time></trkpt><trkpt lat="44.152895" lon="12.0882233"><ele>35.0</ele><time>2026-04-09T13:58:42.212Z</time></trkpt><trkpt lat="44.1529367" lon="12.0882917"><ele>35.0</ele><time>2026-04-09T13:58:43.212Z</time></trkpt><trkpt lat="44.1529767" lon="12.08836"><ele>35.0</ele><time>2026-04-09T13:58:44.212Z</time></trkpt><trkpt lat="44.1530617" lon="12.0884983"><ele>35.0</ele><time>2026-04-09T13:58:46.212Z</time></trkpt><trkpt lat="44.1531067" lon="12.0885733"><ele>35.0</ele><time>2026-04-09T13:58:47.212Z</time></trkpt><trkpt lat="44.1531567" lon="12.088645"><ele>35.0</ele><time>2026-04-09T13:58:48.212Z</time></trkpt><trkpt lat="44.1532017" lon="12.088715"><ele>35.0</ele><time>2026-04-09T13:58:49.212Z</time></trkpt><trkpt lat="44.15325" lon="12.0887883"><ele>35.0</ele><time>2026-04-09T13:58:50.212Z</time></trkpt><trkpt lat="44.1533" lon="12.088855"><ele>35.0</ele><time>2026-04-09T13:58:51.212Z</time></trkpt><trkpt lat="44.1533483" lon="12.0889267"><ele>35.0</ele><time>2026-04-09T13:58:52.212Z</time></trkpt><trkpt lat="44.1533917" lon="12.0889917"><ele>34.83333333333333</ele><time>2026-04-09T13:58:53.212Z</time></trkpt><trkpt lat="44.15344" lon="12.0890583"><ele>34.666666666666664</ele><time>2026-04-09T13:58:54.212Z</time></trkpt><trkpt lat="44.1535283" lon="12.0891933"><ele>34.5</ele><time>2026-04-09T13:58:56.212Z</time></trkpt><trkpt lat="44.1535717" lon="12.0892583"><ele>34.333333333333336</ele><time>2026-04-09T13:58:57.212Z</time></trkpt><trkpt lat="44.1536183" lon="12.0893217"><ele>34.16666666666667</ele><time>2026-04-09T13:58:58.212Z</time></trkpt><trkpt lat="44.15366" lon="12.0893883"><ele>34.0</ele><time>2026-04-09T13:58:59.212Z</time></trkpt><trkpt lat="44.15374" lon="12.0895217"><ele>33.8</ele><time>2026-04-09T13:59:01.212Z</time></trkpt><trkpt lat="44.1537867" lon="12.0895917"><ele>33.599999999999994</ele><time>2026-04-09T13:59:02.212Z</time></trkpt><trkpt lat="44.153835" lon="12.089665"><ele>33.4</ele><time>2026-04-09T13:59:03.212Z</time></trkpt><trkpt lat="44.1539117" lon="12.0897867"><ele>33.199999999999996</ele><time>2026-04-09T13:59:05.212Z</time></trkpt><trkpt lat="44.1539783" lon="12.08991"><ele>33.0</ele><time>2026-04-09T13:59:07.212Z</time></trkpt><trkpt lat="44.1540667" lon="12.090055"><ele>33.0</ele><time>2026-04-09T13:59:09.212Z</time></trkpt><trkpt lat="44.1541183" lon="12.0901333"><ele>33.0</ele><time>2026-04-09T13:59:10.212Z</time></trkpt><trkpt lat="44.1541683" lon="12.0902117"><ele>33.0</ele><time>2026-04-09T13:59:11.212Z</time></trkpt><trkpt lat="44.1542167" lon="12.0902933"><ele>33.0</ele><time>2026-04-09T13:59:12.212Z</time></trkpt><trkpt lat="44.1542933" lon="12.090435"><ele>33.0</ele><time>2026-04-09T13:59:14.212Z</time></trkpt><trkpt lat="44.1543733" lon="12.090575"><ele>33.0</ele><time>2026-04-09T13:59:16.212Z</time></trkpt><trkpt lat="44.1544233" lon="12.0906433"><ele>33.0</ele><time>2026-04-09T13:59:17.212Z</time></trkpt><trkpt lat="44.1544683" lon="12.09071"><ele>33.0</ele><time>2026-04-09T13:59:18.212Z</time></trkpt><trkpt lat="44.1545167" lon="12.090775"><ele>33.0</ele><time>2026-04-09T13:59:19.212Z</time></trkpt><trkpt lat="44.1545617" lon="12.0908467"><ele>33.0</ele><time>2026-04-09T13:59:20.212Z</time></trkpt><trkpt lat="44.1546033" lon="12.0909133"><ele>33.0</ele><time>2026-04-09T13:59:21.212Z</time></trkpt><trkpt lat="44.1546833" lon="12.0910333"><ele>33.25</ele><time>2026-04-09T13:59:23.212Z</time></trkpt><trkpt lat="44.1547683" lon="12.0911633"><ele>33.5</ele><time>2026-04-09T13:59:25.212Z</time></trkpt><trkpt lat="44.1548517" lon="12.0912917"><ele>33.75</ele><time>2026-04-09T13:59:27.212Z</time></trkpt><trkpt lat="44.1549367" lon="12.09142"><ele>34.0</ele><time>2026-04-09T13:59:29.212Z</time></trkpt><trkpt lat="44.15503" lon="12.091545"><ele>34.0</ele><time>2026-04-09T13:59:31.212Z</time></trkpt><trkpt lat="44.1550767" lon="12.091605"><ele>34.0</ele><time>2026-04-09T13:59:32.212Z</time></trkpt><trkpt lat="44.155175" lon="12.0917267"><ele>34.0</ele><time>2026-04-09T13:59:34.212Z</time></trkpt><trkpt lat="44.15523" lon="12.0917967"><ele>34.0</ele><time>2026-04-09T13:59:35.212Z</time></trkpt><trkpt lat="44.15532" lon="12.0919167"><ele>34.0</ele><time>2026-04-09T13:59:37.212Z</time></trkpt><trkpt lat="44.1553733" lon="12.0919767"><ele>34.0</ele><time>2026-04-09T13:59:38.213Z</time></trkpt><trkpt lat="44.1554317" lon="12.0920367"><ele>34.0</ele><time>2026-04-09T13:59:39.212Z</time></trkpt><trkpt lat="44.1555233" lon="12.0921417"><ele>34.0</ele><time>2026-04-09T13:59:41.212Z</time></trkpt><trkpt lat="44.15558" lon="12.0922017"><ele>34.0</ele><time>2026-04-09T13:59:42.212Z</time></trkpt><trkpt lat="44.1556333" lon="12.092265"><ele>34.0</ele><time>2026-04-09T13:59:43.212Z</time></trkpt><trkpt lat="44.1556883" lon="12.0923183"><ele>34.0</ele><time>2026-04-09T13:59:44.212Z</time></trkpt><trkpt lat="44.15579" lon="12.09241"><ele>34.0</ele><time>2026-04-09T13:59:46.212Z</time></trkpt><trkpt lat="44.1558917" lon="12.0925117"><ele>34.0</ele><time>2026-04-09T13:59:48.212Z</time></trkpt><trkpt lat="44.1559433" lon="12.092565"><ele>34.0</ele><time>2026-04-09T13:59:49.212Z</time></trkpt><trkpt lat="44.1559967" lon="12.092615"><ele>34.0</ele><time>2026-04-09T13:59:50.212Z</time></trkpt><trkpt lat="44.1560933" lon="12.0927083"><ele>34.0</ele><time>2026-04-09T13:59:52.212Z</time></trkpt><trkpt lat="44.1561967" lon="12.0928"><ele>34.0</ele><time>2026-04-09T13:59:54.212Z</time></trkpt><trkpt lat="44.1562583" lon="12.0928533"><ele>34.0</ele><time>2026-04-09T13:59:55.212Z</time></trkpt><trkpt lat="44.15636" lon="12.0929433"><ele>34.0</ele><time>2026-04-09T13:59:57.212Z</time></trkpt><trkpt lat="44.156465" lon="12.09302"><ele>34.0</ele><time>2026-04-09T13:59:59.212Z</time></trkpt><trkpt lat="44.1565217" lon="12.09306"><ele>34.0</ele><time>2026-04-09T14:00:00.212Z</time></trkpt><trkpt lat="44.156625" lon="12.0931333"><ele>33.66666666666667</ele><time>2026-04-09T14:00:02.212Z</time></trkpt><trkpt lat="44.1567333" lon="12.0932167"><ele>33.333333333333336</ele><time>2026-04-09T14:00:04.212Z</time></trkpt><trkpt lat="44.15679" lon="12.0932633"><ele>33.0</ele><time>2026-04-09T14:00:05.212Z</time></trkpt><trkpt lat="44.1568467" lon="12.0933083"><ele>32.666666666666664</ele><time>2026-04-09T14:00:06.212Z</time></trkpt><trkpt lat="44.1569067" lon="12.0933583"><ele>32.33333333333333</ele><time>2026-04-09T14:00:07.212Z</time></trkpt><trkpt lat="44.1569717" lon="12.0934083"><ele>32.0</ele><time>2026-04-09T14:00:08.212Z</time></trkpt><trkpt lat="44.1570333" lon="12.0934533"><ele>32.0</ele><time>2026-04-09T14:00:09.212Z</time></trkpt><trkpt lat="44.1570917" lon="12.0934967"><ele>31.999999999999996</ele><time>2026-04-09T14:00:10.212Z</time></trkpt><trkpt lat="44.1571467" lon="12.093545"><ele>32.0</ele><time>2026-04-09T14:00:11.212Z</time></trkpt><trkpt lat="44.1572033" lon="12.09359"><ele>32.0</ele><time>2026-04-09T14:00:12.212Z</time></trkpt><trkpt lat="44.1572617" lon="12.0936367"><ele>31.999999999999996</ele><time>2026-04-09T14:00:13.212Z</time></trkpt><trkpt lat="44.1573183" lon="12.0936817"><ele>32.0</ele><time>2026-04-09T14:00:14.212Z</time></trkpt><trkpt lat="44.1574233" lon="12.0937583"><ele>32.0</ele><time>2026-04-09T14:00:16.212Z</time></trkpt><trkpt lat="44.15754" lon="12.0938417"><ele>31.8</ele><time>2026-04-09T14:00:18.212Z</time></trkpt><trkpt lat="44.157655" lon="12.0939183"><ele>31.6</ele><time>2026-04-09T14:00:20.212Z</time></trkpt><trkpt lat="44.1577133" lon="12.0939567"><ele>31.400000000000002</ele><time>2026-04-09T14:00:21.212Z</time></trkpt><trkpt lat="44.157825" lon="12.094035"><ele>31.200000000000003</ele><time>2026-04-09T14:00:23.212Z</time></trkpt><trkpt lat="44.1579317" lon="12.09411"><ele>31.0</ele><time>2026-04-09T14:00:25.212Z</time></trkpt><trkpt lat="44.1580483" lon="12.0941867"><ele>31.166666666666668</ele><time>2026-04-09T14:00:27.212Z</time></trkpt><trkpt lat="44.15811" lon="12.0942317"><ele>31.333333333333336</ele><time>2026-04-09T14:00:28.212Z</time></trkpt><trkpt lat="44.1581717" lon="12.0942717"><ele>31.5</ele><time>2026-04-09T14:00:29.212Z</time></trkpt><trkpt lat="44.158235" lon="12.0943133"><ele>31.666666666666664</ele><time>2026-04-09T14:00:30.212Z</time></trkpt><trkpt lat="44.1583" lon="12.0943617"><ele>31.833333333333332</ele><time>2026-04-09T14:00:31.212Z</time></trkpt><trkpt lat="44.1583617" lon="12.0944033"><ele>32.0</ele><time>2026-04-09T14:00:32.212Z</time></trkpt><trkpt lat="44.1584817" lon="12.09449"><ele>31.999999999999996</ele><time>2026-04-09T14:00:34.212Z</time></trkpt><trkpt lat="44.1585467" lon="12.0945333"><ele>32.0</ele><time>2026-04-09T14:00:35.212Z</time></trkpt><trkpt lat="44.1586617" lon="12.0946133"><ele>32.0</ele><time>2026-04-09T14:00:37.212Z</time></trkpt><trkpt lat="44.1587217" lon="12.09465"><ele>32.0</ele><time>2026-04-09T14:00:38.212Z</time></trkpt><trkpt lat="44.1587783" lon="12.0946917"><ele>31.999999999999996</ele><time>2026-04-09T14:00:39.212Z</time></trkpt><trkpt lat="44.1588367" lon="12.0947367"><ele>32.0</ele><time>2026-04-09T14:00:40.213Z</time></trkpt><trkpt lat="44.1588967" lon="12.09479"><ele>32.0</ele><time>2026-04-09T14:00:41.212Z</time></trkpt><trkpt lat="44.1589567" lon="12.0948333"><ele>31.999999999999996</ele><time>2026-04-09T14:00:42.212Z</time></trkpt><trkpt lat="44.15902" lon="12.0948767"><ele>32.0</ele><time>2026-04-09T14:00:43.212Z</time></trkpt><trkpt lat="44.15908" lon="12.0949283"><ele>32.0</ele><time>2026-04-09T14:00:44.212Z</time></trkpt><trkpt lat="44.1591367" lon="12.0949733"><ele>31.999999999999996</ele><time>2026-04-09T14:00:45.212Z</time></trkpt><trkpt lat="44.1591933" lon="12.0950217"><ele>32.0</ele><time>2026-04-09T14:00:46.212Z</time></trkpt><trkpt lat="44.15926" lon="12.0950667"><ele>32.0</ele><time>2026-04-09T14:00:47.212Z</time></trkpt><trkpt lat="44.1593183" lon="12.09511"><ele>31.999999999999996</ele><time>2026-04-09T14:00:48.212Z</time></trkpt><trkpt lat="44.1593783" lon="12.09515"><ele>32.0</ele><time>2026-04-09T14:00:49.212Z</time></trkpt><trkpt lat="44.15944" lon="12.0951917"><ele>32.0</ele><time>2026-04-09T14:00:50.212Z</time></trkpt><trkpt lat="44.1595017" lon="12.095235"><ele>32.0</ele><time>2026-04-09T14:00:51.212Z</time></trkpt><trkpt lat="44.15956" lon="12.0952817"><ele>31.999999999999996</ele><time>2026-04-09T14:00:52.212Z</time></trkpt><trkpt lat="44.1596167" lon="12.0953283"><ele>32.0</ele><time>2026-04-09T14:00:53.212Z</time></trkpt><trkpt lat="44.1597267" lon="12.0954117"><ele>32.0</ele><time>2026-04-09T14:00:55.212Z</time></trkpt><trkpt lat="44.1597917" lon="12.0954533"><ele>31.999999999999996</ele><time>2026-04-09T14:00:56.212Z</time></trkpt><trkpt lat="44.15985" lon="12.0955033"><ele>32.0</ele><time>2026-04-09T14:00:57.212Z</time></trkpt><trkpt lat="44.1599067" lon="12.0955483"><ele>32.0</ele><time>2026-04-09T14:00:58.212Z</time></trkpt><trkpt lat="44.1599683" lon="12.0955967"><ele>31.999999999999996</ele><time>2026-04-09T14:00:59.212Z</time></trkpt><trkpt lat="44.1600333" lon="12.095645"><ele>32.0</ele><time>2026-04-09T14:01:00.212Z</time></trkpt><trkpt lat="44.1601" lon="12.0956917"><ele>32.0</ele><time>2026-04-09T14:01:01.212Z</time></trkpt><trkpt lat="44.1602117" lon="12.0957767"><ele>32.0</ele><time>2026-04-09T14:01:03.212Z</time></trkpt><trkpt lat="44.16027" lon="12.0958183"><ele>31.999999999999996</ele><time>2026-04-09T14:01:04.212Z</time></trkpt><trkpt lat="44.1603283" lon="12.095855"><ele>32.0</ele><time>2026-04-09T14:01:05.212Z</time></trkpt><trkpt lat="44.16039" lon="12.0959017"><ele>32.0</ele><time>2026-04-09T14:01:06.212Z</time></trkpt><trkpt lat="44.1604533" lon="12.095945"><ele>31.999999999999996</ele><time>2026-04-09T14:01:07.212Z</time></trkpt><trkpt lat="44.1605133" lon="12.09599"><ele>32.0</ele><time>2026-04-09T14:01:08.212Z</time></trkpt><trkpt lat="44.16058" lon="12.0960417"><ele>32.0</ele><time>2026-04-09T14:01:09.212Z</time></trkpt><trkpt lat="44.160645" lon="12.09609"><ele>31.71428571428571</ele><time>2026-04-09T14:01:10.212Z</time></trkpt><trkpt lat="44.16071" lon="12.0961283"><ele>31.428571428571423</ele><time>2026-04-09T14:01:11.212Z</time></trkpt><trkpt lat="44.1607717" lon="12.0961733"><ele>31.142857142857142</ele><time>2026-04-09T14:01:12.212Z</time></trkpt><trkpt lat="44.16084" lon="12.0962233"><ele>30.857142857142854</ele><time>2026-04-09T14:01:13.212Z</time></trkpt><trkpt lat="44.160905" lon="12.0962733"><ele>30.57142857142857</ele><time>2026-04-09T14:01:14.212Z</time></trkpt><trkpt lat="44.1609683" lon="12.09632"><ele>30.285714285714285</ele><time>2026-04-09T14:01:15.212Z</time></trkpt><trkpt lat="44.1610367" lon="12.09637"><ele>30.0</ele><time>2026-04-09T14:01:16.212Z</time></trkpt><trkpt lat="44.1610967" lon="12.0964183"><ele>30.0</ele><time>2026-04-09T14:01:17.212Z</time></trkpt><trkpt lat="44.161155" lon="12.0964617"><ele>30.0</ele><time>2026-04-09T14:01:18.212Z</time></trkpt><trkpt lat="44.1612133" lon="12.0965"><ele>30.0</ele><time>2026-04-09T14:01:19.212Z</time></trkpt><trkpt lat="44.1612733" lon="12.0965433"><ele>30.0</ele><time>2026-04-09T14:01:20.212Z</time></trkpt><trkpt lat="44.1613317" lon="12.0965833"><ele>30.0</ele><time>2026-04-09T14:01:21.212Z</time></trkpt><trkpt lat="44.1614433" lon="12.0966583"><ele>30.0</ele><time>2026-04-09T14:01:23.212Z</time></trkpt><trkpt lat="44.161555" lon="12.0967433"><ele>30.333333333333332</ele><time>2026-04-09T14:01:25.212Z</time></trkpt><trkpt lat="44.1616117" lon="12.09679"><ele>30.666666666666664</ele><time>2026-04-09T14:01:26.212Z</time></trkpt><trkpt lat="44.16167" lon="12.0968283"><ele>31.0</ele><time>2026-04-09T14:01:27.212Z</time></trkpt><trkpt lat="44.161785" lon="12.09691"><ele>31.333333333333332</ele><time>2026-04-09T14:01:29.212Z</time></trkpt><trkpt lat="44.1618467" lon="12.0969583"><ele>31.666666666666664</ele><time>2026-04-09T14:01:30.212Z</time></trkpt><trkpt lat="44.1619067" lon="12.096995"><ele>32.0</ele><time>2026-04-09T14:01:31.212Z</time></trkpt><trkpt lat="44.1619633" lon="12.097035"><ele>31.999999999999996</ele><time>2026-04-09T14:01:32.212Z</time></trkpt><trkpt lat="44.162085" lon="12.0971283"><ele>32.0</ele><time>2026-04-09T14:01:34.212Z</time></trkpt><trkpt lat="44.1621517" lon="12.09718"><ele>32.0</ele><time>2026-04-09T14:01:35.212Z</time></trkpt><trkpt lat="44.1622133" lon="12.097225"><ele>32.0</ele><time>2026-04-09T14:01:36.212Z</time></trkpt><trkpt lat="44.16227" lon="12.0972717"><ele>31.999999999999996</ele><time>2026-04-09T14:01:37.212Z</time></trkpt><trkpt lat="44.162325" lon="12.0973167"><ele>32.0</ele><time>2026-04-09T14:01:38.212Z</time></trkpt><trkpt lat="44.1623817" lon="12.0973583"><ele>31.8</ele><time>2026-04-09T14:01:39.212Z</time></trkpt><trkpt lat="44.1624833" lon="12.0974317"><ele>31.6</ele><time>2026-04-09T14:01:41.212Z</time></trkpt><trkpt lat="44.16254" lon="12.09747"><ele>31.400000000000002</ele><time>2026-04-09T14:01:42.212Z</time></trkpt><trkpt lat="44.162605" lon="12.0975217"><ele>31.200000000000003</ele><time>2026-04-09T14:01:43.212Z</time></trkpt><trkpt lat="44.1626667" lon="12.097565"><ele>31.0</ele><time>2026-04-09T14:01:44.212Z</time></trkpt><trkpt lat="44.1627817" lon="12.0976533"><ele>31.000000000000004</ele><time>2026-04-09T14:01:46.212Z</time></trkpt><trkpt lat="44.1628783" lon="12.09773"><ele>31.0</ele><time>2026-04-09T14:01:48.212Z</time></trkpt><trkpt lat="44.1629383" lon="12.097775"><ele>31.0</ele><time>2026-04-09T14:01:49.212Z</time></trkpt><trkpt lat="44.1629967" lon="12.0978233"><ele>31.0</ele><time>2026-04-09T14:01:50.212Z</time></trkpt><trkpt lat="44.1631033" lon="12.0978967"><ele>31.000000000000004</ele><time>2026-04-09T14:01:52.213Z</time></trkpt><trkpt lat="44.163165" lon="12.09794"><ele>31.0</ele><time>2026-04-09T14:01:53.212Z</time></trkpt><trkpt lat="44.1632717" lon="12.0980067"><ele>30.833333333333336</ele><time>2026-04-09T14:01:55.212Z</time></trkpt><trkpt lat="44.1633733" lon="12.0980833"><ele>30.666666666666668</ele><time>2026-04-09T14:01:57.212Z</time></trkpt><trkpt lat="44.16343" lon="12.098125"><ele>30.5</ele><time>2026-04-09T14:01:58.212Z</time></trkpt><trkpt lat="44.1634883" lon="12.0981617"><ele>30.333333333333336</ele><time>2026-04-09T14:01:59.212Z</time></trkpt><trkpt lat="44.163545" lon="12.0982"><ele>30.166666666666668</ele><time>2026-04-09T14:02:00.212Z</time></trkpt><trkpt lat="44.163655" lon="12.0982817"><ele>30.0</ele><time>2026-04-09T14:02:02.212Z</time></trkpt><trkpt lat="44.1637133" lon="12.0983267"><ele>30.0</ele><time>2026-04-09T14:02:03.212Z</time></trkpt><trkpt lat="44.163825" lon="12.098415"><ele>30.0</ele><time>2026-04-09T14:02:05.212Z</time></trkpt><trkpt lat="44.1638817" lon="12.098455"><ele>30.0</ele><time>2026-04-09T14:02:06.212Z</time></trkpt><trkpt lat="44.16394" lon="12.0985033"><ele>30.0</ele><time>2026-04-09T14:02:07.212Z</time></trkpt><trkpt lat="44.1640017" lon="12.09855"><ele>30.0</ele><time>2026-04-09T14:02:08.212Z</time></trkpt><trkpt lat="44.16406" lon="12.0985933"><ele>30.0</ele><time>2026-04-09T14:02:09.212Z</time></trkpt><trkpt lat="44.1641183" lon="12.09864"><ele>29.833333333333332</ele><time>2026-04-09T14:02:10.212Z</time></trkpt><trkpt lat="44.1642283" lon="12.098725"><ele>29.666666666666664</ele><time>2026-04-09T14:02:12.212Z</time></trkpt><trkpt lat="44.1642867" lon="12.0987717"><ele>29.5</ele><time>2026-04-09T14:02:13.212Z</time></trkpt><trkpt lat="44.164345" lon="12.0988117"><ele>29.333333333333332</ele><time>2026-04-09T14:02:14.212Z</time></trkpt><trkpt lat="44.164405" lon="12.0988517"><ele>29.166666666666664</ele><time>2026-04-09T14:02:15.212Z</time></trkpt><trkpt lat="44.1644633" lon="12.0988983"><ele>29.0</ele><time>2026-04-09T14:02:16.212Z</time></trkpt><trkpt lat="44.1645717" lon="12.0989767"><ele>29.0</ele><time>2026-04-09T14:02:18.212Z</time></trkpt><trkpt lat="44.1646783" lon="12.0990433"><ele>29.0</ele><time>2026-04-09T14:02:20.212Z</time></trkpt><trkpt lat="44.1647867" lon="12.099125"><ele>29.0</ele><time>2026-04-09T14:02:22.212Z</time></trkpt><trkpt lat="44.164895" lon="12.0992117"><ele>29.0</ele><time>2026-04-09T14:02:24.212Z</time></trkpt><trkpt lat="44.1650017" lon="12.0992967"><ele>29.0</ele><time>2026-04-09T14:02:26.212Z</time></trkpt><trkpt lat="44.1651133" lon="12.09938"><ele>29.0</ele><time>2026-04-09T14:02:28.212Z</time></trkpt><trkpt lat="44.1652183" lon="12.0994567"><ele>29.0</ele><time>2026-04-09T14:02:30.212Z</time></trkpt><trkpt lat="44.1653233" lon="12.09953"><ele>29.0</ele><time>2026-04-09T14:02:32.212Z</time></trkpt><trkpt lat="44.1654233" lon="12.0995967"><ele>29.0</ele><time>2026-04-09T14:02:34.212Z</time></trkpt><trkpt lat="44.1655133" lon="12.0996617"><ele>29.0</ele><time>2026-04-09T14:02:36.212Z</time></trkpt><trkpt lat="44.1656067" lon="12.099725"><ele>29.0</ele><time>2026-04-09T14:02:38.212Z</time></trkpt><trkpt lat="44.1657033" lon="12.09979"><ele>29.0</ele><time>2026-04-09T14:02:40.212Z</time></trkpt><trkpt lat="44.16579" lon="12.0998433"><ele>29.0</ele><time>2026-04-09T14:02:42.212Z</time></trkpt><trkpt lat="44.1658783" lon="12.0999217"><ele>29.799999999999997</ele><time>2026-04-09T14:02:44.212Z</time></trkpt><trkpt lat="44.1659617" lon="12.09998"><ele>30.599999999999998</ele><time>2026-04-09T14:02:46.212Z</time></trkpt><trkpt lat="44.1660483" lon="12.1000333"><ele>31.4</ele><time>2026-04-09T14:02:48.212Z</time></trkpt><trkpt lat="44.16614" lon="12.10008"><ele>32.199999999999996</ele><time>2026-04-09T14:02:50.212Z</time></trkpt><trkpt lat="44.166225" lon="12.1001283"><ele>33.0</ele><time>2026-04-09T14:02:52.212Z</time></trkpt><trkpt lat="44.16631" lon="12.1001933"><ele>33.0</ele><time>2026-04-09T14:02:54.212Z</time></trkpt><trkpt lat="44.1663883" lon="12.10026"><ele>33.0</ele><time>2026-04-09T14:02:56.212Z</time></trkpt><trkpt lat="44.1664533" lon="12.1003583"><ele>33.0</ele><time>2026-04-09T14:02:58.212Z</time></trkpt><trkpt lat="44.1664983" lon="12.1004833"><ele>33.0</ele><time>2026-04-09T14:03:00.212Z</time></trkpt><trkpt lat="44.1665167" lon="12.1005917"><ele>33.0</ele><time>2026-04-09T14:03:02.212Z</time></trkpt><trkpt lat="44.16654" lon="12.10068"><ele>33.0</ele><time>2026-04-09T14:03:04.212Z</time></trkpt><trkpt lat="44.166585" lon="12.1007533"><ele>33.5</ele><time>2026-04-09T14:03:06.212Z</time></trkpt><trkpt lat="44.1666517" lon="12.1007983"><ele>34.0</ele><time>2026-04-09T14:03:08.212Z</time></trkpt><trkpt lat="44.1667417" lon="12.1007767"><ele>34.5</ele><time>2026-04-09T14:03:10.212Z</time></trkpt><trkpt lat="44.1668333" lon="12.10072"><ele>35.0</ele><time>2026-04-09T14:03:12.212Z</time></trkpt><trkpt lat="44.166885" lon="12.10064"><ele>35.5</ele><time>2026-04-09T14:03:14.212Z</time></trkpt><trkpt lat="44.16688" lon="12.1005283"><ele>36.0</ele><time>2026-04-09T14:03:16.212Z</time></trkpt><trkpt lat="44.1668467" lon="12.1003933"><ele>36.0</ele><time>2026-04-09T14:03:18.213Z</time></trkpt><trkpt lat="44.166835" lon="12.1002533"><ele>36.0</ele><time>2026-04-09T14:03:20.212Z</time></trkpt><trkpt lat="44.1668467" lon="12.1001067"><ele>36.0</ele><time>2026-04-09T14:03:22.212Z</time></trkpt><trkpt lat="44.16688" lon="12.0999633"><ele>36.0</ele><time>2026-04-09T14:03:24.212Z</time></trkpt><trkpt lat="44.1669467" lon="12.0998467"><ele>36.0</ele><time>2026-04-09T14:03:26.212Z</time></trkpt><trkpt lat="44.167015" lon="12.09972"><ele>35.666666666666664</ele><time>2026-04-09T14:03:28.212Z</time></trkpt><trkpt lat="44.16708" lon="12.0995967"><ele>35.333333333333336</ele><time>2026-04-09T14:03:30.212Z</time></trkpt><trkpt lat="44.1671517" lon="12.099465"><ele>35.0</ele><time>2026-04-09T14:03:32.212Z</time></trkpt><trkpt lat="44.16719" lon="12.0993883"><ele>34.66666666666667</ele><time>2026-04-09T14:03:33.212Z</time></trkpt><trkpt lat="44.16723" lon="12.0993117"><ele>34.333333333333336</ele><time>2026-04-09T14:03:34.212Z</time></trkpt><trkpt lat="44.1672667" lon="12.0992367"><ele>34.0</ele><time>2026-04-09T14:03:35.212Z</time></trkpt><trkpt lat="44.1673233" lon="12.099115"><ele>34.0</ele><time>2026-04-09T14:03:37.212Z</time></trkpt><trkpt lat="44.1673867" lon="12.0989917"><ele>34.0</ele><time>2026-04-09T14:03:39.212Z</time></trkpt><trkpt lat="44.16745" lon="12.0988717"><ele>34.0</ele><time>2026-04-09T14:03:41.212Z</time></trkpt><trkpt lat="44.1675117" lon="12.0987483"><ele>34.0</ele><time>2026-04-09T14:03:43.212Z</time></trkpt><trkpt lat="44.1675833" lon="12.0986267"><ele>34.0</ele><time>2026-04-09T14:03:45.212Z</time></trkpt><trkpt lat="44.1676567" lon="12.0985033"><ele>34.0</ele><time>2026-04-09T14:03:47.212Z</time></trkpt><trkpt lat="44.167725" lon="12.0983733"><ele>34.0</ele><time>2026-04-09T14:03:49.212Z</time></trkpt><trkpt lat="44.1677983" lon="12.0982417"><ele>34.0</ele><time>2026-04-09T14:03:51.212Z</time></trkpt><trkpt lat="44.1678717" lon="12.0981183"><ele>34.0</ele><time>2026-04-09T14:03:53.212Z</time></trkpt><trkpt lat="44.1679233" lon="12.0980583"><ele>34.0</ele><time>2026-04-09T14:03:54.212Z</time></trkpt><trkpt lat="44.1679817" lon="12.0980133"><ele>34.4</ele><time>2026-04-09T14:03:55.212Z</time></trkpt><trkpt lat="44.1680417" lon="12.0979833"><ele>34.8</ele><time>2026-04-09T14:03:56.212Z</time></trkpt><trkpt lat="44.168155" lon="12.0979783"><ele>35.2</ele><time>2026-04-09T14:03:58.212Z</time></trkpt><trkpt lat="44.168265" lon="12.098045"><ele>35.6</ele><time>2026-04-09T14:04:00.212Z</time></trkpt><trkpt lat="44.1683567" lon="12.098145"><ele>36.0</ele><time>2026-04-09T14:04:02.212Z</time></trkpt><trkpt lat="44.168435" lon="12.0982533"><ele>36.0</ele><time>2026-04-09T14:04:04.212Z</time></trkpt><trkpt lat="44.168525" lon="12.0983433"><ele>36.0</ele><time>2026-04-09T14:04:06.212Z</time></trkpt><trkpt lat="44.168625" lon="12.0984117"><ele>36.0</ele><time>2026-04-09T14:04:08.212Z</time></trkpt><trkpt lat="44.16875" lon="12.0984133"><ele>36.0</ele><time>2026-04-09T14:04:10.212Z</time></trkpt><trkpt lat="44.16882" lon="12.0983967"><ele>36.0</ele><time>2026-04-09T14:04:11.212Z</time></trkpt><trkpt lat="44.1688983" lon="12.0983917"><ele>36.0</ele><time>2026-04-09T14:04:12.212Z</time></trkpt><trkpt lat="44.1689833" lon="12.09839"><ele>36.0</ele><time>2026-04-09T14:04:13.212Z</time></trkpt><trkpt lat="44.1690683" lon="12.0984017"><ele>36.0</ele><time>2026-04-09T14:04:14.212Z</time></trkpt><trkpt lat="44.1691567" lon="12.0984133"><ele>36.0</ele><time>2026-04-09T14:04:15.212Z</time></trkpt><trkpt lat="44.169245" lon="12.0984167"><ele>36.0</ele><time>2026-04-09T14:04:16.212Z</time></trkpt><trkpt lat="44.16933" lon="12.0984267"><ele>36.0</ele><time>2026-04-09T14:04:17.212Z</time></trkpt><trkpt lat="44.16941" lon="12.0984333"><ele>35.666666666666664</ele><time>2026-04-09T14:04:18.212Z</time></trkpt><trkpt lat="44.1694883" lon="12.0984667"><ele>35.333333333333336</ele><time>2026-04-09T14:04:19.212Z</time></trkpt><trkpt lat="44.169575" lon="12.0985067"><ele>35.0</ele><time>2026-04-09T14:04:20.212Z</time></trkpt><trkpt lat="44.1696433" lon="12.0985583"><ele>34.66666666666667</ele><time>2026-04-09T14:04:21.212Z</time></trkpt><trkpt lat="44.1697083" lon="12.098615"><ele>34.333333333333336</ele><time>2026-04-09T14:04:22.212Z</time></trkpt><trkpt lat="44.169775" lon="12.0986833"><ele>34.0</ele><time>2026-04-09T14:04:23.212Z</time></trkpt><trkpt lat="44.1698267" lon="12.0987417"><ele>34.2</ele><time>2026-04-09T14:04:24.212Z</time></trkpt><trkpt lat="44.169885" lon="12.0988033"><ele>34.4</ele><time>2026-04-09T14:04:25.212Z</time></trkpt><trkpt lat="44.1699783" lon="12.0988933"><ele>34.6</ele><time>2026-04-09T14:04:27.212Z</time></trkpt><trkpt lat="44.1700683" lon="12.0989767"><ele>34.8</ele><time>2026-04-09T14:04:29.212Z</time></trkpt><trkpt lat="44.1701567" lon="12.0990767"><ele>35.0</ele><time>2026-04-09T14:04:31.212Z</time></trkpt><trkpt lat="44.170245" lon="12.099165"><ele>35.0</ele><time>2026-04-09T14:04:33.212Z</time></trkpt><trkpt lat="44.1703217" lon="12.0992367"><ele>35.0</ele><time>2026-04-09T14:04:35.212Z</time></trkpt><trkpt lat="44.1703983" lon="12.0993317"><ele>35.0</ele><time>2026-04-09T14:04:37.212Z</time></trkpt><trkpt lat="44.1704783" lon="12.0994367"><ele>35.0</ele><time>2026-04-09T14:04:39.212Z</time></trkpt><trkpt lat="44.17056" lon="12.0995317"><ele>35.0</ele><time>2026-04-09T14:04:41.212Z</time></trkpt><trkpt lat="44.170635" lon="12.0996367"><ele>35.2</ele><time>2026-04-09T14:04:43.212Z</time></trkpt><trkpt lat="44.1707133" lon="12.09974"><ele>35.4</ele><time>2026-04-09T14:04:45.212Z</time></trkpt><trkpt lat="44.170795" lon="12.0998467"><ele>35.6</ele><time>2026-04-09T14:04:47.212Z</time></trkpt><trkpt lat="44.17088" lon="12.09996"><ele>35.8</ele><time>2026-04-09T14:04:49.212Z</time></trkpt><trkpt lat="44.170955" lon="12.10007"><ele>36.0</ele><time>2026-04-09T14:04:51.212Z</time></trkpt><trkpt lat="44.171" lon="12.1001383"><ele>36.0</ele><time>2026-04-09T14:04:52.212Z</time></trkpt><trkpt lat="44.17104" lon="12.1002167"><ele>36.0</ele><time>2026-04-09T14:04:53.212Z</time></trkpt><trkpt lat="44.17111" lon="12.1003317"><ele>36.0</ele><time>2026-04-09T14:04:55.212Z</time></trkpt><trkpt lat="44.17119" lon="12.1004417"><ele>36.0</ele><time>2026-04-09T14:04:57.212Z</time></trkpt><trkpt lat="44.1712667" lon="12.1005617"><ele>36.0</ele><time>2026-04-09T14:04:59.212Z</time></trkpt><trkpt lat="44.1713533" lon="12.1006767"><ele>36.0</ele><time>2026-04-09T14:05:01.213Z</time></trkpt><trkpt lat="44.1714033" lon="12.1007333"><ele>36.0</ele><time>2026-04-09T14:05:02.212Z</time></trkpt><trkpt lat="44.1714867" lon="12.100835"><ele>36.0</ele><time>2026-04-09T14:05:04.212Z</time></trkpt><trkpt lat="44.171565" lon="12.1009217"><ele>36.0</ele><time>2026-04-09T14:05:06.212Z</time></trkpt><trkpt lat="44.1716433" lon="12.10102"><ele>36.0</ele><time>2026-04-09T14:05:08.212Z</time></trkpt><trkpt lat="44.1717183" lon="12.1011233"><ele>35.6</ele><time>2026-04-09T14:05:10.212Z</time></trkpt><trkpt lat="44.171795" lon="12.1012217"><ele>35.2</ele><time>2026-04-09T14:05:12.212Z</time></trkpt><trkpt lat="44.1718617" lon="12.1013283"><ele>34.8</ele><time>2026-04-09T14:05:14.212Z</time></trkpt><trkpt lat="44.171935" lon="12.10143"><ele>34.4</ele><time>2026-04-09T14:05:16.212Z</time></trkpt><trkpt lat="44.1720067" lon="12.10154"><ele>34.0</ele><time>2026-04-09T14:05:18.212Z</time></trkpt><trkpt lat="44.1720783" lon="12.10164"><ele>34.0</ele><time>2026-04-09T14:05:20.212Z</time></trkpt><trkpt lat="44.17216" lon="12.101745"><ele>34.0</ele><time>2026-04-09T14:05:22.212Z</time></trkpt><trkpt lat="44.1722417" lon="12.101855"><ele>34.0</ele><time>2026-04-09T14:05:24.212Z</time></trkpt><trkpt lat="44.1723183" lon="12.1019667"><ele>34.0</ele><time>2026-04-09T14:05:26.213Z</time></trkpt><trkpt lat="44.172395" lon="12.10207"><ele>34.0</ele><time>2026-04-09T14:05:28.212Z</time></trkpt><trkpt lat="44.1724717" lon="12.102185"><ele>33.75</ele><time>2026-04-09T14:05:30.212Z</time></trkpt><trkpt lat="44.1725467" lon="12.102285"><ele>33.5</ele><time>2026-04-09T14:05:32.212Z</time></trkpt><trkpt lat="44.1726283" lon="12.1024017"><ele>33.25</ele><time>2026-04-09T14:05:34.212Z</time></trkpt><trkpt lat="44.1727117" lon="12.1025117"><ele>33.0</ele><time>2026-04-09T14:05:36.212Z</time></trkpt><trkpt lat="44.1727967" lon="12.10262"><ele>33.0</ele><time>2026-04-09T14:05:38.212Z</time></trkpt><trkpt lat="44.172885" lon="12.10273"><ele>33.0</ele><time>2026-04-09T14:05:40.212Z</time></trkpt><trkpt lat="44.1729667" lon="12.1028333"><ele>33.0</ele><time>2026-04-09T14:05:42.212Z</time></trkpt><trkpt lat="44.173015" lon="12.10289"><ele>33.0</ele><time>2026-04-09T14:05:43.212Z</time></trkpt><trkpt lat="44.173105" lon="12.102995"><ele>33.0</ele><time>2026-04-09T14:05:45.212Z</time></trkpt><trkpt lat="44.1731883" lon="12.1030933"><ele>33.0</ele><time>2026-04-09T14:05:47.212Z</time></trkpt><trkpt lat="44.1732717" lon="12.1031933"><ele>33.0</ele><time>2026-04-09T14:05:49.212Z</time></trkpt><trkpt lat="44.1733533" lon="12.1032983"><ele>33.0</ele><time>2026-04-09T14:05:51.212Z</time></trkpt><trkpt lat="44.1734467" lon="12.1034083"><ele>33.0</ele><time>2026-04-09T14:05:53.212Z</time></trkpt><trkpt lat="44.1735333" lon="12.1035167"><ele>33.25</ele><time>2026-04-09T14:05:55.212Z</time></trkpt><trkpt lat="44.1736217" lon="12.1036283"><ele>33.5</ele><time>2026-04-09T14:05:57.212Z</time></trkpt><trkpt lat="44.173705" lon="12.103745"><ele>33.75</ele><time>2026-04-09T14:05:59.212Z</time></trkpt><trkpt lat="44.1737933" lon="12.10385"><ele>34.0</ele><time>2026-04-09T14:06:01.213Z</time></trkpt><trkpt lat="44.173875" lon="12.1039483"><ele>34.0</ele><time>2026-04-09T14:06:03.212Z</time></trkpt><trkpt lat="44.1739433" lon="12.1040667"><ele>34.0</ele><time>2026-04-09T14:06:05.212Z</time></trkpt><trkpt lat="44.1739817" lon="12.1042067"><ele>34.0</ele><time>2026-04-09T14:06:07.212Z</time></trkpt><trkpt lat="44.174" lon="12.1043333"><ele>34.0</ele><time>2026-04-09T14:06:09.212Z</time></trkpt><trkpt lat="44.1740217" lon="12.104455"><ele>34.0</ele><time>2026-04-09T14:06:11.212Z</time></trkpt><trkpt lat="44.17403" lon="12.1046017"><ele>33.8</ele><time>2026-04-09T14:06:13.212Z</time></trkpt><trkpt lat="44.1740583" lon="12.10475"><ele>33.599999999999994</ele><time>2026-04-09T14:06:15.212Z</time></trkpt><trkpt lat="44.1741033" lon="12.1048767"><ele>33.4</ele><time>2026-04-09T14:06:17.212Z</time></trkpt><trkpt lat="44.174155" lon="12.105"><ele>33.199999999999996</ele><time>2026-04-09T14:06:19.212Z</time></trkpt><trkpt lat="44.1742067" lon="12.1050683"><ele>33.0</ele><time>2026-04-09T14:06:23.665Z</time></trkpt><trkpt lat="44.17425" lon="12.10521"><ele>33.0</ele><time>2026-04-09T14:06:25.712Z</time></trkpt><trkpt lat="44.174335" lon="12.1053933"><ele>33.0</ele><time>2026-04-09T14:06:28.212Z</time></trkpt><trkpt lat="44.174375" lon="12.1054833"><ele>33.0</ele><time>2026-04-09T14:06:29.212Z</time></trkpt><trkpt lat="44.1744117" lon="12.105565"><ele>33.0</ele><time>2026-04-09T14:06:30.212Z</time></trkpt><trkpt lat="44.1744917" lon="12.1056983"><ele>33.0</ele><time>2026-04-09T14:06:32.212Z</time></trkpt><trkpt lat="44.1745567" lon="12.1058383"><ele>32.75</ele><time>2026-04-09T14:06:34.212Z</time></trkpt><trkpt lat="44.1746233" lon="12.105995"><ele>32.5</ele><time>2026-04-09T14:06:36.212Z</time></trkpt><trkpt lat="44.1746817" lon="12.1061417"><ele>32.25</ele><time>2026-04-09T14:06:38.212Z</time></trkpt><trkpt lat="44.1747383" lon="12.1062733"><ele>32.0</ele><time>2026-04-09T14:06:40.212Z</time></trkpt><trkpt lat="44.174795" lon="12.10641"><ele>32.0</ele><time>2026-04-09T14:06:42.212Z</time></trkpt><trkpt lat="44.1748533" lon="12.106535"><ele>32.0</ele><time>2026-04-09T14:06:44.212Z</time></trkpt><trkpt lat="44.1749117" lon="12.10668"><ele>32.0</ele><time>2026-04-09T14:06:46.212Z</time></trkpt><trkpt lat="44.1749617" lon="12.106805"><ele>32.0</ele><time>2026-04-09T14:06:48.212Z</time></trkpt><trkpt lat="44.1749983" lon="12.1069167"><ele>32.0</ele><time>2026-04-09T14:06:50.212Z</time></trkpt><trkpt lat="44.1750567" lon="12.1070133"><ele>32.33333333333333</ele><time>2026-04-09T14:06:52.212Z</time></trkpt><trkpt lat="44.1751" lon="12.1071233"><ele>32.666666666666664</ele><time>2026-04-09T14:06:54.212Z</time></trkpt><trkpt lat="44.175155" lon="12.107195"><ele>33.0</ele><time>2026-04-09T14:06:56.212Z</time></trkpt><trkpt lat="44.1752267" lon="12.10721"><ele>33.333333333333336</ele><time>2026-04-09T14:06:58.212Z</time></trkpt><trkpt lat="44.1753083" lon="12.1071483"><ele>33.66666666666667</ele><time>2026-04-09T14:07:00.212Z</time></trkpt><trkpt lat="44.1753633" lon="12.1070567"><ele>34.0</ele><time>2026-04-09T14:07:02.212Z</time></trkpt><trkpt lat="44.1754167" lon="12.106915"><ele>34.0</ele><time>2026-04-09T14:07:04.212Z</time></trkpt><trkpt lat="44.175445" lon="12.1068267"><ele>34.0</ele><time>2026-04-09T14:07:05.212Z</time></trkpt><trkpt lat="44.1755033" lon="12.10668"><ele>34.0</ele><time>2026-04-09T14:07:07.212Z</time></trkpt><trkpt lat="44.1755667" lon="12.10654"><ele>34.0</ele><time>2026-04-09T14:07:09.212Z</time></trkpt><trkpt lat="44.17563" lon="12.106405"><ele>34.0</ele><time>2026-04-09T14:07:11.212Z</time></trkpt><trkpt lat="44.1756867" lon="12.106255"><ele>33.6</ele><time>2026-04-09T14:07:13.212Z</time></trkpt><trkpt lat="44.1757533" lon="12.10612"><ele>33.2</ele><time>2026-04-09T14:07:15.212Z</time></trkpt><trkpt lat="44.1758233" lon="12.1060267"><ele>32.800000000000004</ele><time>2026-04-09T14:07:17.212Z</time></trkpt><trkpt lat="44.1759033" lon="12.106065"><ele>32.4</ele><time>2026-04-09T14:07:19.212Z</time></trkpt><trkpt lat="44.175995" lon="12.10615"><ele>32.0</ele><time>2026-04-09T14:07:21.212Z</time></trkpt><trkpt lat="44.17609" lon="12.1062417"><ele>32.0</ele><time>2026-04-09T14:07:23.212Z</time></trkpt><trkpt lat="44.1761933" lon="12.1063583"><ele>32.0</ele><time>2026-04-09T14:07:25.212Z</time></trkpt><trkpt lat="44.1762933" lon="12.1064733"><ele>32.0</ele><time>2026-04-09T14:07:27.212Z</time></trkpt><trkpt lat="44.1763467" lon="12.1065233"><ele>32.0</ele><time>2026-04-09T14:07:28.212Z</time></trkpt><trkpt lat="44.176455" lon="12.1066217"><ele>31.999999999999996</ele><time>2026-04-09T14:07:30.212Z</time></trkpt><trkpt lat="44.17651" lon="12.1066733"><ele>32.0</ele><time>2026-04-09T14:07:31.212Z</time></trkpt><trkpt lat="44.1766167" lon="12.10677"><ele>32.0</ele><time>2026-04-09T14:07:33.212Z</time></trkpt><trkpt lat="44.176675" lon="12.106825"><ele>32.0</ele><time>2026-04-09T14:07:34.212Z</time></trkpt><trkpt lat="44.176745" lon="12.1068767"><ele>31.999999999999996</ele><time>2026-04-09T14:07:35.212Z</time></trkpt><trkpt lat="44.176815" lon="12.1069367"><ele>32.0</ele><time>2026-04-09T14:07:36.212Z</time></trkpt><trkpt lat="44.17688" lon="12.1069933"><ele>32.0</ele><time>2026-04-09T14:07:37.212Z</time></trkpt><trkpt lat="44.1769367" lon="12.1070483"><ele>32.0</ele><time>2026-04-09T14:07:38.212Z</time></trkpt><trkpt lat="44.1769917" lon="12.1071033"><ele>32.0</ele><time>2026-04-09T14:07:39.212Z</time></trkpt><trkpt lat="44.1770483" lon="12.10715"><ele>32.0</ele><time>2026-04-09T14:07:40.212Z</time></trkpt><trkpt lat="44.177155" lon="12.10725"><ele>32.0</ele><time>2026-04-09T14:07:42.212Z</time></trkpt><trkpt lat="44.1772583" lon="12.1073433"><ele>31.999999999999996</ele><time>2026-04-09T14:07:44.212Z</time></trkpt><trkpt lat="44.1773133" lon="12.1073967"><ele>32.0</ele><time>2026-04-09T14:07:45.212Z</time></trkpt><trkpt lat="44.1773667" lon="12.107455"><ele>32.0</ele><time>2026-04-09T14:07:46.212Z</time></trkpt><trkpt lat="44.1774733" lon="12.10756"><ele>32.0</ele><time>2026-04-09T14:07:48.212Z</time></trkpt><trkpt lat="44.1775283" lon="12.107615"><ele>31.999999999999996</ele><time>2026-04-09T14:07:49.212Z</time></trkpt><trkpt lat="44.1775817" lon="12.1076667"><ele>32.0</ele><time>2026-04-09T14:07:50.212Z</time></trkpt><trkpt lat="44.1776433" lon="12.1077183"><ele>31.833333333333332</ele><time>2026-04-09T14:07:51.212Z</time></trkpt><trkpt lat="44.1776967" lon="12.10777"><ele>31.666666666666664</ele><time>2026-04-09T14:07:52.212Z</time></trkpt><trkpt lat="44.1777483" lon="12.1078217"><ele>31.5</ele><time>2026-04-09T14:07:53.212Z</time></trkpt><trkpt lat="44.1778033" lon="12.1078717"><ele>31.333333333333336</ele><time>2026-04-09T14:07:54.212Z</time></trkpt><trkpt lat="44.1778567" lon="12.10793"><ele>31.166666666666668</ele><time>2026-04-09T14:07:55.212Z</time></trkpt><trkpt lat="44.1779117" lon="12.1079783"><ele>31.0</ele><time>2026-04-09T14:07:56.212Z</time></trkpt><trkpt lat="44.1780183" lon="12.10807"><ele>31.0</ele><time>2026-04-09T14:07:58.212Z</time></trkpt><trkpt lat="44.178115" lon="12.1081633"><ele>31.0</ele><time>2026-04-09T14:08:00.212Z</time></trkpt><trkpt lat="44.1782217" lon="12.1082583"><ele>31.0</ele><time>2026-04-09T14:08:02.212Z</time></trkpt><trkpt lat="44.1783283" lon="12.1083567"><ele>31.0</ele><time>2026-04-09T14:08:04.212Z</time></trkpt><trkpt lat="44.178385" lon="12.108405"><ele>31.0</ele><time>2026-04-09T14:08:05.212Z</time></trkpt><trkpt lat="44.1784433" lon="12.10846"><ele>30.857142857142858</ele><time>2026-04-09T14:08:06.212Z</time></trkpt><trkpt lat="44.1785" lon="12.1085167"><ele>30.714285714285715</ele><time>2026-04-09T14:08:07.212Z</time></trkpt><trkpt lat="44.1785517" lon="12.108575"><ele>30.571428571428573</ele><time>2026-04-09T14:08:08.212Z</time></trkpt><trkpt lat="44.1786033" lon="12.1086267"><ele>30.42857142857143</ele><time>2026-04-09T14:08:09.212Z</time></trkpt><trkpt lat="44.1786583" lon="12.108675"><ele>30.285714285714285</ele><time>2026-04-09T14:08:10.212Z</time></trkpt><trkpt lat="44.1787133" lon="12.1087233"><ele>30.142857142857146</ele><time>2026-04-09T14:08:11.212Z</time></trkpt><trkpt lat="44.1787717" lon="12.1087733"><ele>30.0</ele><time>2026-04-09T14:08:12.212Z</time></trkpt><trkpt lat="44.178825" lon="12.1088283"><ele>30.0</ele><time>2026-04-09T14:08:13.212Z</time></trkpt><trkpt lat="44.1789317" lon="12.1089133"><ele>30.0</ele><time>2026-04-09T14:08:15.212Z</time></trkpt><trkpt lat="44.1789833" lon="12.10897"><ele>30.0</ele><time>2026-04-09T14:08:16.212Z</time></trkpt><trkpt lat="44.1790367" lon="12.10902"><ele>30.0</ele><time>2026-04-09T14:08:17.212Z</time></trkpt><trkpt lat="44.179135" lon="12.109125"><ele>30.0</ele><time>2026-04-09T14:08:19.212Z</time></trkpt><trkpt lat="44.1791867" lon="12.10918"><ele>30.0</ele><time>2026-04-09T14:08:20.212Z</time></trkpt><trkpt lat="44.1792433" lon="12.1092283"><ele>30.25</ele><time>2026-04-09T14:08:21.212Z</time></trkpt><trkpt lat="44.1793483" lon="12.1093217"><ele>30.5</ele><time>2026-04-09T14:08:23.212Z</time></trkpt><trkpt lat="44.1794433" lon="12.109415"><ele>30.75</ele><time>2026-04-09T14:08:25.212Z</time></trkpt><trkpt lat="44.1795417" lon="12.1095067"><ele>31.0</ele><time>2026-04-09T14:08:27.212Z</time></trkpt><trkpt lat="44.179635" lon="12.109605"><ele>31.0</ele><time>2026-04-09T14:08:29.212Z</time></trkpt><trkpt lat="44.179735" lon="12.109695"><ele>31.0</ele><time>2026-04-09T14:08:31.212Z</time></trkpt><trkpt lat="44.1798367" lon="12.1097867"><ele>31.0</ele><time>2026-04-09T14:08:33.212Z</time></trkpt><trkpt lat="44.1799417" lon="12.1098717"><ele>31.0</ele><time>2026-04-09T14:08:35.212Z</time></trkpt><trkpt lat="44.1800467" lon="12.1099517"><ele>30.833333333333336</ele><time>2026-04-09T14:08:37.212Z</time></trkpt><trkpt lat="44.180105" lon="12.1099933"><ele>30.666666666666668</ele><time>2026-04-09T14:08:38.212Z</time></trkpt><trkpt lat="44.1801633" lon="12.1100367"><ele>30.5</ele><time>2026-04-09T14:08:39.212Z</time></trkpt><trkpt lat="44.18022" lon="12.11008"><ele>30.333333333333336</ele><time>2026-04-09T14:08:40.212Z</time></trkpt><trkpt lat="44.180275" lon="12.1101283"><ele>30.166666666666668</ele><time>2026-04-09T14:08:41.213Z</time></trkpt><trkpt lat="44.1803817" lon="12.1102083"><ele>30.0</ele><time>2026-04-09T14:08:43.212Z</time></trkpt><trkpt lat="44.1804783" lon="12.1102867"><ele>30.0</ele><time>2026-04-09T14:08:45.212Z</time></trkpt><trkpt lat="44.18057" lon="12.110365"><ele>30.0</ele><time>2026-04-09T14:08:47.212Z</time></trkpt><trkpt lat="44.1806783" lon="12.1104517"><ele>30.0</ele><time>2026-04-09T14:08:49.212Z</time></trkpt><trkpt lat="44.180785" lon="12.1105367"><ele>30.0</ele><time>2026-04-09T14:08:51.212Z</time></trkpt><trkpt lat="44.1809" lon="12.1106133"><ele>29.75</ele><time>2026-04-09T14:08:53.212Z</time></trkpt><trkpt lat="44.1810033" lon="12.1106933"><ele>29.5</ele><time>2026-04-09T14:08:55.212Z</time></trkpt><trkpt lat="44.18109" lon="12.1107683"><ele>29.25</ele><time>2026-04-09T14:08:57.212Z</time></trkpt><trkpt lat="44.18119" lon="12.1108467"><ele>29.0</ele><time>2026-04-09T14:08:59.212Z</time></trkpt><trkpt lat="44.1813017" lon="12.1109267"><ele>28.999999999999996</ele><time>2026-04-09T14:09:01.212Z</time></trkpt><trkpt lat="44.1814083" lon="12.1110033"><ele>29.0</ele><time>2026-04-09T14:09:03.212Z</time></trkpt><trkpt lat="44.181465" lon="12.111045"><ele>29.0</ele><time>2026-04-09T14:09:04.212Z</time></trkpt><trkpt lat="44.1815233" lon="12.1110833"><ele>29.0</ele><time>2026-04-09T14:09:05.212Z</time></trkpt><trkpt lat="44.1815817" lon="12.1111217"><ele>28.999999999999996</ele><time>2026-04-09T14:09:06.212Z</time></trkpt><trkpt lat="44.18169" lon="12.1111983"><ele>29.0</ele><time>2026-04-09T14:09:08.212Z</time></trkpt><trkpt lat="44.18179" lon="12.1112717"><ele>28.833333333333332</ele><time>2026-04-09T14:09:10.212Z</time></trkpt><trkpt lat="44.1818517" lon="12.1113267"><ele>28.666666666666664</ele><time>2026-04-09T14:09:11.212Z</time></trkpt><trkpt lat="44.1819067" lon="12.111375"><ele>28.5</ele><time>2026-04-09T14:09:12.212Z</time></trkpt><trkpt lat="44.1820083" lon="12.111475"><ele>28.333333333333336</ele><time>2026-04-09T14:09:14.212Z</time></trkpt><trkpt lat="44.182065" lon="12.1115183"><ele>28.166666666666668</ele><time>2026-04-09T14:09:15.212Z</time></trkpt><trkpt lat="44.182125" lon="12.11156"><ele>28.0</ele><time>2026-04-09T14:09:16.212Z</time></trkpt><trkpt lat="44.1821867" lon="12.1116033"><ele>28.0</ele><time>2026-04-09T14:09:17.212Z</time></trkpt><trkpt lat="44.1822483" lon="12.1116467"><ele>27.999999999999996</ele><time>2026-04-09T14:09:18.212Z</time></trkpt><trkpt lat="44.182305" lon="12.1116867"><ele>27.999999999999996</ele><time>2026-04-09T14:09:19.212Z</time></trkpt><trkpt lat="44.1824083" lon="12.1117767"><ele>28.0</ele><time>2026-04-09T14:09:21.212Z</time></trkpt><trkpt lat="44.1825117" lon="12.1118517"><ele>28.0</ele><time>2026-04-09T14:09:23.212Z</time></trkpt><trkpt lat="44.182615" lon="12.1119183"><ele>27.799999999999997</ele><time>2026-04-09T14:09:25.213Z</time></trkpt><trkpt lat="44.1826733" lon="12.1119517"><ele>27.599999999999998</ele><time>2026-04-09T14:09:26.212Z</time></trkpt><trkpt lat="44.1827783" lon="12.1120317"><ele>27.400000000000002</ele><time>2026-04-09T14:09:28.212Z</time></trkpt><trkpt lat="44.1828317" lon="12.1120783"><ele>27.200000000000003</ele><time>2026-04-09T14:09:29.212Z</time></trkpt><trkpt lat="44.1829367" lon="12.1121583"><ele>27.0</ele><time>2026-04-09T14:09:31.212Z</time></trkpt><trkpt lat="44.1830267" lon="12.11223"><ele>27.0</ele><time>2026-04-09T14:09:33.212Z</time></trkpt><trkpt lat="44.1831217" lon="12.1123017"><ele>27.000000000000004</ele><time>2026-04-09T14:09:35.212Z</time></trkpt><trkpt lat="44.1832367" lon="12.1123867"><ele>27.000000000000004</ele><time>2026-04-09T14:09:37.212Z</time></trkpt><trkpt lat="44.183295" lon="12.11243"><ele>27.0</ele><time>2026-04-09T14:09:38.212Z</time></trkpt><trkpt lat="44.1833517" lon="12.1124733"><ele>27.0</ele><time>2026-04-09T14:09:39.212Z</time></trkpt><trkpt lat="44.1834583" lon="12.11255"><ele>27.0</ele><time>2026-04-09T14:09:41.212Z</time></trkpt><trkpt lat="44.18356" lon="12.1126167"><ele>27.000000000000004</ele><time>2026-04-09T14:09:43.212Z</time></trkpt><trkpt lat="44.183655" lon="12.1126817"><ele>27.000000000000004</ele><time>2026-04-09T14:09:45.212Z</time></trkpt><trkpt lat="44.1837467" lon="12.1127683"><ele>27.0</ele><time>2026-04-09T14:09:47.212Z</time></trkpt><trkpt lat="44.1838333" lon="12.1128517"><ele>27.0</ele><time>2026-04-09T14:09:49.212Z</time></trkpt><trkpt lat="44.18391" lon="12.1129383"><ele>27.0</ele><time>2026-04-09T14:09:51.212Z</time></trkpt><trkpt lat="44.1839783" lon="12.1130233"><ele>27.000000000000004</ele><time>2026-04-09T14:09:53.212Z</time></trkpt><trkpt lat="44.18405" lon="12.1131283"><ele>27.000000000000004</ele><time>2026-04-09T14:09:55.212Z</time></trkpt><trkpt lat="44.1841267" lon="12.1132183"><ele>27.0</ele><time>2026-04-09T14:09:57.212Z</time></trkpt><trkpt lat="44.1842433" lon="12.1132383"><ele>27.0</ele><time>2026-04-09T14:09:59.212Z</time></trkpt><trkpt lat="44.1843117" lon="12.1132367"><ele>27.400000000000002</ele><time>2026-04-09T14:10:00.212Z</time></trkpt><trkpt lat="44.184425" lon="12.1133033"><ele>27.800000000000004</ele><time>2026-04-09T14:10:02.212Z</time></trkpt><trkpt lat="44.1845167" lon="12.11339"><ele>28.2</ele><time>2026-04-09T14:10:04.212Z</time></trkpt><trkpt lat="44.1846017" lon="12.1134617"><ele>28.6</ele><time>2026-04-09T14:10:06.212Z</time></trkpt><trkpt lat="44.1846983" lon="12.1135383"><ele>29.0</ele><time>2026-04-09T14:10:08.212Z</time></trkpt><trkpt lat="44.18479" lon="12.11362"><ele>28.799999999999997</ele><time>2026-04-09T14:10:10.212Z</time></trkpt><trkpt lat="44.1848817" lon="12.11369"><ele>28.599999999999998</ele><time>2026-04-09T14:10:12.212Z</time></trkpt><trkpt lat="44.1849617" lon="12.1137783"><ele>28.4</ele><time>2026-04-09T14:10:14.212Z</time></trkpt><trkpt lat="44.1849883" lon="12.1138917"><ele>28.2</ele><time>2026-04-09T14:10:16.212Z</time></trkpt><trkpt lat="44.1849783" lon="12.11402"><ele>28.0</ele><time>2026-04-09T14:10:18.212Z</time></trkpt><trkpt lat="44.184965" lon="12.1141317"><ele>28.0</ele><time>2026-04-09T14:10:20.212Z</time></trkpt><trkpt lat="44.1849217" lon="12.1142183"><ele>28.0</ele><time>2026-04-09T14:10:22.212Z</time></trkpt><trkpt lat="44.1848817" lon="12.1142983"><ele>28.0</ele><time>2026-04-09T14:10:24.212Z</time></trkpt><trkpt lat="44.18489" lon="12.1144"><ele>28.0</ele><time>2026-04-09T14:10:27.212Z</time></trkpt><trkpt lat="44.1849483" lon="12.1144333"><ele>28.0</ele><time>2026-04-09T14:10:30.212Z</time></trkpt><trkpt lat="44.1850133" lon="12.1144933"><ele>28.0</ele><time>2026-04-09T14:10:33.212Z</time></trkpt><trkpt lat="44.18505" lon="12.1146"><ele>28.0</ele><time>2026-04-09T14:10:36.212Z</time></trkpt><trkpt lat="44.1850217" lon="12.1147017"><ele>28.0</ele><time>2026-04-09T14:10:39.212Z</time></trkpt><trkpt lat="44.185005" lon="12.1147983"><ele>28.0</ele><time>2026-04-09T14:10:42.213Z</time></trkpt></trkseg></trk></gpx>